# Wetter Temperatur Luftdruck Luftfeuchtigkeit Sichtweite Windgeschwindigkeit Windrichtung Zeit
1 Clouds 18 1023 82 10000 6.7 190 10:39 08.04.2020
2 Clouds 18 1022 77 10000 4.6 170 10:20 08.04.2020
3 Clouds 18 1022 72 10000 4.6 170 09:57 08.04.2020
4 Clouds 18 1022 72 10000 4.6 170 09:39 08.04.2020
5 Clouds 18 1022 77 10000 5.7 170 09:18 08.04.2020
6 Clouds 18 1022 77 10000 5.7 170 09:18 08.04.2020
7 Clouds 18 1022 77 10000 5.7 170 09:18 08.04.2020
8 Clouds 18 1022 77 10000 5.7 170 08:56 08.04.2020
9 Clouds 18 1022 77 10000 5.7 180 08:38 08.04.2020
10 Clouds 18 1022 77 10000 6.7 170 08:20 08.04.2020
11 Clouds 19 1022 72 10000 5.7 170 07:42 08.04.2020
12 Rain 18 1021 77 10000 6.7 170 07:20 08.04.2020
13 Rain 18 1021 68 10000 5.7 140 06:23 08.04.2020
14 Clouds 18 1022 77 10000 5.1 170 04:54 08.04.2020
15 Clouds 18 1022 72 10000 2.6 120 02:50 08.04.2020
16 Clouds 18 1022 72 10000 3.1 130 02:21 08.04.2020
17 Clouds 17 1022 77 10000 4.1 140 01:56 08.04.2020
18 Clouds 17 1022 82 10000 5.7 140 01:27 08.04.2020
19 Rain 16 1022 82 10000 7.2 150 00:45 08.04.2020
20 Rain 16 1021 88 10000 7.7 160 00:25 08.04.2020
21 Drizzle 16 1021 88 10000 6.7 160 23:41 07.04.2020
22 Drizzle 15 1021 88 10000 5.1 150 23:23 07.04.2020
23 Rain 15 1020 88 10000 7.7 160 22:59 07.04.2020
24 Clouds 15 1020 100 10000 1.01 143 22:40 07.04.2020
25 Clouds 15 1020 100 10000 1.01 143 22:21 07.04.2020
26 Clouds 15 1020 100 10000 1.01 143 22:00 07.04.2020
27 Clouds 15 1020 100 10000 1.01 143 21:41 07.04.2020
28 Clouds 15 1020 93 10000 0.95 232 21:21 07.04.2020
29 Clouds 15 1020 100 10000 0.95 232 21:21 07.04.2020
30 Clouds 15 1020 93 10000 0.95 232 20:58 07.04.2020
31 Clouds 15 1020 93 10000 0.95 232 20:39 07.04.2020
32 Clouds 15 1020 93 10000 1.5 280 20:21 07.04.2020
33 Clouds 15 1019 93 10000 3.1 220 19:57 07.04.2020
34 Clouds 15 1020 100 10000 1.5 290 19:37 07.04.2020
35 Rain 15 1020 93 10000 2.6 140 19:19 07.04.2020
36 Rain 15 1020 93 10000 2.6 140 18:58 07.04.2020
37 Rain 15 1020 93 10000 4.1 110 18:39 07.04.2020
38 Rain 15 1020 93 10000 4.1 110 18:20 07.04.2020
39 Rain 15 1020 93 9000 1.5 330 17:46 07.04.2020
40 Drizzle 15 1020 88 7000 5.1 10 17:24 07.04.2020
41 Rain 15 1020 88 8000 4.1 330 16:54 07.04.2020
42 Rain 15 1020 88 8000 4.1 330 16:36 07.04.2020
43 Rain 15 1020 88 10000 5.1 340 16:18 07.04.2020
44 Rain 15 1021 100 10000 2.1 270 15:42 07.04.2020
45 Rain 15 1021 100 10000 2.1 270 15:23 07.04.2020
46 Rain 15 1021 93 10000 1.5 240 14:42 07.04.2020
47 Rain 15 1021 87 10000 0.5 270 14:23 07.04.2020
48 Clouds 15 1021 87 10000 0.5 270 13:57 07.04.2020
49 Rain 15 1021 93 10000 1.55 125 13:39 07.04.2020
50 Clouds 15 1020 72 10000 3.6 150 13:19 07.04.2020
51 Clouds 16 1021 72 10000 3.1 160 12:56 07.04.2020
52 Clouds 16 1021 72 10000 3.1 160 12:37 07.04.2020
53 Clouds 16 1021 82 10000 3.04 137 12:18 07.04.2020
54 Clouds 17 1021 77 10000 1.5 90 11:44 07.04.2020
55 Clouds 17 1021 77 10000 1.5 90 11:26 07.04.2020
56 Clouds 18 1020 68 10000 3.6 150 10:59 07.04.2020
57 Clouds 18 1020 68 10000 3.6 150 10:39 07.04.2020
58 Clouds 18 1020 63 10000 4.1 160 10:19 07.04.2020
59 Clouds 19 1020 63 10000 4.1 150 09:46 07.04.2020
60 Clouds 19 1020 60 10000 4.6 150 09:20 07.04.2020
61 Clouds 19 1020 60 10000 4.6 150 08:59 07.04.2020
62 Clouds 19 1020 60 10000 4.6 150 08:39 07.04.2020
63 Clouds 20 1020 64 10000 5.1 160 08:19 07.04.2020
64 Clouds 20 1020 56 10000 4.6 140 07:44 07.04.2020
65 Clouds 20 1020 64 10000 5.1 140 07:26 07.04.2020
66 Clouds 20 1020 68 10000 5.7 180 06:52 07.04.2020
67 Clouds 20 1021 63 10000 5.7 160 06:25 07.04.2020
68 Clouds 20 1021 72 10000 6.2 170 05:50 07.04.2020
69 Clouds 20 1021 72 10000 6.2 170 05:24 07.04.2020
70 Rain 20 1022 72 10000 4.6 190 03:34 07.04.2020
71 Rain 19 1022 72 10000 6.7 190 02:59 07.04.2020
72 Rain 19 1022 72 10000 7.7 180 02:35 07.04.2020
73 Rain 18 1022 77 10000 5.7 190 01:34 07.04.2020
74 Rain 17 1022 77 10000 5.1 200 00:53 07.04.2020
75 Rain 17 1022 77 10000 6.7 180 00:25 07.04.2020
76 Rain 16 1021 82 10000 4.6 210 23:41 06.04.2020
77 Clouds 15 1022 82 10000 1.5 220 23:21 06.04.2020
78 Clouds 15 1021 82 10000 2.1 230 22:54 06.04.2020
79 Rain 15 1021 82 10000 2.1 230 22:36 06.04.2020
80 Rain 15 1021 82 10000 2.1 230 22:36 06.04.2020
81 Rain 15 1021 82 10000 2.1 230 22:18 06.04.2020
82 Rain 15 1021 82 10000 2.1 230 21:42 06.04.2020
83 Rain 15 1021 82 10000 2.1 210 21:20 06.04.2020
84 Rain 15 1021 82 10000 2.1 210 20:57 06.04.2020
85 Rain 15 1021 82 10000 2.6 230 20:39 06.04.2020
86 Rain 15 1021 93 10000 2.1 240 20:21 06.04.2020
87 Rain 15 1021 93 10000 2.1 240 19:57 06.04.2020
88 Rain 15 1021 87 10000 1.5 210 19:38 06.04.2020
89 Clouds 15 1021 82 10000 2.6 210 19:20 06.04.2020
90 Clouds 16 1021 87 10000 2.6 200 18:43 06.04.2020
91 Clouds 16 1021 87 10000 2.6 210 18:23 06.04.2020
92 Clouds 16 1021 87 10000 2.6 210 17:58 06.04.2020
93 Clouds 16 1021 87 10000 7.2 180 17:39 06.04.2020
94 Rain 16 1021 88 10000 8.2 170 17:18 06.04.2020
95 Rain 16 1021 88 10000 4.1 160 16:49 06.04.2020
96 Rain 16 1021 88 10000 4.1 160 16:30 06.04.2020
97 Clouds 17 1021 82 10000 6.2 200 14:57 06.04.2020
98 Clouds 17 1021 82 10000 6.2 200 14:57 06.04.2020
99 Clouds 17 1021 82 10000 6.2 200 14:57 06.04.2020
100 Clouds 17 1021 82 10000 6.2 200 14:57 06.04.2020
101 Rain 17 1020 82 10000 6.2 140 13:45 06.04.2020
102 Rain 17 1020 88 10000 5.7 130 13:22 06.04.2020
103 Rain 17 1020 88 10000 6.7 160 12:47 06.04.2020
104 Rain 17 1019 72 10000 5.1 190 12:20 06.04.2020
105 Clouds 18 1019 72 10000 5.1 140 11:43 06.04.2020
106 Clouds 18 1019 72 10000 5.1 140 11:25 06.04.2020
107 Clouds 18 1019 72 10000 5.1 140 11:25 06.04.2020
108 Clouds 18 1019 72 10000 5.1 140 11:25 06.04.2020
109 Clouds 18 1019 72 10000 5.1 140 11:25 06.04.2020
110 Clouds 18 1019 72 10000 5.1 140 11:25 06.04.2020
111 Clouds 18 1018 77 10000 7.2 140 10:43 06.04.2020
112 Clouds 18 1018 77 10000 7.2 140 10:43 06.04.2020
113 Clouds 18 1018 77 10000 7.2 140 10:43 06.04.2020
114 Clouds 18 1018 77 10000 7.2 140 10:43 06.04.2020
115 Clouds 18 1018 77 10000 7.2 140 10:43 06.04.2020
116 Clouds 18 1018 77 10000 7.2 140 10:21 06.04.2020
117 Clouds 18 1018 77 10000 7.2 140 10:21 06.04.2020
118 Clouds 18 1018 77 10000 7.2 140 10:21 06.04.2020
119 Clouds 18 1018 77 10000 7.2 140 10:21 06.04.2020
120 Clouds 18 1018 77 10000 7.2 140 10:21 06.04.2020
121 Clouds 18 1018 72 10000 6.2 140 09:41 06.04.2020
122 Clouds 19 1018 77 10000 7.2 150 09:41 06.04.2020
123 Clouds 19 1018 77 10000 7.2 150 09:41 06.04.2020
124 Clouds 19 1018 77 10000 7.2 150 09:20 06.04.2020
125 Clouds 20 1018 72 10000 7.2 150 08:49 06.04.2020
126 Clouds 21 1017 77 10000 6.7 150 08:29 06.04.2020
127 Clouds 21 1017 77 10000 6.7 150 08:29 06.04.2020
128 Clouds 21 1017 77 10000 6.7 150 08:29 06.04.2020
129 Clouds 21 1017 77 10000 6.7 150 08:29 06.04.2020
130 Clouds 20 1017 77 10000 6.7 150 08:29 06.04.2020
131 Clouds 22 1017 68 10000 7.7 170 07:23 06.04.2020
132 Clouds 23 1016 53 10000 5.7 150 06:28 06.04.2020
133 Clouds 23 1016 53 10000 4.6 140 05:57 06.04.2020
134 Clouds 23 1016 53 10000 4.6 140 05:57 06.04.2020
135 Clouds 23 1017 53 10000 5.7 150 04:18 06.04.2020
136 Clouds 22 1018 46 10000 5.7 240 02:54 06.04.2020
137 Clouds 20 1018 49 10000 4.1 260 01:57 06.04.2020
138 Clouds 19 1018 52 10000 2.1 230 00:59 06.04.2020
139 Clouds 16 1018 59 10000 2.6 240 00:29 06.04.2020
140 Clouds 15 1018 63 10000 6.7 240 23:56 05.04.2020
141 Clear 14 1017 62 10000 3.6 250 23:38 05.04.2020
142 Clear 14 1017 62 10000 3.6 250 23:19 05.04.2020
143 Clear 13 1016 62 10000 2.6 260 22:54 05.04.2020
144 Clear 13 1016 67 10000 3.6 270 22:36 05.04.2020
145 Clear 13 1016 62 10000 3.6 280 22:18 05.04.2020
146 Clear 13 1015 59 10000 2.1 310 21:43 05.04.2020
147 Clear 13 1016 76 10000 3.1 320 21:43 05.04.2020
148 Clear 13 1015 59 10000 2.1 310 21:43 05.04.2020
149 Clear 13 1016 76 10000 3.1 320 21:23 05.04.2020
150 Clear 14 1015 76 10000 3.1 320 20:25 05.04.2020
151 Clear 14 1015 55 10000 5.1 310 19:43 05.04.2020
152 Clear 14 1015 55 10000 5.1 310 19:24 05.04.2020
153 Clear 14 1015 55 10000 5.1 300 18:49 05.04.2020
154 Clear 14 1015 55 10000 5.1 300 18:49 05.04.2020
155 Clear 14 1016 76 10000 3.1 350 18:20 05.04.2020
156 Clear 14 1016 81 10000 2.6 340 17:49 05.04.2020
157 Clear 14 1016 81 10000 2.6 340 17:49 05.04.2020
158 Clear 14 1016 71 10000 4.1 330 17:49 05.04.2020
159 Clear 14 1016 71 10000 4.1 330 17:49 05.04.2020
160 Clear 14 1016 71 10000 4.1 330 17:49 05.04.2020
161 Clear 14 1016 81 10000 2.6 340 17:22 05.04.2020
162 Clear 15 1016 51 10000 4.6 290 16:47 05.04.2020
163 Clear 15 1016 51 10000 4.6 290 16:19 05.04.2020
164 Clear 16 1016 51 10000 4.6 280 15:46 05.04.2020
165 Clear 16 1016 51 10000 6.7 260 15:28 05.04.2020
166 Clear 16 1016 51 10000 6.7 260 15:28 05.04.2020
167 Clear 16 1016 48 10000 4.1 270 14:48 05.04.2020
168 Clear 16 1016 48 10000 4.1 340 14:48 05.04.2020
169 Clear 16 1016 48 10000 4.1 340 14:48 05.04.2020
170 Clear 16 1016 48 10000 4.1 340 14:48 05.04.2020
171 Clear 17 1015 48 10000 4.6 260 13:59 05.04.2020
172 Clear 17 1015 48 10000 3.6 250 13:40 05.04.2020
173 Clear 17 1015 48 10000 3.6 250 13:40 05.04.2020
174 Clear 17 1015 48 10000 3.6 250 13:40 05.04.2020
175 Clear 17 1015 48 10000 3.6 250 13:40 05.04.2020
176 Clear 17 1015 48 10000 3.6 250 13:40 05.04.2020
177 Clear 18 1014 40 10000 5.7 280 12:21 05.04.2020
178 Clear 19 1014 45 10000 6.2 270 11:40 05.04.2020
179 Clear 19 1014 45 10000 6.2 270 11:20 05.04.2020
180 Clear 19 1013 35 10000 5.1 280 10:47 05.04.2020
181 Clear 20 1013 48 10000 3.6 240 10:23 05.04.2020
182 Clear 21 1012 33 10000 6.2 270 09:55 05.04.2020
183 Clear 22 1011 31 10000 6.7 250 09:27 05.04.2020
184 Clear 22 1011 31 10000 6.7 250 09:27 05.04.2020
185 Clear 23 1011 29 10000 7.2 270 08:34 05.04.2020
186 Clear 23 1011 29 10000 7.2 270 08:34 05.04.2020
187 Clear 24 1011 27 10000 6.7 300 07:21 05.04.2020
188 Clear 24 1011 27 10000 6.7 300 07:20 05.04.2020
189 Clear 23 1012 31 10000 7.7 270 04:32 05.04.2020
190 Clear 22 1013 35 10000 7.2 290 03:28 05.04.2020
191 Clouds 21 1013 35 10000 5.7 310 02:46 05.04.2020
192 Clouds 20 1014 42 10000 6.7 310 01:45 05.04.2020
193 Clouds 19 1014 45 10000 7.2 320 01:23 05.04.2020
194 Clouds 18 1014 48 10000 4.6 320 00:42 05.04.2020
195 Clouds 17 1014 48 10000 4.6 320 00:21 05.04.2020
196 Clouds 16 1013 55 10000 5.1 310 23:42 04.04.2020
197 Clouds 15 1013 55 10000 5.1 310 23:22 04.04.2020
198 Clouds 14 1013 58 10000 4.6 310 22:57 04.04.2020
199 Clouds 13 1012 58 10000 5.1 310 22:39 04.04.2020
200 Clear 13 1013 66 10000 3.6 320 22:20 04.04.2020
201 Clear 13 1012 67 10000 4.6 350 21:58 04.04.2020
202 Clear 13 1011 62 10000 3.6 360 21:39 04.04.2020
203 Clear 13 1011 62 10000 3.6 360 21:19 04.04.2020
204 Clear 13 1011 62 10000 2.6 350 20:56 04.04.2020
205 Clear 13 1011 62 10000 2.6 320 20:37 04.04.2020
206 Clear 13 1011 62 10000 1.5 340 20:19 04.04.2020
207 Clear 13 1011 62 10000 1.5 340 19:55 04.04.2020
208 Clear 13 1011 58 10000 2.6 350 19:36 04.04.2020
209 Clear 13 1011 58 10000 2.6 350 19:36 04.04.2020
210 Clear 14 1010 58 10000 3.1 350 19:18 04.04.2020
211 Clear 14 1010 58 10000 3.1 350 18:55 04.04.2020
212 Clear 14 1011 55 10000 4.1 330 18:37 04.04.2020
213 Clear 14 1010 55 10000 4.1 330 18:18 04.04.2020
214 Clear 15 1010 55 10000 3.6 350 17:40 04.04.2020
215 Clear 15 1010 59 10000 3.1 10 17:20 04.04.2020
216 Clear 15 1010 59 10000 3.1 10 16:55 04.04.2020
217 Clear 15 1010 51 10000 3.6 320 16:37 04.04.2020
218 Clear 15 1010 55 10000 4.1 310 16:18 04.04.2020
219 Clear 16 1010 51 10000 2.6 270 15:40 04.04.2020
220 Clear 16 1010 51 10000 2.6 270 15:22 04.04.2020
221 Clear 17 1009 48 10000 2.6 270 14:57 04.04.2020
222 Clear 17 1009 48 10000 2.6 270 14:57 04.04.2020
223 Clear 17 1009 48 10000 3.1 280 14:39 04.04.2020
224 Clear 17 1009 42 10000 4.1 280 14:20 04.04.2020
225 Clear 17 1009 42 10000 4.1 280 13:55 04.04.2020
226 Clear 18 1008 42 10000 6.7 300 13:37 04.04.2020
227 Clear 18 1008 42 10000 6.7 300 13:18 04.04.2020
228 Clear 18 1008 52 10000 3.6 300 12:44 04.04.2020
229 Clear 18 1008 52 10000 3.6 300 12:23 04.04.2020
230 Clear 19 1007 37 10000 8.2 300 11:58 04.04.2020
231 Clear 19 1007 48 10000 5.7 290 11:38 04.04.2020
232 Clear 19 1007 48 10000 5.7 290 11:19 04.04.2020
233 Clear 20 1005 32 10000 9.3 300 10:55 04.04.2020
234 Clear 20 1006 42 10000 8.2 290 10:37 04.04.2020
235 Clear 20 1006 42 10000 8.2 290 10:18 04.04.2020
236 Clear 21 1004 30 10000 10.8 290 09:54 04.04.2020
237 Clear 21 1004 40 10000 6.7 270 09:36 04.04.2020
238 Clouds 22 1004 38 10000 8.7 290 09:18 04.04.2020
239 Clear 23 1002 29 10000 10.8 290 08:41 04.04.2020
240 Clear 23 1002 29 10000 10.8 290 08:20 04.04.2020
241 Clouds 24 1001 25 10000 12.3 280 07:44 04.04.2020
242 Clouds 24 1001 25 10000 12.3 280 07:26 04.04.2020
243 Clear 24 1001 29 10000 12.9 280 06:51 04.04.2020
244 Clouds 24 1000 27 10000 11.3 290 06:19 04.04.2020
245 Clouds 24 999 27 10000 13.9 290 05:42 04.04.2020
246 Clouds 25 999 27 10000 13.9 290 05:24 04.04.2020
247 Clouds 25 999 29 10000 14.4 290 04:31 04.04.2020
248 Rain 25 998 34 10000 12.9 310 03:51 04.04.2020
249 Rain 25 998 50 10000 8.7 320 02:52 04.04.2020
250 Rain 25 998 53 10000 8.2 320 02:33 04.04.2020
251 Rain 23 999 64 10000 8.2 330 01:55 04.04.2020
252 Clouds 22 999 78 10000 7.7 340 01:25 04.04.2020
253 Clouds 21 999 78 10000 7.7 320 00:49 04.04.2020
254 Clouds 20 998 83 10000 8.2 340 00:30 04.04.2020
255 Rain 20 997 94 10000 5.7 350 23:40 03.04.2020
256 Rain 19 997 94 10000 5.7 350 23:21 03.04.2020
257 Rain 19 997 94 10000 9.3 360 22:59 03.04.2020
258 Rain 20 997 100 10000 5.7 20 22:39 03.04.2020
259 Rain 20 997 100 10000 5.7 20 22:39 03.04.2020
260 Rain 20 997 100 10000 5.7 20 22:19 03.04.2020
261 Rain 20 996 94 10000 7.2 10 21:45 03.04.2020
262 Rain 20 996 94 10000 7.2 10 21:26 03.04.2020
263 Clouds 21 996 78 10000 7.2 10 20:57 03.04.2020
264 Clouds 21 996 83 10000 7.2 10 20:39 03.04.2020
265 Clouds 21 996 83 10000 7.2 10 20:21 03.04.2020
266 Clouds 21 996 78 10000 7.7 10 19:58 03.04.2020
267 Clouds 21 997 83 10000 5.7 10 19:39 03.04.2020
268 Clouds 20 998 83 10000 5.7 360 19:21 03.04.2020
269 Clouds 20 998 83 10000 5.7 360 18:59 03.04.2020
270 Clouds 20 998 83 10000 5.7 360 18:59 03.04.2020
271 Rain 20 998 83 10000 4.6 20 18:41 03.04.2020
272 Rain 20 998 83 10000 4.6 20 18:23 03.04.2020
273 Rain 20 999 83 10000 5.7 10 17:58 03.04.2020
274 Clouds 20 999 83 10000 7.7 360 17:39 03.04.2020
275 Clouds 20 999 83 10000 7.7 360 17:19 03.04.2020
276 Clouds 20 1000 88 10000 7.7 10 16:46 03.04.2020
277 Clouds 20 1000 88 10000 7.7 10 16:22 03.04.2020
278 Clouds 20 1000 88 10000 7.7 10 16:22 03.04.2020
279 Clouds 20 1001 94 10000 2.1 10 15:59 03.04.2020
280 Clouds 20 1002 94 10000 3.1 40 15:40 03.04.2020
281 Rain 20 1002 94 10000 3.1 40 15:22 03.04.2020
282 Rain 20 995 91 0 3.13 315 14:57 03.04.2020
283 Rain 20 1003 94 10000 7.7 30 14:39 03.04.2020
284 Rain 20 1003 100 10000 4.1 40 14:21 03.04.2020
285 Rain 20 1003 100 10000 4.1 40 13:46 03.04.2020
286 Rain 20 1003 100 10000 4.1 40 13:26 03.04.2020
287 Rain 20 1003 100 10000 5.1 30 12:56 03.04.2020
288 Rain 20 1003 100 10000 4.1 40 12:38 03.04.2020
289 Rain 20 1004 100 10000 3.1 50 12:18 03.04.2020
290 Rain 20 1004 94 10000 7.7 20 11:55 03.04.2020
291 Rain 20 1004 94 10000 7.7 20 11:55 03.04.2020
292 Rain 20 1004 94 10000 6.7 30 11:37 03.04.2020
293 Rain 20 1004 94 10000 6.7 30 11:18 03.04.2020
294 Rain 20 1004 94 10000 5.1 340 10:56 03.04.2020
295 Rain 20 1004 100 10000 2.6 40 10:37 03.04.2020
296 Rain 20 1004 100 10000 2.6 40 10:37 03.04.2020
297 Rain 20 1004 100 10000 2.6 40 10:18 03.04.2020
298 Rain 20 1004 94 10000 3.1 30 10:18 03.04.2020
299 Rain 21 1004 94 10000 3.1 30 09:55 03.04.2020
300 Rain 21 1005 100 10000 2.6 340 09:37 03.04.2020
301 Rain 21 1005 100 10000 2.6 340 09:18 03.04.2020
302 Rain 21 1005 100 10000 1.5 20 08:43 03.04.2020
303 Rain 22 1005 94 10000 2.1 360 08:23 03.04.2020
304 Clouds 23 1005 61 10000 5.7 30 07:51 03.04.2020
305 Clouds 23 1005 61 10000 5.7 30 07:33 03.04.2020
306 Clouds 24 1005 61 10000 4.6 20 06:57 03.04.2020
307 Clouds 25 1006 57 10000 4.1 30 06:27 03.04.2020
308 Clouds 25 1007 64 10000 4.1 20 05:42 03.04.2020
309 Clouds 24 1009 69 10000 2.6 140 04:18 03.04.2020
310 Clouds 24 1009 65 10000 1.5 230 03:32 03.04.2020
311 Clouds 24 1009 78 10000 0.5 300 02:31 03.04.2020
312 Clouds 23 1009 83 10000 2.1 70 01:25 03.04.2020
313 Rain 22 1010 82 10000 1.92 328 00:46 03.04.2020
314 Rain 21 1010 82 10000 1.92 328 00:27 03.04.2020
315 Clouds 18 1010 88 10000 2.6 60 23:54 02.04.2020
316 Clouds 18 1010 88 10000 1.94 312 23:36 02.04.2020
317 Clouds 17 1009 93 10000 2.6 360 23:18 02.04.2020
318 Clouds 17 1009 93 10000 1 310 22:41 02.04.2020
319 Clouds 17 1009 93 10000 1 310 22:22 02.04.2020
320 Clouds 17 1009 100 10000 2.6 250 21:58 02.04.2020
321 Mist 17 1009 93 8000 1 280 21:37 02.04.2020
322 Mist 17 1009 93 8000 1 280 21:18 02.04.2020
323 Mist 17 1009 93 10000 1.5 360 20:44 02.04.2020
324 Mist 17 1009 93 10000 1.5 360 20:25 02.04.2020
325 Clouds 17 1009 93 8000 2.1 10 19:57 02.04.2020
326 Clear 17 1009 93 10000 2.6 320 19:39 02.04.2020
327 Clear 17 1009 93 10000 2.1 290 19:20 02.04.2020
328 Clear 18 1009 93 10000 2.1 290 18:55 02.04.2020
329 Clear 18 1009 93 10000 2.6 300 18:36 02.04.2020
330 Clear 18 1009 93 10000 3.6 260 18:18 02.04.2020
331 Clear 18 1009 93 10000 3.6 260 17:43 02.04.2020
332 Clear 18 1009 88 10000 3.6 280 17:24 02.04.2020
333 Clear 18 1009 93 10000 3.1 260 16:58 02.04.2020
334 Clear 18 1009 93 10000 3.1 250 16:40 02.04.2020
335 Clear 19 1009 93 10000 3.1 250 16:22 02.04.2020
336 Clear 19 1010 93 10000 3.6 40 15:57 02.04.2020
337 Clear 19 1010 93 10000 2.6 30 15:39 02.04.2020
338 Rain 19 1010 88 10000 3.6 350 15:19 02.04.2020
339 Rain 19 1010 88 10000 3.6 340 14:57 02.04.2020
340 Rain 19 1010 88 10000 5.1 330 14:38 02.04.2020
341 Rain 19 1010 100 10000 4.1 60 14:19 02.04.2020
342 Rain 19 1010 100 10000 4.1 60 13:55 02.04.2020
343 Rain 19 1010 94 10000 2.1 10 13:37 02.04.2020
344 Rain 19 1010 94 10000 2.1 10 13:18 02.04.2020
345 Rain 20 1010 94 10000 2.6 30 12:45 02.04.2020
346 Rain 20 1010 100 10000 1.5 40 12:20 02.04.2020
347 Rain 20 1010 100 10000 1.5 40 12:20 02.04.2020
348 Rain 20 1010 100 10000 1.5 40 11:58 02.04.2020
349 Rain 20 1010 100 10000 1.5 40 11:58 02.04.2020
350 Rain 20 1010 100 10000 3.6 30 11:39 02.04.2020
351 Rain 20 1010 100 10000 3.6 30 11:20 02.04.2020
352 Rain 20 1010 100 10000 2.6 50 10:57 02.04.2020
353 Rain 20 1010 100 10000 3.6 50 10:38 02.04.2020
354 Rain 20 1010 100 10000 3.6 50 10:20 02.04.2020
355 Rain 20 1010 100 10000 3.6 50 09:59 02.04.2020
356 Rain 20 1010 94 10000 3.1 40 09:41 02.04.2020
357 Rain 21 1010 94 10000 3.1 40 09:21 02.04.2020
358 Rain 21 1010 100 10000 3.1 60 08:47 02.04.2020
359 Rain 21 1010 100 10000 3.1 60 08:28 02.04.2020
360 Rain 21 1011 88 9000 3.6 20 07:57 02.04.2020
361 Rain 21 1011 83 9000 4.6 40 07:38 02.04.2020
362 Rain 21 1011 83 8000 4.1 20 07:19 02.04.2020
363 Rain 22 1011 73 10000 5.1 20 06:24 02.04.2020
364 Clouds 23 1011 69 10000 6.7 30 05:46 02.04.2020
365 Clouds 23 1011 64 10000 6.7 20 04:55 02.04.2020
366 Clouds 22 1014 100 4500 1 60 02:21 02.04.2020
367 Clouds 22 1014 64 10000 7.7 30 01:27 02.04.2020
368 Clouds 21 1015 78 10000 3.1 360 00:41 02.04.2020
369 Rain 20 1015 83 10000 3.1 300 00:20 02.04.2020
370 Clouds 19 1015 88 10000 2.1 330 23:39 01.04.2020
371 Clouds 18 1015 93 6000 3.54 14 23:19 01.04.2020
372 Clouds 18 1015 100 500 3.54 14 22:57 01.04.2020
373 Clouds 18 1015 100 500 3.54 14 22:57 01.04.2020
374 Clouds 18 1015 100 200 3.54 14 22:38 01.04.2020
375 Clouds 18 1015 100 200 3.54 14 22:19 01.04.2020
376 Clouds 18 1015 100 200 3.54 14 22:19 01.04.2020
377 Clouds 17 1015 88 10000 0.5 340 21:41 01.04.2020
378 Clouds 18 1015 88 10000 0.5 340 21:19 01.04.2020
379 Clouds 17 1015 93 1100 3.01 28 20:57 01.04.2020
380 Clouds 18 1015 100 150 3.01 28 20:38 01.04.2020
381 Clouds 18 1015 100 150 3.01 28 20:20 01.04.2020
382 Clouds 18 1015 88 10000 2.6 20 19:58 01.04.2020
383 Clouds 18 1015 88 10000 1 30 19:40 01.04.2020
384 Clouds 18 1015 88 10000 2.1 10 19:19 01.04.2020
385 Clouds 19 1016 88 10000 1.5 10 18:42 01.04.2020
386 Clouds 19 1016 88 10000 1.5 10 18:24 01.04.2020
387 Rain 19 1016 93 10000 3.01 17 17:58 01.04.2020
388 Clouds 19 1016 100 6000 3.01 17 17:38 01.04.2020
389 Clouds 20 1017 83 10000 3.6 360 17:19 01.04.2020
390 Clouds 20 1017 83 10000 3.6 360 16:58 01.04.2020
391 Clouds 20 1017 83 10000 3.6 10 16:39 01.04.2020
392 Clouds 20 1017 83 10000 3.6 10 16:21 01.04.2020
393 Clouds 20 1017 83 10000 4.1 20 15:57 01.04.2020
394 Clouds 20 1017 83 10000 4.1 20 15:57 01.04.2020
395 Clouds 20 1017 100 10000 3.01 17 15:38 01.04.2020
396 Clouds 20 1018 94 10000 3.78 33 15:18 01.04.2020
397 Clouds 20 1018 94 10000 3.78 33 14:55 01.04.2020
398 Clouds 20 1018 94 10000 3.78 33 14:55 01.04.2020
399 Rain 21 1018 83 10000 3.6 30 14:37 01.04.2020
400 Rain 21 1018 83 10000 3.6 30 14:19 01.04.2020
401 Clouds 21 1018 94 10000 4.01 32 13:56 01.04.2020
402 Rain 21 1018 78 10000 6.7 50 13:37 01.04.2020
403 Clouds 21 1018 78 10000 5.7 50 13:18 01.04.2020
404 Clouds 21 1018 78 10000 5.7 50 12:42 01.04.2020
405 Clouds 21 1018 78 10000 5.7 50 12:24 01.04.2020
406 Clouds 21 1018 78 10000 5.1 50 11:59 01.04.2020
407 Clouds 22 1018 78 10000 6.2 50 11:39 01.04.2020
408 Clouds 22 1017 78 10000 7.2 70 11:20 01.04.2020
409 Clouds 22 1017 78 10000 7.2 70 10:56 01.04.2020
410 Clouds 22 1017 78 10000 6.2 50 10:37 01.04.2020
411 Clouds 22 1017 78 10000 6.2 50 10:18 01.04.2020
412 Clouds 22 1017 73 10000 6.7 60 09:40 01.04.2020
413 Clouds 23 1017 73 10000 6.7 60 09:22 01.04.2020
414 Clouds 23 1017 64 10000 6.7 60 08:59 01.04.2020
415 Clouds 23 1017 69 10000 7.7 50 08:40 01.04.2020
416 Clouds 23 1017 69 10000 7.7 50 08:40 01.04.2020
417 Clouds 23 1017 69 10000 7.7 50 08:18 01.04.2020
418 Clouds 23 1017 73 10000 7.7 50 07:42 01.04.2020
419 Clouds 23 1017 73 10000 7.7 50 07:20 01.04.2020
420 Clouds 23 1017 73 10000 7.2 40 06:47 01.04.2020
421 Rain 22 1017 73 10000 7.2 60 06:23 01.04.2020
422 Rain 22 1017 73 10000 7.2 60 05:55 01.04.2020
423 Clouds 22 1018 73 10000 7.7 80 04:30 01.04.2020
424 Rain 22 1019 73 10000 7.2 80 03:28 01.04.2020
425 Clouds 22 1020 73 10000 6.2 70 02:49 01.04.2020
426 Clouds 21 1020 83 10000 0.5 20 01:56 01.04.2020
427 Clouds 21 1020 78 10000 5.7 80 01:37 01.04.2020
428 Clouds 21 1020 78 10000 4.6 80 01:18 01.04.2020
429 Clouds 21 1020 100 10000 3.79 79 00:45 01.04.2020
430 Clouds 20 1019 83 10000 3.6 80 00:19 01.04.2020
431 Clouds 20 1019 83 10000 3.1 80 23:42 31.03.2020
432 Clouds 20 1019 100 10000 2.12 92 23:23 31.03.2020
433 Clouds 19 1018 88 10000 3.1 80 22:58 31.03.2020
434 Clouds 19 1018 88 10000 3.1 80 22:37 31.03.2020
435 Clouds 19 1018 88 10000 3.1 80 22:19 31.03.2020
436 Clouds 19 1018 88 10000 2.6 80 21:56 31.03.2020
437 Clouds 19 1018 88 10000 2.6 80 21:38 31.03.2020
438 Clouds 19 1018 88 10000 1.5 70 21:19 31.03.2020
439 Clouds 19 1018 88 10000 1.5 70 20:55 31.03.2020
440 Clouds 19 1018 88 10000 1.5 70 20:36 31.03.2020
441 Rain 19 1018 88 10000 2.1 60 20:18 31.03.2020
442 Clouds 19 1018 100 10000 1.5 170 19:42 31.03.2020
443 Clouds 19 1018 100 10000 1.5 170 19:42 31.03.2020
444 Clouds 19 1018 100 10000 2.1 150 19:23 31.03.2020
445 Clouds 19 1018 100 10000 2.1 150 18:58 31.03.2020
446 Clouds 19 1018 88 10000 2.6 90 18:40 31.03.2020
447 Clouds 19 1018 83 10000 3.1 90 18:19 31.03.2020
448 Clouds 19 1018 88 10000 3.1 90 17:55 31.03.2020
449 Clouds 19 1018 88 10000 3.1 90 17:37 31.03.2020
450 Clouds 19 1018 88 10000 3.1 70 17:19 31.03.2020
451 Clouds 20 1018 83 10000 3.1 80 16:41 31.03.2020
452 Clouds 20 1018 83 10000 3.1 80 16:20 31.03.2020
453 Rain 20 1018 78 10000 3.1 80 15:58 31.03.2020
454 Rain 20 1018 78 10000 3.6 80 15:40 31.03.2020
455 Rain 20 1018 78 10000 3.6 80 15:22 31.03.2020
456 Clouds 21 1018 78 10000 3.6 80 14:57 31.03.2020
457 Clouds 21 1018 78 10000 3.1 70 14:39 31.03.2020
458 Clouds 21 1018 78 10000 3.6 90 14:21 31.03.2020
459 Clouds 21 1018 78 10000 3.6 90 13:43 31.03.2020
460 Clouds 21 1018 78 10000 3.6 110 13:20 31.03.2020
461 Clouds 21 1018 78 10000 4.1 100 12:59 31.03.2020
462 Clouds 21 1018 78 10000 4.6 110 12:40 31.03.2020
463 Clouds 21 1018 78 10000 4.6 110 12:19 31.03.2020
464 Clouds 21 1017 83 10000 4.6 110 11:41 31.03.2020
465 Clouds 21 1017 83 10000 4.6 110 11:20 31.03.2020
466 Clouds 22 1017 78 10000 4.6 120 10:59 31.03.2020
467 Clouds 22 1016 78 10000 5.1 120 10:41 31.03.2020
468 Clouds 22 1016 78 10000 5.1 120 10:22 31.03.2020
469 Clouds 22 1016 78 10000 5.1 120 09:59 31.03.2020
470 Clouds 23 1016 78 10000 5.7 130 09:41 31.03.2020
471 Clouds 23 1016 78 10000 5.7 130 09:22 31.03.2020
472 Clouds 23 1016 73 10000 6.2 120 08:57 31.03.2020
473 Clouds 24 1015 73 10000 5.7 130 08:39 31.03.2020
474 Clouds 24 1015 73 10000 5.7 130 08:19 31.03.2020
475 Clouds 24 1015 73 10000 5.7 130 07:56 31.03.2020
476 Clouds 24 1015 73 10000 5.7 130 07:38 31.03.2020
477 Clouds 25 1015 73 10000 5.7 130 07:19 31.03.2020
478 Clouds 26 1015 78 10000 5.7 130 06:47 31.03.2020
479 Clouds 26 1015 69 10000 4.6 140 06:22 31.03.2020
480 Clouds 26 1015 54 10000 2.1 70 05:39 31.03.2020
481 Clouds 26 1016 61 10000 1 20 03:43 31.03.2020
482 Clouds 24 1016 64 10000 6.2 140 02:19 31.03.2020
483 Clouds 23 1016 64 10000 4.1 230 01:45 31.03.2020
484 Clouds 21 1016 82 10000 3.6 280 00:49 31.03.2020
485 Clouds 20 1016 82 10000 3.6 280 00:25 31.03.2020
486 Clouds 18 1016 77 10000 4.6 280 23:58 30.03.2020
487 Clouds 18 1016 82 10000 4.6 280 23:38 30.03.2020
488 Clouds 17 1016 82 10000 4.6 280 23:18 30.03.2020
489 Clouds 17 1015 88 10000 4.1 260 22:55 30.03.2020
490 Clouds 16 1015 88 10000 3.6 290 22:36 30.03.2020
491 Clouds 16 1015 88 10000 3.6 290 22:18 30.03.2020
492 Clouds 16 1014 93 10000 3.6 290 21:55 30.03.2020
493 Clear 16 1014 88 10000 3.1 290 21:36 30.03.2020
494 Clouds 16 1014 100 10000 3.6 213 21:18 30.03.2020
495 Clouds 16 1014 100 10000 3.6 213 20:42 30.03.2020
496 Clouds 16 1014 100 10000 3.6 213 20:24 30.03.2020
497 Clouds 16 1014 100 10000 3.6 213 20:24 30.03.2020
498 Clouds 16 1014 100 10000 3.6 213 20:24 30.03.2020
499 Clouds 16 1014 88 10000 2.6 290 19:59 30.03.2020
500 Clouds 16 1014 88 10000 2.6 290 19:59 30.03.2020
501 Clouds 16 1014 88 10000 2.6 320 19:40 30.03.2020
502 Clouds 17 1014 88 10000 2.6 320 19:21 30.03.2020
503 Clouds 17 1013 88 10000 3.1 340 18:57 30.03.2020
504 Clouds 17 1013 82 10000 3.6 213 18:38 30.03.2020
505 Clear 17 1013 82 10000 2.1 360 18:20 30.03.2020
506 Clear 17 1013 82 10000 2.1 360 17:57 30.03.2020
507 Clear 17 1013 100 10000 2 239 17:38 30.03.2020
508 Clear 17 1013 100 10000 2 239 17:38 30.03.2020
509 Clear 17 1013 100 10000 2 239 17:19 30.03.2020
510 Clear 17 1013 100 10000 2 239 16:55 30.03.2020
511 Clear 18 1013 82 10000 3.6 240 16:37 30.03.2020
512 Clear 18 1013 82 10000 3.6 240 16:18 30.03.2020
513 Clear 18 1013 82 10000 3.1 290 15:54 30.03.2020
514 Clear 19 1013 77 10000 3.6 310 15:36 30.03.2020
515 Clouds 19 1013 77 10000 3.6 310 15:18 30.03.2020
516 Clouds 19 1013 77 10000 4.6 300 14:39 30.03.2020
517 Clouds 19 1013 77 10000 3.6 300 14:19 30.03.2020
518 Clouds 19 1013 77 10000 3.6 300 13:59 30.03.2020
519 Clouds 20 1013 100 10000 2.91 320 13:40 30.03.2020
520 Clouds 20 1013 93 10000 2.6 310 13:21 30.03.2020
521 Clouds 20 1013 93 10000 2.6 310 12:57 30.03.2020
522 Clouds 20 1013 88 10000 1.5 330 12:38 30.03.2020
523 Clouds 20 1013 88 10000 1.5 330 12:38 30.03.2020
524 Clouds 20 1013 88 10000 1.5 330 12:19 30.03.2020
525 Clouds 20 1013 88 10000 3.21 327 11:56 30.03.2020
526 Clouds 21 1012 88 10000 1 280 11:38 30.03.2020
527 Clouds 21 1012 88 10000 1 280 11:20 30.03.2020
528 Clouds 22 1011 69 10000 3.21 327 10:39 30.03.2020
529 Clouds 23 1011 69 10000 3.21 327 10:21 30.03.2020
530 Clouds 23 1011 61 10000 3.1 310 09:56 30.03.2020
531 Clouds 24 1011 57 10000 3.1 310 09:37 30.03.2020
532 Clouds 24 1011 57 10000 3.1 310 09:18 30.03.2020
533 Clouds 24 1004 67 0 0.89 264 08:41 30.03.2020
534 Clouds 25 1011 54 10000 5.7 300 08:22 30.03.2020
535 Clouds 25 1011 57 10000 4.1 300 07:49 30.03.2020
536 Clouds 25 1011 57 10000 4.6 290 07:27 30.03.2020
537 Clouds 24 1012 61 10000 3.1 350 06:54 30.03.2020
538 Clouds 24 1011 57 10000 5.7 300 06:31 30.03.2020
539 Clouds 24 1011 57 10000 5.7 300 06:31 30.03.2020
540 Rain 24 1012 61 10000 5.1 300 05:52 30.03.2020
541 Rain 23 1012 64 10000 4.6 290 05:22 30.03.2020
542 Rain 22 1013 69 10000 5.1 310 04:23 30.03.2020
543 Clouds 21 1013 73 10000 4.1 310 03:38 30.03.2020
544 Rain 20 1014 88 10000 3.1 30 02:38 30.03.2020
545 Rain 20 1014 100 10000 3.6 30 01:44 30.03.2020
546 Rain 20 1014 100 10000 2.1 40 00:49 30.03.2020
547 Rain 19 1014 94 10000 2.6 280 00:22 30.03.2020
548 Rain 19 1013 93 10000 3.1 50 23:42 29.03.2020
549 Rain 19 1013 93 10000 3.1 50 23:23 29.03.2020
550 Rain 19 1013 93 10000 2.6 40 22:58 29.03.2020
551 Rain 19 1013 100 10000 1.5 10 22:38 29.03.2020
552 Rain 19 1013 100 10000 1.5 10 22:19 29.03.2020
553 Clouds 19 1014 100 10000 2.6 30 21:57 29.03.2020
554 Rain 19 1014 100 10000 0.5 10 21:36 29.03.2020
555 Rain 19 1014 100 10000 1 300 21:18 29.03.2020
556 Rain 19 1014 100 10000 1 300 20:55 29.03.2020
557 Rain 19 1013 100 10000 2.6 290 20:37 29.03.2020
558 Rain 19 1013 100 10000 2.6 290 20:37 29.03.2020
559 Rain 19 1013 100 10000 2.6 290 20:37 29.03.2020
560 Rain 19 1013 100 10000 1.5 70 20:18 29.03.2020
561 Rain 18 1013 100 10000 1.5 70 19:54 29.03.2020
562 Rain 18 1014 100 10000 1.5 230 19:36 29.03.2020
563 Clouds 18 1014 91 0 1.79 276 19:18 29.03.2020
564 Clouds 18 1014 100 10000 0.5 220 18:54 29.03.2020
565 Clouds 18 1014 100 10000 0.5 220 18:36 29.03.2020
566 Rain 19 1014 100 10000 4.16 7 18:18 29.03.2020
567 Rain 19 1014 100 10000 4.16 7 18:18 29.03.2020
568 Rain 19 1014 88 10000 4.16 7 17:42 29.03.2020
569 Rain 19 1014 88 10000 4.16 7 17:22 29.03.2020
570 Rain 18 1014 93 5000 4.16 7 16:59 29.03.2020
571 Rain 19 1015 88 10000 2.6 270 16:40 29.03.2020
572 Rain 19 1015 88 10000 2.6 270 16:21 29.03.2020
573 Rain 19 1015 100 5000 1 320 15:58 29.03.2020
574 Rain 19 1015 100 2000 4.16 7 15:40 29.03.2020
575 Rain 19 1016 83 10000 3.1 10 15:20 29.03.2020
576 Rain 19 1016 83 10000 3.1 10 14:56 29.03.2020
577 Rain 19 1016 93 10000 0.5 30 14:37 29.03.2020
578 Rain 20 1016 93 10000 5.35 13 14:19 29.03.2020
579 Rain 20 1016 93 10000 5.35 13 13:55 29.03.2020
580 Rain 20 1016 94 10000 5.35 13 13:37 29.03.2020
581 Rain 20 1016 94 10000 5.35 13 13:19 29.03.2020
582 Rain 21 1016 88 10000 5.35 13 12:54 29.03.2020
583 Rain 21 1016 83 10000 6.7 20 12:36 29.03.2020
584 Clouds 21 1016 83 10000 7.7 10 12:18 29.03.2020
585 Clouds 21 1016 83 10000 8.2 20 11:39 29.03.2020
586 Clouds 21 1016 83 10000 8.2 20 11:21 29.03.2020
587 Clouds 22 1016 78 10000 6.7 30 10:40 29.03.2020
588 Clouds 22 1016 78 10000 6.7 30 10:21 29.03.2020
589 Clouds 22 1016 73 10000 8.7 30 09:59 29.03.2020
590 Clouds 23 1016 69 10000 8.7 30 09:38 29.03.2020
591 Clouds 23 1016 69 10000 8.7 30 09:19 29.03.2020
592 Clouds 23 1016 69 10000 8.7 30 08:48 29.03.2020
593 Clouds 23 1016 69 10000 9.3 20 08:27 29.03.2020
594 Clouds 24 1016 69 10000 8.2 30 07:56 29.03.2020
595 Clouds 24 1016 64 10000 6.7 30 07:38 29.03.2020
596 Clouds 24 1016 61 10000 9.3 30 07:19 29.03.2020
597 Clouds 24 1018 64 10000 9.3 30 04:59 29.03.2020
598 Clouds 23 1020 60 10000 9.8 20 03:48 29.03.2020
599 Clouds 23 1020 60 10000 9.8 20 03:26 29.03.2020
600 Clouds 22 1020 69 10000 6.2 10 01:50 29.03.2020
601 Rain 22 1021 78 10000 7.2 30 01:23 29.03.2020
602 Rain 21 1021 78 10000 7.2 30 00:53 29.03.2020
603 Rain 20 1021 88 10000 2.6 210 00:30 29.03.2020
604 Clouds 19 1020 93 10000 5.05 34 23:42 28.03.2020
605 Clouds 19 1020 93 10000 5.05 34 23:23 28.03.2020
606 Rain 18 1020 100 10000 4.05 38 22:58 28.03.2020
607 Rain 18 1020 93 10000 4.05 38 22:38 28.03.2020
608 Rain 18 1020 100 10000 0.5 280 22:20 28.03.2020
609 Clouds 17 1020 100 10000 0.5 280 21:54 28.03.2020
610 Clouds 17 1020 100 10000 1.5 220 21:36 28.03.2020
611 Clouds 17 1019 93 10000 3.1 230 21:18 28.03.2020
612 Clouds 17 1019 93 10000 3.1 230 20:41 28.03.2020
613 Clouds 17 1019 100 10000 3.88 33 20:23 28.03.2020
614 Rain 17 1020 93 10000 2.6 320 19:57 28.03.2020
615 Rain 17 1020 93 10000 2.6 320 19:39 28.03.2020
616 Rain 17 1020 93 10000 2.1 330 19:20 28.03.2020
617 Rain 17 1020 93 10000 2.1 330 18:58 28.03.2020
618 Rain 17 1020 93 3000 1 280 18:38 28.03.2020
619 Rain 17 1020 93 5000 2.1 270 18:19 28.03.2020
620 Rain 17 1020 93 5000 2.1 270 17:39 28.03.2020
621 Rain 17 1021 93 10000 1.5 10 17:20 28.03.2020
622 Clouds 17 1021 93 10000 2.6 270 16:43 28.03.2020
623 -273 0 0 0 0 0 16:20 28.03.2020
624 Rain 17 1021 93 10000 3.6 280 15:59 28.03.2020
625 Rain 18 1021 88 10000 2.1 260 15:39 28.03.2020
626 Rain 18 1021 88 10000 2.1 260 15:19 28.03.2020
627 Rain 18 1022 93 10000 2.6 270 14:55 28.03.2020
628 Clouds 18 1022 100 10000 1 220 14:37 28.03.2020
629 Clouds 18 1022 100 10000 1 210 14:18 28.03.2020
630 Rain 18 1022 100 10000 3.6 300 13:39 28.03.2020
631 Rain 18 1022 100 10000 3.6 300 13:21 28.03.2020
632 Rain 18 1022 93 10000 3.6 240 12:40 28.03.2020
633 Rain 18 1023 93 10000 2.6 250 12:22 28.03.2020
634 Rain 18 1023 93 10000 2.6 250 11:43 28.03.2020
635 Rain 18 1022 93 6000 4.1 230 11:23 28.03.2020
636 Rain 18 1022 93 6000 4.1 230 10:58 28.03.2020
637 Rain 18 1022 93 10000 3.1 200 10:38 28.03.2020
638 Rain 18 1023 93 7000 2.1 140 10:18 28.03.2020
639 Rain 19 1022 93 4000 2.1 140 09:42 28.03.2020
640 Rain 19 1022 88 10000 2.1 130 09:23 28.03.2020
641 Rain 19 1022 88 10000 2.1 130 08:55 28.03.2020
642 Rain 20 1022 88 4000 6.7 90 08:37 28.03.2020
643 Rain 21 1022 60 10000 3.6 110 08:18 28.03.2020
644 Rain 21 1022 56 10000 5.7 70 07:41 28.03.2020
645 Rain 22 1022 49 10000 5.1 90 06:58 28.03.2020
646 Clouds 22 1022 49 10000 5.1 70 06:35 28.03.2020
647 Clouds 23 1023 47 10000 5.7 80 05:42 28.03.2020
648 Clouds 23 1023 47 10000 5.1 90 05:21 28.03.2020
649 Clouds 23 1023 50 10000 5.7 70 04:40 28.03.2020
650 Clouds 23 1024 50 10000 5.1 90 03:42 28.03.2020
651 Clouds 23 1025 50 10000 3.6 110 01:57 28.03.2020
652 Clouds 22 1025 77 10000 3.1 150 01:26 28.03.2020
653 Clouds 21 1025 77 10000 2.1 190 00:57 28.03.2020
654 Clouds 21 1025 72 10000 2.1 220 00:36 28.03.2020
655 Clouds 20 1025 72 10000 0.5 310 23:56 27.03.2020
656 Clouds 19 1025 77 10000 2.1 310 23:38 27.03.2020
657 Clouds 19 1025 77 10000 2.1 310 23:38 27.03.2020
658 Clouds 17 1025 77 10000 3.6 330 23:19 27.03.2020
659 Clouds 16 1025 82 10000 2.6 330 22:56 27.03.2020
660 Clouds 16 1025 82 10000 2.6 330 22:37 27.03.2020
661 Clouds 15 1025 82 10000 2.6 330 22:19 27.03.2020
662 Clouds 14 1025 100 400 0.5 20 21:44 27.03.2020
663 Clouds 14 1025 100 400 0.5 20 21:25 27.03.2020
664 Clouds 14 1024 100 5000 0.38 205 20:59 27.03.2020
665 Clouds 14 1024 100 10000 1.01 112 20:41 27.03.2020
666 Rain 14 1024 88 10000 3.1 330 20:20 27.03.2020
667 Clouds 14 1024 88 10000 3.1 320 19:58 27.03.2020
668 Rain 14 1024 88 10000 2.6 340 19:40 27.03.2020
669 Rain 14 1024 88 10000 2.6 340 19:21 27.03.2020
670 Rain 15 1024 88 10000 3.1 330 18:45 27.03.2020
671 Clouds 15 1024 82 10000 3.1 310 18:25 27.03.2020
672 Clouds 15 1024 100 10000 0.71 83 17:59 27.03.2020
673 Clouds 15 1024 100 10000 0.71 83 17:40 27.03.2020
674 Clouds 15 1025 100 10000 1 330 17:20 27.03.2020
675 Clouds 15 1025 100 10000 1.27 90 16:44 27.03.2020
676 Clouds 15 1025 100 10000 1.27 90 16:26 27.03.2020
677 Clouds 15 1025 100 10000 1.27 90 15:57 27.03.2020
678 Clouds 15 1025 100 10000 1.27 90 15:39 27.03.2020
679 Clouds 16 1025 77 10000 5.1 130 15:21 27.03.2020
680 Clouds 17 1025 77 10000 4.1 140 14:45 27.03.2020
681 Rain 17 1026 72 10000 3.1 110 14:24 27.03.2020
682 Rain 16 1026 72 10000 3.1 110 13:56 27.03.2020
683 Rain 17 1026 77 10000 3.6 110 13:37 27.03.2020
684 Rain 17 1026 72 10000 3.6 120 13:18 27.03.2020
685 Clouds 17 1026 68 10000 3.6 110 12:49 27.03.2020
686 Clouds 17 1026 68 10000 3.1 110 12:21 27.03.2020
687 Clouds 17 1026 68 10000 3.1 110 11:59 27.03.2020
688 Clouds 17 1026 68 10000 3.1 110 11:59 27.03.2020
689 Clouds 17 1026 68 10000 3.1 110 11:59 27.03.2020
690 Clouds 18 1026 68 10000 3.1 110 11:41 27.03.2020
691 Clouds 18 1026 63 10000 2.1 100 11:22 27.03.2020
692 Clouds 18 1025 68 10000 3.1 140 10:54 27.03.2020
693 Clouds 18 1025 68 10000 3.1 140 10:36 27.03.2020
694 Clouds 19 1025 68 10000 3.1 140 10:18 27.03.2020
695 Clouds 19 1025 64 10000 3.6 140 09:55 27.03.2020
696 Clouds 19 1025 60 10000 3.6 120 09:36 27.03.2020
697 Clouds 19 1025 60 10000 4.1 130 09:18 27.03.2020
698 Clouds 20 1025 60 10000 4.1 130 08:54 27.03.2020
699 Clouds 20 1025 52 10000 4.1 130 08:36 27.03.2020
700 Clouds 20 1025 52 10000 4.1 130 08:18 27.03.2020
701 Clouds 21 1025 53 10000 4.6 130 07:43 27.03.2020
702 Clouds 21 1025 53 10000 4.6 130 07:21 27.03.2020
703 Clouds 21 1025 53 10000 4.6 130 06:41 27.03.2020
704 Clouds 21 1025 49 10000 4.1 130 06:18 27.03.2020
705 Clouds 21 1027 53 10000 5.1 130 03:42 27.03.2020
706 Clouds 21 1027 56 10000 5.7 140 02:25 27.03.2020
707 Clouds 21 1027 56 10000 5.1 130 01:21 27.03.2020
708 Clouds 21 1027 56 10000 5.7 120 00:47 27.03.2020
709 Clouds 21 1027 56 10000 6.7 120 00:23 27.03.2020
710 Rain 20 1027 64 10000 4.6 120 23:42 26.03.2020
711 Clouds 19 1026 64 10000 5.1 110 23:19 26.03.2020
712 Clouds 19 1026 64 10000 5.1 110 22:58 26.03.2020
713 Clouds 19 1026 64 10000 5.1 110 22:58 26.03.2020
714 Clouds 18 1026 72 10000 5.1 110 22:37 26.03.2020
715 Clouds 18 1026 72 10000 5.1 110 22:19 26.03.2020
716 Clouds 18 1026 72 10000 4.6 110 21:55 26.03.2020
717 Clouds 18 1025 68 10000 5.1 110 21:36 26.03.2020
718 Clouds 18 1025 68 10000 5.1 110 21:18 26.03.2020
719 Clouds 18 1025 72 10000 6.7 100 20:41 26.03.2020
720 Clouds 18 1025 72 10000 6.7 100 20:23 26.03.2020
721 Clouds 17 1025 72 10000 6.7 100 20:23 26.03.2020
722 Rain 18 1025 72 10000 6.7 100 19:58 26.03.2020
723 Rain 17 1024 72 10000 6.2 100 19:40 26.03.2020
724 Rain 18 1024 77 10000 6.7 100 19:22 26.03.2020
725 Rain 18 1024 77 10000 6.7 100 18:59 26.03.2020
726 Rain 17 1025 82 10000 3.1 100 18:41 26.03.2020
727 Rain 17 1025 82 10000 3.1 100 18:23 26.03.2020
728 Rain 17 1025 82 10000 5.7 80 17:45 26.03.2020
729 Rain 18 1025 82 10000 6.7 80 17:20 26.03.2020
730 Rain 17 1025 82 10000 6.7 80 16:59 26.03.2020
731 Rain 17 1025 82 10000 5.7 110 16:39 26.03.2020
732 Rain 17 1025 82 10000 5.7 110 16:39 26.03.2020
733 Rain 17 1025 82 10000 5.7 110 16:21 26.03.2020
734 Rain 17 1025 82 10000 6.2 110 15:56 26.03.2020
735 Rain 18 1025 82 10000 4.6 110 15:38 26.03.2020
736 Rain 18 1025 82 10000 4.6 110 15:20 26.03.2020
737 Rain 18 1026 88 10000 4.6 140 14:43 26.03.2020
738 Rain 17 1026 88 10000 4.6 140 14:25 26.03.2020
739 Rain 18 1026 82 9000 3.1 160 13:59 26.03.2020
740 Clouds 18 1026 82 10000 3.6 110 13:40 26.03.2020
741 Clouds 19 1026 77 10000 4.6 120 13:21 26.03.2020
742 Clouds 19 1026 77 10000 4.6 120 12:54 26.03.2020
743 Clouds 19 1026 77 10000 5.1 130 12:36 26.03.2020
744 Clouds 19 1026 77 10000 6.2 120 12:18 26.03.2020
745 Clouds 19 1026 72 10000 5.7 120 11:43 26.03.2020
746 Clouds 19 1025 72 10000 4.6 110 11:19 26.03.2020
747 Clouds 19 1025 72 10000 5.7 120 10:42 26.03.2020
748 Clouds 19 1025 72 10000 5.7 120 10:42 26.03.2020
749 Clouds 20 1025 77 10000 6.2 130 10:20 26.03.2020
750 Clouds 20 1025 77 10000 6.2 130 09:59 26.03.2020
751 Clouds 20 1025 72 10000 6.2 120 09:41 26.03.2020
752 Clouds 20 1025 72 10000 6.2 120 09:19 26.03.2020
753 Clouds 20 1024 82 10000 8.2 180 08:44 26.03.2020
754 Clouds 20 1024 82 10000 8.2 180 08:26 26.03.2020
755 Clouds 20 1024 82 10000 7.7 190 07:57 26.03.2020
756 Clouds 20 1024 88 10000 5.7 200 07:38 26.03.2020
757 Rain 20 1016 76 0 0.45 192 07:20 26.03.2020
758 Rain 20 1017 75 0 0.89 178 06:38 26.03.2020
759 Clouds 21 1025 73 10000 9.3 180 05:52 26.03.2020
760 Clouds 20 1025 77 10000 10.3 180 03:52 26.03.2020
761 Clouds 20 1025 77 10000 8.7 190 03:33 26.03.2020
762 Clouds 20 1025 72 10000 10.8 190 02:53 26.03.2020
763 Rain 18 1026 77 10000 8.7 200 01:20 26.03.2020
764 Clouds 18 1026 77 10000 9.8 190 00:43 26.03.2020
765 Rain 18 1025 77 10000 11.8 180 23:45 25.03.2020
766 Clouds 18 1024 72 10000 11.3 170 23:27 25.03.2020
767 Clouds 18 1024 72 10000 11.3 170 22:57 25.03.2020
768 Rain 18 1024 77 10000 11.8 170 22:38 25.03.2020
769 Rain 18 1024 77 10000 11.8 170 22:38 25.03.2020
770 Rain 19 1023 77 10000 11.8 170 22:19 25.03.2020
771 Rain 18 1023 77 10000 11.8 170 21:55 25.03.2020
772 Rain 18 1023 77 10000 10.8 170 21:37 25.03.2020
773 Rain 18 1016 72 0 1.79 164 21:18 25.03.2020
774 Rain 18 1015 69 0 2.24 167 20:40 25.03.2020
775 Rain 18 1015 69 0 1.34 164 20:20 25.03.2020
776 Rain 18 1015 72 0 2.24 169 19:59 25.03.2020
777 Drizzle 18 1022 72 10000 10.3 160 19:41 25.03.2020
778 Rain 18 1022 72 10000 10.8 160 19:21 25.03.2020
779 Rain 18 1021 77 10000 12.3 160 18:56 25.03.2020
780 Rain 18 1021 77 10000 12.3 160 18:37 25.03.2020
781 Rain 17 1021 77 10000 12.9 160 18:19 25.03.2020
782 Rain 17 1021 88 8000 11.8 160 17:54 25.03.2020
783 Rain 17 1021 88 8000 11.8 160 17:36 25.03.2020
784 Rain 17 1022 93 5000 10.8 170 17:18 25.03.2020
785 Rain 18 1022 93 4500 8.7 180 16:41 25.03.2020
786 Rain 18 1022 93 9000 9.3 200 16:22 25.03.2020
787 Rain 19 1022 93 9000 9.3 200 15:57 25.03.2020
788 Rain 19 1022 82 10000 8.7 160 15:38 25.03.2020
789 Drizzle 19 1022 82 10000 8.2 150 15:19 25.03.2020
790 Rain 19 1021 82 10000 7.7 150 14:42 25.03.2020
791 Rain 19 1021 82 10000 7.7 150 14:21 25.03.2020
792 Rain 19 1021 88 10000 7.2 160 13:46 25.03.2020
793 Rain 19 1021 88 10000 7.2 160 13:27 25.03.2020
794 Rain 19 1014 83 0 1.34 162 12:57 25.03.2020
795 Rain 19 1014 83 0 0.89 160 12:37 25.03.2020
796 Rain 19 1014 84 0 1.34 158 12:19 25.03.2020
797 Rain 19 1014 84 0 0.45 164 11:55 25.03.2020
798 Rain 19 1014 86 0 0.45 163 11:36 25.03.2020
799 Drizzle 19 1021 88 10000 5.1 150 11:18 25.03.2020
800 Rain 19 1020 88 10000 5.7 150 10:55 25.03.2020
801 Rain 19 1020 88 10000 5.7 150 10:36 25.03.2020
802 Rain 20 1020 94 10000 3.6 140 10:18 25.03.2020
803 Rain 19 1020 94 5000 3.6 150 09:42 25.03.2020
804 Rain 19 1020 94 5000 3.6 150 09:22 25.03.2020
805 Rain 20 1019 94 9000 3.6 150 08:56 25.03.2020
806 Rain 20 1019 94 9000 4.1 150 08:38 25.03.2020
807 Rain 20 1019 94 9000 4.1 150 08:38 25.03.2020
808 Rain 20 1019 94 9000 4.1 150 08:19 25.03.2020
809 Rain 20 1018 88 10000 7.2 160 07:39 25.03.2020
810 Rain 20 1018 88 10000 7.2 160 07:20 25.03.2020
811 Rain 20 1018 94 8000 7.7 170 06:47 25.03.2020
812 Rain 20 1018 88 9000 8.2 170 06:26 25.03.2020
813 Thunderstorm 22 1018 83 10000 8.2 170 05:53 25.03.2020
814 Clouds 23 1018 78 10000 8.2 170 04:59 25.03.2020
815 Clouds 23 1018 78 10000 8.2 170 04:39 25.03.2020
816 Clouds 24 1018 73 10000 8.2 170 03:36 25.03.2020
817 Rain 23 1010 67 0 0.45 113 02:31 25.03.2020
818 Rain 23 1018 69 10000 4.1 210 01:21 25.03.2020
819 Rain 22 1018 64 10000 4.1 210 00:48 25.03.2020
820 Rain 22 1019 68 10000 4.1 210 00:23 25.03.2020
821 Clouds 21 1019 64 10000 2.6 320 23:45 24.03.2020
822 Clouds 21 1019 64 10000 2.6 320 23:26 24.03.2020
823 Clouds 19 1019 72 10000 3.6 290 22:56 24.03.2020
824 Clouds 19 1018 72 10000 2.1 330 22:37 24.03.2020
825 Clouds 18 1018 72 10000 3.6 330 22:19 24.03.2020
826 Clouds 19 1018 72 10000 2.1 330 22:19 24.03.2020
827 Clouds 18 1018 76 0 2.68 340 21:56 24.03.2020
828 Clouds 18 1018 77 10000 3.1 340 21:37 24.03.2020
829 Clouds 18 1018 77 10000 3.1 340 21:18 24.03.2020
830 Clouds 18 1018 72 10000 3.6 350 20:56 24.03.2020
831 Clouds 18 1018 77 10000 3.6 360 20:38 24.03.2020
832 Clouds 18 1010 78 0 0.89 305 20:19 24.03.2020
833 Clouds 18 1018 77 10000 3.1 330 19:41 24.03.2020
834 Clouds 18 1018 77 10000 4.1 350 19:19 24.03.2020
835 Clouds 19 1018 77 10000 3.1 360 18:56 24.03.2020
836 Clouds 19 1018 77 10000 3.1 360 18:37 24.03.2020
837 Clouds 19 1019 72 10000 2.6 330 18:18 24.03.2020
838 Clouds 19 1019 71 0 0.45 290 17:42 24.03.2020
839 Clouds 19 1019 72 10000 2.6 320 17:42 24.03.2020
840 Clouds 19 1019 72 10000 3.6 340 17:24 24.03.2020
841 Clouds 18 1019 72 10000 3.6 340 16:59 24.03.2020
842 Clouds 18 1020 72 10000 3.6 320 16:41 24.03.2020
843 Clouds 18 1020 72 10000 3.6 320 16:23 24.03.2020
844 Clouds 18 1020 72 10000 3.6 320 16:23 24.03.2020
845 Clouds 18 1020 100 10000 1.81 351 15:59 24.03.2020
846 Clouds 18 1020 100 10000 1.81 351 15:40 24.03.2020
847 Clouds 19 1020 100 10000 1.81 351 15:22 24.03.2020
848 Clouds 19 1021 64 10000 5.1 10 14:43 24.03.2020
849 Clouds 19 1020 64 10000 4.6 10 14:43 24.03.2020
850 Clouds 19 1021 64 10000 5.1 10 14:43 24.03.2020
851 Clouds 20 1021 64 10000 5.1 10 14:22 24.03.2020
852 Clouds 20 1021 64 10000 5.1 10 13:56 24.03.2020
853 Clouds 20 1021 64 10000 5.7 10 13:38 24.03.2020
854 Clouds 20 1021 64 10000 5.7 10 13:20 24.03.2020
855 Clouds 21 1021 68 10000 5.1 20 12:42 24.03.2020
856 Clouds 21 1021 68 10000 5.1 30 12:23 24.03.2020
857 Clouds 20 1021 82 10000 2.1 70 11:41 24.03.2020
858 Clouds 20 1021 68 10000 4.1 20 11:21 24.03.2020
859 Clouds 20 1021 68 10000 4.1 20 10:59 24.03.2020
860 Clouds 20 1021 64 10000 4.6 30 10:40 24.03.2020
861 Clouds 21 1021 64 10000 4.6 30 10:18 24.03.2020
862 Clouds 21 1020 68 10000 6.2 30 09:46 24.03.2020
863 Clouds 21 1020 68 10000 6.2 30 09:46 24.03.2020
864 Clouds 21 1020 68 10000 6.2 30 09:26 24.03.2020
865 Clouds 21 1020 64 10000 6.2 30 08:57 24.03.2020
866 Clouds 21 1021 68 10000 6.7 20 08:38 24.03.2020
867 Clouds 21 1020 64 10000 4.6 50 08:19 24.03.2020
868 Clouds 21 1020 64 10000 5.7 40 07:44 24.03.2020
869 Clouds 22 1020 64 10000 5.7 40 07:22 24.03.2020
870 Clouds 22 1020 64 10000 5.7 40 07:22 24.03.2020
871 Clouds 21 1021 68 10000 6.7 50 06:42 24.03.2020
872 Clouds 21 1021 68 10000 5.7 50 06:21 24.03.2020
873 Clouds 21 1022 77 10000 6.7 50 04:52 24.03.2020
874 Rain 21 1023 68 10000 5.1 30 03:41 24.03.2020
875 Clouds 21 1023 64 10000 4.6 30 02:44 24.03.2020
876 Rain 20 1024 73 10000 4.1 20 01:22 24.03.2020
877 Rain 20 1024 82 10000 3.6 360 00:41 24.03.2020
878 Rain 19 1024 88 10000 4.1 350 00:22 24.03.2020
879 Rain 18 1024 93 8000 4.6 340 23:38 23.03.2020
880 Rain 18 1024 82 10000 2.1 0 23:20 23.03.2020
881 Rain 17 1024 88 10000 1.45 344 22:45 23.03.2020
882 Rain 17 1024 88 10000 1.45 344 22:24 23.03.2020
883 Rain 16 1024 100 10000 1 10 21:58 23.03.2020
884 Rain 15 1024 93 10000 1.45 344 21:40 23.03.2020
885 Clouds 15 1024 93 10000 1.45 344 21:20 23.03.2020
886 Clouds 15 1024 100 10000 1.45 344 20:57 23.03.2020
887 Rain 16 1023 100 10000 1.06 60 20:38 23.03.2020
888 Rain 15 1023 100 10000 1.29 81 20:19 23.03.2020
889 Rain 15 1023 100 10000 0.5 190 19:45 23.03.2020
890 Rain 15 1023 100 10000 0.5 190 19:26 23.03.2020
891 Rain 16 1023 88 10000 3.1 230 18:57 23.03.2020
892 Rain 16 1023 88 10000 3.1 230 18:39 23.03.2020
893 Rain 16 1023 88 10000 3.1 230 18:20 23.03.2020
894 Clouds 16 1024 93 10000 2.6 230 17:42 23.03.2020
895 Clouds 16 1024 93 10000 2.1 190 17:21 23.03.2020
896 Clouds 16 1024 93 10000 2.1 190 16:57 23.03.2020
897 Clouds 16 1024 82 10000 0.5 100 16:39 23.03.2020
898 Clouds 16 1024 82 10000 0.5 100 16:20 23.03.2020
899 Rain 16 1025 93 10000 2.1 230 15:41 23.03.2020
900 Clouds 17 1025 93 10000 1.5 240 15:20 23.03.2020
901 Clouds 17 1025 93 10000 1.75 93 14:38 23.03.2020
902 Rain 17 1025 93 10000 1.8 119 14:20 23.03.2020
903 Rain 17 1025 93 10000 1.8 119 14:20 23.03.2020
904 Rain 17 1025 88 10000 1.5 220 13:59 23.03.2020
905 Rain 17 1025 88 10000 1.5 250 13:40 23.03.2020
906 Rain 17 1025 88 10000 1.5 250 13:21 23.03.2020
907 Rain 17 1025 72 10000 3.6 100 12:45 23.03.2020
908 Rain 17 1025 72 10000 3.6 100 12:45 23.03.2020
909 Rain 17 1025 72 10000 3.6 100 12:26 23.03.2020
910 Clouds 18 1025 68 10000 5.1 120 11:59 23.03.2020
911 Clouds 18 1025 68 10000 5.1 120 11:40 23.03.2020
912 Clouds 18 1025 77 10000 3.6 130 11:20 23.03.2020
913 Rain 18 1025 68 10000 4.1 130 10:58 23.03.2020
914 Rain 18 1025 68 10000 4.1 140 10:39 23.03.2020
915 Rain 18 1025 68 10000 4.1 140 10:21 23.03.2020
916 Rain 19 1024 68 10000 4.6 130 09:46 23.03.2020
917 Rain 19 1024 77 10000 5.1 130 09:21 23.03.2020
918 Rain 19 1024 77 10000 5.1 130 08:58 23.03.2020
919 Rain 20 1024 72 10000 6.7 120 08:36 23.03.2020
920 Rain 20 1024 72 10000 6.7 120 08:18 23.03.2020
921 Rain 20 1024 72 10000 7.7 160 07:47 23.03.2020
922 Rain 20 1024 72 10000 7.7 160 07:29 23.03.2020
923 Rain 21 1024 72 10000 7.2 140 06:52 23.03.2020
924 Rain 21 1024 64 10000 7.2 140 05:55 23.03.2020
925 Clouds 21 1024 68 10000 7.7 120 05:29 23.03.2020
926 Rain 21 1025 68 10000 6.7 150 03:45 23.03.2020
927 Rain 21 1025 64 10000 8.2 150 02:37 23.03.2020
928 Clouds 20 1026 68 10000 7.7 180 01:34 23.03.2020
929 Clouds 20 1025 72 10000 9.3 180 00:40 23.03.2020
930 Clouds 20 1025 72 10000 9.8 170 23:53 22.03.2020
931 Clouds 19 1025 72 10000 9.8 170 23:27 22.03.2020
932 Clouds 19 1024 68 10000 8.7 170 22:59 22.03.2020
933 Clouds 19 1024 68 10000 8.7 170 22:39 22.03.2020
934 Clouds 18 1024 68 10000 9.8 180 22:18 22.03.2020
935 Clouds 18 1024 68 10000 9.8 180 21:40 22.03.2020
936 Clouds 18 1024 77 10000 3.6 230 21:20 22.03.2020
937 Clouds 18 1023 64 10000 9.8 170 20:58 22.03.2020
938 Clouds 18 1023 68 10000 9.8 170 20:39 22.03.2020
939 Clouds 18 1024 82 10000 3.6 230 20:21 22.03.2020
940 Clouds 18 1023 88 10000 3.1 230 19:55 22.03.2020
941 Clouds 18 1023 88 10000 2.1 250 19:37 22.03.2020
942 Clouds 18 1023 88 10000 2.6 190 19:18 22.03.2020
943 Clouds 18 1023 88 10000 2.6 190 18:56 22.03.2020
944 Clouds 18 1023 93 10000 3.1 220 18:37 22.03.2020
945 Clouds 18 1022 68 10000 11.3 170 18:18 22.03.2020
946 Clouds 18 1023 93 10000 2.6 210 17:56 22.03.2020
947 Clouds 18 1023 93 10000 2.6 210 17:36 22.03.2020
948 Clouds 18 1023 93 10000 2.6 210 17:36 22.03.2020
949 Clouds 18 1023 88 6000 3.6 190 17:18 22.03.2020
950 Rain 18 1023 88 6000 3.6 190 16:54 22.03.2020
951 Rain 18 1023 88 10000 5.1 170 16:36 22.03.2020
952 Rain 18 1023 88 10000 5.1 170 16:18 22.03.2020
953 Rain 19 1023 88 10000 9.3 190 15:39 22.03.2020
954 Rain 20 1022 68 10000 8.2 160 14:48 22.03.2020
955 Rain 20 1022 68 10000 8.2 160 14:20 22.03.2020
956 Rain 20 1022 68 10000 8.2 150 13:58 22.03.2020
957 Clouds 21 1022 64 10000 4.1 160 13:40 22.03.2020
958 Clouds 21 1022 64 10000 8.2 160 13:19 22.03.2020
959 Clouds 21 1022 60 10000 8.2 160 12:47 22.03.2020
960 Clouds 21 1022 73 10000 6.7 140 12:23 22.03.2020
961 Clouds 21 1022 73 10000 6.7 140 11:59 22.03.2020
962 Clouds 21 1021 77 10000 4.6 150 11:41 22.03.2020
963 Clouds 21 1020 64 10000 9.8 160 11:23 22.03.2020
964 Clouds 21 1020 64 10000 9.8 160 10:56 22.03.2020
965 Clouds 21 1019 77 10000 10.8 160 10:38 22.03.2020
966 Clouds 21 1019 77 10000 10.8 160 10:20 22.03.2020
967 Clouds 21 1018 78 10000 9.3 150 09:42 22.03.2020
968 Clouds 22 1018 78 10000 8.2 160 09:22 22.03.2020
969 Clouds 22 1018 78 10000 8.2 160 08:44 22.03.2020
970 Clouds 23 1017 73 10000 8.7 170 08:24 22.03.2020
971 Clouds 24 1017 69 10000 8.7 160 07:52 22.03.2020
972 Clouds 26 1016 60 10000 8.2 170 07:26 22.03.2020
973 Clouds 28 1016 50 10000 7.2 130 06:40 22.03.2020
974 Clouds 29 1015 42 10000 5.7 140 05:35 22.03.2020
975 Clouds 28 1016 57 10000 2.6 150 03:46 22.03.2020
976 Clouds 25 1017 54 10000 3.6 350 01:35 22.03.2020
977 Clear 24 1018 60 10000 3.6 310 00:48 22.03.2020
978 Clear 24 1018 60 10000 3.6 310 00:29 22.03.2020
979 Clouds 22 1018 69 10000 3.6 320 23:44 21.03.2020
980 Clear 20 1018 100 10000 1.87 293 23:21 21.03.2020
981 Clouds 20 1018 73 10000 3.1 330 22:58 21.03.2020
982 Clouds 19 1018 73 10000 2.6 330 22:37 21.03.2020
983 Clear 18 1018 100 10000 1.87 293 22:18 21.03.2020
984 Clouds 17 1018 100 10000 1.5 270 21:56 21.03.2020
985 Clouds 17 1018 93 2200 1.87 293 21:37 21.03.2020
986 Clear 17 1018 100 2300 1.87 293 21:18 21.03.2020
987 Clouds 17 1018 100 6000 1.87 293 20:42 21.03.2020
988 Clouds 17 1018 100 10000 1.74 339 20:20 21.03.2020
989 Clouds 18 1018 100 10000 1.74 339 19:54 21.03.2020
990 Clouds 18 1018 100 10000 1.74 339 19:36 21.03.2020
991 Clouds 18 1018 93 10000 2.1 60 19:18 21.03.2020
992 Clouds 18 1018 93 10000 1.74 339 18:40 21.03.2020
993 Clouds 18 1018 93 10000 1.5 360 18:20 21.03.2020
994 Clouds 18 1019 100 10000 1.74 339 17:57 21.03.2020
995 Clouds 18 1019 100 10000 1.74 339 17:39 21.03.2020
996 Clouds 18 1019 93 10000 1.91 346 17:21 21.03.2020
997 Clouds 19 1020 93 10000 1.5 340 16:42 21.03.2020
998 Clouds 19 1019 73 10000 2.1 280 16:23 21.03.2020
999 Clouds 19 1020 77 10000 2.1 320 15:58 21.03.2020
1000 Clouds 19 1020 88 10000 1.5 330 15:39 21.03.2020
1001 Clouds 19 1020 88 10000 1.5 330 15:21 21.03.2020
1002 Rain 20 1020 77 10000 2.1 190 14:55 21.03.2020
1003 Rain 20 1021 73 10000 1.91 346 14:37 21.03.2020
1004 Rain 20 1021 73 10000 0.88 57 14:19 21.03.2020
1005 Clouds 20 1021 68 10000 0.88 57 13:57 21.03.2020
1006 Clouds 20 1021 68 10000 0.88 57 13:57 21.03.2020
1007 Clouds 20 1020 68 10000 0.5 40 13:38 21.03.2020
1008 Clouds 20 1020 68 10000 0.5 40 13:38 21.03.2020
1009 Clouds 20 1020 73 10000 2.1 130 13:20 21.03.2020
1010 Clouds 20 1020 68 10000 2.6 120 12:54 21.03.2020
1011 Clouds 20 1020 68 10000 2.6 120 12:36 21.03.2020
1012 Clouds 20 1020 73 10000 3.1 120 12:18 21.03.2020
1013 Clouds 20 1020 73 10000 3.6 130 11:54 21.03.2020
1014 Clouds 20 1020 73 10000 3.6 130 11:36 21.03.2020
1015 Clouds 20 1020 68 10000 3.6 120 11:18 21.03.2020
1016 Clouds 20 1020 68 10000 4.6 120 10:55 21.03.2020
1017 Clouds 21 1020 68 10000 4.6 120 10:37 21.03.2020
1018 Clouds 21 1020 68 10000 3.6 130 10:18 21.03.2020
1019 Clouds 21 1019 64 10000 4.1 130 09:39 21.03.2020
1020 Clouds 21 1019 64 10000 4.1 130 09:21 21.03.2020
1021 Clouds 21 1019 64 10000 4.6 140 08:56 21.03.2020
1022 Clouds 21 1019 64 10000 5.7 130 08:38 21.03.2020
1023 Clouds 22 1019 64 10000 6.2 130 08:19 21.03.2020
1024 Clouds 22 1019 60 10000 5.7 130 07:39 21.03.2020
1025 Clouds 22 1019 60 10000 6.2 140 07:20 21.03.2020
1026 Clouds 23 1019 64 10000 7.2 150 06:45 21.03.2020
1027 Clouds 23 1019 64 10000 7.2 150 06:25 21.03.2020
1028 Clouds 23 1019 68 10000 7.2 160 05:41 21.03.2020
1029 Clouds 24 1020 68 10000 7.7 160 04:34 21.03.2020
1030 Rain 25 1020 73 10000 8.2 170 02:39 21.03.2020
1031 Rain 24 1020 69 10000 6.2 160 01:54 21.03.2020
1032 Rain 24 1020 64 10000 5.1 160 01:28 21.03.2020
1033 Clouds 23 1020 64 10000 2.6 300 00:43 21.03.2020
1034 Clouds 23 1020 64 10000 2.6 300 00:43 21.03.2020
1035 Clouds 23 1020 64 10000 2.6 300 00:24 21.03.2020
1036 Clouds 22 1019 73 10000 5.1 160 23:45 20.03.2020
1037 Clouds 20 1019 73 10000 7.2 160 23:23 20.03.2020
1038 Clouds 19 1019 77 10000 3.6 280 22:44 20.03.2020
1039 Clouds 18 1019 77 10000 3.6 280 22:25 20.03.2020
1040 Clouds 17 1019 82 10000 3.6 290 21:59 20.03.2020
1041 Clouds 17 1018 88 10000 3.6 300 21:41 20.03.2020
1042 Clouds 17 1018 88 10000 3.6 300 21:20 20.03.2020
1043 Clouds 17 1018 82 10000 2.6 300 20:59 20.03.2020
1044 Clear 17 1018 100 10000 1.32 247 20:41 20.03.2020
1045 Clear 17 1018 100 10000 1.89 179 20:21 20.03.2020
1046 Clear 17 1017 93 3900 1.72 186 19:58 20.03.2020
1047 Clouds 17 1017 88 10000 4.1 190 19:40 20.03.2020
1048 Clouds 17 1016 88 10000 4.6 190 19:18 20.03.2020
1049 Clear 18 1017 100 10000 1.72 186 18:39 20.03.2020
1050 Clear 18 1016 88 10000 5.1 190 18:39 20.03.2020
1051 Clear 18 1017 100 10000 1.72 186 18:39 20.03.2020
1052 Clear 18 1016 82 10000 5.1 190 18:20 20.03.2020
1053 Clouds 18 1016 88 10000 4.6 190 17:57 20.03.2020
1054 Clouds 19 1016 88 10000 4.6 190 17:39 20.03.2020
1055 Clear 19 1016 93 10000 3.26 169 17:21 20.03.2020
1056 Clear 19 1016 93 10000 3.26 169 16:57 20.03.2020
1057 Clear 19 1016 88 10000 3.26 169 16:39 20.03.2020
1058 Clear 19 1016 88 10000 3.26 169 16:18 20.03.2020
1059 Clouds 20 1016 83 10000 6.7 190 15:42 20.03.2020
1060 Clouds 20 1016 83 10000 5.1 200 15:21 20.03.2020
1061 Clouds 21 1016 83 10000 5.1 200 14:54 20.03.2020
1062 Clouds 21 1016 83 10000 8.7 180 14:36 20.03.2020
1063 Clouds 21 1016 83 10000 8.7 180 14:18 20.03.2020
1064 Clouds 21 1015 88 10000 10.3 180 13:40 20.03.2020
1065 Clouds 22 1014 83 10000 12.3 180 13:19 20.03.2020
1066 Clouds 23 1014 83 10000 12.9 180 12:39 20.03.2020
1067 Clouds 23 1014 83 10000 8.7 190 12:20 20.03.2020
1068 Clouds 24 1013 83 10000 7.7 160 11:57 20.03.2020
1069 Clouds 26 1013 83 10000 7.7 160 11:38 20.03.2020
1070 Clear 28 1012 34 10000 4.6 260 11:19 20.03.2020
1071 Haze 28 1011 47 10000 10.3 180 10:41 20.03.2020
1072 Clear 29 1011 32 10000 5.1 270 10:21 20.03.2020
1073 Clear 30 1011 27 10000 6.2 270 09:57 20.03.2020
1074 Clear 31 1010 29 10000 6.2 280 09:39 20.03.2020
1075 Clear 32 1010 25 10000 5.7 280 09:19 20.03.2020
1076 Clear 33 1010 23 10000 5.7 280 08:42 20.03.2020
1077 Haze 34 1009 19 10000 10.3 180 08:22 20.03.2020
1078 Haze 34 1009 19 10000 10.3 180 08:22 20.03.2020
1079 Haze 34 1009 17 10000 10.3 180 07:55 20.03.2020
1080 Clear 34 1009 18 10000 8.7 310 07:37 20.03.2020
1081 Clear 34 1009 18 10000 8.7 310 07:18 20.03.2020
1082 Clear 35 1009 19 10000 8.2 310 06:41 20.03.2020
1083 Clouds 35 1011 23 10000 5.7 300 04:52 20.03.2020
1084 Clouds 34 1012 23 10000 7.7 300 03:40 20.03.2020
1085 Clear 31 1014 37 10000 7.7 300 02:21 20.03.2020
1086 Clear 29 1015 42 10000 7.7 300 01:33 20.03.2020
1087 Clear 27 1015 47 10000 7.7 300 00:33 20.03.2020
1088 Clear 24 1015 57 10000 7.7 300 23:49 19.03.2020
1089 Clear 24 1015 57 10000 7.7 300 23:30 19.03.2020
1090 Clouds 22 1015 57 10000 7.7 300 22:58 19.03.2020
1091 Clouds 21 1015 60 10000 2.6 300 22:38 19.03.2020
1092 Clouds 20 1015 68 10000 3.6 310 22:20 19.03.2020
1093 Clouds 20 1015 68 10000 3.6 310 21:56 19.03.2020
1094 Clouds 19 1015 68 10000 3.6 340 21:37 19.03.2020
1095 Clouds 20 1015 68 10000 3.6 340 21:18 19.03.2020
1096 Clouds 19 1015 64 10000 3.1 330 20:42 19.03.2020
1097 Clear 19 1015 73 10000 3.1 320 20:23 19.03.2020
1098 Clear 19 1015 73 10000 3.1 320 19:57 19.03.2020
1099 Clear 19 1015 93 10000 1.88 282 19:38 19.03.2020
1100 Clear 19 1015 73 10000 2.1 250 19:20 19.03.2020
1101 Clear 19 1015 68 10000 1.88 282 18:56 19.03.2020
1102 Clear 19 1015 68 10000 1.88 282 18:38 19.03.2020
1103 Clear 20 1015 68 10000 1.88 282 18:19 19.03.2020
1104 Clear 20 1016 73 10000 1.88 282 17:42 19.03.2020
1105 Clear 20 1016 73 10000 2.6 220 17:19 19.03.2020
1106 Clear 20 1016 68 10000 2.1 10 16:55 19.03.2020
1107 Clear 21 1016 68 10000 2.1 10 16:37 19.03.2020
1108 Clear 20 1016 68 10000 2.1 10 16:19 19.03.2020
1109 Clear 21 1017 64 10000 2.1 10 15:41 19.03.2020
1110 Clear 21 1017 64 10000 3.1 60 15:22 19.03.2020
1111 Clear 21 1018 60 10000 2.1 270 14:43 19.03.2020
1112 Clear 22 1018 60 10000 3.1 360 14:21 19.03.2020
1113 Clear 22 1018 60 10000 3.1 360 13:56 19.03.2020
1114 Clear 22 1018 57 10000 2.6 20 13:37 19.03.2020
1115 Clear 23 1018 61 10000 4.1 20 13:18 19.03.2020
1116 Clear 23 1018 64 10000 4.6 30 12:40 19.03.2020
1117 Clear 23 1018 64 10000 4.6 30 12:22 19.03.2020
1118 Clear 23 1019 61 10000 6.7 30 11:57 19.03.2020
1119 Clear 23 1019 61 10000 6.7 30 11:38 19.03.2020
1120 Clear 24 1018 57 10000 6.7 30 11:19 19.03.2020
1121 Clear 24 1018 47 10000 5.7 30 10:41 19.03.2020
1122 Clear 25 1018 47 10000 5.7 30 10:20 19.03.2020
1123 Clear 25 1018 47 10000 5.7 30 09:57 19.03.2020
1124 Clear 26 1018 44 10000 4.6 30 09:37 19.03.2020
1125 Clear 27 1018 44 10000 4.6 30 09:18 19.03.2020
1126 Clear 30 1018 37 10000 5.7 40 08:42 19.03.2020
1127 Clear 30 1018 37 10000 5.7 40 08:21 19.03.2020
1128 Clear 31 1018 37 10000 5.7 80 07:46 19.03.2020
1129 Clear 32 1018 37 10000 5.7 80 07:28 19.03.2020
1130 Clear 32 1018 35 10000 5.1 80 06:48 19.03.2020
1131 Clear 33 1019 35 10000 3.6 100 05:52 19.03.2020
1132 Clear 32 1019 35 10000 3.1 90 04:59 19.03.2020
1133 Clear 32 1019 42 10000 2.6 120 04:40 19.03.2020
1134 Clear 30 1021 32 10000 2.6 270 03:20 19.03.2020
1135 Clouds 27 1022 39 10000 3.6 290 01:27 19.03.2020
1136 Clouds 24 1022 57 10000 3.6 300 00:35 19.03.2020
1137 Clouds 23 1022 73 10000 4.1 310 23:57 18.03.2020
1138 Clouds 21 1022 73 10000 4.1 310 23:36 18.03.2020
1139 Clear 18 1022 72 10000 4.1 310 23:18 18.03.2020
1140 Clear 17 1021 77 10000 4.1 310 22:42 18.03.2020
1141 Clear 17 1021 77 10000 4.1 310 22:22 18.03.2020
1142 Clear 16 1021 77 10000 4.1 310 21:54 18.03.2020
1143 Clear 15 1021 77 10000 4.1 300 21:36 18.03.2020
1144 Clear 15 1020 77 10000 4.1 320 21:18 18.03.2020
1145 Clear 15 1020 77 10000 3.1 310 20:41 18.03.2020
1146 Clear 15 1021 93 10000 2.3 278 20:21 18.03.2020
1147 Clear 15 1020 100 10000 1.5 30 19:59 18.03.2020
1148 Clear 15 1021 100 10000 2.3 278 19:40 18.03.2020
1149 Clear 15 1021 100 10000 2.3 278 19:21 18.03.2020
1150 Clear 15 1020 100 10000 2.3 278 18:56 18.03.2020
1151 Clear 15 1021 100 6000 2.3 278 18:37 18.03.2020
1152 Clear 16 1021 100 6000 2.3 278 18:18 18.03.2020
1153 Clear 16 1021 93 10000 1 240 17:41 18.03.2020
1154 Clear 16 1021 93 10000 2.18 303 17:22 18.03.2020
1155 Clear 16 1021 93 10000 2.18 303 16:59 18.03.2020
1156 Clear 16 1021 93 10000 2.18 303 16:59 18.03.2020
1157 Clear 16 1021 100 10000 2.18 303 16:40 18.03.2020
1158 Clear 17 1021 100 10000 2.18 303 16:20 18.03.2020
1159 Clear 17 1022 93 10000 2.18 303 15:56 18.03.2020
1160 Clear 17 1022 93 10000 1.5 360 15:37 18.03.2020
1161 Clear 17 1022 77 10000 3.1 350 15:18 18.03.2020
1162 Clear 18 1022 77 10000 4.1 10 14:42 18.03.2020
1163 Clouds 18 1022 77 10000 4.1 10 14:21 18.03.2020
1164 Clouds 18 1023 88 10000 1.86 355 13:40 18.03.2020
1165 Clouds 18 1023 88 10000 1.5 200 13:19 18.03.2020
1166 Clouds 19 1023 82 10000 2.1 60 12:43 18.03.2020
1167 Clouds 19 1022 77 10000 3.1 80 12:21 18.03.2020
1168 Clouds 19 1022 77 10000 3.1 80 11:59 18.03.2020
1169 Clouds 20 1022 68 10000 6.7 20 11:37 18.03.2020
1170 Clouds 20 1022 68 10000 6.7 20 11:37 18.03.2020
1171 Clear 20 1022 68 10000 6.7 20 11:18 18.03.2020
1172 Clear 20 1022 68 10000 6.7 20 10:56 18.03.2020
1173 Clear 20 1022 68 10000 6.7 20 10:56 18.03.2020
1174 Clear 20 1022 68 10000 6.7 20 10:36 18.03.2020
1175 Clear 21 1022 68 10000 6.7 20 10:18 18.03.2020
1176 Clear 22 1021 64 10000 8.7 30 09:42 18.03.2020
1177 Clear 22 1021 64 10000 8.7 30 09:23 18.03.2020
1178 Clear 23 1021 60 10000 8.7 30 08:55 18.03.2020
1179 Clear 24 1021 60 10000 8.7 30 08:36 18.03.2020
1180 Clear 24 1021 53 10000 7.7 30 08:18 18.03.2020
1181 Clear 25 1021 50 10000 8.7 40 07:40 18.03.2020
1182 Clear 25 1021 47 10000 8.2 30 07:22 18.03.2020
1183 Clear 26 1021 47 10000 7.7 40 06:42 18.03.2020
1184 Clear 26 1022 44 10000 6.7 40 05:53 18.03.2020
1185 Clear 26 1022 44 10000 5.7 30 05:19 18.03.2020
1186 Clear 26 1023 36 10000 6.2 30 03:53 18.03.2020
1187 Clear 24 1025 44 10000 3.1 360 02:40 18.03.2020
1188 Clouds 23 1026 47 10000 4.1 350 01:46 18.03.2020
1189 Clouds 22 1026 56 10000 3.6 300 01:21 18.03.2020
1190 Clouds 21 1026 60 10000 3.1 320 00:23 18.03.2020
1191 Clouds 19 1027 68 10000 3.6 320 23:47 17.03.2020
1192 Clouds 18 1027 72 10000 3.1 310 23:26 17.03.2020
1193 Clouds 16 1027 100 250 0.5 40 22:47 17.03.2020
1194 Clouds 15 1026 87 10000 2.1 290 22:29 17.03.2020
1195 Clouds 14 1026 87 10000 2.1 290 21:59 17.03.2020
1196 Clouds 13 1026 100 500 1.77 286 21:37 17.03.2020
1197 Clouds 13 1025 100 200 1.77 286 21:19 17.03.2020
1198 Clouds 13 1025 100 150 1.76 294 20:38 17.03.2020
1199 Clouds 13 1025 100 150 1.52 304 20:20 17.03.2020
1200 Clouds 14 1025 93 250 1.46 308 19:54 17.03.2020
1201 Clouds 13 1025 100 200 1.46 308 19:36 17.03.2020
1202 Clouds 13 1025 100 200 1.46 308 19:18 17.03.2020
1203 Clouds 13 1025 100 200 1.46 308 18:54 17.03.2020
1204 Rain 14 1025 100 200 1.46 308 18:36 17.03.2020
1205 Rain 14 1025 100 250 1.46 308 18:18 17.03.2020
1206 Rain 14 1025 100 250 1.46 308 18:18 17.03.2020
1207 Clouds 14 1025 100 6000 1.46 308 17:40 17.03.2020
1208 Clear 14 1026 93 450 1.22 281 17:20 17.03.2020
1209 Clear 15 1026 100 5000 1.22 281 16:44 17.03.2020
1210 Clear 15 1026 93 10000 1.22 281 16:20 17.03.2020
1211 Clouds 15 1026 82 10000 1.5 350 15:58 17.03.2020
1212 Clear 15 1026 93 10000 1.22 281 15:39 17.03.2020
1213 Clear 15 1026 93 10000 1.22 281 15:18 17.03.2020
1214 Clouds 15 1027 77 10000 1.5 290 14:41 17.03.2020
1215 Clouds 16 1027 77 10000 1.5 290 14:21 17.03.2020
1216 Clouds 16 1027 77 10000 1.5 290 14:21 17.03.2020
1217 Clouds 16 1027 68 10000 1.01 336 13:43 17.03.2020
1218 Clouds 16 1027 68 10000 1.01 336 13:25 17.03.2020
1219 Clouds 16 1027 88 10000 0.98 337 12:58 17.03.2020
1220 Clear 16 1027 68 10000 2.6 30 12:39 17.03.2020
1221 Clouds 16 1027 82 10000 2.1 50 12:21 17.03.2020
1222 Clouds 17 1027 72 10000 1.5 60 11:45 17.03.2020
1223 Clear 17 1027 68 10000 2.1 80 11:27 17.03.2020
1224 Clouds 17 1027 72 10000 1.5 60 11:27 17.03.2020
1225 Clouds 17 1026 82 10000 0.5 50 10:58 17.03.2020
1226 Clear 18 1026 68 10000 2.6 70 10:37 17.03.2020
1227 Rain 18 1026 68 10000 2.1 100 10:19 17.03.2020
1228 Rain 19 1026 68 10000 2.1 100 09:55 17.03.2020
1229 Rain 19 1026 68 10000 3.1 120 09:36 17.03.2020
1230 Rain 20 1026 64 10000 3.6 150 09:18 17.03.2020
1231 Clouds 21 1026 72 10000 4.1 170 08:42 17.03.2020
1232 Clouds 21 1026 68 10000 5.7 170 08:21 17.03.2020
1233 Clouds 21 1026 68 10000 5.7 170 07:50 17.03.2020
1234 Clouds 21 1026 68 10000 4.6 170 07:25 17.03.2020
1235 Clouds 22 1026 68 10000 4.6 170 06:58 17.03.2020
1236 Clouds 22 1026 68 10000 4.6 170 06:33 17.03.2020
1237 Clouds 22 1026 60 10000 5.1 160 05:46 17.03.2020
1238 Clouds 22 1027 68 10000 4.1 200 03:36 17.03.2020
1239 Clouds 21 1028 77 10000 5.1 200 02:45 17.03.2020
1240 Clouds 20 1028 77 10000 5.7 210 01:42 17.03.2020
1241 Clouds 20 1028 77 10000 5.7 210 01:24 17.03.2020
1242 Rain 19 1028 82 10000 3.6 230 00:31 17.03.2020
1243 Rain 18 1027 88 10000 5.1 210 23:45 16.03.2020
1244 Drizzle 18 1027 88 10000 3.6 190 23:25 16.03.2020
1245 Rain 16 1027 82 10000 2.6 300 22:41 16.03.2020
1246 Clouds 16 1027 100 10000 1.96 201 22:23 16.03.2020
1247 Drizzle 15 1027 93 10000 3.6 300 21:57 16.03.2020
1248 Clouds 15 1027 87 10000 3.6 320 21:39 16.03.2020
1249 Clouds 15 1027 87 10000 3.6 320 21:21 16.03.2020
1250 Clouds 15 1026 93 10000 4.1 290 20:55 16.03.2020
1251 Clouds 15 1026 93 10000 3.1 270 20:37 16.03.2020
1252 Clouds 15 1026 93 10000 3.1 290 20:18 16.03.2020
1253 Rain 15 1026 93 10000 3.6 270 19:41 16.03.2020
1254 Clouds 15 1026 93 10000 2.6 260 19:20 16.03.2020
1255 Clouds 15 1026 93 10000 1.5 230 18:43 16.03.2020
1256 Clouds 15 1026 93 10000 2.24 185 18:21 16.03.2020
1257 Clouds 15 1026 93 10000 2.24 185 17:55 16.03.2020
1258 Clouds 15 1026 100 10000 1 230 17:37 16.03.2020
1259 Clouds 15 1027 93 10000 2.6 240 17:18 16.03.2020
1260 Clouds 16 1027 88 10000 6.7 210 16:44 16.03.2020
1261 Clouds 16 1027 88 10000 6.7 210 16:24 16.03.2020
1262 Clouds 16 1027 88 10000 6.2 210 15:45 16.03.2020
1263 Rain 16 1027 93 10000 4.6 200 15:27 16.03.2020
1264 Rain 16 1027 88 10000 7.2 200 14:49 16.03.2020
1265 Rain 16 1027 88 10000 7.2 200 14:28 16.03.2020
1266 Clouds 16 1027 88 10000 2.6 230 13:59 16.03.2020
1267 Clouds 16 1027 88 10000 4.1 150 13:41 16.03.2020
1268 Clouds 16 1027 88 10000 4.1 150 13:22 16.03.2020
1269 Rain 17 1027 77 10000 9.3 150 12:45 16.03.2020
1270 Rain 17 1027 82 10000 10.8 180 12:24 16.03.2020
1271 Clouds 17 1027 77 10000 12.9 160 11:56 16.03.2020
1272 Rain 17 1026 82 10000 9.3 130 11:37 16.03.2020
1273 Rain 17 1026 82 10000 9.3 130 11:18 16.03.2020
1274 Rain 17 1026 82 10000 7.7 150 10:40 16.03.2020
1275 Rain 18 1026 77 10000 9.8 160 10:19 16.03.2020
1276 Rain 18 1025 82 10000 5.7 170 09:42 16.03.2020
1277 Rain 18 1025 82 10000 7.7 180 09:24 16.03.2020
1278 Rain 19 1025 82 10000 7.7 180 08:54 16.03.2020
1279 Rain 20 1025 77 10000 8.7 150 08:25 16.03.2020
1280 Rain 21 1025 77 10000 10.8 160 07:50 16.03.2020
1281 Rain 21 1024 68 10000 11.3 180 07:27 16.03.2020
1282 Rain 21 1024 68 10000 10.8 180 06:54 16.03.2020
1283 Rain 20 1024 68 10000 9.8 180 06:25 16.03.2020
1284 Rain 19 1025 82 10000 5.7 100 05:42 16.03.2020
1285 Rain 19 1025 88 10000 9.8 180 02:44 16.03.2020
1286 Rain 18 1025 100 6000 10.8 180 01:20 16.03.2020
1287 Rain 18 1025 93 10000 8.2 170 00:39 16.03.2020
1288 Rain 17 1024 93 10000 8.7 190 23:48 15.03.2020
1289 Rain 17 1024 93 10000 8.7 190 23:20 15.03.2020
1290 Rain 16 1024 100 10000 4.1 210 22:43 15.03.2020
1291 Rain 16 1024 100 10000 4.1 210 22:23 15.03.2020
1292 Rain 15 1024 100 3900 4.1 210 21:59 15.03.2020
1293 Rain 15 1024 93 8000 3.6 210 21:39 15.03.2020
1294 Rain 15 1024 93 8000 3.6 210 21:19 15.03.2020
1295 Rain 15 1023 93 6000 3.6 210 20:43 15.03.2020
1296 Rain 15 1023 93 9000 8.2 180 20:22 15.03.2020
1297 Rain 15 1022 93 10000 7.7 190 19:58 15.03.2020
1298 Rain 15 1022 93 9000 6.7 190 19:40 15.03.2020
1299 Rain 15 1022 93 9000 6.7 190 19:22 15.03.2020
1300 Rain 15 1022 93 10000 7.7 180 18:57 15.03.2020
1301 Rain 15 1023 77 10000 2.1 170 18:38 15.03.2020
1302 Rain 15 1022 93 6000 7.7 170 18:20 15.03.2020
1303 Rain 15 1022 88 10000 9.8 160 17:42 15.03.2020
1304 Rain 15 1023 72 10000 3.1 200 17:22 15.03.2020
1305 Rain 15 1023 72 10000 3.1 200 16:59 15.03.2020
1306 Rain 15 1023 88 10000 4.6 170 16:41 15.03.2020
1307 Rain 15 1023 88 10000 4.6 170 16:22 15.03.2020
1308 Rain 15 1023 82 10000 7.7 200 15:57 15.03.2020
1309 Rain 16 1023 87 10000 2.6 240 15:38 15.03.2020
1310 Rain 16 1023 87 10000 2.6 240 15:19 15.03.2020
1311 Rain 16 1024 87 10000 2.1 250 14:43 15.03.2020
1312 Rain 16 1024 87 10000 2.1 250 14:24 15.03.2020
1313 Clouds 16 1023 82 10000 5.1 230 13:57 15.03.2020
1314 Clouds 16 1024 87 10000 3.1 230 13:38 15.03.2020
1315 Clouds 16 1024 87 10000 4.1 200 13:19 15.03.2020
1316 Clouds 16 1024 87 10000 5.7 190 12:41 15.03.2020
1317 Clouds 16 1023 82 10000 8.2 180 12:23 15.03.2020
1318 Clouds 16 1023 88 10000 9.3 170 11:45 15.03.2020
1319 Clouds 17 1023 82 10000 10.3 170 11:26 15.03.2020
1320 Clouds 17 1023 82 10000 10.3 170 11:00 15.03.2020
1321 Clouds 17 1023 72 10000 3.1 180 10:41 15.03.2020
1322 Clouds 17 1023 72 10000 3.1 180 10:23 15.03.2020
1323 Clouds 17 1023 88 10000 7.2 200 09:59 15.03.2020
1324 Rain 17 1022 82 10000 7.7 190 09:39 15.03.2020
1325 Rain 17 1022 82 10000 7.7 190 09:20 15.03.2020
1326 Rain 18 1022 82 10000 10.3 190 08:42 15.03.2020
1327 Rain 18 1022 82 10000 10.3 190 08:20 15.03.2020
1328 Rain 19 1022 82 10000 8.7 190 07:50 15.03.2020
1329 Rain 19 1022 88 9000 9.8 190 07:23 15.03.2020
1330 Clouds 19 1021 72 10000 9.8 180 06:45 15.03.2020
1331 Rain 19 1021 77 10000 10.3 180 05:50 15.03.2020
1332 Rain 18 1021 82 8000 9.8 190 05:18 15.03.2020
1333 Rain 19 1022 77 6000 9.3 190 04:41 15.03.2020
1334 Rain 19 1022 77 6000 9.3 190 04:23 15.03.2020
1335 Rain 18 1022 88 6000 7.7 180 03:30 15.03.2020
1336 Rain 19 1022 82 5000 10.3 190 02:37 15.03.2020
1337 Rain 19 1022 77 10000 9.8 180 01:34 15.03.2020
1338 Rain 18 1022 72 10000 11.3 180 00:45 15.03.2020
1339 Rain 18 1021 72 10000 10.8 180 00:22 15.03.2020
1340 Rain 17 1021 68 10000 7.2 160 23:42 14.03.2020
1341 Rain 17 1021 68 10000 7.2 160 23:22 14.03.2020
1342 Rain 15 1021 77 10000 7.2 160 22:59 14.03.2020
1343 Clouds 15 1021 72 10000 2.6 220 22:41 14.03.2020
1344 Clouds 14 1021 72 10000 2.6 220 22:23 14.03.2020
1345 Rain 14 1021 72 10000 7.2 160 21:56 14.03.2020
1346 Rain 14 1020 72 10000 7.2 160 21:36 14.03.2020
1347 Rain 14 1020 72 10000 7.2 160 21:36 14.03.2020
1348 Rain 14 1020 77 10000 7.2 160 21:18 14.03.2020
1349 Rain 14 1020 77 10000 7.2 160 20:58 14.03.2020
1350 Rain 14 1020 77 10000 8.2 200 20:40 14.03.2020
1351 Clouds 14 1019 77 10000 9.8 200 20:19 14.03.2020
1352 Clouds 14 1019 72 10000 10.3 190 19:43 14.03.2020
1353 Rain 14 1020 76 10000 2.6 220 19:25 14.03.2020
1354 Clouds 15 1019 68 10000 10.8 180 18:42 14.03.2020
1355 Clouds 15 1019 68 10000 10.8 180 18:24 14.03.2020
1356 Clouds 15 1020 72 10000 3.6 220 17:58 14.03.2020
1357 Clouds 15 1020 72 10000 3.6 220 17:38 14.03.2020
1358 Clouds 15 1020 72 10000 3.6 220 17:38 14.03.2020
1359 Clouds 15 1020 72 10000 4.6 210 17:20 14.03.2020
1360 Clouds 15 1020 72 10000 4.6 210 17:20 14.03.2020
1361 Clouds 15 1020 72 10000 4.1 220 16:41 14.03.2020
1362 Clouds 15 1020 72 10000 4.1 220 16:23 14.03.2020
1363 Clouds 15 1020 72 10000 4.1 220 15:58 14.03.2020
1364 Clouds 15 1020 77 10000 3.1 230 15:27 14.03.2020
1365 Clouds 15 1020 59 10000 9.3 160 14:58 14.03.2020
1366 Clouds 16 1020 72 10000 5.1 220 14:37 14.03.2020
1367 Clouds 16 1020 55 10000 8.7 160 14:18 14.03.2020
1368 Clouds 16 1020 55 10000 8.7 160 13:42 14.03.2020
1369 Clouds 16 1020 77 10000 3.6 230 13:23 14.03.2020
1370 Clouds 16 1020 55 10000 9.3 160 12:57 14.03.2020
1371 Clouds 16 1020 55 10000 9.3 160 12:38 14.03.2020
1372 Clouds 16 1020 55 10000 9.3 160 12:19 14.03.2020
1373 Clouds 15 1020 82 10000 3.6 240 11:40 14.03.2020
1374 Clouds 15 1020 82 10000 3.6 240 11:20 14.03.2020
1375 Clouds 15 1019 82 10000 4.1 230 10:46 14.03.2020
1376 Clouds 15 1019 82 10000 4.1 230 10:27 14.03.2020
1377 Clouds 14 1019 82 10000 4.6 230 09:58 14.03.2020
1378 Clouds 14 1019 82 10000 4.6 230 09:40 14.03.2020
1379 Clouds 14 1019 93 10000 3.6 240 09:20 14.03.2020
1380 Rain 14 1019 93 10000 3.6 240 08:46 14.03.2020
1381 Rain 14 1019 100 10000 2.1 230 08:24 14.03.2020
1382 Rain 13 1018 93 8000 9.3 180 07:40 14.03.2020
1383 Rain 13 1018 93 8000 7.7 180 07:21 14.03.2020
1384 Rain 13 1018 93 8000 7.7 210 06:41 14.03.2020
1385 Rain 13 1018 100 7000 8.2 220 05:58 14.03.2020
1386 Rain 13 1018 93 9000 10.3 200 04:53 14.03.2020
1387 Rain 15 1018 87 10000 12.9 170 03:34 14.03.2020
1388 Clouds 15 1018 82 10000 11.8 190 02:43 14.03.2020
1389 Rain 16 1018 87 10000 6.77 185 01:42 14.03.2020
1390 Rain 16 1017 77 8000 14.9 170 00:23 14.03.2020
1391 Rain 16 1016 82 8000 15.9 170 23:42 13.03.2020
1392 Rain 16 1016 88 10000 5.1 170 23:23 13.03.2020
1393 Rain 17 1016 82 10000 6.7 180 22:44 13.03.2020
1394 Drizzle 18 1015 72 10000 15.4 170 22:22 13.03.2020
1395 Rain 18 1014 77 9000 15.9 170 21:41 13.03.2020
1396 Clouds 18 1013 82 10000 14.4 200 21:19 13.03.2020
1397 Clouds 18 1013 82 10000 14.4 200 21:19 13.03.2020
1398 Clouds 17 1013 100 10000 3.6 210 20:42 13.03.2020
1399 Clouds 16 1013 100 10000 3.6 210 20:22 13.03.2020
1400 Clouds 16 1012 100 10000 2.4 194 19:58 13.03.2020
1401 Clouds 16 1011 82 10000 2.6 20 19:39 13.03.2020
1402 Clouds 16 1011 93 10000 1.5 220 19:19 13.03.2020
1403 Clouds 16 1011 93 10000 2.4 194 18:43 13.03.2020
1404 Clouds 16 1011 93 10000 2.4 194 18:23 13.03.2020
1405 Clouds 16 1012 100 10000 2.4 194 17:43 13.03.2020
1406 Clouds 16 1012 100 10000 2.22 337 17:21 13.03.2020
1407 Clouds 16 1012 100 10000 2.22 337 16:59 13.03.2020
1408 Clouds 17 1012 100 10000 2.22 337 16:39 13.03.2020
1409 Clouds 17 1013 100 10000 2.22 337 16:20 13.03.2020
1410 Clouds 17 1013 100 10000 2.22 337 15:46 13.03.2020
1411 Clouds 17 1013 100 10000 2.22 337 15:23 13.03.2020
1412 Clouds 18 1013 77 10000 4.1 320 14:59 13.03.2020
1413 Clouds 18 1013 93 10000 2.22 337 14:40 13.03.2020
1414 Clear 18 1014 88 10000 2.98 352 14:22 13.03.2020
1415 Clear 18 1014 88 10000 2.98 352 13:55 13.03.2020
1416 Clear 19 1014 88 10000 2.1 60 13:36 13.03.2020
1417 Clear 19 1014 88 10000 1.5 60 13:18 13.03.2020
1418 Clear 19 1014 82 10000 2.1 60 12:39 13.03.2020
1419 Clear 19 1014 82 10000 2.1 60 12:20 13.03.2020
1420 Clear 20 1014 82 10000 2.6 70 11:57 13.03.2020
1421 Clear 20 1014 77 10000 2.1 70 11:37 13.03.2020
1422 Clear 20 1014 77 10000 2.1 70 11:19 13.03.2020
1423 Clear 20 1014 68 10000 4.1 70 10:47 13.03.2020
1424 Clear 21 1014 68 10000 4.1 70 10:26 13.03.2020
1425 Clear 21 1014 64 10000 7.2 30 09:56 13.03.2020
1426 Clear 21 1014 64 10000 7.2 30 09:56 13.03.2020
1427 Clear 21 1014 64 10000 8.2 40 09:38 13.03.2020
1428 Clear 22 1014 64 10000 8.2 40 09:19 13.03.2020
1429 Clear 23 1014 50 10000 8.7 50 08:42 13.03.2020
1430 Clear 24 1014 50 10000 8.7 50 08:22 13.03.2020
1431 Clouds 24 1014 50 10000 8.2 50 07:47 13.03.2020
1432 Clouds 25 1014 44 10000 8.2 50 07:27 13.03.2020
1433 Clouds 26 1015 47 10000 7.2 60 06:46 13.03.2020
1434 Clouds 26 1015 47 10000 7.2 60 06:24 13.03.2020
1435 Clouds 26 1016 44 10000 7.2 30 05:46 13.03.2020
1436 Clouds 26 1016 44 10000 9.3 70 05:20 13.03.2020
1437 Clouds 26 1016 44 10000 7.2 70 04:37 13.03.2020
1438 Clouds 25 1018 44 10000 2.6 310 02:58 13.03.2020
1439 Clear 24 1020 47 10000 3.1 310 01:43 13.03.2020
1440 Clear 23 1020 53 10000 3.6 290 01:18 13.03.2020
1441 Clouds 22 1020 60 10000 3.1 290 00:47 13.03.2020
1442 Clouds 21 1020 60 10000 3.1 290 00:23 13.03.2020
1443 Clouds 20 1020 64 10000 2.6 290 23:48 12.03.2020
1444 Clouds 19 1020 64 10000 2.6 290 23:26 12.03.2020
1445 Rain 16 1021 100 10000 1.82 268 22:56 12.03.2020
1446 Rain 16 1021 72 10000 3.1 310 22:38 12.03.2020
1447 Clear 15 1021 72 10000 3.1 310 22:19 12.03.2020
1448 Clouds 14 1021 100 1600 1.82 268 21:43 12.03.2020
1449 Clouds 14 1021 100 1600 1.82 268 21:24 12.03.2020
1450 Clouds 13 1021 100 200 1.82 268 20:56 12.03.2020
1451 Clouds 14 1021 100 200 1.82 268 20:37 12.03.2020
1452 Clouds 13 1021 100 200 1.68 267 20:18 12.03.2020
1453 Clouds 14 1021 100 600 1.68 267 19:39 12.03.2020
1454 Clouds 14 1021 100 10000 1.68 267 19:20 12.03.2020
1455 Clouds 14 1021 100 5000 1.68 267 18:43 12.03.2020
1456 Clouds 14 1021 100 5000 1.68 267 18:43 12.03.2020
1457 Clouds 14 1021 93 500 1.68 267 18:24 12.03.2020
1458 Clouds 14 1022 100 10000 1.68 267 17:57 12.03.2020
1459 Clouds 14 1022 100 10000 1.68 267 17:38 12.03.2020
1460 Clouds 15 1022 100 10000 1.91 254 17:19 12.03.2020
1461 Clouds 15 1022 100 10000 1.91 254 16:54 12.03.2020
1462 Clouds 15 1022 100 10000 1.91 254 16:36 12.03.2020
1463 Clouds 15 1022 100 10000 1.91 254 16:18 12.03.2020
1464 Clouds 15 1023 93 10000 1.91 254 15:43 12.03.2020
1465 Clouds 15 1023 87 10000 1.91 254 15:24 12.03.2020
1466 Clouds 16 1023 93 10000 1.91 254 14:40 12.03.2020
1467 Clear 17 1023 87 10000 2.1 250 14:21 12.03.2020
1468 Clear 17 1023 87 10000 2.1 250 14:21 12.03.2020
1469 Clear 17 1023 87 10000 2.1 250 13:56 12.03.2020
1470 Clear 17 1023 87 10000 1.5 270 13:36 12.03.2020
1471 Clear 17 1023 87 10000 0.97 16 13:18 12.03.2020
1472 Clear 18 1023 82 10000 0.97 16 12:41 12.03.2020
1473 Clear 18 1023 77 10000 1 80 12:21 12.03.2020
1474 Clear 18 1023 72 10000 1.5 70 11:56 12.03.2020
1475 Clear 19 1023 72 10000 1.5 70 11:38 12.03.2020
1476 Clouds 19 1023 64 10000 3.1 40 11:19 12.03.2020
1477 Clouds 19 1023 64 10000 3.1 40 10:58 12.03.2020
1478 Clouds 20 1022 60 10000 4.1 50 10:40 12.03.2020
1479 Clouds 20 1022 53 10000 4.6 50 10:22 12.03.2020
1480 Clouds 21 1022 53 10000 4.6 50 09:46 12.03.2020
1481 Clouds 21 1022 56 10000 6.2 60 09:25 12.03.2020
1482 Clouds 22 1022 53 10000 6.2 50 08:44 12.03.2020
1483 Clouds 23 1022 53 10000 6.7 70 08:20 12.03.2020
1484 Clouds 23 1022 53 10000 6.7 70 07:59 12.03.2020
1485 Clouds 23 1022 53 10000 6.7 70 07:40 12.03.2020
1486 Clouds 24 1022 53 10000 6.7 70 07:21 12.03.2020
1487 Clouds 24 1023 41 10000 5.7 80 05:51 12.03.2020
1488 Clouds 25 1023 44 10000 5.1 90 05:25 12.03.2020
1489 Clouds 24 1025 50 10000 5.1 90 02:41 12.03.2020
1490 Clouds 23 1025 53 10000 7.2 80 01:36 12.03.2020
1491 Clouds 23 1025 53 10000 7.2 80 01:18 12.03.2020
1492 Clouds 22 1025 57 10000 6.2 80 00:40 12.03.2020
1493 Clouds 20 1025 73 10000 2.31 66 23:51 11.03.2020
1494 Clouds 19 1025 77 10000 4.1 100 23:26 11.03.2020
1495 Clouds 18 1025 100 10000 0.5 220 22:55 11.03.2020
1496 Rain 18 1025 82 10000 4.1 100 22:37 11.03.2020
1497 Rain 18 1025 82 10000 4.1 100 22:37 11.03.2020
1498 Rain 17 1024 82 10000 0.5 250 22:18 11.03.2020
1499 Rain 16 1024 100 10000 1.5 140 21:41 11.03.2020
1500 Rain 16 1024 100 10000 1.5 140 21:23 11.03.2020
1501 Rain 15 1024 93 10000 1.22 244 20:59 11.03.2020
1502 Rain 16 1024 93 10000 1.22 244 20:40 11.03.2020
1503 Rain 15 1024 93 10000 1.26 240 20:20 11.03.2020
1504 Rain 15 1023 100 10000 1.26 240 19:58 11.03.2020
1505 Rain 15 1023 100 10000 1.26 240 19:39 11.03.2020
1506 Clouds 15 1023 100 10000 1.26 240 19:21 11.03.2020
1507 Clouds 15 1023 100 10000 1.26 240 18:56 11.03.2020
1508 Rain 15 1023 93 10000 2.1 230 18:36 11.03.2020
1509 Rain 16 1023 93 10000 2.1 230 18:18 11.03.2020
1510 Clouds 16 1024 100 10000 2.1 260 17:40 11.03.2020
1511 Clouds 16 1024 93 10000 1 270 17:21 11.03.2020
1512 Clouds 17 1024 82 10000 0.9 295 16:55 11.03.2020
1513 Clouds 17 1024 93 10000 2.6 130 16:37 11.03.2020
1514 Clouds 17 1024 93 10000 2.6 130 16:19 11.03.2020
1515 Clouds 17 1024 93 10000 1.5 70 15:42 11.03.2020
1516 Clouds 17 1024 93 10000 1.5 70 15:22 11.03.2020
1517 Clouds 17 1024 93 10000 0.9 295 14:44 11.03.2020
1518 Clouds 17 1024 93 10000 0.9 295 14:23 11.03.2020
1519 Clouds 17 1024 88 10000 1.96 51 13:59 11.03.2020
1520 Clouds 17 1024 93 10000 2.1 57 13:40 11.03.2020
1521 Clouds 17 1024 93 10000 2.1 57 13:21 11.03.2020
1522 Clouds 18 1024 88 10000 2.1 57 12:55 11.03.2020
1523 Clouds 18 1024 88 10000 2.1 57 12:37 11.03.2020
1524 Clear 18 1024 82 10000 2.1 57 12:18 11.03.2020
1525 Clouds 19 1024 60 10000 3.6 90 11:40 11.03.2020
1526 Clouds 19 1024 64 10000 3.6 90 11:20 11.03.2020
1527 Clouds 20 1024 64 10000 4.1 90 10:46 11.03.2020
1528 Clear 20 1023 72 10000 3.1 80 10:20 11.03.2020
1529 Clouds 21 1023 60 10000 4.6 90 09:55 11.03.2020
1530 Clouds 21 1023 56 10000 5.1 90 09:36 11.03.2020
1531 Clouds 22 1023 53 10000 5.1 90 09:18 11.03.2020
1532 Clouds 22 1023 56 10000 4.6 80 08:42 11.03.2020
1533 Clouds 22 1023 56 10000 4.6 80 08:42 11.03.2020
1534 Clouds 23 1023 56 10000 4.6 80 08:23 11.03.2020
1535 Clouds 23 1023 53 10000 5.1 110 07:47 11.03.2020
1536 Clouds 24 1023 57 10000 5.7 100 07:20 11.03.2020
1537 Clouds 24 1023 53 10000 6.7 110 06:49 11.03.2020
1538 Clouds 24 1023 53 10000 6.7 110 06:30 11.03.2020
1539 Clouds 24 1023 50 10000 5.1 110 05:32 11.03.2020
1540 Clouds 23 1023 56 10000 6.2 130 02:45 11.03.2020
1541 Rain 23 1023 73 10000 6.7 190 01:52 11.03.2020
1542 Clouds 23 1024 73 10000 5.7 180 01:23 11.03.2020
1543 Clouds 23 1023 73 10000 5.1 190 00:37 11.03.2020
1544 Clouds 20 1023 72 10000 4.1 160 23:50 10.03.2020
1545 Clouds 19 1023 72 10000 4.1 160 23:28 10.03.2020
1546 Clouds 17 1023 72 10000 4.1 160 22:58 10.03.2020
1547 Clouds 17 1022 77 10000 1.66 239 22:37 10.03.2020
1548 Clouds 16 1022 77 10000 1.66 239 22:19 10.03.2020
1549 Clouds 15 1022 77 10000 1.66 239 21:56 10.03.2020
1550 Clouds 15 1022 82 10000 0.5 300 21:38 10.03.2020
1551 Clear 14 1022 100 10000 1.66 239 21:18 10.03.2020
1552 Clouds 14 1021 87 10000 1 310 20:43 10.03.2020
1553 Clouds 15 1021 87 10000 1 310 20:21 10.03.2020
1554 Clouds 14 1021 82 10000 1.91 238 19:59 10.03.2020
1555 Clouds 15 1021 88 10000 1.91 238 19:41 10.03.2020
1556 Clouds 15 1021 93 10000 1.91 238 19:23 10.03.2020
1557 Clouds 15 1021 82 10000 1.91 238 18:58 10.03.2020
1558 Clouds 15 1021 88 10000 1.91 238 18:40 10.03.2020
1559 Clouds 15 1021 88 10000 1.91 238 18:21 10.03.2020
1560 Clouds 15 1021 88 10000 1.91 238 17:56 10.03.2020
1561 Clouds 15 1021 88 10000 1.91 238 17:37 10.03.2020
1562 Clouds 15 1021 88 10000 1.88 250 17:18 10.03.2020
1563 Clouds 15 1022 88 10000 2.1 230 16:38 10.03.2020
1564 Clouds 16 1022 88 10000 2.1 230 16:18 10.03.2020
1565 Clouds 16 1022 93 10000 1.88 250 15:43 10.03.2020
1566 Clouds 16 1022 93 10000 1.88 250 15:20 10.03.2020
1567 Clouds 16 1022 93 10000 1.88 250 14:59 10.03.2020
1568 Clouds 16 1022 93 10000 1.88 250 14:59 10.03.2020
1569 Clouds 16 1022 93 10000 1.88 250 14:40 10.03.2020
1570 Clouds 16 1022 87 10000 1.5 260 14:19 10.03.2020
1571 Clouds 16 1022 93 10000 0.54 279 14:19 10.03.2020
1572 Clouds 16 1022 87 10000 1.5 260 13:45 10.03.2020
1573 Clouds 16 1022 87 10000 0.61 322 13:26 10.03.2020
1574 Clouds 17 1021 88 10000 0.61 322 12:59 10.03.2020
1575 Clouds 17 1021 88 10000 0.61 322 12:39 10.03.2020
1576 Clouds 17 1021 82 10000 2.1 270 12:18 10.03.2020
1577 Clouds 18 1021 64 10000 0.61 322 11:43 10.03.2020
1578 Clouds 18 1021 64 10000 0.61 322 11:24 10.03.2020
1579 Clouds 18 1021 68 10000 2.1 100 10:58 10.03.2020
1580 Clouds 19 1020 68 10000 2.6 110 10:40 10.03.2020
1581 Clouds 19 1020 68 10000 2.6 110 10:21 10.03.2020
1582 Clouds 20 1020 64 10000 2.1 130 09:56 10.03.2020
1583 Clouds 20 1020 64 10000 3.1 130 09:37 10.03.2020
1584 Clouds 21 1020 64 10000 3.1 130 09:18 10.03.2020
1585 Clouds 21 1020 56 10000 3.6 130 08:45 10.03.2020
1586 Clouds 22 1020 56 10000 3.6 130 08:26 10.03.2020
1587 Clouds 22 1019 46 10000 3.6 140 07:46 10.03.2020
1588 Clouds 22 1019 46 10000 3.6 140 07:28 10.03.2020
1589 Clouds 23 1020 49 10000 3.6 130 06:42 10.03.2020
1590 Clouds 23 1019 53 10000 4.1 70 06:23 10.03.2020
1591 Clouds 23 1020 53 10000 2.6 110 05:39 10.03.2020
1592 Clouds 23 1021 60 10000 3.1 130 04:35 10.03.2020
1593 Clouds 22 1021 56 10000 0.5 110 03:35 10.03.2020
1594 Clouds 22 1022 64 10000 2.1 140 02:18 10.03.2020
1595 Rain 21 1022 82 10000 7.7 200 01:20 10.03.2020
1596 Rain 20 1022 72 10000 5.1 190 00:41 10.03.2020
1597 Rain 20 1022 77 10000 4.6 160 00:22 10.03.2020
1598 Rain 19 1022 82 10000 4.6 180 23:40 09.03.2020
1599 Rain 18 1022 82 10000 3.6 160 23:21 09.03.2020
1600 Rain 17 1021 88 10000 5.7 150 22:41 09.03.2020
1601 Rain 17 1021 88 10000 5.7 150 22:22 09.03.2020
1602 Rain 16 1021 88 10000 5.1 190 21:57 09.03.2020
1603 Rain 16 1021 100 10000 2.15 200 21:39 09.03.2020
1604 Rain 15 1021 100 10000 2.15 200 21:20 09.03.2020
1605 Rain 16 1021 88 10000 3.1 200 20:56 09.03.2020
1606 Clouds 16 1021 100 10000 2.1 240 20:37 09.03.2020
1607 Clouds 16 1021 100 10000 2.1 240 20:19 09.03.2020
1608 Clouds 16 1021 93 10000 1.87 225 19:44 09.03.2020
1609 Clouds 16 1021 93 10000 1.87 225 19:25 09.03.2020
1610 Clouds 16 1021 93 10000 1.87 225 18:58 09.03.2020
1611 Clouds 16 1021 93 10000 1.87 225 18:38 09.03.2020
1612 Clouds 16 1021 93 10000 1.87 225 18:19 09.03.2020
1613 Rain 16 1021 93 10000 1.87 225 17:57 09.03.2020
1614 Rain 16 1021 93 10000 0.5 180 17:38 09.03.2020
1615 Rain 16 1021 93 10000 2.1 140 17:20 09.03.2020
1616 Rain 16 1021 93 10000 2.1 140 16:58 09.03.2020
1617 Rain 16 1021 88 10000 3.1 200 16:58 09.03.2020
1618 Rain 16 1021 88 10000 3.1 200 16:39 09.03.2020
1619 Rain 16 1021 88 10000 3.1 200 16:20 09.03.2020
1620 Rain 17 1021 88 10000 3.1 200 15:58 09.03.2020
1621 Rain 17 1021 82 10000 5.7 190 15:38 09.03.2020
1622 Rain 17 1021 82 10000 5.7 190 15:20 09.03.2020
1623 Rain 17 1021 82 10000 6.2 150 14:55 09.03.2020
1624 Rain 17 1022 93 10000 2.6 250 14:36 09.03.2020
1625 Rain 17 1022 93 10000 2.6 250 14:18 09.03.2020
1626 Rain 17 1022 93 10000 3.6 210 13:55 09.03.2020
1627 Rain 17 1022 93 10000 3.1 180 13:36 09.03.2020
1628 Rain 17 1022 93 10000 3.1 180 13:18 09.03.2020
1629 Rain 18 1021 82 10000 4.1 160 12:41 09.03.2020
1630 Rain 18 1021 82 10000 4.1 160 12:22 09.03.2020
1631 Rain 18 1021 88 10000 4.1 170 11:42 09.03.2020
1632 Rain 18 1021 88 10000 4.1 170 11:22 09.03.2020
1633 Rain 18 1021 88 10000 4.1 170 11:22 09.03.2020
1634 Rain 18 1021 93 10000 6.7 180 10:59 09.03.2020
1635 Rain 18 1021 82 7000 7.7 170 10:40 09.03.2020
1636 Rain 18 1021 82 7000 7.7 170 10:40 09.03.2020
1637 Rain 18 1021 82 7000 7.7 170 10:20 09.03.2020
1638 Rain 19 1020 68 10000 2.6 160 09:59 09.03.2020
1639 Clouds 19 1020 72 10000 4.6 140 09:37 09.03.2020
1640 Clouds 19 1020 72 10000 4.6 140 09:19 09.03.2020
1641 Rain 19 1020 72 10000 5.1 130 08:43 09.03.2020
1642 Clouds 20 1020 72 10000 5.1 130 08:25 09.03.2020
1643 Clouds 20 1020 77 10000 6.7 170 07:41 09.03.2020
1644 Clouds 20 1020 77 10000 6.7 170 07:22 09.03.2020
1645 Clouds 21 1020 72 10000 7.2 170 06:46 09.03.2020
1646 Clouds 21 1020 72 10000 7.2 170 06:26 09.03.2020
1647 Rain 21 1020 77 10000 6.7 160 05:57 09.03.2020
1648 Rain 21 1020 68 10000 7.7 140 05:39 09.03.2020
1649 Clouds 21 1021 68 10000 6.7 140 04:43 09.03.2020
1650 Rain 21 1021 68 10000 6.7 140 04:22 09.03.2020
1651 Rain 21 1021 73 10000 7.2 180 03:28 09.03.2020
1652 Rain 20 1022 82 10000 7.7 180 01:50 09.03.2020
1653 Rain 19 1021 77 10000 7.2 170 00:39 09.03.2020
1654 Rain 19 1021 82 10000 7.2 200 00:21 09.03.2020
1655 Rain 19 1021 82 10000 5.7 190 23:52 08.03.2020
1656 Rain 18 1021 82 10000 5.7 190 23:25 08.03.2020
1657 Rain 18 1021 88 10000 5.1 200 22:58 08.03.2020
1658 Drizzle 17 1021 93 10000 1 30 22:39 08.03.2020
1659 Drizzle 17 1021 93 10000 1 30 22:21 08.03.2020
1660 Drizzle 17 1021 93 9000 3.6 70 21:57 08.03.2020
1661 Drizzle 17 1020 93 9000 3.1 100 21:38 08.03.2020
1662 Rain 17 1020 100 10000 2.6 240 21:19 08.03.2020
1663 Rain 17 1020 88 10000 1 220 20:56 08.03.2020
1664 Rain 17 1020 88 10000 1 170 20:37 08.03.2020
1665 Drizzle 17 1019 93 9000 3.6 180 20:18 08.03.2020
1666 Rain 17 1019 88 10000 2.6 190 19:37 08.03.2020
1667 Rain 17 1019 88 10000 2.6 190 19:19 08.03.2020
1668 Rain 17 1019 93 10000 0.5 220 18:42 08.03.2020
1669 Rain 17 1018 92 0 2.56 178 18:24 08.03.2020
1670 Rain 17 1019 88 10000 3.1 180 17:57 08.03.2020
1671 Rain 17 1019 88 10000 3.1 180 17:38 08.03.2020
1672 Rain 17 1019 88 10000 3.1 180 17:19 08.03.2020
1673 Rain 17 1019 88 10000 2.1 110 16:47 08.03.2020
1674 Rain 18 1019 88 10000 2.1 110 16:28 08.03.2020
1675 Rain 18 1020 82 10000 1 160 15:59 08.03.2020
1676 Rain 18 1020 82 10000 1 160 15:40 08.03.2020
1677 Rain 18 1020 82 10000 1 160 15:21 08.03.2020
1678 Rain 18 1020 82 10000 3.6 220 14:55 08.03.2020
1679 Rain 18 1020 82 10000 3.6 220 14:37 08.03.2020
1680 Rain 18 1020 82 10000 3.6 220 14:18 08.03.2020
1681 Clouds 18 1020 82 10000 2.1 220 13:40 08.03.2020
1682 Clouds 18 1020 82 10000 3.6 180 13:20 08.03.2020
1683 Clouds 18 1020 82 10000 2.1 160 12:43 08.03.2020
1684 Clouds 18 1020 82 10000 2.1 160 12:25 08.03.2020
1685 Clouds 18 1020 72 10000 2.6 160 11:57 08.03.2020
1686 Clouds 18 1020 72 10000 2.6 160 11:39 08.03.2020
1687 Clouds 18 1020 72 10000 2.6 160 11:39 08.03.2020
1688 Clouds 19 1020 72 10000 2.6 160 11:21 08.03.2020
1689 Clouds 19 1020 72 10000 2.6 160 11:21 08.03.2020
1690 Clouds 19 1020 72 10000 3.6 160 10:42 08.03.2020
1691 Clouds 19 1020 72 10000 3.6 160 10:23 08.03.2020
1692 Clouds 19 1019 72 10000 3.6 160 09:58 08.03.2020
1693 Clouds 19 1019 72 10000 4.1 160 09:37 08.03.2020
1694 Clouds 19 1019 72 10000 4.1 160 09:18 08.03.2020
1695 Clouds 20 1019 77 10000 4.6 160 08:41 08.03.2020
1696 Clouds 20 1019 72 10000 3.1 150 08:20 08.03.2020
1697 Clouds 21 1019 72 10000 3.1 150 07:45 08.03.2020
1698 Clouds 21 1019 72 10000 3.1 150 07:25 08.03.2020
1699 Clouds 21 1019 73 10000 5.1 130 06:43 08.03.2020
1700 Clouds 21 1019 73 10000 5.1 130 06:23 08.03.2020
1701 Rain 21 1019 77 10000 4.6 150 05:41 08.03.2020
1702 Rain 21 1020 77 10000 7.7 210 03:52 08.03.2020
1703 Rain 20 1021 82 10000 7.7 200 02:38 08.03.2020
1704 Rain 19 1022 93 10000 3.6 170 01:34 08.03.2020
1705 Rain 18 1022 93 7000 4.1 180 00:55 08.03.2020
1706 Rain 18 1021 93 6000 7.7 190 00:28 08.03.2020
1707 Rain 17 1021 93 9000 5.1 190 23:47 07.03.2020
1708 Rain 17 1021 93 9000 5.1 190 23:24 07.03.2020
1709 Rain 17 1021 93 8000 7.7 200 22:56 07.03.2020
1710 Rain 17 1021 93 8000 7.7 200 22:37 07.03.2020
1711 Rain 17 1021 93 8000 7.7 200 22:19 07.03.2020
1712 Rain 17 1020 100 10000 4.1 220 21:43 07.03.2020
1713 Rain 17 1020 100 10000 4.1 220 21:20 07.03.2020
1714 Rain 16 1020 100 7000 1.5 120 20:41 07.03.2020
1715 Rain 17 1020 100 7000 1.5 120 20:21 07.03.2020
1716 Rain 17 1020 100 10000 3.1 190 19:42 07.03.2020
1717 Rain 17 1020 100 10000 3.1 190 19:23 07.03.2020
1718 Rain 17 1019 93 8000 5.1 190 18:59 07.03.2020
1719 Rain 17 1019 93 4000 7.7 180 18:39 07.03.2020
1720 Rain 17 1020 93 10000 2.1 240 18:20 07.03.2020
1721 Rain 17 1020 93 10000 1.5 90 17:42 07.03.2020
1722 Rain 18 1020 93 10000 3.6 140 17:20 07.03.2020
1723 Rain 18 1020 93 10000 3.6 140 16:57 07.03.2020
1724 Drizzle 18 1020 82 10000 1 110 16:39 07.03.2020
1725 Drizzle 18 1020 82 10000 1 110 16:21 07.03.2020
1726 Rain 18 1020 82 10000 3.1 110 15:55 07.03.2020
1727 Clouds 18 1021 82 10000 2.6 110 15:37 07.03.2020
1728 Clouds 18 1021 82 10000 2.6 110 15:19 07.03.2020
1729 Clouds 18 1021 82 10000 5.7 120 14:44 07.03.2020
1730 Rain 18 1021 82 10000 5.7 120 14:23 07.03.2020
1731 Rain 18 1021 82 10000 7.2 130 13:55 07.03.2020
1732 Rain 18 1021 88 10000 8.2 140 13:37 07.03.2020
1733 Rain 18 1021 88 10000 8.2 140 13:18 07.03.2020
1734 Rain 19 1021 82 10000 6.7 150 12:39 07.03.2020
1735 Rain 19 1021 82 10000 6.7 150 12:19 07.03.2020
1736 Rain 19 1021 82 10000 5.7 150 11:56 07.03.2020
1737 Rain 19 1021 88 10000 6.7 170 11:37 07.03.2020
1738 Rain 19 1021 88 10000 6.7 170 11:19 07.03.2020
1739 Rain 19 1020 88 10000 5.1 150 10:39 07.03.2020
1740 Rain 19 1020 88 10000 5.1 150 10:20 07.03.2020
1741 Rain 20 1020 82 9000 8.7 180 09:42 07.03.2020
1742 Rain 20 1020 82 9000 8.7 180 09:20 07.03.2020
1743 Rain 20 1020 73 10000 5.7 150 09:20 07.03.2020
1744 Clouds 21 1020 73 10000 5.7 150 08:59 07.03.2020
1745 Clouds 21 1019 73 10000 6.2 130 08:41 07.03.2020
1746 Clouds 21 1019 73 10000 6.2 130 08:20 07.03.2020
1747 Clouds 22 1019 77 10000 8.2 170 07:49 07.03.2020
1748 Clouds 22 1012 74 0 1.34 167 07:22 07.03.2020
1749 Clouds 22 1012 74 0 2.24 166 06:54 07.03.2020
1750 Clouds 22 1011 74 0 2.24 172 06:29 07.03.2020
1751 Clouds 23 1019 78 10000 10.3 170 05:50 07.03.2020
1752 Clouds 23 1019 73 10000 9.3 180 04:40 07.03.2020
1753 Clouds 22 1020 73 10000 2.1 180 02:46 07.03.2020
1754 Drizzle 22 1020 88 10000 5.7 190 02:24 07.03.2020
1755 Rain 21 1020 82 10000 6.2 180 01:23 07.03.2020
1756 Drizzle 21 1019 88 10000 5.7 190 00:38 07.03.2020
1757 Drizzle 21 1019 88 10000 5.7 190 00:19 07.03.2020
1758 Drizzle 20 1019 82 10000 6.2 190 23:43 06.03.2020
1759 Rain 20 1018 82 10000 6.7 200 23:25 06.03.2020
1760 Clouds 20 1018 82 10000 7.2 200 22:47 06.03.2020
1761 Clouds 20 1018 82 10000 8.2 200 22:21 06.03.2020
1762 Clouds 20 1018 82 10000 8.2 200 21:55 06.03.2020
1763 Clouds 19 1017 82 10000 7.2 200 21:37 06.03.2020
1764 Clouds 19 1017 82 10000 6.2 210 21:18 06.03.2020
1765 Clouds 19 1017 82 10000 7.2 210 20:37 06.03.2020
1766 Clouds 19 1017 82 10000 7.2 210 20:19 06.03.2020
1767 Clouds 19 1016 82 10000 8.7 190 19:45 06.03.2020
1768 Clouds 19 1017 77 10000 2.6 220 19:26 06.03.2020
1769 Clouds 20 1016 82 10000 7.2 200 18:57 06.03.2020
1770 Clouds 20 1016 82 10000 7.2 200 18:38 06.03.2020
1771 Clouds 20 1016 82 10000 8.2 210 18:19 06.03.2020
1772 Clouds 20 1016 82 10000 3.1 250 17:42 06.03.2020
1773 Clouds 20 1015 77 10000 7.7 200 17:23 06.03.2020
1774 Clouds 20 1015 77 10000 7.7 200 16:59 06.03.2020
1775 Clouds 20 1015 77 10000 7.7 200 16:40 06.03.2020
1776 Clouds 20 1015 77 10000 7.7 200 16:40 06.03.2020
1777 Clouds 20 1015 77 10000 7.7 200 16:20 06.03.2020
1778 Clouds 20 1016 77 10000 6.7 200 15:44 06.03.2020
1779 Clouds 20 1016 77 10000 6.7 200 15:24 06.03.2020
1780 Clouds 20 1016 83 10000 7.7 200 14:47 06.03.2020
1781 Clouds 20 1015 88 10000 7.7 190 14:25 06.03.2020
1782 Clouds 20 1015 83 10000 8.2 190 13:59 06.03.2020
1783 Rain 20 1015 83 10000 7.2 190 13:41 06.03.2020
1784 Rain 21 1015 83 10000 7.2 190 13:21 06.03.2020
1785 Rain 21 1015 83 10000 7.2 190 12:56 06.03.2020
1786 Drizzle 21 1015 83 10000 8.2 180 12:37 06.03.2020
1787 Drizzle 21 1015 83 10000 8.2 180 12:18 06.03.2020
1788 Clouds 21 1015 88 10000 6.2 190 11:56 06.03.2020
1789 Rain 21 1014 88 10000 8.2 170 11:38 06.03.2020
1790 Rain 21 1014 88 10000 8.2 170 11:19 06.03.2020
1791 Clouds 21 1013 78 10000 8.7 170 10:38 06.03.2020
1792 Clouds 21 1013 78 10000 7.7 170 10:20 06.03.2020
1793 Clouds 21 1013 78 10000 7.7 170 09:54 06.03.2020
1794 Clouds 22 1012 78 10000 8.7 170 09:36 06.03.2020
1795 Clouds 22 1012 78 10000 8.7 170 09:18 06.03.2020
1796 Clouds 22 1011 83 10000 8.2 170 08:42 06.03.2020
1797 Clouds 22 1011 83 10000 8.2 170 08:42 06.03.2020
1798 Clouds 23 1011 83 10000 8.2 170 08:24 06.03.2020
1799 Clouds 23 1010 83 10000 8.7 180 07:47 06.03.2020
1800 Clouds 23 1010 83 10000 8.7 180 07:26 06.03.2020
1801 Clouds 23 1009 78 10000 7.7 170 06:56 06.03.2020
1802 Clouds 24 1009 78 10000 8.7 170 06:38 06.03.2020
1803 Clouds 24 1009 83 10000 8.2 170 05:42 06.03.2020
1804 Clouds 25 1009 83 10000 8.7 180 05:24 06.03.2020
1805 Clouds 26 1009 83 10000 8.7 180 04:57 06.03.2020
1806 Rain 27 1008 73 10000 7.2 180 01:59 06.03.2020
1807 Rain 26 1008 73 10000 1.5 210 01:39 06.03.2020
1808 Rain 26 1008 74 10000 7.2 180 01:20 06.03.2020
1809 Clouds 25 1008 73 10000 2.1 270 00:32 06.03.2020
1810 Rain 24 1007 78 10000 7.2 180 23:56 05.03.2020
1811 Clouds 23 1007 83 10000 3.6 290 23:38 05.03.2020
1812 Clouds 22 1007 83 10000 3.6 290 23:19 05.03.2020
1813 Clouds 22 1006 88 10000 4.1 300 22:40 05.03.2020
1814 Clouds 21 1006 100 10000 0.5 260 22:21 05.03.2020
1815 Clouds 21 1006 94 10000 3.6 300 21:57 05.03.2020
1816 Clouds 21 1006 100 10000 1.71 266 21:38 05.03.2020
1817 Clouds 21 1006 100 10000 1.71 266 21:20 05.03.2020
1818 Clouds 21 1006 100 10000 1.71 266 20:57 05.03.2020
1819 Clouds 21 1005 100 10000 1.71 266 20:39 05.03.2020
1820 Clouds 21 1005 100 10000 1.72 276 20:20 05.03.2020
1821 Clouds 21 1005 100 10000 1.51 316 19:58 05.03.2020
1822 Clouds 21 1005 100 10000 1.51 316 19:39 05.03.2020
1823 Clouds 21 1005 100 10000 1.51 316 19:19 05.03.2020
1824 Clouds 21 1005 100 10000 1.51 316 18:55 05.03.2020
1825 Rain 21 1005 100 10000 1.51 316 18:36 05.03.2020
1826 Rain 21 1004 100 10000 1.51 316 18:18 05.03.2020
1827 Clouds 21 1005 100 10000 1.51 316 17:42 05.03.2020
1828 Clouds 21 1005 100 10000 2.24 1 17:22 05.03.2020
1829 Clouds 21 1005 100 10000 2.24 1 16:58 05.03.2020
1830 Rain 21 1005 100 6000 2.24 1 16:40 05.03.2020
1831 Rain 21 1005 100 6000 2.24 1 16:21 05.03.2020
1832 Rain 21 1005 100 5000 2.1 230 15:45 05.03.2020
1833 Rain 21 1005 100 5000 2.1 230 15:24 05.03.2020
1834 Rain 21 1006 100 6000 2.24 1 14:59 05.03.2020
1835 Rain 21 1006 100 10000 2.24 1 14:41 05.03.2020
1836 Rain 21 1006 100 10000 3.38 13 14:22 05.03.2020
1837 Rain 21 1006 94 10000 3.1 350 13:57 05.03.2020
1838 Rain 21 1006 100 10000 0.5 50 13:38 05.03.2020
1839 Rain 21 1006 100 10000 0.5 50 13:20 05.03.2020
1840 Clouds 21 1006 100 10000 3.4 16 12:42 05.03.2020
1841 Rain 21 1006 100 10000 3.4 16 12:21 05.03.2020
1842 Rain 21 1006 100 10000 3.4 16 11:57 05.03.2020
1843 Rain 21 1006 94 10000 3.4 16 11:37 05.03.2020
1844 Rain 21 1006 94 10000 4.04 20 11:19 05.03.2020
1845 Rain 21 1006 94 10000 4.04 20 10:58 05.03.2020
1846 Clouds 21 1006 100 10000 4.04 20 10:40 05.03.2020
1847 Clouds 21 1006 100 10000 4.04 20 10:40 05.03.2020
1848 Clouds 21 1006 100 10000 4.04 20 10:21 05.03.2020
1849 Clouds 21 1006 100 10000 4.04 20 10:21 05.03.2020
1850 Clouds 21 1006 100 10000 1 30 09:59 05.03.2020
1851 Clouds 22 1006 100 10000 2.1 30 09:40 05.03.2020
1852 Rain 22 1006 100 10000 2.1 60 09:19 05.03.2020
1853 Rain 22 1006 100 10000 2.1 50 08:42 05.03.2020
1854 Rain 22 1006 100 10000 2.1 50 08:22 05.03.2020
1855 Rain 22 1006 94 6000 9.8 30 07:42 05.03.2020
1856 Rain 22 1006 94 6000 9.8 30 07:21 05.03.2020
1857 Rain 22 1006 94 5000 10.8 30 06:45 05.03.2020
1858 Rain 22 1006 94 5000 10.8 30 06:45 05.03.2020
1859 Rain 22 1007 94 6000 7.7 30 06:20 05.03.2020
1860 Rain 21 1007 94 5000 7.2 20 05:37 05.03.2020
1861 Rain 21 1008 94 6000 1.5 10 04:25 05.03.2020
1862 Rain 22 1009 94 5000 3.1 10 03:58 05.03.2020
1863 Rain 21 1009 94 5000 8.2 30 03:18 05.03.2020
1864 Rain 22 1011 100 8000 3.57 22 01:28 05.03.2020
1865 Rain 22 1011 100 9000 3.57 22 00:58 05.03.2020
1866 Rain 22 1011 88 9000 7.2 30 23:59 04.03.2020
1867 Rain 22 1011 100 10000 1.5 360 23:40 04.03.2020
1868 Rain 22 1011 100 10000 1.5 360 23:22 04.03.2020
1869 Rain 21 1012 100 10000 3.93 8 22:56 04.03.2020
1870 Clouds 22 1011 94 10000 3.93 8 22:37 04.03.2020
1871 Rain 21 1011 94 10000 3.93 8 22:19 04.03.2020
1872 Rain 21 1011 94 10000 3.93 8 21:56 04.03.2020
1873 Rain 21 1011 94 10000 3.93 8 21:38 04.03.2020
1874 Rain 21 1011 94 10000 3.93 8 21:38 04.03.2020
1875 Rain 21 1011 94 8000 3.93 8 21:18 04.03.2020
1876 Rain 22 1011 100 10000 3.93 8 20:41 04.03.2020
1877 Clouds 22 1011 100 10000 2.45 29 20:23 04.03.2020
1878 Clouds 22 1011 100 10000 2.45 29 19:59 04.03.2020
1879 Rain 22 1012 83 10000 6.7 40 19:41 04.03.2020
1880 Clouds 22 1012 83 10000 6.2 40 19:22 04.03.2020
1881 Clouds 22 1012 83 10000 6.7 40 18:43 04.03.2020
1882 Clouds 22 1012 83 10000 6.7 40 18:24 04.03.2020
1883 Clouds 22 1013 83 10000 6.2 50 17:59 04.03.2020
1884 Clouds 22 1013 78 10000 5.7 40 17:40 04.03.2020
1885 Clouds 22 1013 78 10000 6.2 40 17:21 04.03.2020
1886 Clouds 22 1013 78 10000 6.2 40 16:59 04.03.2020
1887 Clouds 22 1014 78 10000 6.2 40 16:40 04.03.2020
1888 Clouds 22 1014 78 10000 6.2 40 16:22 04.03.2020
1889 Clouds 22 1014 83 10000 6.7 40 15:55 04.03.2020
1890 Rain 22 1015 83 10000 6.2 40 15:36 04.03.2020
1891 Rain 22 1015 83 10000 6.2 40 15:18 04.03.2020
1892 Clouds 22 1016 78 10000 6.2 50 14:41 04.03.2020
1893 Clouds 22 1016 78 10000 6.2 50 14:21 04.03.2020
1894 Clouds 22 1016 78 10000 5.7 50 13:59 04.03.2020
1895 Clouds 22 1016 78 10000 6.2 50 13:39 04.03.2020
1896 Clouds 22 1016 78 10000 6.2 50 13:21 04.03.2020
1897 Clouds 22 1016 88 10000 2.1 100 13:21 04.03.2020
1898 Clouds 22 1016 88 10000 2.1 100 12:59 04.03.2020
1899 Clouds 22 1016 88 10000 2.6 110 12:41 04.03.2020
1900 Clouds 22 1016 88 10000 2.6 110 12:23 04.03.2020
1901 Clouds 22 1016 78 10000 5.7 60 11:55 04.03.2020
1902 Clouds 22 1016 78 10000 6.7 70 11:37 04.03.2020
1903 Clouds 22 1016 78 10000 5.7 70 11:19 04.03.2020
1904 Clouds 22 1016 78 10000 4.1 50 10:42 04.03.2020
1905 Clouds 22 1016 78 10000 4.1 50 10:23 04.03.2020
1906 Clouds 22 1016 78 10000 4.1 50 09:56 04.03.2020
1907 Clouds 22 1016 73 10000 3.6 50 09:38 04.03.2020
1908 Clouds 22 1016 73 10000 3.6 50 09:18 04.03.2020
1909 Clouds 23 1016 69 10000 5.7 60 08:41 04.03.2020
1910 Clouds 23 1016 69 10000 5.7 60 08:23 04.03.2020
1911 Clouds 23 1016 69 10000 4.6 50 07:48 04.03.2020
1912 Rain 23 1016 73 10000 5.7 60 07:29 04.03.2020
1913 Clouds 23 1016 73 10000 6.7 40 06:53 04.03.2020
1914 Clouds 23 1016 69 10000 8.2 30 06:26 04.03.2020
1915 Clouds 23 1016 65 10000 9.3 50 05:59 04.03.2020
1916 Clouds 24 1016 94 10000 2.1 140 05:28 04.03.2020
1917 Clouds 23 1017 65 10000 7.7 40 03:54 04.03.2020
1918 Rain 22 1018 73 10000 7.7 40 03:35 04.03.2020
1919 Drizzle 22 1018 83 10000 7.7 30 02:58 04.03.2020
1920 Drizzle 21 1018 88 10000 8.2 50 02:27 04.03.2020
1921 Rain 21 1019 88 9000 5.1 50 01:56 04.03.2020
1922 Rain 21 1019 94 9000 5.1 50 01:37 04.03.2020
1923 Rain 20 1019 94 7000 4.6 50 00:42 04.03.2020
1924 Rain 20 1019 94 7000 4.6 50 00:22 04.03.2020
1925 Rain 20 1019 100 2800 2.1 200 23:43 03.03.2020
1926 Rain 20 1019 100 2800 2.1 200 23:24 03.03.2020
1927 Rain 19 1019 94 10000 5.7 60 22:56 03.03.2020
1928 Rain 19 1019 94 10000 5.1 60 22:37 03.03.2020
1929 Rain 19 1019 94 10000 5.1 60 22:19 03.03.2020
1930 Rain 19 1018 94 10000 6.2 60 21:55 03.03.2020
1931 Rain 19 1018 93 5000 5.7 250 21:36 03.03.2020
1932 Rain 19 1019 94 10000 0.5 50 21:18 03.03.2020
1933 Rain 19 1018 94 6000 0.39 47 20:40 03.03.2020
1934 Rain 19 1018 94 6000 1.36 96 20:19 03.03.2020
1935 Rain 19 1018 100 5000 2.6 230 19:57 03.03.2020
1936 Rain 19 1018 100 6000 2.1 200 19:37 03.03.2020
1937 Rain 19 1018 100 7000 1 210 19:19 03.03.2020
1938 Rain 19 1018 100 7000 1 210 18:58 03.03.2020
1939 Rain 18 1018 100 6000 2.1 190 18:40 03.03.2020
1940 Rain 18 1018 100 6000 2.1 190 18:20 03.03.2020
1941 Rain 18 1019 100 10000 3.1 240 17:55 03.03.2020
1942 Rain 18 1019 100 10000 2.6 250 17:37 03.03.2020
1943 Rain 18 1019 100 10000 2.6 250 17:19 03.03.2020
1944 Rain 18 1019 100 10000 1.5 210 16:55 03.03.2020
1945 Rain 18 1019 100 10000 1.5 210 16:36 03.03.2020
1946 Rain 18 1019 100 10000 1.5 210 16:18 03.03.2020
1947 Rain 18 1019 100 10000 1.5 210 16:18 03.03.2020
1948 Clouds 18 1020 100 10000 1.5 240 15:43 03.03.2020
1949 Clouds 18 1020 100 10000 2.6 230 15:21 03.03.2020
1950 Rain 18 1020 100 10000 2.6 230 14:56 03.03.2020
1951 Rain 18 1020 100 10000 2.6 210 14:37 03.03.2020
1952 Rain 18 1020 100 10000 2.6 210 14:19 03.03.2020
1953 Rain 18 1021 100 10000 2.1 220 13:55 03.03.2020
1954 Rain 18 1021 100 10000 2.1 240 13:37 03.03.2020
1955 Rain 18 1020 100 10000 2.6 180 13:18 03.03.2020
1956 Rain 18 1021 100 10000 2.1 220 12:42 03.03.2020
1957 Rain 18 1021 100 10000 2.1 220 12:23 03.03.2020
1958 Rain 18 1021 100 10000 2.1 220 12:23 03.03.2020
1959 Rain 18 1021 100 10000 2.6 230 11:55 03.03.2020
1960 Rain 18 1021 93 10000 2.1 220 11:37 03.03.2020
1961 Rain 18 1021 93 10000 2.6 230 11:18 03.03.2020
1962 Rain 18 1021 93 10000 2.6 230 10:54 03.03.2020
1963 Rain 18 1021 93 10000 2.6 210 10:36 03.03.2020
1964 Rain 18 1020 88 10000 5.1 210 10:18 03.03.2020
1965 Rain 18 1020 88 10000 5.1 210 10:18 03.03.2020
1966 Rain 18 1020 88 10000 4.1 210 09:42 03.03.2020
1967 Rain 19 1020 88 10000 4.1 210 09:21 03.03.2020
1968 Rain 19 1020 88 10000 3.6 210 08:42 03.03.2020
1969 Rain 19 1020 88 10000 3.6 210 08:24 03.03.2020
1970 Rain 19 1020 88 10000 4.1 200 07:58 03.03.2020
1971 Rain 19 1019 88 10000 6.2 200 07:39 03.03.2020
1972 Rain 19 1019 93 7000 5.1 200 07:19 03.03.2020
1973 Rain 19 1019 82 8000 6.2 190 06:40 03.03.2020
1974 Rain 20 1019 82 8000 6.2 190 06:21 03.03.2020
1975 Rain 20 1019 82 10000 5.7 180 05:46 03.03.2020
1976 Rain 20 1019 82 10000 5.7 180 04:56 03.03.2020
1977 Clouds 21 1019 73 10000 6.2 170 03:26 03.03.2020
1978 Rain 21 1020 73 10000 6.2 170 01:39 03.03.2020
1979 Clouds 21 1019 73 10000 6.2 170 00:47 03.03.2020
1980 Clouds 21 1019 73 10000 6.2 170 00:26 03.03.2020
1981 Clouds 21 1019 73 10000 6.2 180 23:51 02.03.2020
1982 Clouds 20 1019 73 10000 5.1 200 23:23 02.03.2020
1983 Clouds 20 1019 73 10000 5.1 190 22:58 02.03.2020
1984 Clouds 20 1019 73 10000 4.1 200 22:39 02.03.2020
1985 Clouds 20 1019 73 10000 4.1 200 22:20 02.03.2020
1986 Clouds 20 1018 77 10000 5.1 210 21:59 02.03.2020
1987 Clouds 20 1018 77 10000 5.1 210 21:39 02.03.2020
1988 Clouds 20 1018 77 10000 5.1 210 21:21 02.03.2020
1989 Clouds 20 1018 73 10000 4.6 190 20:58 02.03.2020
1990 Clouds 20 1017 68 10000 5.7 170 20:39 02.03.2020
1991 Clouds 20 1017 68 10000 5.7 170 20:20 02.03.2020
1992 Clouds 20 1017 73 10000 6.2 180 19:56 02.03.2020
1993 Clouds 20 1017 73 10000 6.2 180 19:37 02.03.2020
1994 Clouds 20 1017 73 10000 6.2 180 19:19 02.03.2020
1995 Clouds 20 1017 73 10000 6.7 180 18:44 02.03.2020
1996 Clouds 20 1017 73 10000 6.7 180 18:20 02.03.2020
1997 Clouds 20 1017 73 10000 6.7 170 17:59 02.03.2020
1998 Clouds 20 1017 73 10000 6.7 180 17:41 02.03.2020
1999 Clouds 20 1017 73 10000 6.7 180 17:21 02.03.2020
2000 Clouds 20 1017 73 10000 6.7 180 17:21 02.03.2020
2001 Clouds 20 1017 73 10000 6.2 180 16:56 02.03.2020
2002 Clouds 20 1017 73 10000 6.7 170 16:38 02.03.2020
2003 Clouds 20 1017 73 10000 6.7 170 16:20 02.03.2020
2004 Clouds 20 1017 73 10000 6.7 170 15:44 02.03.2020
2005 Clouds 20 1017 73 10000 7.2 180 15:20 02.03.2020
2006 Clouds 21 1017 77 10000 6.7 170 14:56 02.03.2020
2007 Clouds 21 1017 77 10000 6.7 170 14:37 02.03.2020
2008 Clouds 21 1017 77 10000 6.7 170 14:37 02.03.2020
2009 Clouds 21 1017 77 10000 6.7 170 14:18 02.03.2020
2010 Clouds 21 1017 77 10000 8.2 170 13:40 02.03.2020
2011 Clouds 21 1017 77 10000 9.3 180 13:19 02.03.2020
2012 Clouds 21 1017 77 10000 9.3 180 12:57 02.03.2020
2013 Clouds 21 1017 77 10000 9.3 180 12:57 02.03.2020
2014 Clouds 21 1017 83 10000 9.3 180 12:39 02.03.2020
2015 Clouds 21 1016 83 10000 8.7 170 12:18 02.03.2020
2016 Clouds 21 1016 78 10000 8.7 170 11:38 02.03.2020
2017 Clouds 21 1016 78 10000 8.7 170 11:19 02.03.2020
2018 Clouds 21 1015 77 10000 9.8 170 10:55 02.03.2020
2019 Clouds 21 1014 78 10000 10.3 170 10:37 02.03.2020
2020 Clouds 22 1014 78 10000 10.3 170 10:18 02.03.2020
2021 Clouds 22 1014 78 10000 10.3 160 09:47 02.03.2020
2022 Clouds 22 1013 78 10000 10.3 160 09:28 02.03.2020
2023 Clouds 23 1012 83 9000 10.3 160 08:48 02.03.2020
2024 Clouds 23 1012 83 9000 10.3 160 08:22 02.03.2020
2025 Haze 24 1011 78 9000 10.3 160 07:50 02.03.2020
2026 Clouds 25 1011 83 9000 12.9 170 07:31 02.03.2020
2027 Clouds 30 1010 83 8000 13.9 180 06:50 02.03.2020
2028 Clouds 33 1009 78 6000 19 190 06:25 02.03.2020
2029 Haze 38 1007 11 10000 12.9 180 05:24 02.03.2020
2030 Clouds 37 1007 12 10000 3.6 310 03:27 02.03.2020
2031 Clouds 36 1007 14 10000 4.6 320 02:55 02.03.2020
2032 Clouds 34 1008 19 10000 6.2 300 02:30 02.03.2020
2033 Clouds 32 1009 21 10000 4.1 300 01:36 02.03.2020
2034 Clouds 32 1009 21 10000 4.1 300 01:18 02.03.2020
2035 Clouds 29 1009 29 10000 2.1 290 00:22 02.03.2020
2036 Clouds 27 1009 42 10000 3.1 320 23:42 01.03.2020
2037 Clouds 25 1009 42 10000 3.1 320 23:22 01.03.2020
2038 Clouds 23 1009 64 10000 2.1 340 22:45 01.03.2020
2039 Clouds 21 1008 78 10000 0.5 330 22:21 01.03.2020
2040 Clouds 21 1008 78 10000 0.5 330 21:59 01.03.2020
2041 Clouds 21 1008 78 10000 0.5 330 21:59 01.03.2020
2042 Clouds 20 1008 78 10000 2.6 320 21:40 01.03.2020
2043 Clouds 19 1008 83 10000 3.6 310 21:22 01.03.2020
2044 Clouds 19 1008 83 10000 3.6 310 20:55 01.03.2020
2045 Clouds 19 1007 83 10000 3.23 281 20:37 01.03.2020
2046 Clouds 19 1007 83 10000 2.4 292 20:19 01.03.2020
2047 Clouds 19 1007 83 10000 1 330 19:41 01.03.2020
2048 Clouds 20 1007 83 10000 1 330 19:22 01.03.2020
2049 Clouds 20 1007 83 10000 3.1 350 18:58 01.03.2020
2050 Clouds 20 1007 83 10000 2.4 292 18:39 01.03.2020
2051 Clouds 20 1007 83 10000 2.4 292 18:19 01.03.2020
2052 Clouds 20 1007 83 10000 2.4 292 17:55 01.03.2020
2053 Clouds 20 1007 78 10000 2.4 292 17:37 01.03.2020
2054 Clouds 20 1007 78 10000 2.47 297 17:19 01.03.2020
2055 Clouds 20 1007 83 10000 2.47 297 16:54 01.03.2020
2056 Clouds 20 1007 78 10000 1.5 330 16:36 01.03.2020
2057 Clouds 21 1007 78 10000 1.5 330 16:18 01.03.2020
2058 Clouds 21 1008 100 3900 2.47 297 15:55 01.03.2020
2059 Clouds 21 1008 100 10000 0.5 350 15:36 01.03.2020
2060 Clouds 21 1008 100 10000 0.5 350 15:36 01.03.2020
2061 Clouds 21 1009 94 10000 2.47 297 15:18 01.03.2020
2062 Clouds 21 1009 94 10000 2.47 297 14:55 01.03.2020
2063 Clouds 22 1008 94 10000 2.47 297 14:36 01.03.2020
2064 Clouds 22 1008 69 10000 1.38 303 14:18 01.03.2020
2065 Clouds 23 1009 88 10000 2.1 200 13:43 01.03.2020
2066 Clouds 23 1009 88 10000 2.1 200 13:21 01.03.2020
2067 Clouds 24 1009 83 10000 1.45 278 12:59 01.03.2020
2068 Clouds 24 1008 69 10000 6.2 360 12:40 01.03.2020
2069 Clouds 24 1008 69 10000 6.2 360 12:20 01.03.2020
2070 Clouds 25 1008 69 10000 3.6 10 11:41 01.03.2020
2071 Clouds 25 1008 69 10000 3.6 10 11:22 01.03.2020
2072 Clouds 25 1008 69 10000 3.6 10 10:57 01.03.2020
2073 Clouds 25 1007 69 10000 3.6 10 10:38 01.03.2020
2074 Clouds 26 1007 69 10000 3.6 10 10:19 01.03.2020
2075 Clouds 25 1007 69 10000 3.6 10 09:55 01.03.2020
2076 Clouds 25 1007 65 10000 10.3 30 09:36 01.03.2020
2077 Clouds 26 1007 65 10000 9.3 30 09:18 01.03.2020
2078 Clouds 27 1007 61 10000 9.8 30 08:39 01.03.2020
2079 Clear 28 1007 58 10000 9.3 30 08:19 01.03.2020
2080 Clear 29 1008 58 10000 9.3 40 07:42 01.03.2020
2081 Clear 29 1008 58 10000 9.3 40 07:23 01.03.2020
2082 Clear 29 1008 58 10000 9.3 40 06:53 01.03.2020
2083 Clear 29 1008 58 10000 9.3 40 06:53 01.03.2020
2084 Clear 30 1009 51 10000 9.3 40 06:33 01.03.2020
2085 Clouds 31 1011 48 10000 9.3 50 04:24 01.03.2020
2086 Clouds 29 1012 48 10000 8.2 20 02:54 01.03.2020
2087 Clouds 28 1013 51 10000 6.7 30 01:53 01.03.2020
2088 Clouds 27 1013 54 10000 7.2 20 01:22 01.03.2020
2089 Clouds 26 1014 65 10000 3.6 10 00:43 01.03.2020
2090 Clouds 25 1014 69 10000 3.6 360 00:21 01.03.2020
2091 Clouds 24 1014 69 10000 3.6 360 23:51 29.02.2020
2092 Clouds 23 1014 73 10000 3.6 350 23:32 29.02.2020
2093 Clear 21 1014 94 10000 1.4 299 22:44 29.02.2020
2094 Clear 20 1014 78 10000 1.4 299 22:25 29.02.2020
2095 Clear 19 1014 88 10000 1.4 299 21:44 29.02.2020
2096 Clear 18 1014 88 10000 1.4 299 21:26 29.02.2020
2097 Clear 17 1013 100 6000 1.4 299 20:45 29.02.2020
2098 Clear 17 1013 100 6000 1.4 299 20:22 29.02.2020
2099 Clouds 18 1013 93 10000 1.29 320 19:59 29.02.2020
2100 Clouds 18 1013 100 7000 1.29 320 19:40 29.02.2020
2101 Clouds 18 1013 100 7000 1.29 320 19:22 29.02.2020
2102 Clouds 18 1013 100 6000 1.29 320 18:56 29.02.2020
2103 Clouds 18 1013 100 6000 1.29 320 18:38 29.02.2020
2104 Clouds 18 1013 100 6000 1.29 320 18:19 29.02.2020
2105 Clouds 18 1013 100 10000 1.29 320 17:54 29.02.2020
2106 Clouds 18 1014 100 10000 1.29 320 17:36 29.02.2020
2107 Clouds 18 1014 100 10000 1.47 348 17:18 29.02.2020
2108 Clouds 19 1014 93 10000 1.47 348 16:42 29.02.2020
2109 Clouds 19 1014 88 10000 1.47 348 16:18 29.02.2020
2110 Clouds 19 1014 83 10000 1.47 348 15:42 29.02.2020
2111 Clouds 19 1014 83 10000 1.47 348 15:24 29.02.2020
2112 Clouds 19 1014 93 10000 1.47 348 14:56 29.02.2020
2113 Clouds 20 1014 93 10000 1.47 348 14:38 29.02.2020
2114 Clouds 20 1015 82 10000 2.07 11 14:20 29.02.2020
2115 Clouds 20 1015 82 10000 2.07 11 13:42 29.02.2020
2116 Clouds 20 1015 82 10000 2.33 10 13:23 29.02.2020
2117 Clouds 21 1015 77 10000 1.5 70 12:54 29.02.2020
2118 Clouds 21 1014 77 10000 2.6 50 12:36 29.02.2020
2119 Clouds 21 1014 69 10000 4.6 30 12:18 29.02.2020
2120 Clouds 21 1014 69 10000 4.6 50 11:43 29.02.2020
2121 Clouds 22 1014 69 10000 4.6 50 11:24 29.02.2020
2122 Clouds 22 1014 69 10000 5.7 50 10:50 29.02.2020
2123 Clouds 22 1014 69 10000 5.7 50 10:29 29.02.2020
2124 Clouds 22 1014 60 10000 7.2 50 09:51 29.02.2020
2125 Clouds 23 1014 60 10000 7.2 50 09:27 29.02.2020
2126 Clouds 23 1014 57 10000 7.7 50 08:58 29.02.2020
2127 Clouds 24 1014 60 10000 9.3 50 08:38 29.02.2020
2128 Clouds 24 1013 57 10000 8.7 60 08:19 29.02.2020
2129 Clouds 25 1013 53 10000 8.2 60 07:46 29.02.2020
2130 Clouds 25 1013 53 10000 8.7 70 07:21 29.02.2020
2131 Clouds 26 1014 54 10000 8.7 70 06:54 29.02.2020
2132 Clouds 26 1014 54 10000 8.7 70 06:27 29.02.2020
2133 Clouds 27 1014 47 10000 7.7 60 05:49 29.02.2020
2134 Clouds 27 1014 47 10000 7.7 60 05:29 29.02.2020
2135 Clouds 26 1015 44 10000 7.2 70 03:53 29.02.2020
2136 Clouds 26 1015 47 10000 5.7 70 03:23 29.02.2020
2137 Clouds 25 1016 69 10000 7.2 60 02:51 29.02.2020
2138 Clouds 25 1017 69 10000 7.2 60 01:55 29.02.2020
2139 Clouds 24 1017 69 10000 4.1 80 00:49 29.02.2020
2140 Clouds 23 1017 69 10000 4.1 80 00:27 29.02.2020
2141 Clouds 22 1017 68 10000 2.6 290 23:40 28.02.2020
2142 Clouds 21 1017 68 10000 2.6 290 23:22 28.02.2020
2143 Clouds 20 1017 73 10000 1 210 22:42 28.02.2020
2144 Clouds 19 1017 73 10000 1 210 22:22 28.02.2020
2145 Clouds 18 1017 93 10000 0.12 26 21:42 28.02.2020
2146 Clouds 18 1016 77 10000 0.5 250 21:22 28.02.2020
2147 Clouds 17 1016 77 10000 0.5 250 20:58 28.02.2020
2148 Clouds 17 1016 77 10000 2.6 210 20:39 28.02.2020
2149 Clouds 17 1016 88 10000 1.46 130 20:20 28.02.2020
2150 Clouds 18 1016 82 10000 1.64 132 19:57 28.02.2020
2151 Clouds 18 1016 82 10000 1.64 132 19:57 28.02.2020
2152 Clouds 18 1016 82 10000 1.64 132 19:57 28.02.2020
2153 Clouds 18 1016 77 10000 3.6 200 19:38 28.02.2020
2154 Clouds 18 1016 82 10000 4.1 200 19:20 28.02.2020
2155 Rain 18 1016 82 10000 4.1 190 18:47 28.02.2020
2156 Rain 18 1016 82 10000 4.1 190 18:27 28.02.2020
2157 Rain 18 1016 82 10000 4.1 200 17:57 28.02.2020
2158 Rain 18 1016 77 10000 4.6 190 17:38 28.02.2020
2159 Rain 18 1016 77 10000 4.6 190 17:20 28.02.2020
2160 Rain 18 1016 82 10000 5.7 190 16:41 28.02.2020
2161 Rain 19 1017 77 10000 4.6 180 16:20 28.02.2020
2162 Rain 19 1017 77 10000 4.6 180 15:57 28.02.2020
2163 Clouds 19 1017 72 10000 2.1 210 15:39 28.02.2020
2164 Clouds 19 1017 72 10000 2.1 220 15:19 28.02.2020
2165 Clouds 19 1017 72 10000 2.1 220 14:56 28.02.2020
2166 Clouds 19 1017 72 10000 2.1 220 14:38 28.02.2020
2167 Clouds 19 1017 73 10000 4.6 180 14:18 28.02.2020
2168 Clouds 19 1017 73 10000 5.1 180 13:41 28.02.2020
2169 Clouds 19 1017 68 10000 4.6 170 13:20 28.02.2020
2170 Clouds 19 1017 68 10000 4.6 170 12:58 28.02.2020
2171 Clouds 19 1017 64 10000 3.6 150 12:39 28.02.2020
2172 Clouds 20 1017 64 10000 3.6 150 12:21 28.02.2020
2173 Clouds 20 1016 64 10000 4.6 150 11:41 28.02.2020
2174 Clouds 20 1016 64 10000 3.6 140 11:22 28.02.2020
2175 Clouds 20 1016 64 10000 3.6 140 10:57 28.02.2020
2176 Clouds 20 1015 64 10000 4.1 140 10:37 28.02.2020
2177 Clouds 20 1015 64 10000 4.1 140 10:37 28.02.2020
2178 Clouds 21 1015 64 10000 4.1 140 10:18 28.02.2020
2179 Clouds 21 1014 60 10000 6.2 140 09:43 28.02.2020
2180 Clouds 21 1014 60 10000 6.2 140 09:20 28.02.2020
2181 Clouds 22 1014 60 10000 7.2 140 08:55 28.02.2020
2182 Clouds 22 1013 56 10000 6.7 150 08:36 28.02.2020
2183 Clouds 23 1013 56 10000 6.7 140 08:18 28.02.2020
2184 Clouds 23 1013 56 10000 7.2 140 07:39 28.02.2020
2185 Clouds 23 1013 56 10000 7.2 140 07:19 28.02.2020
2186 Clouds 24 1012 60 10000 7.7 160 06:41 28.02.2020
2187 Clouds 24 1012 69 10000 8.2 180 05:37 28.02.2020
2188 Clouds 25 1012 69 10000 7.7 180 04:33 28.02.2020
2189 Clouds 26 1012 60 10000 6.7 170 03:39 28.02.2020
2190 Clouds 25 1012 56 10000 6.7 180 02:45 28.02.2020
2191 Clouds 25 1012 56 10000 6.7 180 02:20 28.02.2020
2192 Clear 24 1011 49 10000 6.7 170 00:39 28.02.2020
2193 Clear 22 1011 56 10000 4.6 210 00:21 28.02.2020
2194 Clear 21 1010 56 10000 4.1 210 23:41 27.02.2020
2195 Clear 20 1010 56 10000 4.1 210 23:19 27.02.2020
2196 Clear 18 1010 49 10000 3.6 210 22:41 27.02.2020
2197 Clear 17 1009 52 10000 3.1 230 22:22 27.02.2020
2198 Rain 17 1009 52 10000 3.1 230 21:56 27.02.2020
2199 Clear 16 1009 52 10000 3.1 230 21:37 27.02.2020
2200 Clear 15 1008 93 10000 1 310 21:18 27.02.2020
2201 Clear 15 1008 93 10000 1 310 20:54 27.02.2020
2202 Clear 15 1008 100 10000 3.29 227 20:36 27.02.2020
2203 Clouds 15 1008 100 10000 2.52 239 20:18 27.02.2020
2204 Clouds 16 1008 93 10000 0.5 210 19:42 27.02.2020
2205 Clouds 16 1008 93 10000 0.5 210 19:42 27.02.2020
2206 Clouds 16 1008 82 10000 5.7 220 19:23 27.02.2020
2207 Clouds 17 1007 88 10000 4.6 230 18:58 27.02.2020
2208 Clouds 17 1007 88 10000 2.52 239 18:40 27.02.2020
2209 Clouds 17 1007 93 10000 2.6 230 18:20 27.02.2020
2210 Clouds 17 1007 82 10000 2.52 239 17:56 27.02.2020
2211 Clouds 18 1007 82 10000 2.52 239 17:38 27.02.2020
2212 Clouds 17 1007 100 6000 0.5 300 17:19 27.02.2020
2213 Clouds 18 1007 100 6000 0.5 300 16:55 27.02.2020
2214 Clouds 18 1008 93 10000 2.1 320 16:36 27.02.2020
2215 Clouds 18 1008 93 10000 2.1 230 16:18 27.02.2020
2216 Clouds 18 1008 93 10000 2.1 230 15:54 27.02.2020
2217 Clouds 19 1008 100 10000 1.75 272 15:36 27.02.2020
2218 Clouds 19 1008 100 10000 1.75 272 15:18 27.02.2020
2219 Clouds 19 1008 93 10000 1.75 272 14:40 27.02.2020
2220 Clouds 20 1008 93 10000 1.75 272 14:21 27.02.2020
2221 Clear 20 1008 88 10000 2.6 210 13:56 27.02.2020
2222 Clear 20 1008 88 10000 2.1 220 13:37 27.02.2020
2223 Clouds 21 1008 88 10000 1.5 190 13:19 27.02.2020
2224 Clouds 21 1008 88 10000 1.5 190 12:45 27.02.2020
2225 Clouds 21 1008 83 10000 2.1 170 12:22 27.02.2020
2226 Clouds 22 1008 78 10000 2.1 90 11:47 27.02.2020
2227 Clouds 22 1008 78 10000 3.1 70 11:23 27.02.2020
2228 Clouds 22 1007 73 10000 4.1 80 10:58 27.02.2020
2229 Clouds 22 1006 73 10000 4.6 90 10:40 27.02.2020
2230 Clouds 22 1007 64 10000 5.1 10 10:20 27.02.2020
2231 Clouds 22 1006 64 10000 5.1 10 09:42 27.02.2020
2232 Clouds 23 1006 64 10000 5.1 10 09:23 27.02.2020
2233 Clouds 23 1006 60 10000 5.1 10 08:55 27.02.2020
2234 Rain 23 1006 57 10000 5.1 10 08:37 27.02.2020
2235 Rain 24 1006 61 10000 5.1 10 08:18 27.02.2020
2236 Clouds 25 1006 53 10000 8.7 50 07:42 27.02.2020
2237 Clouds 25 1006 53 10000 8.7 50 07:24 27.02.2020
2238 Clouds 25 1006 50 10000 8.2 40 06:23 27.02.2020
2239 Clouds 25 1007 47 10000 6.7 30 05:23 27.02.2020
2240 Clouds 24 1009 53 10000 3.6 100 03:20 27.02.2020
2241 Clouds 23 1011 60 10000 1.5 160 01:34 27.02.2020
2242 Clouds 22 1011 64 10000 2.6 180 00:42 27.02.2020
2243 Clouds 22 1011 64 10000 2.6 180 00:19 27.02.2020
2244 Clouds 21 1011 68 10000 3.6 190 23:38 26.02.2020
2245 Clouds 21 1011 68 10000 3.6 190 23:18 26.02.2020
2246 Clouds 20 1011 68 10000 4.1 190 22:55 26.02.2020
2247 Clouds 20 1011 68 10000 3.6 180 22:37 26.02.2020
2248 Clouds 20 1011 72 10000 3.6 180 22:19 26.02.2020
2249 Clouds 19 1011 68 10000 4.1 170 21:39 26.02.2020
2250 Clouds 19 1011 82 10000 2.1 220 21:20 26.02.2020
2251 Clouds 19 1011 68 10000 4.6 170 20:56 26.02.2020
2252 Clouds 19 1011 68 10000 4.6 170 20:38 26.02.2020
2253 Clouds 19 1011 68 10000 4.6 170 20:19 26.02.2020
2254 Clouds 19 1010 68 10000 5.7 160 19:56 26.02.2020
2255 Clouds 19 1010 68 10000 6.2 160 19:38 26.02.2020
2256 Clouds 19 1010 68 10000 6.2 160 19:19 26.02.2020
2257 Clouds 19 1010 64 10000 5.7 150 18:57 26.02.2020
2258 Clouds 20 1010 68 10000 7.2 160 18:38 26.02.2020
2259 Clouds 20 1010 68 10000 7.2 160 18:19 26.02.2020
2260 Clouds 20 1010 68 10000 6.7 160 17:41 26.02.2020
2261 Clouds 19 1010 68 10000 6.7 160 17:20 26.02.2020
2262 Clouds 19 1010 68 10000 7.7 170 16:57 26.02.2020
2263 Clouds 20 1010 72 10000 7.2 170 16:39 26.02.2020
2264 Clouds 19 1010 72 10000 7.2 170 16:20 26.02.2020
2265 Clouds 20 1011 73 10000 7.7 170 15:46 26.02.2020
2266 Clouds 20 1011 68 10000 8.2 170 15:28 26.02.2020
2267 Clouds 20 1010 72 10000 8.7 170 14:57 26.02.2020
2268 Clouds 20 1010 77 10000 9.3 170 14:39 26.02.2020
2269 Clouds 20 1010 77 10000 10.3 170 14:21 26.02.2020
2270 Clouds 20 1009 82 10000 7.7 180 13:42 26.02.2020
2271 Clouds 20 1009 82 10000 7.7 180 13:42 26.02.2020
2272 Clouds 20 1009 82 10000 7.7 180 13:21 26.02.2020
2273 Rain 21 1009 77 10000 11.3 170 12:39 26.02.2020
2274 Clouds 21 1009 77 10000 11.3 170 12:20 26.02.2020
2275 Rain 21 1008 77 10000 12.9 170 11:57 26.02.2020
2276 Rain 21 1007 83 9000 13.9 180 11:39 26.02.2020
2277 Rain 21 1007 83 9000 13.9 180 11:21 26.02.2020
2278 Rain 22 1006 83 7000 17 200 10:43 26.02.2020
2279 Clouds 23 1006 83 7000 17 200 10:23 26.02.2020
2280 Rain 25 1006 78 8000 15.9 200 09:57 26.02.2020
2281 Clouds 25 1003 74 10000 2.6 20 09:39 26.02.2020
2282 Rain 27 1004 48 10000 10.8 230 09:21 26.02.2020
2283 Clouds 27 1003 83 10000 2.6 330 08:40 26.02.2020
2284 Clouds 28 1002 40 10000 6.2 350 08:22 26.02.2020
2285 Rain 29 1003 40 10000 15.4 180 07:59 26.02.2020
2286 Rain 30 1002 33 10000 7.2 40 07:39 26.02.2020
2287 Rain 30 1002 33 10000 7.2 40 07:20 26.02.2020
2288 Clouds 31 1002 62 10000 6.2 50 06:45 26.02.2020
2289 Clouds 31 1002 62 10000 6.2 50 06:22 26.02.2020
2290 Clouds 31 1002 33 10000 7.2 40 05:48 26.02.2020
2291 Clouds 30 1003 45 10000 5.7 300 05:18 26.02.2020
2292 Clouds 32 1004 33 10000 8.2 300 03:27 26.02.2020
2293 Clouds 32 1005 38 10000 6.7 330 01:58 26.02.2020
2294 Clouds 31 1005 40 10000 5.7 330 01:25 26.02.2020
2295 Clouds 30 1006 45 10000 4.6 310 00:44 26.02.2020
2296 Clouds 29 1006 45 10000 4.6 310 00:20 26.02.2020
2297 Clouds 28 1006 54 10000 3.6 330 23:42 25.02.2020
2298 Clear 26 1006 54 10000 3.6 330 23:24 25.02.2020
2299 Clear 25 1007 65 10000 3.1 320 22:57 25.02.2020
2300 Clear 25 1007 69 10000 2.1 330 22:37 25.02.2020
2301 Clear 23 1007 78 10000 2.1 330 22:18 25.02.2020
2302 Clear 22 1007 73 10000 1.5 330 21:38 25.02.2020
2303 Clear 22 1007 73 10000 1.5 330 21:20 25.02.2020
2304 Clear 22 1007 73 10000 2.6 320 20:57 25.02.2020
2305 Clouds 22 1007 78 10000 2.89 307 20:39 25.02.2020
2306 Clouds 22 1007 78 10000 2.06 308 20:20 25.02.2020
2307 Clouds 22 1007 78 10000 2.1 300 19:56 25.02.2020
2308 Clouds 22 1007 94 10000 2.6 30 19:37 25.02.2020
2309 Clouds 22 1007 94 10000 2.6 30 19:18 25.02.2020
2310 Clouds 22 1007 94 10000 1 10 18:40 25.02.2020
2311 Clouds 22 1007 94 10000 1 10 18:21 25.02.2020
2312 Clouds 22 1008 94 10000 2.06 308 17:56 25.02.2020
2313 Clouds 22 1008 88 10000 2.06 308 17:37 25.02.2020
2314 Clouds 22 1008 88 10000 1.85 328 17:19 25.02.2020
2315 Clouds 22 1008 88 10000 1.85 328 17:19 25.02.2020
2316 Clouds 22 1008 73 10000 3.1 40 16:57 25.02.2020
2317 Clouds 22 1009 88 10000 0.5 30 16:38 25.02.2020
2318 Clouds 22 1009 88 10000 0.5 30 16:20 25.02.2020
2319 Clouds 22 1009 88 10000 1.5 60 15:55 25.02.2020
2320 Clouds 22 1010 88 10000 1.85 328 15:36 25.02.2020
2321 Clouds 22 1010 78 10000 1.85 328 15:18 25.02.2020
2322 Clouds 23 1010 78 10000 1.85 328 14:54 25.02.2020
2323 Clouds 23 1010 83 10000 2.6 30 14:36 25.02.2020
2324 Clouds 23 1010 83 10000 2.6 50 14:18 25.02.2020
2325 Clouds 23 1010 83 10000 2.6 50 14:18 25.02.2020
2326 Clouds 23 1010 83 10000 2.6 50 13:54 25.02.2020
2327 Clouds 23 1011 78 10000 0.5 40 13:36 25.02.2020
2328 Clouds 23 1011 73 10000 0.5 20 13:18 25.02.2020
2329 Clouds 24 1011 73 10000 6.7 30 12:39 25.02.2020
2330 Clouds 24 1011 73 10000 6.2 360 12:20 25.02.2020
2331 Clouds 24 1011 73 10000 6.2 360 11:56 25.02.2020
2332 Clouds 24 1011 73 10000 6.2 360 11:38 25.02.2020
2333 Clouds 24 1011 69 10000 6.2 360 11:18 25.02.2020
2334 Clouds 24 1011 69 10000 6.2 360 10:56 25.02.2020
2335 Clouds 25 1011 73 10000 10.8 30 10:38 25.02.2020
2336 Clouds 25 1011 73 10000 10.8 30 10:19 25.02.2020
2337 Clouds 25 1011 69 10000 10.3 30 09:40 25.02.2020
2338 Clouds 25 1011 65 10000 10.3 30 09:19 25.02.2020
2339 Clouds 26 1011 61 10000 10.3 40 08:44 25.02.2020
2340 Clouds 27 1011 61 10000 10.3 40 08:25 25.02.2020
2341 Clouds 27 1011 58 10000 10.8 40 07:51 25.02.2020
2342 Clouds 28 1011 54 10000 10.8 40 07:25 25.02.2020
2343 Clouds 28 1011 51 10000 9.3 50 06:59 25.02.2020
2344 Clouds 29 1012 51 10000 8.7 50 06:26 25.02.2020
2345 Clouds 29 1013 51 10000 7.7 50 05:24 25.02.2020
2346 Clouds 29 1015 48 10000 4.1 60 02:44 25.02.2020
2347 Clouds 27 1016 57 10000 3.6 40 01:28 25.02.2020
2348 Clouds 26 1016 57 10000 2.6 360 00:34 25.02.2020
2349 Clouds 25 1017 61 10000 3.1 350 23:59 24.02.2020
2350 Clouds 24 1017 65 10000 3.6 340 23:39 24.02.2020
2351 Clouds 23 1017 65 10000 3.6 340 23:19 24.02.2020
2352 Clear 21 1017 100 10000 2.1 240 22:38 24.02.2020
2353 Clear 20 1017 100 10000 2.1 240 22:19 24.02.2020
2354 Clouds 20 1017 100 10000 1.31 282 21:57 24.02.2020
2355 Clear 19 1017 100 8000 1.31 282 21:39 24.02.2020
2356 Clear 19 1017 93 10000 1.31 282 21:19 24.02.2020
2357 Clear 18 1017 93 10000 1.31 282 20:57 24.02.2020
2358 Clouds 18 1017 100 10000 1.31 282 20:38 24.02.2020
2359 Clouds 18 1017 100 10000 0.82 294 20:19 24.02.2020
2360 Clouds 18 1017 100 10000 0.82 294 19:56 24.02.2020
2361 Clouds 19 1017 100 10000 0.82 294 19:37 24.02.2020
2362 Clouds 19 1017 100 10000 0.82 294 19:19 24.02.2020
2363 Clouds 19 1017 100 10000 0.82 294 18:42 24.02.2020
2364 Clouds 19 1017 100 10000 0.82 294 18:24 24.02.2020
2365 Clouds 19 1017 100 10000 0.82 294 17:57 24.02.2020
2366 Clouds 19 1017 100 10000 0.82 294 17:39 24.02.2020
2367 Clouds 19 1017 94 10000 1.16 11 17:19 24.02.2020
2368 Clouds 19 1017 94 10000 1.16 11 16:55 24.02.2020
2369 Clouds 19 1018 94 10000 1.5 220 16:37 24.02.2020
2370 Clouds 20 1018 94 10000 1.16 11 16:18 24.02.2020
2371 Clouds 20 1018 94 10000 1.16 11 15:57 24.02.2020
2372 Clouds 20 1018 88 10000 1.16 11 15:38 24.02.2020
2373 Clouds 20 1018 88 10000 1.16 11 15:20 24.02.2020
2374 Clouds 21 1019 88 10000 1.16 11 14:42 24.02.2020
2375 Clouds 21 1019 88 10000 1.16 11 14:23 24.02.2020
2376 Clouds 21 1019 88 10000 1.5 70 13:59 24.02.2020
2377 Clouds 21 1019 88 10000 1.79 23 13:41 24.02.2020
2378 Clouds 21 1019 88 10000 1.97 39 13:23 24.02.2020
2379 Clouds 22 1019 88 10000 1.5 50 12:59 24.02.2020
2380 Clouds 22 1019 83 10000 1.97 39 12:41 24.02.2020
2381 Clouds 22 1019 83 10000 2.6 30 12:23 24.02.2020
2382 Clouds 22 1019 73 10000 4.1 30 11:50 24.02.2020
2383 Clouds 23 1019 78 10000 3.1 40 11:32 24.02.2020
2384 Clouds 23 1019 78 10000 3.6 360 10:58 24.02.2020
2385 Clouds 23 1018 65 10000 4.1 40 10:40 24.02.2020
2386 Clouds 23 1018 65 10000 4.1 40 10:22 24.02.2020
2387 Clouds 24 1018 64 10000 5.1 360 09:40 24.02.2020
2388 Clouds 24 1018 57 10000 6.7 20 09:19 24.02.2020
2389 Clouds 25 1017 54 10000 6.7 40 08:52 24.02.2020
2390 Clouds 25 1018 54 10000 7.7 30 08:29 24.02.2020
2391 Clouds 26 1018 54 10000 7.2 40 07:55 24.02.2020
2392 Clouds 26 1018 51 10000 8.2 30 07:33 24.02.2020
2393 Clouds 27 1018 45 10000 8.7 60 06:53 24.02.2020
2394 Clouds 27 1018 45 10000 8.7 60 06:26 24.02.2020
2395 Clouds 27 1018 48 10000 8.7 70 05:46 24.02.2020
2396 Clouds 27 1018 51 10000 7.7 50 05:25 24.02.2020
2397 Clouds 27 1020 54 10000 5.7 20 02:58 24.02.2020
2398 Clouds 27 1020 51 10000 2.1 340 02:31 24.02.2020
2399 Clouds 26 1021 47 10000 4.1 360 01:39 24.02.2020
2400 Clouds 25 1021 54 10000 2.6 360 00:50 24.02.2020
2401 Clouds 24 1021 54 10000 4.6 10 00:21 24.02.2020
2402 Clouds 24 1021 54 10000 4.6 350 23:55 23.02.2020
2403 Clouds 23 1021 57 10000 2.6 320 23:36 23.02.2020
2404 Clouds 22 1021 64 10000 1.5 300 23:18 23.02.2020
2405 Clouds 21 1021 73 10000 0.5 260 22:43 23.02.2020
2406 Clouds 20 1021 73 10000 0.5 260 22:22 23.02.2020
2407 Clouds 19 1021 77 10000 1 250 21:57 23.02.2020
2408 Clouds 18 1021 100 10000 1.35 281 21:39 23.02.2020
2409 Clouds 18 1021 100 10000 1.35 281 21:18 23.02.2020
2410 Clouds 18 1021 100 10000 1.35 281 20:55 23.02.2020
2411 Clouds 18 1021 100 10000 1.35 281 20:37 23.02.2020
2412 Clouds 18 1021 100 10000 1.6 317 20:18 23.02.2020
2413 Clouds 18 1020 100 10000 1.6 317 19:54 23.02.2020
2414 Clouds 18 1020 100 10000 1.6 317 19:36 23.02.2020
2415 Clouds 18 1020 100 10000 1.6 317 19:36 23.02.2020
2416 Clouds 18 1020 93 10000 1.6 317 19:18 23.02.2020
2417 Clouds 19 1021 100 10000 1.6 317 18:41 23.02.2020
2418 Clouds 19 1021 100 10000 1.6 317 18:21 23.02.2020
2419 Clouds 19 1020 88 10000 1.6 317 17:59 23.02.2020
2420 Clouds 19 1021 88 10000 1 300 17:41 23.02.2020
2421 Clouds 19 1021 83 10000 2.2 329 17:21 23.02.2020
2422 Clouds 19 1021 83 10000 2.2 329 16:57 23.02.2020
2423 Clouds 19 1021 93 10000 2.2 329 16:38 23.02.2020
2424 Clouds 19 1021 93 10000 2.2 329 16:20 23.02.2020
2425 Clouds 19 1021 93 10000 2.2 329 15:55 23.02.2020
2426 Clouds 19 1022 93 10000 2.2 329 15:37 23.02.2020
2427 Clouds 20 1022 93 10000 2.2 329 15:19 23.02.2020
2428 Clouds 20 1022 82 10000 2.2 329 14:55 23.02.2020
2429 Clouds 20 1022 88 10000 2.2 329 14:37 23.02.2020
2430 Clouds 20 1022 82 10000 2.56 12 14:19 23.02.2020
2431 Clouds 20 1022 82 10000 2.56 12 13:55 23.02.2020
2432 Clouds 20 1022 88 10000 0.5 260 13:36 23.02.2020
2433 Clouds 21 1022 77 10000 2.32 3 13:18 23.02.2020
2434 Clouds 21 1022 77 10000 0.5 120 12:40 23.02.2020
2435 Clouds 21 1022 77 10000 2.1 80 12:20 23.02.2020
2436 Clouds 21 1022 73 10000 3.1 90 11:39 23.02.2020
2437 Clouds 21 1022 69 10000 5.7 30 11:20 23.02.2020
2438 Clouds 21 1022 73 10000 3.1 90 11:20 23.02.2020
2439 Clouds 21 1022 69 10000 4.6 40 10:58 23.02.2020
2440 Clouds 21 1022 69 10000 4.6 40 10:58 23.02.2020
2441 Clouds 22 1022 69 10000 4.6 50 10:40 23.02.2020
2442 Clouds 22 1022 69 10000 4.6 50 10:22 23.02.2020
2443 Clouds 22 1021 69 10000 4.6 50 09:56 23.02.2020
2444 Clouds 22 1021 64 10000 2.6 80 09:38 23.02.2020
2445 Clouds 23 1022 60 10000 4.6 50 09:18 23.02.2020
2446 Clouds 23 1021 57 10000 4.6 30 08:46 23.02.2020
2447 Clouds 23 1022 57 10000 5.7 20 08:25 23.02.2020
2448 Clouds 24 1022 53 10000 5.1 30 07:47 23.02.2020
2449 Clouds 24 1022 53 10000 5.1 30 07:28 23.02.2020
2450 Clouds 24 1022 50 10000 6.2 30 06:25 23.02.2020
2451 Clouds 24 1022 53 10000 5.7 40 06:25 23.02.2020
2452 Clouds 24 1023 53 10000 5.7 40 05:34 23.02.2020
2453 Clouds 24 1023 57 10000 5.7 20 04:23 23.02.2020
2454 Rain 24 1024 57 10000 6.7 40 02:53 23.02.2020
2455 Rain 23 1025 69 10000 6.7 40 01:43 23.02.2020
2456 Rain 23 1025 69 10000 6.7 40 01:21 23.02.2020
2457 Clouds 23 1024 64 10000 1.5 280 00:44 23.02.2020
2458 Clouds 23 1024 64 10000 1.5 280 00:23 23.02.2020
2459 Clouds 22 1024 64 10000 2.6 300 23:43 22.02.2020
2460 Clouds 21 1024 94 10000 1 190 23:24 22.02.2020
2461 Clouds 21 1024 73 10000 1 310 22:46 22.02.2020
2462 Clouds 20 1024 94 10000 1 359 22:22 22.02.2020
2463 Clouds 20 1024 77 10000 2.1 310 21:59 22.02.2020
2464 Clouds 20 1024 77 10000 2.1 310 21:59 22.02.2020
2465 Clouds 19 1024 100 10000 3.1 280 21:39 22.02.2020
2466 Clouds 19 1024 100 10000 3.1 280 21:21 22.02.2020
2467 Clouds 19 1024 100 10000 1 359 20:41 22.02.2020
2468 Clouds 19 1023 100 10000 1.58 10 20:23 22.02.2020
2469 Clouds 19 1023 100 10000 1.58 10 19:43 22.02.2020
2470 Clouds 19 1023 100 10000 1.58 10 19:25 22.02.2020
2471 Clouds 19 1023 100 10000 1.58 10 18:59 22.02.2020
2472 Clouds 19 1023 100 10000 1.58 10 18:39 22.02.2020
2473 Clouds 20 1023 100 10000 1 330 18:20 22.02.2020
2474 Clouds 20 1023 64 10000 3.6 60 17:55 22.02.2020
2475 Clouds 20 1023 64 10000 3.6 50 17:37 22.02.2020
2476 Clouds 20 1023 64 10000 3.6 50 17:37 22.02.2020
2477 Clouds 20 1023 64 10000 3.6 50 17:37 22.02.2020
2478 Clouds 20 1023 73 10000 2.1 70 17:19 22.02.2020
2479 Clouds 20 1023 73 10000 2.1 70 16:55 22.02.2020
2480 Clouds 20 1024 68 10000 5.7 60 16:37 22.02.2020
2481 Clouds 20 1024 68 10000 5.7 60 16:19 22.02.2020
2482 Clouds 20 1024 64 10000 4.1 50 15:42 22.02.2020
2483 Clouds 20 1024 94 10000 1.5 230 15:22 22.02.2020
2484 Clouds 20 1024 64 10000 4.1 40 14:43 22.02.2020
2485 Clouds 20 1024 64 10000 4.1 40 14:22 22.02.2020
2486 Clouds 20 1024 64 10000 5.7 50 13:56 22.02.2020
2487 Clouds 20 1024 64 10000 5.1 60 13:38 22.02.2020
2488 Rain 20 1024 64 10000 5.1 50 13:18 22.02.2020
2489 Clouds 20 1024 68 10000 5.1 60 12:41 22.02.2020
2490 Clouds 20 1024 68 10000 5.1 60 12:23 22.02.2020
2491 Clouds 20 1024 68 10000 4.1 60 11:46 22.02.2020
2492 Clouds 20 1024 68 10000 3.6 70 11:28 22.02.2020
2493 Clouds 20 1023 77 10000 2.6 80 10:57 22.02.2020
2494 Rain 20 1023 77 10000 4.1 100 10:39 22.02.2020
2495 Rain 20 1023 77 10000 4.1 100 10:19 22.02.2020
2496 Rain 20 1023 83 10000 3.6 110 09:57 22.02.2020
2497 Rain 20 1023 88 10000 2.1 40 09:38 22.02.2020
2498 Rain 21 1023 77 10000 4.1 50 09:19 22.02.2020
2499 Rain 21 1023 68 10000 3.1 120 08:46 22.02.2020
2500 Rain 21 1023 68 10000 3.1 120 08:27 22.02.2020
2501 Rain 21 1022 68 10000 4.1 50 07:45 22.02.2020
2502 Rain 22 1022 68 10000 4.1 50 07:19 22.02.2020
2503 Rain 22 1023 78 10000 4.1 170 06:47 22.02.2020
2504 Rain 22 1023 78 10000 4.1 170 06:27 22.02.2020
2505 Rain 22 1023 73 10000 4.1 180 04:32 22.02.2020
2506 Clouds 22 1024 69 10000 3.6 180 03:21 22.02.2020
2507 Rain 21 1024 60 10000 3.6 130 02:28 22.02.2020
2508 Drizzle 21 1025 73 9000 5.1 140 01:43 22.02.2020
2509 Drizzle 20 1025 73 9000 5.1 140 01:24 22.02.2020
2510 Rain 20 1024 60 10000 4.6 160 00:43 22.02.2020
2511 Rain 20 1024 60 10000 4.6 160 00:24 22.02.2020
2512 Rain 20 1023 60 10000 4.1 150 23:45 21.02.2020
2513 Rain 20 1023 60 10000 4.1 150 23:45 21.02.2020
2514 Clouds 19 1024 93 10000 3.1 220 23:21 21.02.2020
2515 Rain 18 1024 93 4100 2.1 200 22:54 21.02.2020
2516 Drizzle 18 1023 82 10000 5.7 190 22:36 21.02.2020
2517 Rain 18 1023 88 10000 2.6 180 22:18 21.02.2020
2518 Rain 18 1022 88 10000 4.6 180 21:41 21.02.2020
2519 Rain 18 1022 88 10000 4.6 180 21:23 21.02.2020
2520 Clouds 18 1022 82 10000 2.6 190 20:48 21.02.2020
2521 Rain 18 1021 88 10000 6.7 200 20:29 21.02.2020
2522 Rain 18 1021 88 10000 7.7 200 19:44 21.02.2020
2523 Rain 18 1021 88 10000 7.7 200 19:25 21.02.2020
2524 Rain 18 1021 93 10000 7.7 200 18:58 21.02.2020
2525 Rain 18 1021 93 10000 7.7 200 18:39 21.02.2020
2526 Rain 18 1021 93 10000 7.7 200 18:21 21.02.2020
2527 Rain 18 1021 93 10000 8.2 200 17:41 21.02.2020
2528 Rain 18 1021 93 10000 8.2 200 17:23 21.02.2020
2529 Rain 19 1021 88 10000 8.7 210 16:58 21.02.2020
2530 Clouds 19 1021 88 10000 8.2 210 16:40 21.02.2020
2531 Clouds 19 1021 82 10000 7.2 220 16:20 21.02.2020
2532 Clouds 20 1021 82 10000 5.1 160 15:47 21.02.2020
2533 Clouds 20 1021 82 10000 5.1 160 15:19 21.02.2020
2534 Rain 20 1020 77 10000 5.7 140 14:59 21.02.2020
2535 Rain 20 1020 77 10000 5.1 130 14:41 21.02.2020
2536 Rain 20 1020 77 10000 5.1 130 14:19 21.02.2020
2537 Clouds 20 1020 77 10000 4.1 150 13:43 21.02.2020
2538 Clouds 21 1020 68 10000 5.7 130 13:24 21.02.2020
2539 Clouds 21 1020 77 10000 3.6 140 12:55 21.02.2020
2540 Clouds 21 1020 73 10000 6.7 130 12:36 21.02.2020
2541 Clouds 21 1020 73 10000 6.7 130 12:18 21.02.2020
2542 Clouds 21 1019 77 10000 7.2 140 11:40 21.02.2020
2543 Clouds 21 1019 77 10000 7.2 140 11:21 21.02.2020
2544 Clouds 21 1019 77 10000 7.2 140 10:57 21.02.2020
2545 Clouds 21 1018 73 10000 7.2 130 10:38 21.02.2020
2546 Clouds 21 1018 73 10000 7.2 130 10:19 21.02.2020
2547 Clouds 21 1018 73 10000 7.2 130 09:57 21.02.2020
2548 Clouds 21 1018 73 10000 7.2 130 09:57 21.02.2020
2549 Clouds 22 1017 69 10000 7.2 130 09:38 21.02.2020
2550 Clouds 22 1017 64 10000 5.7 130 09:19 21.02.2020
2551 Clouds 23 1016 64 10000 6.7 130 08:43 21.02.2020
2552 Clouds 23 1016 64 10000 6.7 130 08:22 21.02.2020
2553 Clouds 23 1016 60 10000 5.7 140 07:59 21.02.2020
2554 Clouds 23 1016 57 10000 6.2 130 07:40 21.02.2020
2555 Clouds 24 1016 57 10000 6.2 130 07:19 21.02.2020
2556 Clouds 24 1016 60 10000 5.7 140 06:52 21.02.2020
2557 Clouds 24 1016 60 10000 5.7 140 06:30 21.02.2020
2558 Clouds 25 1016 57 10000 6.2 130 05:47 21.02.2020
2559 Clouds 24 1016 60 10000 4.6 150 04:38 21.02.2020
2560 Clouds 24 1016 60 10000 4.6 150 04:19 21.02.2020
2561 Clouds 24 1016 57 10000 4.1 130 04:19 21.02.2020
2562 Clouds 24 1016 57 10000 4.6 120 03:42 21.02.2020
2563 Clouds 24 1016 60 10000 4.1 130 02:43 21.02.2020
2564 Clouds 23 1016 64 10000 3.6 150 01:24 21.02.2020
2565 Clouds 23 1016 68 10000 2.1 190 00:46 21.02.2020
2566 Clouds 23 1016 68 10000 2.1 190 00:23 21.02.2020
2567 Clouds 22 1016 77 10000 3.1 190 23:46 20.02.2020
2568 Clouds 21 1016 77 10000 3.1 190 23:26 20.02.2020
2569 Clouds 21 1016 77 10000 3.6 190 22:59 20.02.2020
2570 Clouds 20 1016 77 10000 4.1 190 22:39 20.02.2020
2571 Clouds 20 1016 77 10000 4.1 190 22:20 20.02.2020
2572 Clouds 20 1015 82 10000 3.6 210 21:56 20.02.2020
2573 Clouds 19 1015 77 10000 4.1 210 21:37 20.02.2020
2574 Clouds 19 1015 77 10000 4.1 210 21:19 20.02.2020
2575 Clouds 19 1015 88 10000 1.35 248 20:55 20.02.2020
2576 Clouds 19 1014 82 10000 1.35 248 20:37 20.02.2020
2577 Clouds 19 1014 88 10000 1.47 173 20:19 20.02.2020
2578 Clouds 19 1014 88 10000 1.47 173 19:58 20.02.2020
2579 Clouds 19 1014 77 10000 1.47 173 19:40 20.02.2020
2580 Clouds 19 1014 77 10000 1.47 173 19:21 20.02.2020
2581 Clouds 19 1014 82 10000 1.47 173 18:40 20.02.2020
2582 Clouds 19 1014 77 10000 1.47 173 18:20 20.02.2020
2583 Clouds 19 1014 77 10000 1.47 173 17:56 20.02.2020
2584 Clouds 19 1014 64 10000 1.47 173 17:38 20.02.2020
2585 Clouds 19 1014 64 10000 1.22 204 17:18 20.02.2020
2586 Clouds 20 1014 64 10000 1.22 204 16:56 20.02.2020
2587 Clouds 20 1014 64 10000 1.22 204 16:37 20.02.2020
2588 Clouds 20 1014 60 10000 1.22 204 16:18 20.02.2020
2589 Clouds 20 1015 60 10000 1 110 15:42 20.02.2020
2590 Clouds 20 1015 60 10000 1 110 15:22 20.02.2020
2591 Clouds 20 1015 60 10000 1.5 120 14:57 20.02.2020
2592 Clouds 20 1014 60 10000 3.6 130 14:39 20.02.2020
2593 Clouds 20 1014 60 10000 3.6 130 14:39 20.02.2020
2594 Clouds 20 1014 60 10000 3.6 130 14:20 20.02.2020
2595 Clouds 20 1015 60 10000 3.1 130 13:54 20.02.2020
2596 Clouds 20 1015 60 10000 3.1 120 13:36 20.02.2020
2597 Clouds 20 1015 60 10000 2.6 130 13:18 20.02.2020
2598 Clouds 20 1014 60 10000 3.6 140 12:42 20.02.2020
2599 Clouds 20 1014 60 10000 3.6 140 12:21 20.02.2020
2600 Clouds 20 1014 60 10000 4.6 140 11:57 20.02.2020
2601 Clouds 20 1014 64 10000 4.1 140 11:39 20.02.2020
2602 Clouds 20 1014 64 10000 4.1 140 11:39 20.02.2020
2603 Clouds 20 1013 60 10000 5.1 150 11:20 20.02.2020
2604 Clouds 20 1013 60 10000 5.1 150 10:55 20.02.2020
2605 Clouds 20 1013 60 10000 5.7 150 10:37 20.02.2020
2606 Clouds 20 1012 60 10000 5.7 140 10:19 20.02.2020
2607 Clouds 21 1012 64 10000 5.7 150 09:38 20.02.2020
2608 Clouds 21 1012 64 10000 5.7 150 09:20 20.02.2020
2609 Clouds 21 1011 60 10000 6.7 150 08:42 20.02.2020
2610 Clouds 22 1011 60 10000 6.7 150 08:24 20.02.2020
2611 Clouds 23 1011 53 10000 6.7 150 07:48 20.02.2020
2612 Clouds 23 1011 53 10000 6.7 150 07:27 20.02.2020
2613 Clouds 23 1011 53 10000 6.7 140 06:59 20.02.2020
2614 Clouds 23 1011 53 10000 6.7 150 06:40 20.02.2020
2615 Clouds 24 1011 53 10000 6.7 150 05:58 20.02.2020
2616 Clouds 24 1011 53 10000 7.2 170 05:34 20.02.2020
2617 Clouds 25 1011 56 10000 7.2 160 04:48 20.02.2020
2618 Clouds 24 1011 56 10000 7.7 170 03:47 20.02.2020
2619 Clouds 24 1011 64 10000 7.7 170 02:47 20.02.2020
2620 Clouds 23 1011 60 10000 8.2 180 01:25 20.02.2020
2621 Clouds 23 1011 68 10000 8.2 200 00:47 20.02.2020
2622 Clouds 22 1011 68 10000 8.2 200 00:25 20.02.2020
2623 Clouds 22 1011 68 10000 8.7 200 23:48 19.02.2020
2624 Clouds 21 1010 73 10000 6.7 190 23:19 19.02.2020
2625 Clouds 19 1010 72 10000 1.48 210 22:43 19.02.2020
2626 Clouds 19 1010 72 10000 1.48 210 22:25 19.02.2020
2627 Clouds 18 1009 72 10000 0.5 300 21:59 19.02.2020
2628 Clouds 17 1009 72 10000 2.1 300 21:40 19.02.2020
2629 Clouds 16 1009 72 10000 2.1 300 21:19 19.02.2020
2630 Clear 16 1008 93 10000 1.48 210 20:58 19.02.2020
2631 Clear 16 1008 93 10000 1.48 210 20:39 19.02.2020
2632 Clear 16 1008 93 10000 2.01 230 20:20 19.02.2020
2633 Clear 16 1008 93 10000 2.01 230 20:20 19.02.2020
2634 Clear 16 1008 93 10000 2.01 230 19:58 19.02.2020
2635 Clear 16 1007 93 10000 1.5 290 19:38 19.02.2020
2636 Clear 16 1007 93 10000 1.5 290 19:19 19.02.2020
2637 Clear 16 1007 93 10000 2.1 10 18:58 19.02.2020
2638 Clear 16 1007 82 10000 2.1 240 18:40 19.02.2020
2639 Clear 16 1007 82 10000 2.1 250 18:21 19.02.2020
2640 Clear 17 1007 82 10000 2.1 250 17:56 19.02.2020
2641 Clear 17 1007 87 10000 2.01 230 17:38 19.02.2020
2642 Clear 17 1007 87 10000 1.9 244 17:18 19.02.2020
2643 Clear 17 1007 77 10000 3.1 200 16:42 19.02.2020
2644 Clear 18 1007 77 10000 3.1 200 16:19 19.02.2020
2645 Clear 18 1007 77 10000 1 270 15:56 19.02.2020
2646 Clear 18 1007 77 10000 4.1 190 15:37 19.02.2020
2647 Clear 18 1007 77 10000 4.1 190 15:19 19.02.2020
2648 Clear 19 1007 77 10000 4.6 190 14:41 19.02.2020
2649 Clear 19 1007 77 10000 4.6 190 14:22 19.02.2020
2650 Clear 20 1007 77 10000 5.1 190 13:55 19.02.2020
2651 Clear 20 1007 77 10000 5.7 200 13:36 19.02.2020
2652 Clear 20 1007 77 10000 5.7 200 13:18 19.02.2020
2653 Clear 20 1007 46 10000 4.1 250 12:38 19.02.2020
2654 Clear 21 1007 38 10000 6.2 200 12:19 19.02.2020
2655 Clear 21 1007 38 10000 6.2 200 12:19 19.02.2020
2656 Clear 22 1007 38 10000 6.2 200 11:55 19.02.2020
2657 Clear 22 1006 38 10000 6.2 200 11:37 19.02.2020
2658 Clear 23 1006 38 10000 6.2 200 11:18 19.02.2020
2659 Clear 23 1006 36 10000 6.2 200 10:55 19.02.2020
2660 Clear 24 1005 33 10000 7.7 250 10:36 19.02.2020
2661 Clear 24 1004 31 10000 7.7 250 10:18 19.02.2020
2662 Clear 25 1004 31 10000 10.3 240 09:41 19.02.2020
2663 Clear 25 1004 31 10000 10.3 240 09:20 19.02.2020
2664 Clear 25 1004 31 10000 10.3 240 09:20 19.02.2020
2665 Clear 26 1003 30 10000 10.8 250 08:55 19.02.2020
2666 Clear 26 1003 32 10000 9.8 240 08:37 19.02.2020
2667 Clear 27 1002 32 10000 9.8 250 08:18 19.02.2020
2668 Clear 27 1002 30 10000 8.7 240 07:41 19.02.2020
2669 Clear 27 1002 30 10000 8.7 240 07:20 19.02.2020
2670 Clear 27 1002 28 10000 5.7 260 06:46 19.02.2020
2671 Clear 28 1002 28 10000 4.1 280 05:35 19.02.2020
2672 Clear 28 1003 34 10000 7.2 290 03:56 19.02.2020
2673 Clear 27 1003 30 10000 5.7 270 02:48 19.02.2020
2674 Clear 27 1003 34 10000 8.2 300 01:54 19.02.2020
2675 Clear 26 1003 34 10000 7.2 270 01:23 19.02.2020
2676 Clear 25 1003 38 10000 6.7 270 00:43 19.02.2020
2677 Clear 25 1003 38 10000 6.7 270 00:23 19.02.2020
2678 Clear 24 1003 47 10000 2.6 250 23:41 18.02.2020
2679 Clear 23 1003 47 10000 2.6 250 23:20 18.02.2020
2680 Clear 22 1002 53 10000 1.5 250 22:56 18.02.2020
2681 Clear 22 1002 56 10000 4.6 290 22:37 18.02.2020
2682 Clear 22 1002 56 10000 4.6 290 22:19 18.02.2020
2683 Rain 21 1002 60 10000 6.2 270 21:55 18.02.2020
2684 Rain 20 1002 68 10000 6.2 270 21:37 18.02.2020
2685 Clear 20 1002 77 10000 4.1 280 21:18 18.02.2020
2686 Rain 20 1002 77 10000 4.1 280 20:56 18.02.2020
2687 Rain 20 1002 88 10000 4.1 300 20:37 18.02.2020
2688 Rain 20 1002 88 10000 4.1 300 20:37 18.02.2020
2689 Rain 20 1002 88 10000 4.1 300 20:18 18.02.2020
2690 Clear 20 1002 88 10000 3.6 340 19:42 18.02.2020
2691 Clear 20 1002 88 10000 3.6 340 19:20 18.02.2020
2692 Clear 20 1001 88 10000 2.1 350 18:58 18.02.2020
2693 Clear 20 1001 88 10000 3.1 350 18:40 18.02.2020
2694 Clear 20 1001 88 10000 3.1 350 18:20 18.02.2020
2695 Clear 20 1001 88 10000 2.6 340 17:43 18.02.2020
2696 Clear 20 1001 88 10000 2.6 340 17:20 18.02.2020
2697 Clear 20 1001 88 10000 2.6 310 16:58 18.02.2020
2698 Clear 20 1001 88 10000 4.1 350 16:38 18.02.2020
2699 Clouds 20 1002 100 10000 1.5 350 16:18 18.02.2020
2700 -273 0 0 0 0 0 15:40 18.02.2020
2701 Clouds 20 1002 94 10000 1.5 80 15:20 18.02.2020
2702 Clouds 20 1002 94 10000 1.5 80 14:57 18.02.2020
2703 Rain 20 1001 88 10000 3.82 276 14:38 18.02.2020
2704 Rain 20 1001 88 10000 3.58 347 14:20 18.02.2020
2705 Thunderstorm 20 1002 94 4000 6.2 100 13:42 18.02.2020
2706 Thunderstorm 21 1002 94 4000 6.2 100 13:23 18.02.2020
2707 Thunderstorm 22 1003 69 10000 9.3 210 12:59 18.02.2020
2708 Thunderstorm 25 1002 57 10000 7.7 220 12:40 18.02.2020
2709 Thunderstorm 26 1002 57 10000 7.7 220 12:22 18.02.2020
2710 Rain 27 1002 74 10000 2.1 120 11:44 18.02.2020
2711 Rain 28 1001 48 10000 6.2 360 11:26 18.02.2020
2712 Rain 28 1001 48 10000 6.2 360 10:58 18.02.2020
2713 Rain 28 1000 51 10000 6.2 360 10:39 18.02.2020
2714 Rain 27 1001 51 10000 6.2 360 10:18 18.02.2020
2715 Rain 27 1001 51 10000 6.2 360 09:56 18.02.2020
2716 Rain 28 1001 54 10000 6.2 360 09:37 18.02.2020
2717 Rain 28 1001 54 10000 6.2 360 09:19 18.02.2020
2718 Rain 28 1001 61 10000 10.3 30 08:43 18.02.2020
2719 Clouds 29 1002 61 10000 9.8 30 08:21 18.02.2020
2720 Clouds 30 1002 58 10000 9.8 30 07:59 18.02.2020
2721 Clouds 30 1003 58 10000 9.3 40 07:41 18.02.2020
2722 Clouds 30 1003 55 10000 10.3 40 07:22 18.02.2020
2723 Clouds 31 1003 55 10000 9.3 40 06:43 18.02.2020
2724 Clouds 31 1003 55 10000 9.3 40 06:25 18.02.2020
2725 Clouds 32 1005 51 10000 7.7 50 05:47 18.02.2020
2726 Clear 32 1005 55 10000 7.2 40 04:43 18.02.2020
2727 Clear 32 1006 52 10000 6.2 40 03:36 18.02.2020
2728 Clear 31 1008 54 10000 3.1 120 02:49 18.02.2020
2729 Clouds 28 1009 61 10000 1.5 300 01:23 18.02.2020
2730 Clouds 25 1009 78 10000 4.1 310 00:22 18.02.2020
2731 Clouds 24 1009 78 10000 4.1 310 23:58 17.02.2020
2732 Clouds 24 1010 78 10000 4.1 320 23:38 17.02.2020
2733 Clouds 23 1010 78 10000 4.1 320 23:19 17.02.2020
2734 Clouds 22 1010 100 10000 1 10 22:56 17.02.2020
2735 Clouds 22 1010 83 10000 3.1 320 22:38 17.02.2020
2736 Clouds 21 1010 100 10000 1.26 307 22:18 17.02.2020
2737 Rain 21 1010 88 10000 3.1 290 21:39 17.02.2020
2738 Clouds 20 1010 94 10000 3.1 290 21:18 17.02.2020
2739 Clouds 20 1010 94 10000 3.1 290 20:55 17.02.2020
2740 Clouds 20 1009 100 10000 1.5 10 20:36 17.02.2020
2741 Clouds 20 1009 100 10000 1.5 10 20:36 17.02.2020
2742 Clouds 20 1009 100 10000 1.5 10 20:18 17.02.2020
2743 Clouds 20 1009 94 10000 1.07 269 19:42 17.02.2020
2744 Clouds 20 1009 94 10000 1.07 269 19:21 17.02.2020
2745 Clouds 20 1009 94 10000 1.07 269 18:55 17.02.2020
2746 Clouds 20 1009 100 10000 1.07 269 18:36 17.02.2020
2747 Clouds 20 1009 100 10000 1.07 269 18:18 17.02.2020
2748 Clouds 20 1010 88 10000 1.07 269 17:38 17.02.2020
2749 Clouds 21 1010 88 10000 0.82 295 17:19 17.02.2020
2750 Clouds 21 1010 88 10000 0.82 295 16:58 17.02.2020
2751 Clouds 21 1010 94 10000 0.82 295 16:40 17.02.2020
2752 Clouds 21 1010 94 10000 0.82 295 16:22 17.02.2020
2753 Clouds 21 1011 94 10000 0.82 295 15:46 17.02.2020
2754 Clouds 21 1011 94 10000 0.82 295 15:46 17.02.2020
2755 Clouds 21 1011 94 10000 0.82 295 15:27 17.02.2020
2756 Clouds 21 1011 88 10000 1.5 0 14:58 17.02.2020
2757 Clouds 21 1011 88 10000 0.82 295 14:39 17.02.2020
2758 Clouds 21 1011 88 10000 1.14 48 14:20 17.02.2020
2759 Clouds 21 1011 94 10000 1.5 40 13:56 17.02.2020
2760 Clouds 21 1011 94 10000 2.1 50 13:38 17.02.2020
2761 Rain 21 1011 94 10000 1.5 80 13:18 17.02.2020
2762 Clouds 21 1012 94 10000 1.38 103 12:42 17.02.2020
2763 Clouds 21 1012 94 10000 1.38 103 12:23 17.02.2020
2764 Clouds 21 1011 88 10000 1.38 103 11:57 17.02.2020
2765 Clouds 22 1012 88 10000 1.5 80 11:39 17.02.2020
2766 Clouds 22 1012 88 10000 1.5 80 11:39 17.02.2020
2767 Clouds 22 1012 88 10000 1.5 80 11:20 17.02.2020
2768 Clouds 22 1011 83 10000 2.83 74 10:41 17.02.2020
2769 Clouds 22 1011 83 10000 2.83 74 10:41 17.02.2020
2770 Clouds 23 1011 83 10000 2.83 74 10:22 17.02.2020
2771 Clouds 23 1011 83 10000 2.83 74 09:59 17.02.2020
2772 Clouds 23 1011 83 10000 2.6 90 09:41 17.02.2020
2773 Clouds 23 1011 83 10000 2.6 90 09:21 17.02.2020
2774 Clouds 23 1011 83 10000 3.1 110 08:57 17.02.2020
2775 Clouds 23 1011 88 10000 2.6 150 08:39 17.02.2020
2776 Clouds 23 1011 88 10000 2.6 150 08:19 17.02.2020
2777 Clouds 24 1011 78 10000 4.6 130 07:43 17.02.2020
2778 Clouds 24 1011 78 10000 3.6 110 07:23 17.02.2020
2779 Drizzle 24 1012 73 10000 3.6 110 06:51 17.02.2020
2780 Drizzle 24 1012 73 10000 3.6 110 06:32 17.02.2020
2781 Drizzle 24 1012 73 10000 3.6 110 05:56 17.02.2020
2782 Clouds 24 1012 78 10000 3.1 160 05:37 17.02.2020
2783 Rain 23 1014 94 9000 1.5 130 03:21 17.02.2020
2784 Clouds 23 1014 83 10000 3.6 170 01:47 17.02.2020
2785 Clouds 23 1014 83 10000 3.6 170 01:47 17.02.2020
2786 Clouds 23 1014 88 10000 1 160 00:42 17.02.2020
2787 Clouds 23 1014 88 10000 1 160 00:21 17.02.2020
2788 Clouds 23 1014 88 10000 2.1 190 23:53 16.02.2020
2789 Clouds 22 1014 88 10000 0.73 143 23:30 16.02.2020
2790 Clouds 21 1014 88 10000 2.07 153 22:57 16.02.2020
2791 Clouds 21 1015 94 10000 2.07 153 22:39 16.02.2020
2792 Clouds 21 1014 94 10000 2.07 153 22:20 16.02.2020
2793 Clouds 21 1014 94 10000 2.07 153 21:57 16.02.2020
2794 Clouds 21 1014 94 10000 2.1 250 21:39 16.02.2020
2795 Clouds 20 1014 94 10000 2.1 250 21:21 16.02.2020
2796 Clouds 20 1014 94 10000 1 280 20:57 16.02.2020
2797 Clouds 20 1014 94 10000 2.1 320 20:38 16.02.2020
2798 Clouds 20 1014 94 10000 2.1 320 20:20 16.02.2020
2799 Clouds 20 1014 94 10000 2.1 320 20:20 16.02.2020
2800 Clouds 20 1014 94 10000 3.16 151 19:58 16.02.2020
2801 Clouds 20 1014 94 10000 3.16 151 19:38 16.02.2020
2802 Rain 20 1013 94 10000 2.6 270 19:18 16.02.2020
2803 Drizzle 20 1014 94 8000 3.16 151 18:43 16.02.2020
2804 Clouds 20 1014 94 10000 3.16 151 18:23 16.02.2020
2805 Clouds 20 1014 94 10000 3.16 151 17:55 16.02.2020
2806 Clouds 20 1014 94 10000 3.16 151 17:36 16.02.2020
2807 Rain 20 1014 94 5000 2.52 156 17:18 16.02.2020
2808 Rain 20 1014 94 5000 2.52 156 17:18 16.02.2020
2809 Rain 20 1014 94 5000 2.52 156 16:54 16.02.2020
2810 Drizzle 20 1014 94 6000 2.52 156 16:36 16.02.2020
2811 Drizzle 20 1014 94 6000 2.52 156 16:18 16.02.2020
2812 Clouds 20 1015 94 10000 1.5 190 15:41 16.02.2020
2813 Clouds 21 1015 94 10000 1.5 190 15:22 16.02.2020
2814 Clouds 21 1015 88 10000 4.1 210 14:44 16.02.2020
2815 Clouds 21 1015 88 10000 4.1 210 14:24 16.02.2020
2816 Clouds 21 1015 88 10000 2.6 200 13:59 16.02.2020
2817 Clouds 21 1015 88 10000 2.6 200 13:41 16.02.2020
2818 Clouds 21 1015 88 10000 2.6 200 13:22 16.02.2020
2819 Clouds 21 1015 94 10000 3.1 200 12:39 16.02.2020
2820 Clouds 21 1015 94 10000 2.6 190 12:20 16.02.2020
2821 Clouds 21 1015 88 10000 3.6 180 11:54 16.02.2020
2822 Clouds 21 1015 88 10000 3.6 180 11:36 16.02.2020
2823 Clouds 22 1015 88 10000 3.6 180 11:18 16.02.2020
2824 Clouds 22 1015 88 10000 3.6 180 10:55 16.02.2020
2825 Clouds 22 1015 88 10000 3.6 180 10:55 16.02.2020
2826 Clouds 22 1015 88 10000 5.1 180 10:37 16.02.2020
2827 Clouds 22 1015 88 10000 5.7 180 10:18 16.02.2020
2828 Clouds 23 1015 88 10000 6.2 180 09:39 16.02.2020
2829 Clouds 23 1015 88 10000 6.2 180 09:21 16.02.2020
2830 Clouds 23 1014 78 10000 5.7 180 08:58 16.02.2020
2831 Clouds 23 1014 78 10000 7.2 170 08:40 16.02.2020
2832 Clouds 24 1014 78 10000 7.2 170 08:19 16.02.2020
2833 Clouds 24 1014 78 10000 7.2 170 08:19 16.02.2020
2834 Clouds 24 1013 78 10000 7.2 170 07:43 16.02.2020
2835 Clouds 24 1013 78 10000 7.2 170 07:23 16.02.2020
2836 Clouds 24 1014 83 10000 6.7 170 06:32 16.02.2020
2837 Clouds 24 1014 83 10000 6.7 170 06:32 16.02.2020
2838 Clouds 25 1014 73 10000 7.2 170 04:37 16.02.2020
2839 Rain 26 1014 57 10000 1.5 250 03:24 16.02.2020
2840 Clouds 26 1014 69 10000 7.2 180 02:27 16.02.2020
2841 Clouds 25 1014 73 10000 6.2 170 01:42 16.02.2020
2842 Clouds 25 1015 73 10000 6.2 170 01:21 16.02.2020
2843 Clouds 25 1015 73 10000 6.2 170 00:51 16.02.2020
2844 Clouds 24 1014 73 10000 5.1 170 00:28 16.02.2020
2845 Clouds 24 1014 73 10000 5.7 190 23:46 15.02.2020
2846 Clouds 23 1014 73 10000 5.7 190 23:26 15.02.2020
2847 Clouds 22 1014 78 10000 5.1 190 22:59 15.02.2020
2848 Clouds 21 1013 78 10000 3.6 190 22:41 15.02.2020
2849 Clouds 21 1013 83 10000 3.6 210 22:21 15.02.2020
2850 Clouds 20 1013 83 10000 3.6 210 21:58 15.02.2020
2851 Clouds 20 1013 83 10000 3.1 210 21:39 15.02.2020
2852 Clouds 20 1013 83 10000 3.1 210 21:21 15.02.2020
2853 Clouds 20 1012 88 10000 5.1 210 20:40 15.02.2020
2854 Clouds 20 1012 88 10000 5.1 210 20:21 15.02.2020
2855 Rain 20 1011 83 10000 5.7 200 19:44 15.02.2020
2856 Rain 20 1011 88 10000 6.7 210 19:23 15.02.2020
2857 Clouds 20 1011 88 10000 6.7 210 18:55 15.02.2020
2858 Clouds 20 1011 94 10000 4.1 220 18:36 15.02.2020
2859 Clouds 20 1011 94 10000 4.1 220 18:18 15.02.2020
2860 Clouds 20 1011 94 10000 2.57 157 17:43 15.02.2020
2861 Clouds 20 1011 94 10000 2.18 163 17:22 15.02.2020
2862 Clouds 20 1010 94 10000 3.6 190 16:59 15.02.2020
2863 Rain 21 1011 88 10000 4.6 200 16:39 15.02.2020
2864 Rain 21 1011 88 10000 4.6 200 16:19 15.02.2020
2865 Rain 21 1011 88 10000 3.6 200 15:43 15.02.2020
2866 Rain 21 1011 88 10000 3.1 200 15:24 15.02.2020
2867 Rain 21 1011 88 10000 3.1 220 14:45 15.02.2020
2868 Rain 21 1011 88 10000 3.1 220 14:24 15.02.2020
2869 Clouds 21 1011 100 10000 1.5 270 13:58 15.02.2020
2870 Clouds 21 1011 88 10000 2.6 220 13:40 15.02.2020
2871 Clouds 21 1011 88 10000 2.6 220 13:21 15.02.2020
2872 Clouds 21 1011 88 10000 3.1 230 12:55 15.02.2020
2873 Clouds 21 1010 88 10000 3.6 220 12:37 15.02.2020
2874 Clouds 21 1010 88 10000 2.6 230 12:19 15.02.2020
2875 Rain 21 1009 88 10000 1.84 165 11:41 15.02.2020
2876 Rain 21 1009 88 10000 3.03 153 11:23 15.02.2020
2877 Rain 21 1009 88 10000 5.1 180 10:46 15.02.2020
2878 Rain 21 1008 83 7000 0.5 140 10:27 15.02.2020
2879 Rain 22 1007 78 10000 3.6 140 09:45 15.02.2020
2880 Rain 23 1007 78 10000 3.6 140 09:26 15.02.2020
2881 Clouds 24 1007 69 10000 3.6 130 08:59 15.02.2020
2882 Clouds 25 1006 65 10000 3.6 130 08:41 15.02.2020
2883 Clouds 26 1006 65 10000 3.6 130 08:22 15.02.2020
2884 Clouds 26 1006 69 10000 4.1 130 07:44 15.02.2020
2885 Clouds 26 1006 69 10000 4.1 130 07:25 15.02.2020
2886 Clouds 26 1006 69 10000 4.1 130 07:25 15.02.2020
2887 Clouds 26 1006 61 10000 3.6 110 06:40 15.02.2020
2888 Clouds 27 1006 61 10000 3.6 110 06:21 15.02.2020
2889 Clouds 27 1006 64 10000 3.6 150 05:30 15.02.2020
2890 Clouds 26 1006 69 10000 5.1 170 04:44 15.02.2020
2891 Clouds 27 1006 65 10000 4.6 170 03:21 15.02.2020
2892 Clouds 27 1006 61 10000 4.6 160 02:41 15.02.2020
2893 Clouds 27 1006 65 10000 1.5 120 02:19 15.02.2020
2894 Clear 26 997 61 0 0.45 196 01:38 15.02.2020
2895 Clouds 25 1006 69 10000 4.1 120 00:38 15.02.2020
2896 Clouds 24 1006 69 10000 4.1 120 00:18 15.02.2020
2897 Clouds 23 1006 73 10000 0.73 192 23:39 14.02.2020
2898 Clouds 22 1005 77 10000 0.64 247 23:18 14.02.2020
2899 Clouds 21 1005 77 10000 0.64 247 22:43 14.02.2020
2900 Clouds 20 1005 82 10000 0.64 247 22:23 14.02.2020
2901 Clouds 19 1005 82 10000 0.64 247 21:51 14.02.2020
2902 Clouds 19 1005 82 10000 0.64 247 21:51 14.02.2020
2903 Clouds 18 1005 100 10000 0.64 247 21:33 14.02.2020
2904 Clear 17 1005 93 10000 0.64 247 20:59 14.02.2020
2905 Clear 17 1005 100 10000 0.64 247 20:40 14.02.2020
2906 Clear 17 1005 100 10000 1.36 263 20:19 14.02.2020
2907 Clear 17 1004 93 10000 1.36 263 20:19 14.02.2020
2908 Clear 17 1004 93 10000 1.36 263 19:43 14.02.2020
2909 Clear 17 1004 93 10000 1.36 263 19:25 14.02.2020
2910 Clear 17 1004 93 10000 1.36 263 18:59 14.02.2020
2911 Clear 17 1005 100 10000 1.36 263 18:41 14.02.2020
2912 Clear 17 1005 100 10000 1.36 263 18:22 14.02.2020
2913 Clear 17 1005 93 10000 1.36 263 17:59 14.02.2020
2914 Clouds 17 1004 88 10000 3.1 270 17:40 14.02.2020
2915 Clear 18 1005 100 10000 1.5 245 17:18 14.02.2020
2916 Clear 18 1005 93 10000 1.5 245 16:42 14.02.2020
2917 Clear 18 1005 93 10000 1.5 245 16:42 14.02.2020
2918 Clear 18 1005 93 10000 1.5 245 16:24 14.02.2020
2919 Clear 18 1006 93 10000 1.5 245 15:58 14.02.2020
2920 Clear 18 1006 88 10000 1.5 240 15:39 14.02.2020
2921 Clear 18 1006 88 10000 1.5 240 15:21 14.02.2020
2922 Clouds 18 1006 82 10000 2.6 250 14:59 14.02.2020
2923 Clouds 18 1006 82 10000 2.6 250 14:59 14.02.2020
2924 Clear 18 1006 88 10000 2.1 230 14:41 14.02.2020
2925 Clear 19 1006 88 10000 2.1 230 14:22 14.02.2020
2926 Clouds 19 1006 77 10000 2.6 250 13:56 14.02.2020
2927 Clouds 19 1006 77 10000 3.6 230 13:38 14.02.2020
2928 Clear 19 1006 72 0 3.13 225 13:19 14.02.2020
2929 Clouds 20 1006 78 10000 3.6 200 12:57 14.02.2020
2930 Clouds 20 1006 78 10000 3.6 190 12:38 14.02.2020
2931 Clouds 20 1006 78 10000 3.6 190 12:20 14.02.2020
2932 Clouds 20 1006 78 10000 3.6 170 11:56 14.02.2020
2933 Clouds 20 1006 78 10000 3.6 170 11:56 14.02.2020
2934 Clouds 20 1006 78 10000 3.1 170 11:37 14.02.2020
2935 Clouds 21 1006 73 10000 3.6 170 11:19 14.02.2020
2936 Clouds 22 1006 78 10000 3.6 170 10:41 14.02.2020
2937 Clouds 22 1006 78 10000 3.6 170 10:22 14.02.2020
2938 Clouds 22 1006 78 10000 4.6 170 09:56 14.02.2020
2939 Clouds 22 1005 73 10000 5.1 170 09:36 14.02.2020
2940 Clouds 23 1005 73 10000 5.1 170 09:18 14.02.2020
2941 Clouds 24 1005 73 10000 6.7 170 08:40 14.02.2020
2942 Clouds 25 1005 69 10000 7.2 170 08:22 14.02.2020
2943 Clouds 25 1005 73 10000 6.7 170 08:22 14.02.2020
2944 Clouds 25 1005 73 10000 6.7 170 08:22 14.02.2020
2945 Clouds 25 1005 64 10000 7.7 160 07:50 14.02.2020
2946 Clouds 25 1005 64 10000 7.7 160 07:31 14.02.2020
2947 Clouds 26 1006 64 10000 7.7 170 06:48 14.02.2020
2948 Clouds 26 1006 64 10000 6.2 170 06:22 14.02.2020
2949 Clouds 26 1007 64 10000 7.2 170 05:41 14.02.2020
2950 Clouds 27 1008 61 10000 6.7 180 03:51 14.02.2020
2951 Clouds 27 1008 61 10000 6.2 170 03:24 14.02.2020
2952 Rain 26 1009 73 10000 5.1 170 02:18 14.02.2020
2953 Clouds 25 1009 73 10000 5.1 180 01:18 14.02.2020
2954 Clouds 24 1010 73 10000 5.1 170 00:37 14.02.2020
2955 Clouds 24 1010 73 10000 5.1 170 00:18 14.02.2020
2956 Clouds 23 1010 73 10000 4.6 150 23:41 13.02.2020
2957 Clouds 23 1010 73 10000 4.6 150 23:19 13.02.2020
2958 Clouds 22 1010 83 10000 3.6 180 22:41 13.02.2020
2959 Clouds 21 1009 88 10000 3.6 160 22:20 13.02.2020
2960 Clouds 21 1009 88 10000 3.6 160 21:59 13.02.2020
2961 Clouds 21 1010 88 10000 4.1 160 21:40 13.02.2020
2962 Rain 20 1010 94 10000 1.5 230 21:21 13.02.2020
2963 Rain 21 1010 88 10000 4.1 160 21:21 13.02.2020
2964 Rain 20 1010 94 10000 1.5 230 20:56 13.02.2020
2965 Rain 20 1010 100 10000 2.1 180 20:37 13.02.2020
2966 Clouds 20 1010 94 6000 2.09 161 20:19 13.02.2020
2967 Clouds 20 1010 94 6000 2.09 161 19:55 13.02.2020
2968 Clouds 20 1010 100 4800 2.1 150 19:36 13.02.2020
2969 Clouds 20 1009 88 10000 3.6 170 19:18 13.02.2020
2970 Clouds 21 1010 88 10000 4.1 160 18:41 13.02.2020
2971 Clouds 21 1010 88 10000 4.1 160 18:22 13.02.2020
2972 Clouds 20 1010 94 6000 3.1 150 17:58 13.02.2020
2973 Rain 20 1010 88 10000 5.1 150 17:38 13.02.2020
2974 Rain 20 1010 88 10000 5.1 150 17:38 13.02.2020
2975 Rain 21 1010 88 10000 5.1 150 17:20 13.02.2020
2976 Rain 21 1010 100 10000 2.6 200 16:57 13.02.2020
2977 Rain 21 1010 94 10000 4.1 170 16:36 13.02.2020
2978 Rain 21 1010 94 10000 4.1 170 16:18 13.02.2020
2979 Rain 21 1011 94 10000 2.1 220 15:56 13.02.2020
2980 Rain 21 1011 94 10000 2.1 190 15:37 13.02.2020
2981 Rain 21 1011 94 10000 2.1 190 15:18 13.02.2020
2982 Clouds 21 1011 94 10000 2.1 210 14:55 13.02.2020
2983 Clouds 21 1011 88 10000 3.6 150 14:37 13.02.2020
2984 Clouds 21 1011 88 10000 3.6 150 14:37 13.02.2020
2985 Clouds 21 1011 88 10000 3.6 150 14:37 13.02.2020
2986 Clouds 21 1011 94 10000 3.1 140 14:19 13.02.2020
2987 Clouds 22 1012 83 10000 3.6 140 13:42 13.02.2020
2988 Rain 22 1012 88 10000 4.1 130 13:18 13.02.2020
2989 Rain 22 1012 88 10000 4.1 130 12:54 13.02.2020
2990 Rain 22 1012 83 10000 3.6 130 12:36 13.02.2020
2991 Rain 22 1012 88 10000 4.1 130 12:18 13.02.2020
2992 Rain 22 1012 83 10000 4.6 140 11:43 13.02.2020
2993 Clouds 22 1012 83 10000 3.6 150 11:20 13.02.2020
2994 Clouds 23 1011 83 10000 3.1 140 10:46 13.02.2020
2995 Clouds 23 1011 83 10000 3.1 140 10:27 13.02.2020
2996 Rain 23 1011 78 10000 3.6 120 09:51 13.02.2020
2997 Rain 23 1011 78 10000 3.6 120 09:28 13.02.2020
2998 Rain 23 1010 83 10000 3.1 120 08:58 13.02.2020
2999 Clouds 24 1010 73 10000 4.6 110 08:37 13.02.2020
3000 Clouds 24 1010 78 10000 5.1 100 08:18 13.02.2020
3001 Clouds 24 1010 78 10000 5.1 100 07:39 13.02.2020
3002 Clouds 23 1010 78 10000 5.1 70 07:20 13.02.2020
3003 Rain 23 1010 78 10000 5.1 80 06:44 13.02.2020
3004 Rain 23 1010 78 10000 5.1 80 06:19 13.02.2020
3005 Rain 23 1010 78 10000 7.2 60 05:33 13.02.2020
3006 Rain 24 1011 74 9000 7.2 90 04:26 13.02.2020
3007 Rain 25 1011 78 10000 7.7 100 03:52 13.02.2020
3008 Rain 25 1011 78 10000 7.2 110 03:24 13.02.2020
3009 Rain 25 1011 74 10000 6.7 100 02:50 13.02.2020
3010 Rain 25 1011 78 10000 7.2 110 02:19 13.02.2020
3011 Clouds 24 1011 78 10000 6.7 110 01:35 13.02.2020
3012 Clouds 24 1011 88 10000 6.2 100 00:39 13.02.2020
3013 Clouds 24 1011 88 10000 6.2 100 00:21 13.02.2020
3014 Rain 23 1011 94 10000 4.6 90 23:40 12.02.2020
3015 Drizzle 23 1011 94 9000 4.1 100 23:21 12.02.2020
3016 Rain 23 1011 94 10000 1.5 190 22:45 12.02.2020
3017 Rain 23 1011 94 10000 1.5 190 22:27 12.02.2020
3018 Drizzle 22 1011 94 10000 3.6 90 21:59 12.02.2020
3019 Rain 22 1011 94 10000 3.6 90 21:40 12.02.2020
3020 Clouds 22 1011 100 10000 1.5 210 21:19 12.02.2020
3021 Clouds 22 1010 100 10000 1.5 200 20:58 12.02.2020
3022 Rain 22 1010 94 10000 1.71 163 20:39 12.02.2020
3023 Rain 22 1010 94 10000 1 280 20:20 12.02.2020
3024 Rain 22 1010 94 10000 1 280 19:55 12.02.2020
3025 Rain 22 1010 94 10000 1 280 19:55 12.02.2020
3026 Rain 22 1010 94 3000 2.6 140 19:36 12.02.2020
3027 Rain 22 1010 94 3000 2.6 140 19:36 12.02.2020
3028 Rain 22 1010 94 3000 2.6 140 19:18 12.02.2020
3029 Drizzle 22 1010 94 7000 3.1 170 18:46 12.02.2020
3030 Drizzle 22 1010 94 7000 3.1 170 18:19 12.02.2020
3031 Drizzle 22 1010 94 7000 2.02 148 17:56 12.02.2020
3032 Drizzle 22 1010 94 10000 2.02 148 17:37 12.02.2020
3033 Drizzle 22 1010 94 10000 2.42 105 17:18 12.02.2020
3034 Rain 22 1010 94 10000 0.5 150 16:40 12.02.2020
3035 Rain 22 1010 94 10000 0.5 150 16:20 12.02.2020
3036 Rain 22 1011 94 10000 2.1 150 15:57 12.02.2020
3037 Drizzle 22 1011 94 10000 2.1 170 15:36 12.02.2020
3038 Drizzle 22 1011 94 10000 2.1 170 15:36 12.02.2020
3039 Rain 22 1011 94 10000 2.6 140 15:18 12.02.2020
3040 Drizzle 21 1011 94 9000 2.6 140 14:42 12.02.2020
3041 Drizzle 21 1011 94 9000 2.6 140 14:42 12.02.2020
3042 Drizzle 21 1011 100 8000 3.1 130 14:21 12.02.2020
3043 Drizzle 22 1011 100 8000 3.1 130 13:58 12.02.2020
3044 Rain 22 1011 94 10000 3.1 120 13:40 12.02.2020
3045 Rain 22 1011 94 10000 3.1 120 13:21 12.02.2020
3046 Rain 22 1011 94 7000 3.6 120 12:58 12.02.2020
3047 Rain 22 1011 94 6000 3.6 110 12:38 12.02.2020
3048 Rain 22 1011 94 6000 3.6 110 12:19 12.02.2020
3049 Rain 22 1012 91 0 3.13 113 11:58 12.02.2020
3050 Rain 22 1004 94 0 1.34 163 11:40 12.02.2020
3051 Rain 22 1011 94 10000 3.6 150 11:20 12.02.2020
3052 Rain 22 1011 94 10000 3.6 150 10:58 12.02.2020
3053 Clouds 22 1011 94 10000 4.1 140 10:39 12.02.2020
3054 Clouds 22 1011 94 10000 4.1 140 10:20 12.02.2020
3055 Clouds 23 1010 94 10000 4.6 130 09:42 12.02.2020
3056 Clouds 23 1010 94 10000 4.6 130 09:42 12.02.2020
3057 Clouds 23 1010 94 10000 4.6 130 09:24 12.02.2020
3058 Clouds 23 1010 94 10000 4.6 130 09:24 12.02.2020
3059 Rain 23 1009 83 10000 5.1 130 08:58 12.02.2020
3060 Rain 23 1009 83 10000 5.7 130 08:38 12.02.2020
3061 Rain 23 1009 83 10000 5.7 130 08:20 12.02.2020
3062 Rain 23 1009 83 10000 5.7 130 08:20 12.02.2020
3063 Rain 23 1009 78 10000 5.1 110 07:58 12.02.2020
3064 Rain 23 1009 83 10000 5.7 100 07:39 12.02.2020
3065 Rain 24 1009 83 10000 5.7 100 07:19 12.02.2020
3066 Rain 24 1009 88 9000 5.1 110 06:41 12.02.2020
3067 Rain 24 1009 88 9000 5.1 110 06:18 12.02.2020
3068 Rain 24 1009 83 10000 5.7 110 05:21 12.02.2020
3069 Clouds 25 1009 78 10000 5.7 90 04:42 12.02.2020
3070 Rain 25 1009 78 10000 5.1 90 03:57 12.02.2020
3071 Rain 25 1010 78 10000 5.7 90 03:28 12.02.2020
3072 Rain 26 1010 88 8000 5.7 130 02:44 12.02.2020
3073 Rain 26 1010 88 8000 5.7 130 02:25 12.02.2020
3074 Rain 25 1010 78 10000 4.6 140 01:30 12.02.2020
3075 Clouds 25 1010 78 10000 3.6 100 00:41 12.02.2020
3076 Clouds 25 1010 78 10000 3.6 100 00:22 12.02.2020
3077 Clouds 25 1009 83 10000 5.1 130 23:49 11.02.2020
3078 Clouds 24 1009 83 10000 5.1 130 23:31 11.02.2020
3079 Clouds 24 1009 94 10000 4.1 140 22:58 11.02.2020
3080 Clouds 23 1009 94 10000 2.6 140 22:39 11.02.2020
3081 Clouds 23 1009 94 10000 2.6 140 22:20 11.02.2020
3082 Clouds 22 1009 94 8000 3.1 150 21:57 11.02.2020
3083 Clouds 22 1008 100 8000 3.6 170 21:38 11.02.2020
3084 Clouds 22 1008 100 8000 3.6 170 21:18 11.02.2020
3085 Rain 22 1008 94 9000 3.1 170 20:58 11.02.2020
3086 Rain 22 1008 100 9000 2.6 170 20:39 11.02.2020
3087 Rain 22 1008 100 9000 2.6 170 20:39 11.02.2020
3088 Clouds 22 1008 100 9000 1.14 129 20:19 11.02.2020
3089 Clouds 22 1008 100 9000 1.14 129 19:57 11.02.2020
3090 Drizzle 22 1008 94 7000 0.5 140 19:39 11.02.2020
3091 Drizzle 22 1007 94 7000 1.14 129 19:20 11.02.2020
3092 Drizzle 22 1007 88 6000 1.14 129 18:45 11.02.2020
3093 Drizzle 22 1007 88 6000 1.14 129 18:27 11.02.2020
3094 Clouds 22 1007 88 10000 1.14 129 17:57 11.02.2020
3095 Clouds 22 1007 88 10000 2.6 60 17:39 11.02.2020
3096 Clouds 22 1007 88 10000 2.6 60 17:19 11.02.2020
3097 Clouds 22 1008 88 10000 3.6 90 16:58 11.02.2020
3098 Clouds 22 1008 88 10000 1.53 56 16:39 11.02.2020
3099 Clouds 22 1008 88 10000 1.53 56 16:21 11.02.2020
3100 Clouds 22 1008 88 10000 1.53 56 16:21 11.02.2020
3101 Clouds 23 1008 88 10000 1.53 56 15:58 11.02.2020
3102 Clouds 23 1008 88 10000 4.6 40 15:39 11.02.2020
3103 Clouds 23 1008 88 10000 5.7 40 15:21 11.02.2020
3104 Clouds 23 1009 83 10000 6.2 60 14:42 11.02.2020
3105 Clouds 23 1009 83 10000 6.2 60 14:19 11.02.2020
3106 Clouds 23 1009 83 10000 6.2 60 13:57 11.02.2020
3107 Clouds 23 1009 83 10000 5.7 40 13:38 11.02.2020
3108 Clouds 23 1009 83 10000 5.7 40 13:20 11.02.2020
3109 Clouds 23 1009 83 10000 2.6 110 12:55 11.02.2020
3110 Clouds 23 1009 83 10000 3.1 110 12:36 11.02.2020
3111 Clouds 24 1009 78 10000 3.1 30 12:18 11.02.2020
3112 Clouds 23 1009 83 10000 5.7 40 11:41 11.02.2020
3113 Clouds 24 1009 83 10000 5.7 40 11:19 11.02.2020
3114 Clouds 24 1009 83 10000 5.7 40 11:19 11.02.2020
3115 Clouds 24 1008 78 10000 6.7 40 10:54 11.02.2020
3116 Clouds 24 1008 78 10000 6.7 40 10:54 11.02.2020
3117 Clouds 24 1008 73 10000 6.7 30 10:36 11.02.2020
3118 Clouds 24 1008 73 10000 9.3 40 10:18 11.02.2020
3119 Rain 24 1007 78 10000 9.3 30 09:43 11.02.2020
3120 Rain 24 1007 78 10000 9.3 30 09:22 11.02.2020
3121 Rain 25 1006 74 10000 9.8 30 08:56 11.02.2020
3122 Clouds 25 1006 69 10000 10.8 40 08:38 11.02.2020
3123 Rain 26 1006 69 10000 10.8 40 08:19 11.02.2020
3124 Rain 27 1006 65 10000 9.3 50 07:45 11.02.2020
3125 Rain 28 1006 65 10000 9.3 50 07:24 11.02.2020
3126 Clouds 28 1006 54 10000 7.7 50 06:42 11.02.2020
3127 Clouds 29 1006 54 10000 7.7 50 06:21 11.02.2020
3128 Clouds 29 1006 58 10000 8.7 50 05:47 11.02.2020
3129 Clouds 28 1006 65 10000 7.7 60 05:22 11.02.2020
3130 Clouds 29 1007 65 10000 8.2 80 04:37 11.02.2020
3131 Clouds 29 1008 58 10000 0.5 270 02:44 11.02.2020
3132 Clouds 29 1008 58 10000 0.5 270 02:23 11.02.2020
3133 Clouds 27 1008 65 10000 0.5 320 01:35 11.02.2020
3134 Clouds 26 1009 69 10000 0.5 280 00:40 11.02.2020
3135 Clouds 24 1008 78 10000 1 280 23:57 10.02.2020
3136 Clouds 24 1009 83 10000 0.67 138 23:38 10.02.2020
3137 Clouds 23 1009 78 10000 0.85 256 23:19 10.02.2020
3138 Clouds 22 1008 83 10000 1 290 22:40 10.02.2020
3139 Clouds 21 1008 83 10000 1 290 22:20 10.02.2020
3140 Clouds 20 1008 100 6000 0.85 256 21:45 10.02.2020
3141 Clouds 20 1008 100 6000 0.85 256 21:25 10.02.2020
3142 Clouds 20 1008 100 10000 0.85 256 20:58 10.02.2020
3143 Clouds 20 1008 100 10000 0.85 256 20:58 10.02.2020
3144 Clouds 20 1008 94 10000 0.85 256 20:39 10.02.2020
3145 Clouds 20 1008 94 10000 1.01 201 20:21 10.02.2020
3146 Clouds 20 1008 88 10000 1.01 201 19:59 10.02.2020
3147 Clouds 20 1007 94 10000 0.5 40 19:38 10.02.2020
3148 Clouds 20 1007 94 10000 0.5 40 19:19 10.02.2020
3149 Clouds 20 1007 94 10000 0.5 40 19:19 10.02.2020
3150 Clouds 20 1007 94 10000 1.01 201 18:59 10.02.2020
3151 Clouds 20 1007 94 10000 1.01 201 18:40 10.02.2020
3152 Clouds 20 1007 94 10000 1.01 201 18:21 10.02.2020
3153 Clouds 21 1007 94 10000 2.6 60 17:58 10.02.2020
3154 Rain 21 1008 88 10000 2.6 50 17:38 10.02.2020
3155 Rain 21 1008 88 10000 3.6 40 17:20 10.02.2020
3156 Rain 21 1008 88 10000 3.6 40 16:59 10.02.2020
3157 Rain 21 1008 88 10000 3.6 40 16:59 10.02.2020
3158 Clouds 21 1008 94 10000 2.1 170 16:40 10.02.2020
3159 Clouds 21 1008 100 10000 2.1 220 16:20 10.02.2020
3160 Clouds 21 1008 100 10000 2.1 220 15:56 10.02.2020
3161 Clouds 21 1008 100 10000 2.1 220 15:38 10.02.2020
3162 Clouds 21 1009 100 10000 0.5 260 15:20 10.02.2020
3163 Clouds 21 1009 100 10000 0.5 260 14:56 10.02.2020
3164 Clouds 22 1009 78 10000 2.6 20 14:37 10.02.2020
3165 Clouds 22 1009 78 10000 2.6 20 14:18 10.02.2020
3166 Clouds 22 1009 83 10000 5.7 30 13:43 10.02.2020
3167 Clouds 22 1009 83 10000 5.7 30 13:24 10.02.2020
3168 Clouds 22 1009 83 10000 2.6 20 12:56 10.02.2020
3169 Rain 22 1009 94 10000 1.5 130 12:37 10.02.2020
3170 Rain 22 1008 94 10000 2.1 180 12:19 10.02.2020
3171 Clouds 22 1008 83 10000 4.6 40 11:45 10.02.2020
3172 Clouds 23 1008 83 10000 4.6 40 11:21 10.02.2020
3173 Clouds 23 1008 83 10000 7.7 50 10:48 10.02.2020
3174 Clouds 23 1008 83 10000 7.7 50 10:29 10.02.2020
3175 Rain 23 1007 83 10000 7.7 50 09:55 10.02.2020
3176 Clouds 23 1007 83 10000 7.7 50 09:36 10.02.2020
3177 Clouds 24 1007 78 10000 7.7 50 09:18 10.02.2020
3178 Clouds 24 1007 78 10000 7.7 60 08:38 10.02.2020
3179 Clouds 25 1007 78 10000 8.2 50 08:20 10.02.2020
3180 Clouds 26 1007 78 10000 8.2 50 07:52 10.02.2020
3181 Clouds 26 1007 69 10000 8.2 80 07:32 10.02.2020
3182 Clouds 27 1007 69 10000 6.2 90 06:44 10.02.2020
3183 Clouds 28 1008 65 10000 1.5 30 04:59 10.02.2020
3184 Clouds 27 1008 65 10000 4.1 30 03:54 10.02.2020
3185 Clouds 26 1009 74 10000 5.1 20 03:18 10.02.2020
3186 Rain 25 1009 69 10000 5.7 20 02:42 10.02.2020
3187 Clouds 24 1009 83 10000 5.1 30 01:24 10.02.2020
3188 Rain 23 1009 83 10000 4.6 40 00:40 10.02.2020
3189 Rain 23 1009 83 10000 4.6 40 00:21 10.02.2020
3190 Clouds 22 1009 94 10000 1.5 320 23:41 09.02.2020
3191 Clouds 22 1009 94 10000 1.5 320 23:23 09.02.2020
3192 Drizzle 21 1009 94 10000 3.6 30 22:44 09.02.2020
3193 Drizzle 21 1009 94 10000 3.6 30 22:23 09.02.2020
3194 Clouds 21 1009 100 10000 1.56 210 21:59 09.02.2020
3195 Rain 21 1008 94 10000 1.56 210 21:40 09.02.2020
3196 Rain 21 1008 94 10000 1.56 210 21:21 09.02.2020
3197 Clouds 21 1007 94 10000 1.56 210 20:45 09.02.2020
3198 Drizzle 21 1007 100 5000 3.6 360 20:22 09.02.2020
3199 Drizzle 21 1007 100 5000 3.6 360 19:57 09.02.2020
3200 Clouds 21 1007 94 10000 2.1 260 19:38 09.02.2020
3201 Mist 21 1006 100 1500 4.1 50 19:18 09.02.2020
3202 Drizzle 21 1006 100 6000 3.1 50 18:42 09.02.2020
3203 Drizzle 21 1006 100 6000 3.1 50 18:23 09.02.2020
3204 Drizzle 21 1006 94 2500 3.1 60 17:59 09.02.2020
3205 Drizzle 21 1007 94 3000 3.1 70 17:39 09.02.2020
3206 Drizzle 21 1007 94 3000 3.1 70 17:39 09.02.2020
3207 Drizzle 21 1007 94 3000 3.1 70 17:21 09.02.2020
3208 Drizzle 21 1008 100 9000 10.3 110 16:41 09.02.2020
3209 Drizzle 21 1008 100 9000 10.3 110 16:22 09.02.2020
3210 Drizzle 21 1008 94 7000 11.8 100 15:58 09.02.2020
3211 Rain 20 1009 94 4000 10.3 100 15:40 09.02.2020
3212 Rain 20 1009 94 6000 9.8 100 15:21 09.02.2020
3213 Rain 20 1009 94 6000 9.8 100 14:57 09.02.2020
3214 Rain 20 1009 94 7000 11.8 80 14:38 09.02.2020
3215 Rain 20 1008 100 10000 3.6 60 14:20 09.02.2020
3216 Rain 21 1008 100 10000 3.6 60 13:43 09.02.2020
3217 Rain 21 1008 100 10000 3.6 60 13:25 09.02.2020
3218 Rain 21 1010 100 5000 9.3 70 12:56 09.02.2020
3219 Rain 21 1008 100 4000 2.6 80 12:37 09.02.2020
3220 Rain 21 1008 100 4000 2.6 80 12:37 09.02.2020
3221 Rain 21 1008 100 4000 2.6 80 12:18 09.02.2020
3222 Rain 21 1009 100 2500 11.3 70 11:41 09.02.2020
3223 Rain 21 1009 100 2500 11.3 70 11:20 09.02.2020
3224 Rain 21 1009 94 3000 12.3 90 10:57 09.02.2020
3225 Rain 21 1008 100 6000 14.9 80 10:38 09.02.2020
3226 Rain 21 1008 94 5000 4.1 60 10:20 09.02.2020
3227 Rain 21 1009 94 3000 10.8 90 09:41 09.02.2020
3228 Rain 21 1009 94 3000 10.8 90 09:22 09.02.2020
3229 Rain 20 1008 94 2000 14.4 80 08:45 09.02.2020
3230 Rain 20 1008 94 2000 14.4 80 08:27 09.02.2020
3231 Rain 21 1008 94 1500 14.9 80 07:58 09.02.2020
3232 Rain 21 1008 94 2000 15.9 90 07:34 09.02.2020
3233 Rain 21 1007 94 2000 14.9 110 06:47 09.02.2020
3234 Rain 20 1007 94 2000 14.9 110 06:26 09.02.2020
3235 Rain 20 1008 100 3000 14.9 110 05:38 09.02.2020
3236 Rain 20 1009 94 2000 15.4 110 05:18 09.02.2020
3237 Rain 20 1011 94 1500 15.9 120 03:52 09.02.2020
3238 Rain 20 1012 94 3000 15.4 120 02:45 09.02.2020
3239 Rain 20 1012 94 3000 15.4 120 02:26 09.02.2020
3240 Rain 20 1012 100 3000 13.4 120 01:35 09.02.2020
3241 Rain 20 1013 94 2500 15.9 120 00:44 09.02.2020
3242 Rain 20 1013 94 2500 15.9 120 00:24 09.02.2020
3243 Rain 19 1014 94 2500 12.3 120 23:43 08.02.2020
3244 Rain 19 1014 94 2500 12.3 120 23:21 08.02.2020
3245 Rain 19 1013 100 5000 7.7 160 22:43 08.02.2020
3246 Rain 20 1013 100 5000 7.7 160 22:22 08.02.2020
3247 Rain 20 1013 100 6000 7.2 150 21:59 08.02.2020
3248 Rain 20 1013 100 4700 7.2 150 21:40 08.02.2020
3249 Rain 20 1013 100 4700 7.2 150 21:40 08.02.2020
3250 -273 0 0 0 0 0 21:21 08.02.2020
3251 Rain 20 1013 94 10000 8.2 140 20:57 08.02.2020
3252 Rain 20 1013 100 10000 7.2 140 20:38 08.02.2020
3253 Rain 20 1013 100 6000 6.7 140 20:19 08.02.2020
3254 Rain 20 1013 100 6000 6.7 140 19:55 08.02.2020
3255 Rain 20 1014 100 9000 5.1 150 19:37 08.02.2020
3256 Rain 20 1014 100 9000 5.1 150 19:19 08.02.2020
3257 Rain 20 1007 96 0 4.92 237 18:43 08.02.2020
3258 Rain 20 1007 96 0 4.92 237 18:43 08.02.2020
3259 Rain 20 1007 96 0 5.36 221 18:24 08.02.2020
3260 Rain 20 1014 100 6000 4.6 140 17:44 08.02.2020
3261 Rain 20 1014 100 6000 4.6 140 17:22 08.02.2020
3262 Rain 21 1016 88 10000 10.3 110 16:59 08.02.2020
3263 Rain 21 1015 100 10000 4.6 130 16:40 08.02.2020
3264 Rain 21 1015 100 9000 3.1 150 16:22 08.02.2020
3265 Rain 21 1015 100 9000 3.1 150 15:56 08.02.2020
3266 Rain 21 1016 83 10000 10.8 110 15:38 08.02.2020
3267 Rain 21 1017 88 10000 10.3 100 15:18 08.02.2020
3268 Rain 21 1017 88 10000 10.3 100 15:18 08.02.2020
3269 Rain 21 1017 83 10000 10.8 110 14:41 08.02.2020
3270 Rain 21 1017 83 10000 10.8 110 14:19 08.02.2020
3271 Rain 21 1017 83 10000 10.3 110 14:19 08.02.2020
3272 Rain 21 1017 83 10000 10.3 110 13:55 08.02.2020
3273 Rain 21 1017 94 10000 4.1 140 13:37 08.02.2020
3274 Rain 21 1018 83 10000 10.3 100 13:18 08.02.2020
3275 Rain 21 1018 83 10000 10.3 100 12:39 08.02.2020
3276 Drizzle 21 1018 83 10000 8.7 110 12:20 08.02.2020
3277 Rain 21 1018 88 10000 8.7 110 11:47 08.02.2020
3278 Rain 21 1018 88 10000 8.7 110 11:22 08.02.2020
3279 Rain 21 1018 83 10000 9.8 120 10:59 08.02.2020
3280 Rain 20 1017 83 10000 9.8 110 10:40 08.02.2020
3281 Rain 20 1017 83 10000 9.8 110 10:20 08.02.2020
3282 Rain 20 1017 83 10000 11.3 100 09:51 08.02.2020
3283 Rain 20 1017 83 10000 8.7 100 09:26 08.02.2020
3284 Rain 20 1017 94 10000 8.7 90 08:49 08.02.2020
3285 Rain 20 1017 88 4000 11.8 80 08:29 08.02.2020
3286 Rain 21 1016 94 6000 1.5 20 07:59 08.02.2020
3287 Rain 21 1017 94 7000 9.8 110 07:40 08.02.2020
3288 Rain 21 1017 88 4000 12.9 90 07:18 08.02.2020
3289 Rain 21 1017 83 5000 12.3 100 06:23 08.02.2020
3290 Rain 20 1016 100 3300 5.1 150 05:47 08.02.2020
3291 Rain 20 1016 100 5000 3.1 100 05:28 08.02.2020
3292 Rain 20 1018 94 10000 6.2 80 04:37 08.02.2020
3293 Rain 20 1018 94 2500 6.2 70 03:48 08.02.2020
3294 Drizzle 21 1018 88 10000 9.8 80 02:51 08.02.2020
3295 Rain 21 1019 94 6000 9.3 110 01:37 08.02.2020
3296 Rain 22 1019 94 6000 9.3 110 01:19 08.02.2020
3297 Rain 21 1019 100 6000 5.1 130 00:39 08.02.2020
3298 Rain 21 1019 100 6000 5.1 130 00:20 08.02.2020
3299 Rain 21 1018 94 5000 6.2 150 23:43 07.02.2020
3300 Clouds 21 1018 88 10000 6.7 150 23:20 07.02.2020
3301 Rain 21 1018 88 10000 6.7 150 22:56 07.02.2020
3302 Rain 20 1018 94 10000 5.7 130 22:37 07.02.2020
3303 Rain 20 1018 94 10000 4.1 190 22:19 07.02.2020
3304 Clouds 20 1018 94 10000 6.2 90 21:42 07.02.2020
3305 Clouds 20 1018 94 10000 6.2 90 21:22 07.02.2020
3306 Drizzle 20 1018 94 9000 7.7 110 20:55 07.02.2020
3307 Rain 20 1017 94 10000 3.6 130 20:37 07.02.2020
3308 Rain 20 1017 88 10000 5.7 100 20:18 07.02.2020
3309 Rain 20 1017 94 10000 5.1 90 19:40 07.02.2020
3310 Rain 19 1017 94 10000 5.1 90 19:19 07.02.2020
3311 Rain 19 1017 100 5000 4.6 110 18:56 07.02.2020
3312 Rain 19 1017 93 7000 7.2 60 18:38 07.02.2020
3313 Rain 19 1017 93 7000 7.2 60 18:19 07.02.2020
3314 Rain 19 1018 94 5000 6.7 110 17:43 07.02.2020
3315 Rain 19 1018 94 5000 6.7 110 17:22 07.02.2020
3316 Rain 19 1018 94 6000 7.7 100 16:55 07.02.2020
3317 Rain 19 1018 93 5000 11.3 80 16:37 07.02.2020
3318 Rain 19 1018 100 5000 9.8 70 16:19 07.02.2020
3319 Rain 19 1019 94 5000 9.8 90 15:44 07.02.2020
3320 Rain 19 1019 94 5000 9.8 90 15:21 07.02.2020
3321 Rain 19 1019 94 6000 9.8 90 14:44 07.02.2020
3322 Rain 19 1019 94 6000 9.8 90 14:26 07.02.2020
3323 Rain 19 1019 94 9000 7.7 90 13:58 07.02.2020
3324 Rain 19 1019 94 7000 4.1 190 13:39 07.02.2020
3325 Rain 19 1019 94 7000 4.1 190 13:21 07.02.2020
3326 Rain 20 1019 94 10000 3.6 190 12:55 07.02.2020
3327 Rain 20 1019 94 10000 3.6 180 12:37 07.02.2020
3328 Rain 20 1019 94 10000 3.6 180 12:19 07.02.2020
3329 Rain 20 1019 94 10000 4.1 190 11:42 07.02.2020
3330 Clouds 19 1019 94 10000 4.1 190 11:20 07.02.2020
3331 Clouds 19 1019 94 10000 3.1 200 10:42 07.02.2020
3332 Rain 20 1019 94 10000 3.1 200 10:24 07.02.2020
3333 Rain 20 1019 94 10000 3.6 170 09:56 07.02.2020
3334 Rain 20 1019 94 10000 3.1 190 09:37 07.02.2020
3335 Rain 20 1019 94 10000 3.1 190 09:19 07.02.2020
3336 Rain 19 1019 94 10000 7.7 110 08:42 07.02.2020
3337 Rain 19 1019 94 10000 7.7 110 08:21 07.02.2020
3338 Rain 19 1019 88 8000 10.3 100 07:45 07.02.2020
3339 Rain 19 1019 88 8000 10.3 100 07:26 07.02.2020
3340 Rain 19 1019 88 7000 7.7 90 06:46 07.02.2020
3341 Rain 19 1019 88 7000 7.7 90 06:26 07.02.2020
3342 Rain 20 1019 88 5000 7.2 120 05:56 07.02.2020
3343 Rain 20 1019 100 10000 3.1 180 04:43 07.02.2020
3344 Rain 20 1020 94 5000 3.6 110 02:51 07.02.2020
3345 Rain 19 1021 94 4000 7.7 90 01:51 07.02.2020
3346 Rain 20 1020 94 6000 6.2 110 00:48 07.02.2020
3347 Rain 19 1021 100 5000 6.7 100 00:21 07.02.2020
3348 Rain 19 1021 100 5000 6.7 100 00:21 07.02.2020
3349 Rain 19 1020 100 10000 3.6 170 23:37 06.02.2020
3350 Rain 19 1020 100 10000 3.6 170 23:19 06.02.2020
3351 Rain 19 1020 93 9000 3.1 170 22:44 06.02.2020
3352 Rain 19 1020 93 9000 3.1 170 22:25 06.02.2020
3353 Rain 19 1020 100 7000 3.1 170 21:55 06.02.2020
3354 Rain 19 1019 100 5000 5.1 140 21:36 06.02.2020
3355 Rain 19 1019 93 9000 5.1 40 21:18 06.02.2020
3356 Rain 18 1019 93 9000 5.1 40 20:54 06.02.2020
3357 Rain 19 1019 100 4200 2.6 180 20:36 06.02.2020
3358 Rain 19 1019 100 6000 2.6 150 20:18 06.02.2020
3359 Rain 19 1019 100 6000 2.6 150 19:55 06.02.2020
3360 Rain 19 1019 94 8000 4.6 50 19:36 06.02.2020
3361 Rain 19 1019 94 8000 4.6 50 19:18 06.02.2020
3362 Rain 19 1019 88 3000 11.8 40 18:40 06.02.2020
3363 Rain 19 1019 88 3000 11.8 40 18:22 06.02.2020
3364 Rain 19 1019 88 3000 11.8 40 18:22 06.02.2020
3365 Rain 20 1019 100 3500 3.1 170 17:55 06.02.2020
3366 Rain 20 1019 94 10000 3.1 220 17:37 06.02.2020
3367 Rain 20 1019 94 10000 3.1 220 17:18 06.02.2020
3368 Rain 20 1019 88 10000 4.6 80 16:41 06.02.2020
3369 Rain 20 1019 88 10000 4.6 80 16:23 06.02.2020
3370 Rain 20 1020 88 9000 4.6 40 15:43 06.02.2020
3371 Rain 20 1020 100 10000 3.1 220 15:43 06.02.2020
3372 Rain 20 1020 100 10000 3.1 220 15:22 06.02.2020
3373 Rain 20 1020 100 10000 2.6 220 14:51 06.02.2020
3374 Rain 20 1021 94 10000 2.6 180 14:29 06.02.2020
3375 Rain 20 1021 100 10000 2.6 220 13:59 06.02.2020
3376 Rain 20 1021 100 10000 2.6 200 13:41 06.02.2020
3377 Rain 20 1021 100 10000 2.6 200 13:22 06.02.2020
3378 Rain 20 1022 88 10000 5.1 80 12:44 06.02.2020
3379 Rain 20 1022 88 10000 5.1 80 12:19 06.02.2020
3380 Rain 20 1022 88 10000 5.1 80 12:19 06.02.2020
3381 Rain 20 1022 78 8000 6.2 90 11:57 06.02.2020
3382 Rain 20 1022 83 10000 6.2 70 11:39 06.02.2020
3383 Rain 20 1021 83 8000 5.1 90 11:19 06.02.2020
3384 Rain 20 1021 83 8000 5.1 90 10:57 06.02.2020
3385 Clouds 21 1021 100 10000 2.6 250 10:38 06.02.2020
3386 Clouds 20 1021 100 10000 2.6 250 10:38 06.02.2020
3387 Rain 21 1021 83 10000 1.5 90 10:20 06.02.2020
3388 Rain 21 1021 83 10000 1.5 90 09:56 06.02.2020
3389 Rain 21 1021 83 10000 2.67 92 09:37 06.02.2020
3390 Rain 21 1021 83 10000 2.67 92 09:19 06.02.2020
3391 Rain 21 1021 83 10000 3.1 50 08:41 06.02.2020
3392 Rain 21 1021 68 10000 4.1 70 08:22 06.02.2020
3393 Rain 22 1021 68 10000 4.1 70 07:51 06.02.2020
3394 Rain 22 1021 77 10000 3.1 50 07:28 06.02.2020
3395 Drizzle 22 1021 69 10000 4.1 80 06:46 06.02.2020
3396 Drizzle 22 1021 69 10000 4.1 80 06:18 06.02.2020
3397 Drizzle 23 1021 61 10000 6.2 80 04:54 06.02.2020
3398 Clouds 22 1022 53 10000 6.7 80 03:21 06.02.2020
3399 Clouds 22 1022 53 10000 6.7 80 03:21 06.02.2020
3400 Clouds 22 1022 64 10000 6.2 80 02:44 06.02.2020
3401 Clouds 22 1022 69 10000 7.7 70 01:41 06.02.2020
3402 Clouds 21 1022 69 10000 6.7 70 00:59 06.02.2020
3403 Rain 21 1022 100 2200 3.1 90 00:27 06.02.2020
3404 Drizzle 21 1022 73 10000 5.7 80 23:50 05.02.2020
3405 Rain 21 1022 73 10000 6.2 80 23:29 05.02.2020
3406 Clouds 21 1021 73 10000 5.1 70 22:59 05.02.2020
3407 Clouds 21 1021 78 10000 1.5 90 22:40 05.02.2020
3408 Clouds 20 1021 73 10000 3.25 73 22:22 05.02.2020
3409 Clouds 20 1021 73 10000 3.25 73 21:57 05.02.2020
3410 Rain 20 1020 94 10000 2.6 200 21:39 05.02.2020
3411 Rain 20 1020 94 10000 2.6 200 21:19 05.02.2020
3412 Rain 19 1020 88 10000 1.5 80 20:39 05.02.2020
3413 Rain 20 1020 88 10000 1.5 80 20:20 05.02.2020
3414 Rain 20 1019 88 10000 1.05 56 19:58 05.02.2020
3415 Rain 20 1019 88 10000 1.05 56 19:40 05.02.2020
3416 Clouds 20 1019 94 10000 2.6 250 19:19 05.02.2020
3417 Clouds 20 1019 94 10000 2.6 250 19:19 05.02.2020
3418 Clouds 20 1019 94 10000 2.6 250 18:56 05.02.2020
3419 Rain 20 1019 94 10000 3.6 170 18:38 05.02.2020
3420 Rain 20 1019 94 10000 1.5 200 18:18 05.02.2020
3421 Rain 20 1019 88 10000 1.05 56 17:38 05.02.2020
3422 Rain 20 1019 83 10000 0.84 46 17:20 05.02.2020
3423 Rain 20 1019 83 10000 0.84 46 16:57 05.02.2020
3424 Clouds 20 1019 83 10000 0.84 46 16:39 05.02.2020
3425 Clouds 20 1019 83 10000 0.84 46 16:20 05.02.2020
3426 Clouds 20 1020 83 10000 0.84 46 15:46 05.02.2020
3427 Rain 20 1020 83 5000 5.7 40 15:20 05.02.2020
3428 Rain 21 1020 83 5000 5.7 40 14:59 05.02.2020
3429 Rain 21 1020 88 10000 2.6 70 14:40 05.02.2020
3430 Rain 21 1020 88 10000 2.6 70 14:21 05.02.2020
3431 Rain 21 1020 83 10000 3.6 100 13:43 05.02.2020
3432 Rain 21 1020 83 10000 3.6 100 13:23 05.02.2020
3433 Clouds 21 1020 69 10000 1.98 49 12:59 05.02.2020
3434 Clouds 21 1020 68 10000 1.5 80 12:37 05.02.2020
3435 Clouds 22 1020 69 10000 2.6 30 12:19 05.02.2020
3436 Clouds 22 1020 69 10000 3.6 80 11:41 05.02.2020
3437 Clouds 22 1020 69 10000 3.6 80 11:23 05.02.2020
3438 Clouds 22 1019 69 10000 2.6 40 10:58 05.02.2020
3439 Clouds 22 1019 69 10000 4.1 50 10:39 05.02.2020
3440 Clouds 23 1019 69 10000 4.1 50 10:18 05.02.2020
3441 Clouds 23 1019 60 10000 6.7 50 09:43 05.02.2020
3442 Clouds 23 1019 60 10000 6.7 50 09:22 05.02.2020
3443 Clouds 24 1018 53 10000 6.7 50 08:57 05.02.2020
3444 Clouds 24 1018 53 10000 7.2 60 08:39 05.02.2020
3445 Clouds 24 1018 53 10000 7.2 60 08:21 05.02.2020
3446 Clouds 25 1018 53 10000 8.2 60 07:43 05.02.2020
3447 Clouds 25 1018 53 10000 8.2 60 07:19 05.02.2020
3448 Clouds 25 1018 53 10000 9.3 60 06:40 05.02.2020
3449 Clouds 25 1018 47 10000 7.7 50 06:21 05.02.2020
3450 Clouds 25 1018 50 10000 8.2 50 05:48 05.02.2020
3451 Clouds 25 1018 57 10000 8.7 50 05:18 05.02.2020
3452 Clouds 25 1019 53 10000 7.7 70 04:27 05.02.2020
3453 Clouds 25 1019 53 10000 5.7 70 02:59 05.02.2020
3454 Clouds 25 1020 50 10000 6.7 60 02:22 05.02.2020
3455 Clouds 25 1020 44 10000 5.1 30 01:35 05.02.2020
3456 Clouds 23 1021 50 10000 1.5 310 00:25 05.02.2020
3457 Clouds 22 1021 53 10000 2.6 290 23:42 04.02.2020
3458 Clouds 22 1021 53 10000 2.6 290 23:23 04.02.2020
3459 Clouds 21 1021 68 10000 1.34 259 22:58 04.02.2020
3460 Clouds 21 1021 60 10000 1 300 22:40 04.02.2020
3461 Clouds 20 1021 60 10000 1 300 22:21 04.02.2020
3462 Clouds 18 1020 68 10000 2.6 300 21:57 04.02.2020
3463 Clouds 17 1020 72 10000 3.1 300 21:39 04.02.2020
3464 Clouds 17 1020 72 10000 3.1 300 21:19 04.02.2020
3465 Clouds 16 1020 93 10000 1.34 259 20:57 04.02.2020
3466 Clouds 16 1020 72 10000 1.34 259 20:38 04.02.2020
3467 Clouds 16 1020 72 10000 1.13 321 20:19 04.02.2020
3468 Clouds 17 1019 87 10000 1.13 321 19:55 04.02.2020
3469 Rain 17 1019 93 10000 1.13 321 19:36 04.02.2020
3470 Rain 17 1019 93 10000 1.13 321 19:18 04.02.2020
3471 Clouds 18 1019 82 10000 1.13 321 18:41 04.02.2020
3472 Clouds 18 1019 82 10000 1.13 321 18:22 04.02.2020
3473 Clouds 18 1019 82 10000 1.13 321 18:22 04.02.2020
3474 Clouds 18 1019 82 10000 1.13 321 17:58 04.02.2020
3475 Clouds 18 1019 82 10000 1.13 321 17:58 04.02.2020
3476 Clouds 18 1020 68 10000 3.1 20 17:40 04.02.2020
3477 Clouds 19 1020 68 10000 2.6 10 17:20 04.02.2020
3478 Clouds 19 1020 72 10000 1.82 38 16:40 04.02.2020
3479 Clouds 19 1020 72 10000 1.82 38 16:21 04.02.2020
3480 Clouds 19 1020 68 10000 2.1 30 15:58 04.02.2020
3481 Clouds 19 1021 68 10000 5.1 60 15:40 04.02.2020
3482 Clouds 19 1021 68 10000 5.1 60 15:20 04.02.2020
3483 Clouds 20 1021 68 10000 5.7 80 14:57 04.02.2020
3484 Clouds 20 1022 72 10000 1.5 50 14:39 04.02.2020
3485 Clouds 20 1022 72 10000 1.5 50 14:20 04.02.2020
3486 Rain 20 1022 68 10000 3.1 50 13:42 04.02.2020
3487 Rain 20 1022 68 10000 3.1 50 13:23 04.02.2020
3488 Clouds 20 1022 64 10000 6.2 80 12:59 04.02.2020
3489 Clouds 20 1022 64 10000 6.2 80 12:59 04.02.2020
3490 Clouds 20 1022 60 10000 5.1 90 12:41 04.02.2020
3491 Clouds 20 1022 60 10000 5.1 90 12:41 04.02.2020
3492 Clouds 20 1022 52 10000 4.1 90 12:22 04.02.2020
3493 Clouds 20 1022 52 10000 4.1 90 11:56 04.02.2020
3494 Clouds 20 1022 52 10000 4.1 80 11:38 04.02.2020
3495 Clouds 20 1022 52 10000 4.6 80 11:19 04.02.2020
3496 Clouds 20 1022 52 10000 4.6 80 10:49 04.02.2020
3497 Clouds 20 1021 56 10000 5.1 110 10:26 04.02.2020
3498 Clouds 20 1021 56 10000 5.7 120 09:58 04.02.2020
3499 Clouds 21 1020 53 10000 5.1 110 09:39 04.02.2020
3500 Clouds 21 1020 53 10000 5.1 110 09:20 04.02.2020
3501 Clouds 21 1020 53 10000 4.6 130 08:46 04.02.2020
3502 Clouds 21 1020 53 10000 4.6 130 08:27 04.02.2020
3503 Clouds 21 1020 49 10000 5.1 130 07:53 04.02.2020
3504 Clouds 22 1020 53 10000 6.2 130 07:25 04.02.2020
3505 Clouds 22 1020 49 10000 6.7 140 06:58 04.02.2020
3506 Clouds 22 1020 53 10000 6.7 140 06:40 04.02.2020
3507 Clouds 22 1020 64 10000 7.2 180 05:34 04.02.2020
3508 Clouds 22 1020 64 10000 7.2 180 05:34 04.02.2020
3509 Clouds 22 1020 64 10000 8.7 180 04:28 04.02.2020
3510 Clouds 22 1020 64 10000 9.3 180 03:48 04.02.2020
3511 Clouds 22 1020 64 10000 9.8 180 03:29 04.02.2020
3512 Clouds 22 1020 64 10000 10.3 180 02:42 04.02.2020
3513 Clouds 22 1020 64 10000 10.3 180 02:24 04.02.2020
3514 Clouds 22 1021 60 10000 8.7 190 01:45 04.02.2020
3515 Clouds 21 1021 56 10000 9.3 190 00:56 04.02.2020
3516 Clouds 21 1021 60 10000 8.7 190 00:23 04.02.2020
3517 Clouds 20 1021 59 10000 7.7 190 23:49 03.02.2020
3518 Clouds 19 1020 59 10000 7.7 200 23:30 03.02.2020
3519 Clouds 18 1020 59 10000 7.7 210 22:58 03.02.2020
3520 Clouds 18 1020 63 10000 7.2 210 22:38 03.02.2020
3521 Clouds 18 1020 63 10000 7.2 210 22:19 03.02.2020
3522 Clouds 17 1019 68 10000 8.2 200 21:42 03.02.2020
3523 Clouds 17 1018 63 10000 9.3 200 21:20 03.02.2020
3524 Clouds 18 1018 63 10000 9.3 200 20:57 03.02.2020
3525 Clouds 18 1018 59 10000 9.8 180 20:39 03.02.2020
3526 Clouds 18 1018 59 10000 9.8 180 20:18 03.02.2020
3527 Clouds 18 1017 48 10000 3.6 180 19:42 03.02.2020
3528 Clouds 18 1017 48 10000 3.6 180 19:23 03.02.2020
3529 Clouds 18 1017 52 10000 10.8 170 18:59 03.02.2020
3530 Clouds 18 1017 52 10000 5.1 160 18:41 03.02.2020
3531 Clouds 18 1017 52 10000 5.1 160 18:41 03.02.2020
3532 Clouds 18 1017 52 10000 5.1 160 18:22 03.02.2020
3533 Clouds 18 1017 52 10000 4.6 140 17:58 03.02.2020
3534 Clouds 19 1017 57 0 7.15 138 17:39 03.02.2020
3535 Clouds 19 1017 56 10000 10.8 170 17:19 03.02.2020
3536 Clouds 19 1016 60 10000 11.8 170 16:40 03.02.2020
3537 Clouds 19 1016 64 10000 3.1 190 16:22 03.02.2020
3538 Clouds 19 1016 64 10000 3.1 190 15:59 03.02.2020
3539 Clouds 19 1017 64 10000 3.6 150 15:39 03.02.2020
3540 Clouds 19 1016 68 10000 3.6 150 15:20 03.02.2020
3541 Clouds 19 1016 68 10000 3.6 150 14:58 03.02.2020
3542 Clouds 19 1016 68 10000 3.6 150 14:58 03.02.2020
3543 Clouds 19 1016 68 10000 4.6 160 14:39 03.02.2020
3544 Clouds 19 1016 68 10000 4.6 160 14:21 03.02.2020
3545 Clouds 19 1015 64 10000 11.3 160 13:54 03.02.2020
3546 Clouds 19 1015 64 10000 11.3 160 13:54 03.02.2020
3547 Clouds 19 1015 68 10000 5.1 160 13:36 03.02.2020
3548 Clouds 19 1014 64 10000 12.9 170 13:18 03.02.2020
3549 Clouds 20 1014 68 10000 12.3 170 12:40 03.02.2020
3550 Clouds 20 1014 68 10000 12.3 170 12:21 03.02.2020
3551 Clouds 20 1013 73 10000 13.4 170 11:58 03.02.2020
3552 Clouds 20 1012 72 10000 13.9 170 11:37 03.02.2020
3553 Clouds 20 1011 77 10000 14.9 170 11:18 03.02.2020
3554 Rain 21 1010 73 9000 14.4 170 10:41 03.02.2020
3555 Rain 21 1010 73 9000 14.4 170 10:23 03.02.2020
3556 Clouds 22 1008 78 9000 14.4 170 09:49 03.02.2020
3557 Clouds 22 1008 78 9000 14.4 170 09:27 03.02.2020
3558 Clouds 24 1007 78 10000 13.9 170 08:58 03.02.2020
3559 Clouds 25 1006 69 10000 11.3 180 08:40 03.02.2020
3560 Clouds 26 1006 69 10000 11.3 180 08:22 03.02.2020
3561 Clouds 28 1005 65 10000 10.3 180 07:42 03.02.2020
3562 Clouds 30 1005 65 10000 10.3 180 07:22 03.02.2020
3563 Haze 31 1003 54 10000 12.9 170 06:55 03.02.2020
3564 Clouds 32 1003 51 10000 9.3 160 06:30 03.02.2020
3565 Clouds 32 1003 54 10000 5.1 90 05:51 03.02.2020
3566 Clouds 33 1003 51 10000 9.3 160 05:31 03.02.2020
3567 Clouds 32 1003 58 10000 5.1 130 04:44 03.02.2020
3568 Clouds 27 1005 83 10000 0.5 150 02:42 03.02.2020
3569 Rain 25 1005 94 10000 0.5 200 02:20 03.02.2020
3570 Rain 23 1006 94 10000 3.6 170 00:49 03.02.2020
3571 Clouds 23 1005 100 10000 3.6 180 00:26 03.02.2020
3572 Rain 23 1006 94 5000 5.1 180 23:56 02.02.2020
3573 Rain 23 1006 94 5000 4.1 160 23:36 02.02.2020
3574 Rain 23 1006 94 5000 4.1 160 23:18 02.02.2020
3575 Rain 23 1006 94 10000 1.5 180 22:39 02.02.2020
3576 Rain 23 1006 94 10000 1.5 180 22:39 02.02.2020
3577 Rain 23 1006 94 10000 1.5 180 22:21 02.02.2020
3578 Rain 23 1005 94 10000 0.5 170 21:58 02.02.2020
3579 Clouds 23 1005 100 10000 1 180 21:39 02.02.2020
3580 Rain 23 1005 100 10000 3.6 190 21:20 02.02.2020
3581 Rain 23 1005 100 10000 3.6 190 20:57 02.02.2020
3582 Clouds 23 1005 100 10000 3.6 170 20:39 02.02.2020
3583 Clouds 23 1005 100 10000 3.6 170 20:20 02.02.2020
3584 Clouds 23 1005 100 10000 2.6 170 19:57 02.02.2020
3585 Clouds 23 1005 94 10000 1.06 55 19:38 02.02.2020
3586 Clouds 23 1005 94 10000 1.06 55 19:38 02.02.2020
3587 Clouds 23 1005 94 10000 1.06 55 19:20 02.02.2020
3588 Clouds 23 1006 94 10000 1.06 55 18:56 02.02.2020
3589 Drizzle 23 1006 94 9000 1.06 55 18:37 02.02.2020
3590 Drizzle 23 1006 94 4000 1.06 55 18:19 02.02.2020
3591 Drizzle 23 1006 94 4000 1.06 55 17:57 02.02.2020
3592 Drizzle 23 1006 94 3000 1.06 55 17:37 02.02.2020
3593 Drizzle 22 1006 94 5000 1.99 122 17:18 02.02.2020
3594 Drizzle 22 1006 94 5000 1.99 122 16:57 02.02.2020
3595 Clouds 22 1007 94 9000 1.99 122 16:37 02.02.2020
3596 Clouds 22 1007 94 9000 1.99 122 16:18 02.02.2020
3597 Clouds 22 1007 94 9000 1.99 122 15:55 02.02.2020
3598 Clouds 22 1007 94 10000 1.99 122 15:36 02.02.2020
3599 Clouds 22 1007 94 10000 1.99 122 15:18 02.02.2020
3600 Rain 22 1008 94 10000 3.6 200 14:43 02.02.2020
3601 Rain 22 1008 94 10000 3.6 200 14:19 02.02.2020
3602 Rain 22 1008 94 10000 3.6 200 14:19 02.02.2020
3603 Rain 22 1008 94 10000 4.6 190 13:58 02.02.2020
3604 Rain 22 1008 94 9000 4.6 190 13:39 02.02.2020
3605 Rain 22 1008 94 9000 4.6 190 13:20 02.02.2020
3606 Rain 22 1009 94 9000 5.1 200 12:56 02.02.2020
3607 Drizzle 22 1010 94 7000 4.6 220 12:38 02.02.2020
3608 Rain 23 1009 94 7000 4.6 180 12:18 02.02.2020
3609 Rain 22 1008 94 6000 8.2 180 11:42 02.02.2020
3610 Rain 22 1008 94 7000 7.7 190 11:19 02.02.2020
3611 Rain 22 1008 94 7000 7.7 190 10:57 02.02.2020
3612 Thunderstorm 23 1008 100 5000 9.3 190 10:39 02.02.2020
3613 Thunderstorm 23 1008 100 5000 9.3 190 10:21 02.02.2020
3614 Thunderstorm 23 1010 94 1500 10.3 260 09:57 02.02.2020
3615 Thunderstorm 23 1010 94 1500 10.3 260 09:57 02.02.2020
3616 Rain 23 1008 100 10000 0.5 210 09:39 02.02.2020
3617 Thunderstorm 23 1006 94 5000 9.3 180 09:20 02.02.2020
3618 Thunderstorm 24 1007 94 7000 6.7 170 08:45 02.02.2020
3619 Thunderstorm 24 1007 94 7000 6.7 170 08:26 02.02.2020
3620 Thunderstorm 25 1006 94 6000 9.3 170 07:48 02.02.2020
3621 Thunderstorm 25 1005 94 1000 10.8 180 07:30 02.02.2020
3622 Smoke 26 1005 88 5000 9.8 170 06:56 02.02.2020
3623 Clouds 26 1005 88 6000 10.3 170 06:37 02.02.2020
3624 Clouds 26 1005 88 6000 10.3 170 06:18 02.02.2020
3625 Clouds 28 1005 83 7000 8.2 170 05:18 02.02.2020
3626 Clouds 33 1005 83 10000 7.2 170 03:42 02.02.2020
3627 Clouds 32 1005 83 10000 7.2 170 03:21 02.02.2020
3628 Clouds 32 1006 88 10000 6.2 160 02:19 02.02.2020
3629 Clouds 29 1006 88 7000 6.7 170 01:49 02.02.2020
3630 Clouds 28 1007 83 9000 6.2 160 00:50 02.02.2020
3631 Smoke 27 1007 83 9000 5.1 160 00:24 02.02.2020
3632 Clouds 27 1006 88 10000 6.7 170 23:55 01.02.2020
3633 Clouds 27 1007 83 10000 6.7 170 23:37 01.02.2020
3634 Clouds 27 1007 83 10000 6.7 170 23:18 01.02.2020
3635 Clouds 27 1007 83 8000 4.6 170 22:42 01.02.2020
3636 Clouds 26 1007 83 8000 4.6 170 22:18 01.02.2020
3637 Clouds 26 1006 83 8000 6.2 180 22:18 01.02.2020
3638 Clouds 26 1006 83 8000 6.7 180 21:40 01.02.2020
3639 Smoke 25 1005 83 7000 7.7 180 21:19 01.02.2020
3640 Smoke 25 1005 83 7000 7.7 180 21:19 01.02.2020
3641 Smoke 25 1005 83 7000 7.7 180 20:55 01.02.2020
3642 Clouds 25 1005 78 7000 8.7 190 20:37 01.02.2020
3643 Clouds 26 1005 83 10000 8.7 190 20:18 01.02.2020
3644 Clouds 26 1005 83 10000 8.7 190 19:55 01.02.2020
3645 Smoke 26 1005 83 10000 7.7 180 19:36 01.02.2020
3646 Smoke 26 1005 78 10000 7.7 180 19:18 01.02.2020
3647 Smoke 26 1005 78 10000 7.7 180 18:55 01.02.2020
3648 Smoke 26 1005 83 10000 7.7 180 18:36 01.02.2020
3649 Smoke 26 1005 83 10000 7.7 180 18:18 01.02.2020
3650 Clouds 27 1004 74 10000 5.7 20 17:45 01.02.2020
3651 Clouds 27 1004 74 10000 5.7 20 17:21 01.02.2020
3652 Clouds 28 1005 69 10000 6.7 30 16:59 01.02.2020
3653 Clouds 27 1005 74 10000 4.6 30 16:39 01.02.2020
3654 Clouds 28 1005 74 10000 4.6 30 16:20 01.02.2020
3655 Clouds 28 1005 74 10000 4.1 30 15:46 01.02.2020
3656 Clouds 29 1005 74 10000 4.1 30 15:27 01.02.2020
3657 Clouds 29 1006 69 10000 3.1 40 14:58 01.02.2020
3658 Clouds 29 1006 65 10000 3.6 40 14:39 01.02.2020
3659 Clouds 30 1006 65 10000 4.6 30 14:20 01.02.2020
3660 Clouds 30 1006 62 10000 3.6 10 13:45 01.02.2020
3661 Clouds 31 1006 62 10000 3.6 10 13:22 01.02.2020
3662 Clouds 32 1006 58 10000 9.8 30 12:44 01.02.2020
3663 Clouds 31 1006 58 10000 9.8 30 12:26 01.02.2020
3664 Clouds 32 1005 52 10000 11.8 30 11:58 01.02.2020
3665 Clouds 32 1005 52 10000 12.3 30 11:38 01.02.2020
3666 Clouds 33 1005 52 10000 12.3 30 11:19 01.02.2020
3667 Clouds 33 1005 46 10000 12.3 30 10:56 01.02.2020
3668 Clouds 33 1005 41 10000 12.3 30 10:38 01.02.2020
3669 Clouds 34 1005 41 10000 12.3 30 10:20 01.02.2020
3670 Clouds 34 1005 43 10000 11.8 30 09:54 01.02.2020
3671 Clouds 34 1005 43 10000 11.8 30 09:36 01.02.2020
3672 Clouds 35 1005 43 10000 11.8 30 09:18 01.02.2020
3673 Clouds 36 1005 41 10000 11.8 30 08:41 01.02.2020
3674 Clouds 38 1005 41 10000 12.9 40 07:48 01.02.2020
3675 Clouds 39 1005 41 10000 12.9 40 07:26 01.02.2020
3676 Clouds 38 1005 41 10000 12.3 40 06:55 01.02.2020
3677 Clouds 38 1005 41 10000 12.3 40 06:55 01.02.2020
3678 Clouds 39 1006 41 10000 12.9 30 06:32 01.02.2020
3679 Clouds 41 1006 39 10000 10.8 40 05:51 01.02.2020
3680 Clear 43 1008 41 10000 8.2 40 03:48 01.02.2020
3681 Clear 44 1007 19 10000 2.6 300 03:21 01.02.2020
3682 Clear 42 1008 26 10000 1.5 280 02:45 01.02.2020
3683 Clear 41 1009 47 10000 4.1 50 02:25 01.02.2020
3684 Clear 39 1009 49 10000 2.6 40 01:52 01.02.2020
3685 Clear 38 1009 55 10000 3.1 30 01:31 01.02.2020
3686 Clear 34 1010 59 10000 1 40 00:30 01.02.2020
3687 Clear 31 1011 66 10000 2.1 40 23:43 31.01.2020
3688 Clear 30 1011 66 10000 2.1 40 23:20 31.01.2020
3689 Clear 29 1011 66 10000 1.5 40 22:59 31.01.2020
3690 Clear 27 1011 74 10000 1.48 330 22:40 31.01.2020
3691 Clear 27 1011 83 10000 2.1 40 22:22 31.01.2020
3692 Clear 26 1011 83 10000 2.1 40 21:57 31.01.2020
3693 Clear 25 1010 83 10000 1 30 21:39 31.01.2020
3694 Clear 24 1010 83 10000 1 30 21:19 31.01.2020
3695 Clear 24 1010 83 10000 2.6 20 20:56 31.01.2020
3696 Clear 24 1010 83 10000 2.6 20 20:56 31.01.2020
3697 Clear 24 1010 83 10000 4.6 20 20:38 31.01.2020
3698 Clear 24 1010 83 10000 7.2 30 20:20 31.01.2020
3699 Clear 23 1010 94 10000 1.29 344 19:56 31.01.2020
3700 Clear 24 1010 83 10000 6.7 20 19:37 31.01.2020
3701 Clear 24 1010 83 10000 6.7 20 19:18 31.01.2020
3702 Clear 24 1010 83 10000 4.6 30 18:42 31.01.2020
3703 Clear 24 1010 83 10000 4.6 30 18:23 31.01.2020
3704 Clear 24 1010 83 10000 5.7 20 17:55 31.01.2020
3705 Clear 24 1010 83 10000 5.7 30 17:36 31.01.2020
3706 Clear 24 1010 83 10000 5.7 30 17:18 31.01.2020
3707 Clear 24 1010 83 10000 4.6 30 16:55 31.01.2020
3708 Clear 24 1010 83 10000 4.6 30 16:37 31.01.2020
3709 Clear 25 1010 83 10000 5.1 50 16:18 31.01.2020
3710 Clear 25 1010 83 10000 5.1 50 16:18 31.01.2020
3711 Clear 25 1011 83 10000 4.6 30 15:41 31.01.2020
3712 Clear 25 1011 83 10000 4.6 30 15:21 31.01.2020
3713 Clear 25 1011 83 10000 4.6 30 14:58 31.01.2020
3714 Clear 25 1011 78 10000 4.6 20 14:40 31.01.2020
3715 Clear 26 1011 78 10000 5.1 20 14:20 31.01.2020
3716 Clear 26 1011 78 10000 5.1 20 13:44 31.01.2020
3717 Clear 26 1011 78 10000 6.2 30 13:25 31.01.2020
3718 Clear 26 1011 78 10000 8.7 30 12:46 31.01.2020
3719 Clear 26 1011 78 10000 8.7 30 12:26 31.01.2020
3720 Clear 27 1011 74 10000 9.3 30 11:59 31.01.2020
3721 Clear 27 1011 78 10000 9.8 30 11:40 31.01.2020
3722 Clear 28 1011 78 10000 9.8 30 11:22 31.01.2020
3723 Clear 28 1011 78 10000 9.8 30 10:58 31.01.2020
3724 Clear 28 1011 74 10000 10.3 20 10:37 31.01.2020
3725 Clouds 28 1010 74 10000 11.3 20 10:19 31.01.2020
3726 Clouds 29 1010 69 10000 10.8 30 09:42 31.01.2020
3727 Clouds 30 1010 69 10000 10.8 30 09:22 31.01.2020
3728 Clear 30 1010 66 10000 11.8 40 08:59 31.01.2020
3729 Clear 31 1010 66 10000 11.3 30 08:41 31.01.2020
3730 Clear 32 1010 66 10000 11.3 30 08:22 31.01.2020
3731 Clear 32 1010 58 10000 12.3 30 07:51 31.01.2020
3732 Clear 33 1010 52 10000 10.3 50 07:19 31.01.2020
3733 Clear 34 1011 55 10000 10.3 50 06:38 31.01.2020
3734 Clear 35 1011 52 10000 9.3 40 05:57 31.01.2020
3735 Clear 35 1011 58 10000 8.7 50 05:30 31.01.2020
3736 Clear 35 1012 58 10000 7.7 50 04:36 31.01.2020
3737 Clear 34 1013 58 10000 5.7 60 02:50 31.01.2020
3738 Clouds 30 1014 62 10000 5.7 70 01:32 31.01.2020
3739 Clouds 29 1015 66 10000 2.69 36 00:41 31.01.2020
3740 Clouds 29 1015 66 10000 2.69 36 00:23 31.01.2020
3741 Clouds 27 1015 66 10000 3.6 350 23:42 30.01.2020
3742 Clouds 26 1015 66 10000 3.6 350 23:23 30.01.2020
3743 Clouds 24 1015 94 10000 1.4 360 22:40 30.01.2020
3744 Clouds 24 1015 94 10000 1.4 360 22:21 30.01.2020
3745 Clouds 24 1015 94 10000 1.4 360 21:59 30.01.2020
3746 Clouds 23 1015 94 10000 1.4 360 21:41 30.01.2020
3747 Clouds 23 1015 94 10000 1.4 360 21:19 30.01.2020
3748 Clouds 23 1015 100 4900 1.4 360 20:57 30.01.2020
3749 Clouds 23 1015 100 4900 1.5 359 20:38 30.01.2020
3750 Clouds 23 1015 100 4900 0.94 360 20:20 30.01.2020
3751 Clouds 23 1014 100 10000 0.93 352 19:55 30.01.2020
3752 Clouds 23 1014 100 4700 0.93 352 19:36 30.01.2020
3753 Clouds 23 1014 100 4700 0.93 352 19:18 30.01.2020
3754 Clouds 23 1014 100 4700 0.93 352 19:18 30.01.2020
3755 Clouds 22 1014 88 10000 0.93 352 18:39 30.01.2020
3756 Clear 22 1014 100 6000 0.93 352 18:19 30.01.2020
3757 Clear 22 1014 100 6000 0.93 352 17:55 30.01.2020
3758 Clouds 22 1014 83 10000 1.5 10 17:36 30.01.2020
3759 Clear 22 1014 94 10000 1.63 14 17:18 30.01.2020
3760 Clear 22 1014 94 10000 1.63 14 16:41 30.01.2020
3761 Clear 22 1014 94 10000 1.63 14 16:21 30.01.2020
3762 Clouds 23 1014 83 10000 4.1 10 15:58 30.01.2020
3763 Clear 23 1014 88 10000 1.63 14 15:40 30.01.2020
3764 Clear 23 1014 88 10000 1.63 14 15:19 30.01.2020
3765 Clear 23 1014 88 10000 1.5 70 14:43 30.01.2020
3766 Clear 23 1014 88 10000 1.5 70 14:43 30.01.2020
3767 Clear 24 1014 88 10000 1.5 70 14:25 30.01.2020
3768 Clear 24 1015 88 10000 2.6 60 13:43 30.01.2020
3769 Clear 24 1015 88 10000 2.6 60 13:24 30.01.2020
3770 Clear 24 1015 83 10000 3.1 70 12:58 30.01.2020
3771 Clouds 25 1015 78 10000 6.7 30 12:39 30.01.2020
3772 Clouds 25 1015 78 10000 6.7 30 12:21 30.01.2020
3773 Clouds 25 1014 78 10000 6.2 40 11:41 30.01.2020
3774 Clouds 25 1014 78 10000 6.2 40 11:23 30.01.2020
3775 Clouds 25 1014 78 10000 7.7 40 10:59 30.01.2020
3776 Clouds 25 1014 78 10000 7.7 40 10:59 30.01.2020
3777 Clouds 25 1014 78 10000 7.2 50 10:41 30.01.2020
3778 Clouds 25 1014 78 10000 7.2 50 10:21 30.01.2020
3779 Clouds 26 1013 69 10000 7.7 50 09:47 30.01.2020
3780 Clouds 26 1013 69 10000 7.7 50 09:28 30.01.2020
3781 Clouds 27 1013 69 10000 9.3 50 08:58 30.01.2020
3782 Clouds 27 1013 61 10000 9.3 40 08:38 30.01.2020
3783 Clouds 28 1013 62 10000 8.7 60 08:19 30.01.2020
3784 Clouds 28 1013 62 10000 8.7 60 07:48 30.01.2020
3785 Clouds 29 1013 65 10000 8.7 40 07:22 30.01.2020
3786 Clear 30 1013 58 10000 8.7 60 06:47 30.01.2020
3787 Clear 30 1013 58 10000 8.7 60 06:47 30.01.2020
3788 Clear 29 1013 58 10000 8.7 60 06:47 30.01.2020
3789 Clear 30 1013 58 10000 8.7 60 06:28 30.01.2020
3790 Clear 30 1014 51 10000 7.7 60 05:44 30.01.2020
3791 Clear 31 1014 51 10000 7.7 60 05:20 30.01.2020
3792 Clear 30 1015 51 10000 7.7 60 03:54 30.01.2020
3793 Clear 30 1015 51 10000 3.1 10 03:36 30.01.2020
3794 Clouds 28 1016 48 10000 4.6 340 02:22 30.01.2020
3795 Clouds 26 1017 54 10000 1 10 00:42 30.01.2020
3796 Clouds 25 1017 54 10000 1 10 00:20 30.01.2020
3797 Clouds 25 1018 61 10000 1 20 23:46 29.01.2020
3798 Clear 24 1018 78 10000 2.1 40 23:22 29.01.2020
3799 Clear 23 1018 88 10000 1.5 10 22:57 29.01.2020
3800 Clear 21 1017 94 10000 0.96 283 22:39 29.01.2020
3801 Clouds 21 1017 78 10000 0.96 283 22:19 29.01.2020
3802 Clouds 20 1017 78 10000 0.96 283 21:58 29.01.2020
3803 Clear 19 1017 100 10000 0.96 283 21:38 29.01.2020
3804 Clear 19 1017 100 10000 0.96 283 21:19 29.01.2020
3805 Clear 19 1017 93 10000 0.96 283 20:58 29.01.2020
3806 Clear 18 1017 100 10000 0.74 276 20:38 29.01.2020
3807 Clear 18 1017 100 10000 0.74 276 20:38 29.01.2020
3808 Clear 18 1017 100 10000 1.53 241 20:19 29.01.2020
3809 Clear 18 1016 93 10000 1.53 241 19:56 29.01.2020
3810 Clear 18 1016 93 10000 1.53 241 19:37 29.01.2020
3811 Clear 18 1016 93 10000 1.53 241 19:37 29.01.2020
3812 Clear 18 1016 93 10000 1.53 241 19:37 29.01.2020
3813 Clear 19 1016 93 10000 1.53 241 19:18 29.01.2020
3814 Clear 19 1016 100 10000 1.53 241 18:46 29.01.2020
3815 Clouds 19 1016 88 10000 1.53 241 18:19 29.01.2020
3816 Clouds 19 1017 88 10000 0.5 130 17:58 29.01.2020
3817 Clear 19 1017 88 10000 1.53 241 17:39 29.01.2020
3818 Clouds 19 1017 83 10000 1.06 196 17:21 29.01.2020
3819 Clouds 20 1017 78 10000 1.06 196 16:41 29.01.2020
3820 Clouds 20 1017 78 10000 1.06 196 16:23 29.01.2020
3821 Clouds 20 1017 78 10000 1.06 196 15:56 29.01.2020
3822 Clouds 20 1017 78 10000 1.06 196 15:56 29.01.2020
3823 Clouds 21 1017 73 10000 1.06 196 15:37 29.01.2020
3824 Clouds 21 1017 73 10000 1.06 196 15:18 29.01.2020
3825 Clouds 21 1018 73 10000 2.1 140 14:43 29.01.2020
3826 Clouds 22 1018 73 10000 2.1 140 14:20 29.01.2020
3827 -273 0 0 0 0 0 13:55 29.01.2020
3828 Clouds 22 1018 78 10000 1.7 149 13:36 29.01.2020
3829 Clouds 22 1018 78 10000 1.44 155 13:18 29.01.2020
3830 Clouds 22 1018 78 10000 1.44 155 12:55 29.01.2020
3831 Clouds 23 1018 73 10000 2.1 130 12:37 29.01.2020
3832 Clouds 23 1018 73 10000 2.1 140 12:18 29.01.2020
3833 Clouds 23 1017 69 10000 2.6 140 11:45 29.01.2020
3834 Clouds 23 1017 69 10000 2.6 140 11:21 29.01.2020
3835 Clear 24 1016 75 0 2.42 127 10:47 29.01.2020
3836 Clouds 24 1016 69 10000 5.7 110 10:26 29.01.2020
3837 Clouds 25 1016 69 10000 5.7 110 09:58 29.01.2020
3838 Clouds 25 1016 69 10000 5.7 110 09:40 29.01.2020
3839 Clouds 25 1016 69 10000 6.2 130 09:20 29.01.2020
3840 Clouds 25 1016 69 10000 6.2 130 08:56 29.01.2020
3841 Clouds 25 1016 65 10000 6.2 120 08:37 29.01.2020
3842 Clouds 25 1016 69 10000 6.7 130 08:18 29.01.2020
3843 Clouds 26 1015 65 10000 6.2 130 07:43 29.01.2020
3844 Clouds 26 1015 65 10000 6.2 130 07:23 29.01.2020
3845 Clouds 27 1015 65 10000 6.2 130 06:38 29.01.2020
3846 Clouds 27 1015 65 10000 6.2 130 06:20 29.01.2020
3847 Clouds 27 1015 69 10000 6.2 140 05:52 29.01.2020
3848 Clouds 27 1015 69 10000 6.2 140 05:52 29.01.2020
3849 Clouds 27 1015 65 10000 5.7 150 05:34 29.01.2020
3850 Clouds 28 1016 65 10000 6.2 160 04:39 29.01.2020
3851 Clouds 28 1016 65 10000 6.2 170 04:18 29.01.2020
3852 Clouds 27 1016 69 10000 7.2 180 02:40 29.01.2020
3853 Clouds 26 1017 69 10000 6.7 180 01:34 29.01.2020
3854 Clouds 25 1016 73 10000 6.2 190 00:41 29.01.2020
3855 Clouds 25 1016 73 10000 7.2 190 00:23 29.01.2020
3856 Clouds 24 1016 73 10000 7.2 190 23:41 28.01.2020
3857 Clouds 24 1016 78 10000 6.2 190 23:21 28.01.2020
3858 Clouds 24 1016 78 10000 6.2 190 22:57 28.01.2020
3859 Clouds 24 1015 83 10000 6.7 190 22:39 28.01.2020
3860 Clouds 23 1015 83 10000 6.7 190 22:20 28.01.2020
3861 Clouds 23 1015 83 10000 7.2 190 21:42 28.01.2020
3862 Clouds 23 1015 83 10000 7.2 190 21:22 28.01.2020
3863 Rain 23 1015 83 10000 7.7 190 20:57 28.01.2020
3864 Clouds 23 1014 83 10000 8.2 190 20:39 28.01.2020
3865 Clouds 23 1014 83 10000 8.2 190 20:39 28.01.2020
3866 Clouds 23 1014 83 10000 8.2 190 20:21 28.01.2020
3867 Clouds 23 1014 88 10000 7.7 190 19:39 28.01.2020
3868 Clouds 23 1014 88 10000 7.7 190 19:20 28.01.2020
3869 Clouds 23 1014 88 9000 8.2 190 18:58 28.01.2020
3870 Clouds 23 1014 88 9000 8.2 190 18:58 28.01.2020
3871 Clouds 23 1014 88 9000 8.2 200 18:39 28.01.2020
3872 Clouds 23 1014 88 9000 8.2 200 18:21 28.01.2020
3873 Clouds 23 1014 88 10000 8.2 190 17:57 28.01.2020
3874 Drizzle 23 1014 88 9000 8.2 190 17:37 28.01.2020
3875 Drizzle 23 1014 88 9000 8.2 190 17:19 28.01.2020
3876 Drizzle 23 1014 88 9000 7.7 200 16:54 28.01.2020
3877 Clouds 23 1014 88 10000 8.7 190 16:36 28.01.2020
3878 Clouds 23 1014 88 10000 8.7 190 16:18 28.01.2020
3879 Clouds 23 1014 88 10000 8.7 200 15:41 28.01.2020
3880 Clouds 24 1014 88 10000 8.7 200 15:19 28.01.2020
3881 Clouds 24 1014 88 10000 8.7 190 14:46 28.01.2020
3882 Clouds 24 1014 88 9000 7.7 190 14:20 28.01.2020
3883 Clouds 24 1014 88 9000 7.7 190 13:58 28.01.2020
3884 Clouds 24 1014 88 9000 8.7 190 13:39 28.01.2020
3885 Clouds 24 1014 88 9000 8.7 190 13:39 28.01.2020
3886 Clouds 24 1014 88 9000 8.7 190 13:20 28.01.2020
3887 Clouds 25 1014 94 9000 8.2 180 12:42 28.01.2020
3888 Clouds 25 1014 94 9000 8.2 180 12:23 28.01.2020
3889 Clouds 25 1013 88 9000 9.3 190 11:48 28.01.2020
3890 Clouds 25 1012 88 10000 9.8 180 11:23 28.01.2020
3891 Clouds 25 1012 88 10000 9.8 180 10:59 28.01.2020
3892 Clouds 25 1011 88 10000 10.3 180 10:40 28.01.2020
3893 Clouds 25 1011 88 10000 10.3 180 10:20 28.01.2020
3894 Clouds 26 1010 88 10000 8.7 180 09:43 28.01.2020
3895 Clouds 26 1010 88 10000 8.7 180 09:21 28.01.2020
3896 Clouds 27 1010 83 10000 7.2 170 08:58 28.01.2020
3897 Rain 27 1010 83 10000 7.7 160 08:39 28.01.2020
3898 Rain 27 1010 83 10000 7.7 160 08:19 28.01.2020
3899 Rain 27 1010 83 10000 7.7 160 08:19 28.01.2020
3900 Clouds 29 1009 74 10000 6.7 140 07:37 28.01.2020
3901 Rain 30 1008 66 10000 7.7 160 06:50 28.01.2020
3902 Clouds 30 1008 65 10000 5.1 110 06:28 28.01.2020
3903 Clouds 31 1009 66 10000 6.2 50 05:55 28.01.2020
3904 Clouds 31 1009 69 10000 4.1 60 05:27 28.01.2020
3905 Clouds 32 1010 69 10000 4.6 150 04:30 28.01.2020
3906 Clouds 32 1011 69 10000 5.1 130 03:33 28.01.2020
3907 Clouds 31 1011 58 10000 3.6 30 02:25 28.01.2020
3908 Clouds 31 1011 74 10000 3.6 160 02:25 28.01.2020
3909 Clouds 30 1011 62 10000 1.5 330 01:58 28.01.2020
3910 Clouds 30 1012 62 10000 1.5 320 01:40 28.01.2020
3911 Clouds 29 1012 78 10000 5.1 140 00:51 28.01.2020
3912 Clouds 28 1012 69 10000 2.6 210 00:29 28.01.2020
3913 Clouds 27 1013 83 10000 4.1 170 23:52 27.01.2020
3914 Clouds 26 1012 78 10000 3.6 180 23:30 27.01.2020
3915 Clouds 25 1012 83 10000 3.6 190 22:59 27.01.2020
3916 Clouds 25 1012 88 10000 2.6 180 22:41 27.01.2020
3917 Clouds 24 1012 88 10000 2.6 180 22:20 27.01.2020
3918 Haze 24 1012 88 10000 5.1 120 21:57 27.01.2020
3919 Clouds 23 1012 88 10000 2.6 180 21:38 27.01.2020
3920 Clouds 23 1012 88 10000 2.6 180 21:18 27.01.2020
3921 Clouds 23 1012 88 10000 2.6 180 20:55 27.01.2020
3922 Clouds 22 1011 94 10000 3.1 200 20:37 27.01.2020
3923 Clouds 22 1011 94 10000 3.1 200 20:18 27.01.2020
3924 Clouds 22 1011 88 10000 2.51 154 19:41 27.01.2020
3925 Haze 22 1011 83 10000 3.1 180 19:23 27.01.2020
3926 Haze 22 1011 83 10000 3.1 180 18:57 27.01.2020
3927 Clouds 23 1011 83 10000 2.51 154 18:39 27.01.2020
3928 Clouds 23 1011 83 10000 2.51 154 18:39 27.01.2020
3929 Clouds 23 1011 83 10000 2.51 154 18:20 27.01.2020
3930 Haze 23 1011 83 10000 3.1 180 17:55 27.01.2020
3931 Clouds 23 1004 86 0 0.45 9 17:37 27.01.2020
3932 Clouds 23 1004 86 0 0.45 9 17:37 27.01.2020
3933 Haze 23 1011 78 10000 3.1 180 17:18 27.01.2020
3934 Haze 23 1012 78 10000 3.1 180 16:42 27.01.2020
3935 Haze 23 1012 78 10000 3.1 180 16:24 27.01.2020
3936 Haze 24 1012 78 10000 3.1 180 15:55 27.01.2020
3937 Haze 24 1012 83 10000 3.1 180 15:37 27.01.2020
3938 Haze 24 1012 83 10000 3.1 180 15:19 27.01.2020
3939 Haze 24 1013 83 10000 3.1 180 14:54 27.01.2020
3940 Haze 24 1013 83 10000 3.1 180 14:36 27.01.2020
3941 Haze 24 1013 83 10000 3.1 180 14:18 27.01.2020
3942 Clouds 24 1013 78 10000 3.6 20 13:42 27.01.2020
3943 Clouds 25 1013 78 10000 3.6 20 13:21 27.01.2020
3944 Clouds 25 1013 78 10000 3.6 20 13:21 27.01.2020
3945 Haze 25 1013 74 10000 3.1 180 12:56 27.01.2020
3946 Clear 25 1012 78 10000 7.2 40 12:37 27.01.2020
3947 Clear 25 1012 78 10000 7.2 40 12:19 27.01.2020
3948 Clouds 25 1012 78 10000 6.2 30 11:41 27.01.2020
3949 Clouds 25 1012 78 10000 6.2 30 11:21 27.01.2020
3950 Clouds 25 1012 78 10000 6.2 30 11:21 27.01.2020
3951 Clouds 26 1011 74 10000 8.2 30 10:44 27.01.2020
3952 Clouds 26 1011 74 10000 8.2 30 10:25 27.01.2020
3953 Clouds 26 1011 74 10000 7.2 30 09:58 27.01.2020
3954 Clouds 26 1010 74 10000 6.7 50 09:39 27.01.2020
3955 Clouds 27 1011 74 10000 5.1 60 09:18 27.01.2020
3956 Clouds 27 1011 74 10000 5.1 60 08:47 27.01.2020
3957 Clouds 27 1011 74 10000 3.6 90 08:23 27.01.2020
3958 Clouds 28 1011 74 10000 5.1 50 07:55 27.01.2020
3959 Clouds 28 1011 74 10000 5.1 50 07:36 27.01.2020
3960 Clouds 29 1011 74 10000 5.1 50 06:55 27.01.2020
3961 Clouds 29 1011 69 10000 5.1 150 06:32 27.01.2020
3962 Clouds 29 1012 69 10000 5.1 130 05:37 27.01.2020
3963 Clouds 30 1012 52 10000 3.6 50 04:21 27.01.2020
3964 Clouds 29 1012 58 10000 4.1 50 03:27 27.01.2020
3965 Clouds 27 1014 83 10000 7.7 180 01:47 27.01.2020
3966 Clouds 27 1014 83 10000 7.7 180 01:22 27.01.2020
3967 Clouds 26 1014 78 10000 6.7 180 00:40 27.01.2020
3968 Clouds 26 1014 78 10000 6.7 180 00:21 27.01.2020
3969 Clouds 25 1014 83 10000 6.7 180 23:43 26.01.2020
3970 Clouds 25 1014 83 10000 6.2 200 23:22 26.01.2020
3971 Clouds 25 1014 83 10000 6.2 200 22:58 26.01.2020
3972 Clouds 24 1014 83 10000 6.7 210 22:38 26.01.2020
3973 Clouds 24 1014 83 10000 8.7 200 22:20 26.01.2020
3974 Clouds 24 1014 83 10000 8.7 200 21:57 26.01.2020
3975 Clouds 23 1014 83 10000 8.2 210 21:39 26.01.2020
3976 Clouds 23 1014 83 10000 8.2 210 21:20 26.01.2020
3977 Clouds 23 1013 83 10000 8.2 210 20:58 26.01.2020
3978 Clouds 23 1013 83 9000 8.7 200 20:38 26.01.2020
3979 Clouds 23 1013 83 9000 8.7 200 20:19 26.01.2020
3980 Clouds 23 1013 88 9000 7.7 200 19:58 26.01.2020
3981 Clouds 23 1013 88 8000 8.7 200 19:38 26.01.2020
3982 Clouds 23 1012 83 8000 7.7 200 19:19 26.01.2020
3983 Clouds 23 1012 83 8000 7.7 200 18:56 26.01.2020
3984 Clouds 23 1012 88 8000 8.7 200 18:38 26.01.2020
3985 Clouds 23 1012 88 8000 8.7 200 18:19 26.01.2020
3986 Clouds 23 1012 88 8000 10.3 190 17:55 26.01.2020
3987 Clouds 23 1012 88 8000 12.3 190 17:36 26.01.2020
3988 Clouds 24 1012 88 8000 12.9 190 17:18 26.01.2020
3989 Clouds 24 1012 88 8000 12.9 190 16:55 26.01.2020
3990 Clouds 24 1012 88 8000 13.4 190 16:37 26.01.2020
3991 Clouds 24 1012 88 8000 13.4 190 16:18 26.01.2020
3992 Rain 24 1010 87 0 5.61 170 15:43 26.01.2020
3993 Rain 24 1013 82 0 6.26 169 15:21 26.01.2020
3994 Rain 25 1013 81 0 4.47 207 14:56 26.01.2020
3995 Rain 25 1013 81 0 4.47 111 14:38 26.01.2020
3996 Rain 26 1004 76 0 0.89 172 14:18 26.01.2020
3997 Clouds 26 1009 73 0 1.61 326 13:39 26.01.2020
3998 Clouds 27 1011 64 0 0.89 225 13:19 26.01.2020
3999 Clouds 27 1004 74 0 0.45 332 12:56 26.01.2020
4000 Clouds 27 1010 73 0 1.61 326 12:36 26.01.2020
4001 Clouds 27 1011 60 0 1.34 90 12:18 26.01.2020
4002 Clouds 27 1003 69 0 0.89 131 11:56 26.01.2020
4003 Clouds 28 1012 71 0 1.61 326 11:36 26.01.2020
4004 Clouds 28 1010 58 10000 5.7 350 11:18 26.01.2020
4005 Clouds 28 1010 58 10000 5.7 350 10:55 26.01.2020
4006 Clouds 28 1010 58 10000 5.7 350 10:37 26.01.2020
4007 Clouds 29 1010 58 10000 5.7 350 10:18 26.01.2020
4008 Rain 29 1009 48 10000 11.8 30 09:41 26.01.2020
4009 Rain 30 1009 48 10000 11.8 30 09:23 26.01.2020
4010 Rain 30 1008 51 10000 13.4 30 08:57 26.01.2020
4011 Clouds 30 1008 55 10000 12.9 30 08:39 26.01.2020
4012 Clouds 31 1008 55 10000 12.9 30 08:21 26.01.2020
4013 Rain 32 1008 49 10000 9.8 40 07:50 26.01.2020
4014 Rain 32 1008 52 10000 7.2 60 07:26 26.01.2020
4015 Thunderstorm 30 1008 58 10000 6.2 30 06:40 26.01.2020
4016 Thunderstorm 31 1008 55 10000 9.3 40 06:22 26.01.2020
4017 Clouds 33 1008 49 10000 8.7 50 05:27 26.01.2020
4018 Clouds 36 1010 39 10000 5.1 50 03:31 26.01.2020
4019 Clouds 35 1010 41 10000 5.1 50 02:38 26.01.2020
4020 Clouds 33 1011 49 10000 2.1 310 01:45 26.01.2020
4021 Clouds 32 1011 55 10000 1.5 350 01:22 26.01.2020
4022 Clouds 31 1011 70 10000 1.5 10 00:42 26.01.2020
4023 Clouds 31 1011 70 10000 1.5 10 00:24 26.01.2020
4024 Clouds 28 1004 78 0 0.45 216 23:39 25.01.2020
4025 Clouds 27 1004 79 0 0.45 358 23:21 25.01.2020
4026 Clouds 27 1005 85 0 0.45 107 22:56 25.01.2020
4027 Clouds 27 1005 85 0 0.45 107 22:56 25.01.2020
4028 Clouds 26 1013 84 0 0.45 66 22:36 25.01.2020
4029 Clouds 25 1005 87 0 0.45 19 22:18 25.01.2020
4030 Clouds 25 1004 87 0 0.33 335 21:55 25.01.2020
4031 Clouds 25 1013 84 0 0.33 335 21:36 25.01.2020
4032 Clouds 25 1013 84 0 0.33 335 21:18 25.01.2020
4033 Clouds 24 1012 89 0 0.45 360 20:43 25.01.2020
4034 Rain 24 1012 89 0 0.15 163 20:24 25.01.2020
4035 Rain 23 1010 90 0 0.74 222 19:48 25.01.2020
4036 Rain 24 1003 88 0 0.89 342 19:20 25.01.2020
4037 Rain 24 1003 88 0 0.89 342 18:59 25.01.2020
4038 Rain 24 1003 87 0 0.45 342 18:41 25.01.2020
4039 Rain 24 1003 88 0 0.45 340 18:21 25.01.2020
4040 Rain 24 1003 88 0 1.34 341 17:56 25.01.2020
4041 Rain 24 1003 88 0 1.34 351 17:37 25.01.2020
4042 Clouds 24 1003 90 0 0.45 345 17:18 25.01.2020
4043 Clouds 24 1003 90 0 0.89 83 16:42 25.01.2020
4044 Clouds 24 1011 84 0 3.13 45 16:23 25.01.2020
4045 Clouds 24 1004 88 0 0.45 30 15:56 25.01.2020
4046 Clouds 24 1004 88 0 0.89 29 15:38 25.01.2020
4047 Clouds 24 1012 88 0 1.34 78 15:19 25.01.2020
4048 Clouds 24 1004 87 0 0.89 49 14:42 25.01.2020
4049 Clouds 24 1004 85 0 0.89 186 14:19 25.01.2020
4050 Clouds 24 1012 85 0 1.34 78 13:45 25.01.2020
4051 Rain 25 1010 92 0 1.05 37 13:26 25.01.2020
4052 Clouds 25 1012 83 10000 2.6 40 12:57 25.01.2020
4053 Clouds 25 1012 83 10000 2.6 40 12:37 25.01.2020
4054 Clouds 25 1012 83 10000 2.6 40 12:19 25.01.2020
4055 Clouds 25 1012 83 10000 2.6 20 11:40 25.01.2020
4056 Clouds 25 1012 83 10000 3.6 30 11:19 25.01.2020
4057 Clouds 25 1012 83 10000 3.6 30 10:55 25.01.2020
4058 Clouds 26 1012 83 10000 5.1 50 10:37 25.01.2020
4059 Clouds 26 1011 83 10000 5.7 50 10:18 25.01.2020
4060 Clouds 26 1011 83 10000 6.7 50 09:40 25.01.2020
4061 Clouds 26 1011 83 10000 6.2 50 09:19 25.01.2020
4062 Clouds 26 1011 78 10000 6.2 50 08:43 25.01.2020
4063 Clouds 27 1011 83 10000 5.1 80 07:57 25.01.2020
4064 Clouds 27 1011 78 10000 5.1 70 07:36 25.01.2020
4065 Clouds 27 1012 74 10000 5.1 50 06:33 25.01.2020
4066 Clouds 27 1012 74 10000 5.1 50 06:33 25.01.2020
4067 Clouds 28 1012 74 10000 7.2 50 05:57 25.01.2020
4068 Clouds 28 1012 69 10000 6.2 70 05:38 25.01.2020
4069 Clouds 28 1013 65 10000 6.2 80 04:19 25.01.2020
4070 Clouds 28 1013 62 10000 6.2 90 03:49 25.01.2020
4071 Clouds 28 1014 61 10000 4.6 80 02:38 25.01.2020
4072 Clouds 28 1015 61 10000 4.1 60 01:57 25.01.2020
4073 Clouds 27 1015 61 10000 5.7 80 01:23 25.01.2020
4074 Clouds 26 1015 65 10000 4.6 80 00:41 25.01.2020
4075 Clouds 26 1015 65 10000 4.6 80 00:41 25.01.2020
4076 Clouds 26 1015 65 10000 4.6 80 00:22 25.01.2020
4077 Clouds 25 1015 73 10000 5.1 60 23:42 24.01.2020
4078 Clouds 25 1015 73 10000 5.1 60 23:24 24.01.2020
4079 Clouds 24 1014 73 10000 4.6 70 22:47 24.01.2020
4080 Clouds 24 1014 73 10000 4.6 70 22:29 24.01.2020
4081 Clouds 23 1014 69 10000 4.1 80 21:59 24.01.2020
4082 Clouds 23 1014 73 10000 3.6 80 21:41 24.01.2020
4083 Clouds 23 1014 73 10000 3.6 80 21:19 24.01.2020
4084 Clouds 23 1013 73 10000 4.1 90 20:44 24.01.2020
4085 Clouds 23 1013 94 10000 2.6 220 20:23 24.01.2020
4086 Clouds 23 1013 94 10000 2.6 230 19:59 24.01.2020
4087 Clouds 23 1013 100 10000 2.6 230 19:41 24.01.2020
4088 Clouds 23 1013 100 10000 2.6 230 19:22 24.01.2020
4089 Clouds 23 1012 94 10000 2.1 220 18:58 24.01.2020
4090 Clouds 23 1013 78 10000 5.1 90 18:40 24.01.2020
4091 Clouds 23 1013 78 10000 5.1 90 18:22 24.01.2020
4092 Clouds 23 1013 78 10000 4.6 90 17:45 24.01.2020
4093 Clouds 23 1013 78 10000 4.6 90 17:22 24.01.2020
4094 Clouds 23 1013 78 10000 4.1 90 16:57 24.01.2020
4095 Clouds 23 1013 78 10000 4.6 90 16:38 24.01.2020
4096 Clouds 23 1013 78 10000 4.6 90 16:19 24.01.2020
4097 Rain 23 1013 78 10000 5.7 100 15:42 24.01.2020
4098 Rain 23 1013 78 10000 5.7 100 15:21 24.01.2020
4099 Clouds 23 1013 83 10000 4.6 110 14:55 24.01.2020
4100 Clouds 23 1013 83 10000 4.6 90 14:37 24.01.2020
4101 Clouds 23 1013 88 10000 4.6 90 14:19 24.01.2020
4102 Rain 23 1013 88 10000 4.1 90 13:41 24.01.2020
4103 Rain 23 1013 88 10000 4.1 90 13:22 24.01.2020
4104 Rain 23 1013 88 10000 4.1 90 13:22 24.01.2020
4105 Drizzle 23 1014 88 6000 4.1 90 12:43 24.01.2020
4106 Drizzle 24 1014 88 6000 4.1 90 12:21 24.01.2020
4107 Clouds 24 1012 73 10000 4.6 110 11:45 24.01.2020
4108 Clouds 24 1012 73 10000 4.6 110 11:19 24.01.2020
4109 Clouds 24 1012 73 10000 4.6 110 11:19 24.01.2020
4110 Clouds 24 1012 73 10000 4.6 100 10:59 24.01.2020
4111 Clouds 24 1011 73 10000 4.6 90 10:40 24.01.2020
4112 Clouds 24 1011 73 10000 4.6 90 10:19 24.01.2020
4113 Clouds 25 1010 73 10000 5.7 110 09:42 24.01.2020
4114 Clouds 25 1010 73 10000 5.7 110 09:42 24.01.2020
4115 Clouds 25 1010 73 10000 5.7 110 09:24 24.01.2020
4116 Clouds 25 1009 78 10000 6.7 90 08:59 24.01.2020
4117 Clouds 25 1009 73 10000 7.2 90 08:36 24.01.2020
4118 Clouds 26 1009 73 10000 6.2 100 08:18 24.01.2020
4119 Clouds 26 1009 69 10000 6.2 90 07:42 24.01.2020
4120 Clouds 27 1009 69 10000 4.6 90 07:21 24.01.2020
4121 Clouds 27 1009 69 10000 4.1 150 06:43 24.01.2020
4122 Clouds 27 1009 69 10000 4.1 150 06:43 24.01.2020
4123 Clouds 27 1009 69 10000 4.1 150 06:23 24.01.2020
4124 Clouds 26 1009 57 10000 3.1 40 05:21 24.01.2020
4125 Rain 25 1010 78 10000 3.6 170 03:34 24.01.2020
4126 Rain 24 1011 78 10000 5.7 200 02:39 24.01.2020
4127 Rain 25 1011 78 10000 5.7 200 02:20 24.01.2020
4128 Rain 24 1011 78 7000 5.1 200 01:38 24.01.2020
4129 Thunderstorm 23 1010 83 9000 7.2 210 00:42 24.01.2020
4130 Rain 23 1010 83 10000 6.7 190 00:19 24.01.2020
4131 Rain 22 1009 83 8000 6.7 190 23:41 23.01.2020
4132 Rain 22 1009 83 8000 6.7 190 23:21 23.01.2020
4133 Thunderstorm 22 1009 78 9000 5.1 170 22:58 23.01.2020
4134 Smoke 24 1009 73 10000 5.1 170 22:37 23.01.2020
4135 Smoke 24 1009 73 10000 5.1 170 22:37 23.01.2020
4136 Smoke 24 1009 73 10000 5.1 170 22:18 23.01.2020
4137 Smoke 24 1008 69 10000 5.1 170 21:55 23.01.2020
4138 Rain 24 1008 73 9000 6.2 170 21:37 23.01.2020
4139 Rain 24 1008 73 9000 6.2 170 21:19 23.01.2020
4140 Rain 24 1007 78 8000 6.2 170 20:54 23.01.2020
4141 Rain 24 1006 78 7000 6.2 170 20:36 23.01.2020
4142 Rain 25 1006 78 8000 5.1 180 20:18 23.01.2020
4143 Rain 25 1005 78 10000 6.2 170 19:42 23.01.2020
4144 Rain 25 1005 78 10000 6.2 170 19:23 23.01.2020
4145 Rain 26 1004 73 10000 5.1 170 18:57 23.01.2020
4146 Rain 26 1004 69 10000 5.1 170 18:38 23.01.2020
4147 Rain 27 1004 61 10000 5.7 180 18:19 23.01.2020
4148 Rain 27 1004 61 10000 5.7 180 17:55 23.01.2020
4149 Rain 28 1003 57 10000 8.7 190 17:37 23.01.2020
4150 Rain 28 1003 57 10000 8.7 190 17:18 23.01.2020
4151 Rain 29 1002 55 10000 5.1 330 16:39 23.01.2020
4152 Rain 29 1002 55 10000 5.1 330 16:20 23.01.2020
4153 Rain 29 1002 61 10000 3.1 350 15:58 23.01.2020
4154 Rain 29 1002 51 10000 4.1 340 15:39 23.01.2020
4155 Rain 29 1002 48 10000 8.7 340 15:19 23.01.2020
4156 Rain 30 1002 48 10000 8.7 340 14:59 23.01.2020
4157 Rain 30 1002 48 10000 7.7 330 14:41 23.01.2020
4158 Clouds 30 1002 48 10000 7.7 330 14:22 23.01.2020
4159 Clouds 30 1002 48 10000 7.7 360 13:56 23.01.2020
4160 Clouds 30 1002 46 10000 10.3 10 13:37 23.01.2020
4161 Clouds 30 1002 46 10000 10.3 10 13:18 23.01.2020
4162 Drizzle 30 1001 55 8000 5.7 20 12:43 23.01.2020
4163 Drizzle 30 1001 55 8000 5.7 20 12:24 23.01.2020
4164 Clouds 30 1000 62 9000 2.32 318 11:56 23.01.2020
4165 Drizzle 29 1000 58 10000 4.1 50 11:37 23.01.2020
4166 Drizzle 29 1000 58 10000 4.1 50 11:37 23.01.2020
4167 Drizzle 32 1000 58 10000 4.1 50 11:18 23.01.2020
4168 Drizzle 32 1000 58 10000 4.1 50 11:18 23.01.2020
4169 Dust 33 999 55 9000 5.1 30 10:43 23.01.2020
4170 Dust 32 999 55 9000 5.1 30 10:19 23.01.2020
4171 Dust 31 998 52 10000 5.1 30 09:43 23.01.2020
4172 Clouds 34 997 55 10000 9.3 30 09:25 23.01.2020
4173 Clouds 33 997 55 10000 9.3 30 08:58 23.01.2020
4174 Clouds 32 997 52 10000 9.3 40 08:40 23.01.2020
4175 Clouds 38 997 52 10000 9.3 40 08:21 23.01.2020
4176 Clouds 40 997 41 10000 9.8 50 07:44 23.01.2020
4177 Clouds 40 997 41 10000 9.8 50 07:24 23.01.2020
4178 Clouds 40 997 18 10000 9.8 320 06:51 23.01.2020
4179 Clouds 41 997 12 8000 11.3 340 06:22 23.01.2020
4180 Clouds 41 998 13 10000 12.9 350 05:44 23.01.2020
4181 Clouds 41 999 12 10000 13.4 340 04:24 23.01.2020
4182 Clouds 40 1000 15 10000 11.8 330 02:33 23.01.2020
4183 Clouds 37 1001 25 10000 11.8 330 01:19 23.01.2020
4184 Clouds 35 1002 32 10000 8.2 360 00:27 23.01.2020
4185 Clouds 33 1002 33 10000 11.8 330 23:48 22.01.2020
4186 Clouds 32 1003 35 10000 9.3 340 23:29 22.01.2020
4187 Clouds 30 1003 40 10000 7.7 330 22:59 22.01.2020
4188 Clouds 28 1002 45 10000 4.1 320 22:40 22.01.2020
4189 Clouds 27 1002 45 10000 4.1 320 22:22 22.01.2020
4190 Clouds 26 1003 50 10000 9.3 330 21:40 22.01.2020
4191 Clouds 24 1003 50 10000 9.3 330 21:22 22.01.2020
4192 Clouds 24 1003 57 10000 9.3 330 20:57 22.01.2020
4193 Clouds 23 1003 64 10000 2.6 350 20:38 22.01.2020
4194 Clouds 23 1003 64 10000 2.6 350 20:38 22.01.2020
4195 Clear 22 1003 64 10000 2.6 350 20:20 22.01.2020
4196 Clear 21 1003 60 10000 3.6 330 19:56 22.01.2020
4197 Clear 20 1003 64 10000 2.6 330 19:38 22.01.2020
4198 Clear 20 1003 64 10000 2.6 330 19:18 22.01.2020
4199 Clear 20 1003 73 10000 1.5 10 18:56 22.01.2020
4200 Clear 20 1003 73 10000 1.5 20 18:38 22.01.2020
4201 Clear 21 1003 73 10000 2.6 30 18:19 22.01.2020
4202 Clear 21 1003 73 10000 2.6 30 18:19 22.01.2020
4203 Clear 20 1003 73 10000 2.6 30 17:54 22.01.2020
4204 Clear 21 1003 69 10000 1.89 311 17:36 22.01.2020
4205 Clear 21 1004 64 10000 2.02 325 17:18 22.01.2020
4206 Clear 22 1004 73 10000 2.02 325 16:42 22.01.2020
4207 Clear 22 1004 73 10000 2.02 325 16:22 22.01.2020
4208 Clear 23 1005 57 10000 2.02 325 15:58 22.01.2020
4209 Clear 23 1005 65 10000 2.02 325 15:38 22.01.2020
4210 Clear 23 1005 65 10000 2.02 325 15:20 22.01.2020
4211 Clear 24 1006 57 10000 2.02 325 14:40 22.01.2020
4212 Clear 24 1006 57 10000 2.63 16 14:21 22.01.2020
4213 Clear 25 1006 61 10000 2.63 16 13:59 22.01.2020
4214 Clear 25 1006 65 10000 1.5 40 13:38 22.01.2020
4215 Clear 25 1006 65 10000 1.5 40 13:20 22.01.2020
4216 Clear 26 1006 74 10000 4.6 10 12:58 22.01.2020
4217 Clear 26 1006 74 10000 6.2 20 12:40 22.01.2020
4218 Clear 26 1006 74 10000 6.2 20 12:20 22.01.2020
4219 Clear 26 1005 78 10000 7.2 30 11:58 22.01.2020
4220 Clouds 27 1005 78 10000 8.7 30 11:40 22.01.2020
4221 Clouds 27 1005 78 10000 8.7 30 11:19 22.01.2020
4222 Clouds 27 1005 78 10000 8.7 30 11:19 22.01.2020
4223 Clouds 27 1005 78 10000 8.7 30 10:59 22.01.2020
4224 Clouds 27 1005 74 10000 8.7 30 10:41 22.01.2020
4225 Clouds 27 1005 74 10000 8.7 30 10:18 22.01.2020
4226 Clear 28 1005 62 10000 7.7 40 09:42 22.01.2020
4227 Clear 29 1005 62 10000 7.7 40 09:24 22.01.2020
4228 Clouds 29 1004 58 10000 8.2 50 08:57 22.01.2020
4229 Clouds 30 1004 58 10000 10.3 40 08:39 22.01.2020
4230 Clouds 30 1004 58 10000 10.3 40 08:20 22.01.2020
4231 Clear 30 1005 62 10000 9.8 50 07:46 22.01.2020
4232 Clear 30 1005 58 10000 10.3 50 07:28 22.01.2020
4233 Clear 30 1006 58 10000 10.8 60 06:46 22.01.2020
4234 Clear 31 1006 58 10000 10.8 60 06:26 22.01.2020
4235 Clouds 32 1007 52 10000 10.3 50 05:26 22.01.2020
4236 Clouds 31 1009 58 10000 7.2 50 03:30 22.01.2020
4237 Clouds 31 1009 55 10000 7.7 60 02:57 22.01.2020
4238 Clear 30 1010 54 10000 3.6 20 01:42 22.01.2020
4239 Clouds 28 1011 58 10000 3.6 10 00:44 22.01.2020
4240 Clouds 27 1011 58 10000 3.6 10 00:26 22.01.2020
4241 Clouds 26 1011 61 10000 2.1 300 23:38 21.01.2020
4242 Clouds 25 1011 61 10000 2.1 300 23:20 21.01.2020
4243 Clear 24 1011 69 10000 2.1 290 22:56 21.01.2020
4244 Clear 23 1011 65 10000 2.1 310 22:37 21.01.2020
4245 Clear 22 1011 73 10000 0.5 310 22:19 21.01.2020
4246 Clear 21 1011 94 10000 1.9 302 21:55 21.01.2020
4247 Clear 20 1011 100 10000 1.9 302 21:37 21.01.2020
4248 Clear 20 1011 100 10000 1.9 302 21:18 21.01.2020
4249 Clear 19 1010 93 10000 1.9 302 20:55 21.01.2020
4250 Clear 19 1010 93 10000 1.9 302 20:37 21.01.2020
4251 Clear 18 1010 93 10000 1.42 257 20:18 21.01.2020
4252 Clear 18 1010 93 10000 1.42 257 19:55 21.01.2020
4253 Clouds 19 1010 88 10000 1.42 257 19:36 21.01.2020
4254 Clouds 19 1010 88 10000 1.42 257 19:18 21.01.2020
4255 Clouds 19 1010 88 10000 1.42 257 18:54 21.01.2020
4256 Clouds 19 1010 83 10000 1.42 257 18:36 21.01.2020
4257 Clouds 19 1010 88 10000 1.42 257 18:18 21.01.2020
4258 Clear 19 1010 88 10000 1.42 257 17:42 21.01.2020
4259 Clear 19 1010 88 10000 0.41 292 17:19 21.01.2020
4260 Clear 20 1010 82 10000 1.5 250 16:57 21.01.2020
4261 Clouds 20 1010 78 10000 0.41 292 16:36 21.01.2020
4262 Clouds 20 1010 78 10000 0.41 292 16:18 21.01.2020
4263 Clear 20 1011 83 10000 0.41 292 15:40 21.01.2020
4264 Clear 20 1011 82 10000 0.41 292 15:20 21.01.2020
4265 Clear 20 1011 82 10000 0.41 292 14:57 21.01.2020
4266 Clear 21 1011 82 10000 1.5 230 14:37 21.01.2020
4267 Clouds 21 1011 77 10000 0.5 270 14:18 21.01.2020
4268 Clear 21 1011 73 10000 0.5 70 13:39 21.01.2020
4269 Clear 22 1011 69 10000 2.1 80 13:18 21.01.2020
4270 Clear 22 1010 69 10000 1.27 92 12:43 21.01.2020
4271 Clear 23 1010 69 10000 1.27 92 12:25 21.01.2020
4272 Clear 23 1010 69 10000 2.6 140 11:57 21.01.2020
4273 Clear 23 1009 69 10000 2.6 110 11:38 21.01.2020
4274 Clear 23 1009 69 10000 2.6 110 11:19 21.01.2020
4275 Clear 24 1009 65 10000 5.1 100 10:44 21.01.2020
4276 Clear 24 1009 65 10000 5.1 100 10:23 21.01.2020
4277 Clear 25 1008 61 10000 5.1 80 09:58 21.01.2020
4278 Clear 25 1007 54 10000 7.2 100 09:40 21.01.2020
4279 Clear 25 1007 54 10000 7.7 100 09:21 21.01.2020
4280 Clear 26 1007 54 10000 7.7 100 08:47 21.01.2020
4281 Clear 26 1007 47 10000 7.7 100 08:27 21.01.2020
4282 Clouds 27 1006 47 10000 7.2 110 07:57 21.01.2020
4283 Clouds 27 1006 42 10000 7.2 100 07:38 21.01.2020
4284 Clouds 28 1006 42 10000 7.2 100 07:19 21.01.2020
4285 Clouds 28 1006 42 10000 7.2 80 06:45 21.01.2020
4286 Clouds 29 1006 37 10000 7.2 80 06:23 21.01.2020
4287 Clouds 29 1006 39 10000 7.2 80 05:41 21.01.2020
4288 Clear 31 1006 37 10000 7.2 80 04:39 21.01.2020
4289 Clear 30 1006 29 10000 3.6 210 02:54 21.01.2020
4290 Clouds 29 1007 39 10000 6.7 220 01:47 21.01.2020
4291 Clear 28 1007 39 10000 5.1 260 00:54 21.01.2020
4292 Clear 27 1007 42 10000 3.6 240 00:32 21.01.2020
4293 Clear 26 1007 50 10000 3.6 230 23:57 20.01.2020
4294 Clear 26 1007 47 10000 4.1 270 23:37 20.01.2020
4295 Clear 25 1006 47 10000 4.6 300 23:18 20.01.2020
4296 Clear 24 1006 47 10000 4.6 300 22:56 20.01.2020
4297 Clear 24 1006 57 10000 4.6 320 22:37 20.01.2020
4298 Clear 23 1006 57 10000 4.6 320 22:18 20.01.2020
4299 Clear 21 1005 64 10000 3.6 330 21:57 20.01.2020
4300 Clear 21 1005 77 10000 2.1 320 21:36 20.01.2020
4301 Clear 20 1005 83 10000 2.1 310 21:18 20.01.2020
4302 Clear 19 1005 83 10000 2.1 310 20:55 20.01.2020
4303 Clear 18 1004 82 10000 2.59 299 20:36 20.01.2020
4304 Clear 18 1004 82 10000 1.97 287 20:18 20.01.2020
4305 Clear 18 1004 82 10000 1.97 287 19:56 20.01.2020
4306 Clear 18 1004 88 10000 1.97 287 19:37 20.01.2020
4307 Clear 18 1004 88 10000 1.97 287 19:18 20.01.2020
4308 Clear 19 1003 83 10000 1.97 287 18:42 20.01.2020
4309 Clear 19 1003 83 10000 1.97 287 18:21 20.01.2020
4310 Clear 19 1003 88 10000 1.97 287 17:40 20.01.2020
4311 Clear 19 1003 83 10000 2.05 278 17:19 20.01.2020
4312 Clear 19 1003 83 10000 2.05 278 16:58 20.01.2020
4313 Clear 19 1003 88 10000 2.05 278 16:37 20.01.2020
4314 Clear 19 1003 88 10000 2.05 278 16:18 20.01.2020
4315 Clear 19 1003 88 10000 2.05 278 16:18 20.01.2020
4316 Clear 19 1003 88 10000 2.05 278 16:18 20.01.2020
4317 Clear 19 1003 88 10000 2.05 278 15:54 20.01.2020
4318 Clear 19 1004 100 10000 2.1 20 15:36 20.01.2020
4319 Clear 19 1004 88 10000 2.05 278 15:18 20.01.2020
4320 Clear 19 1004 88 10000 0.5 230 14:41 20.01.2020
4321 Rain 20 1004 88 10000 1.06 230 14:22 20.01.2020
4322 Rain 20 1004 88 10000 0.5 290 13:58 20.01.2020
4323 Rain 21 1004 88 10000 0.5 300 13:40 20.01.2020
4324 Rain 21 1004 88 10000 0.5 300 13:21 20.01.2020
4325 Clouds 21 1003 88 9000 0.5 300 12:46 20.01.2020
4326 Clouds 22 1003 88 9000 4.18 250 12:27 20.01.2020
4327 Clouds 22 1003 88 9000 4.18 250 11:57 20.01.2020
4328 Clouds 22 1002 94 10000 2.1 140 11:38 20.01.2020
4329 Clouds 23 1001 88 10000 2.6 140 11:19 20.01.2020
4330 Clouds 23 1001 88 10000 2.6 140 10:48 20.01.2020
4331 Clouds 24 1001 83 10000 4.1 160 10:22 20.01.2020
4332 Clouds 24 1001 83 10000 4.1 160 10:22 20.01.2020
4333 Thunderstorm 24 1000 83 10000 5.1 200 09:57 20.01.2020
4334 Thunderstorm 24 1001 78 10000 4.6 160 09:38 20.01.2020
4335 Thunderstorm 24 1000 83 10000 6.7 180 09:19 20.01.2020
4336 Thunderstorm 25 1000 73 10000 8.7 210 08:43 20.01.2020
4337 Thunderstorm 25 1000 73 10000 8.7 210 08:25 20.01.2020
4338 Thunderstorm 26 1000 73 10000 9.3 190 07:43 20.01.2020
4339 Thunderstorm 26 1000 73 10000 9.3 190 07:24 20.01.2020
4340 Thunderstorm 28 999 74 10000 7.7 50 06:46 20.01.2020
4341 Thunderstorm 28 999 74 10000 7.7 50 06:26 20.01.2020
4342 Thunderstorm 28 998 69 10000 9.3 50 05:42 20.01.2020
4343 Thunderstorm 28 999 69 10000 8.7 60 05:21 20.01.2020
4344 Clouds 28 1000 61 10000 8.7 70 04:42 20.01.2020
4345 Clouds 29 1001 61 10000 6.7 80 02:57 20.01.2020
4346 Clouds 29 1001 61 10000 6.7 80 02:57 20.01.2020
4347 Rain 28 1003 61 10000 5.1 60 01:54 20.01.2020
4348 Rain 27 1003 61 10000 5.1 60 01:35 20.01.2020
4349 Rain 26 1004 69 10000 5.1 60 00:44 20.01.2020
4350 Rain 26 1004 69 10000 5.1 60 00:23 20.01.2020
4351 Rain 25 1004 83 10000 4.1 50 23:39 19.01.2020
4352 Rain 24 1004 83 10000 4.1 50 23:20 19.01.2020
4353 Rain 24 1004 83 10000 4.1 50 23:20 19.01.2020
4354 Clouds 23 1004 78 10000 4.1 50 22:56 19.01.2020
4355 Clouds 23 1004 88 10000 4.1 50 22:38 19.01.2020
4356 Clouds 22 1004 88 10000 4.1 50 22:20 19.01.2020
4357 Clouds 21 1003 88 10000 4.1 50 21:56 19.01.2020
4358 Clouds 21 1003 94 10000 4.1 50 21:38 19.01.2020
4359 Clouds 20 1003 94 10000 0.76 279 21:20 19.01.2020
4360 Clouds 20 1003 94 10000 0.76 279 20:57 19.01.2020
4361 Clouds 20 1003 94 10000 3.6 190 20:39 19.01.2020
4362 Clouds 20 1003 94 10000 3.6 190 20:20 19.01.2020
4363 Clouds 20 1002 94 10000 0.94 249 19:57 19.01.2020
4364 Clouds 20 1002 88 10000 0.5 70 19:39 19.01.2020
4365 Clouds 20 1002 88 10000 0.5 70 19:20 19.01.2020
4366 Clouds 20 1002 100 0 2.6 10 18:57 19.01.2020
4367 Clouds 20 1002 94 0 2.1 40 18:38 19.01.2020
4368 Clouds 20 1002 94 0 2.1 40 18:20 19.01.2020
4369 Clouds 20 1003 94 0 0.5 50 17:58 19.01.2020
4370 Clouds 20 1003 94 0 0.5 50 17:58 19.01.2020
4371 Clouds 20 1003 94 0 2.1 230 17:40 19.01.2020
4372 Clouds 20 1003 94 0 2.1 230 17:21 19.01.2020
4373 Clouds 21 1003 88 10000 1.04 271 16:59 19.01.2020
4374 Clouds 21 1003 88 10000 1.04 271 16:40 19.01.2020
4375 Clouds 21 1003 88 10000 1.04 271 16:21 19.01.2020
4376 Clouds 21 1004 100 0 3.1 50 15:59 19.01.2020
4377 Clouds 21 1004 88 10000 1.04 271 15:39 19.01.2020
4378 Clouds 21 1004 88 10000 1.04 271 15:20 19.01.2020
4379 Clouds 21 1005 88 10000 1.04 271 14:59 19.01.2020
4380 Clouds 21 1005 88 10000 2.6 280 14:39 19.01.2020
4381 Clouds 21 1005 88 10000 2.6 270 14:18 19.01.2020
4382 Clouds 21 1005 88 10000 2.6 270 13:58 19.01.2020
4383 Clouds 21 1005 88 10000 2.1 250 13:38 19.01.2020
4384 Clouds 21 1005 88 10000 2.6 260 13:20 19.01.2020
4385 Clouds 21 1005 88 10000 2.6 260 12:56 19.01.2020
4386 Clouds 21 1004 88 10000 0.5 230 12:37 19.01.2020
4387 Clouds 22 1004 88 10000 0.5 230 12:19 19.01.2020
4388 Clouds 22 1004 88 10000 0.68 44 11:43 19.01.2020
4389 Clouds 22 1004 88 10000 1.95 87 11:21 19.01.2020
4390 Clouds 22 1004 88 10000 2.1 170 10:57 19.01.2020
4391 Clouds 22 1004 88 10000 3.1 170 10:39 19.01.2020
4392 Clouds 23 1004 88 10000 3.1 170 10:19 19.01.2020
4393 Clouds 23 1004 83 10000 3.6 150 09:56 19.01.2020
4394 Clouds 23 1004 83 10000 3.6 150 09:56 19.01.2020
4395 Clouds 23 1004 83 10000 3.6 150 09:56 19.01.2020
4396 Clouds 23 1004 83 10000 4.1 180 09:37 19.01.2020
4397 Clouds 23 1004 83 10000 4.1 180 09:19 19.01.2020
4398 Rain 24 1004 83 10000 4.1 170 08:54 19.01.2020
4399 Rain 24 1004 83 10000 4.6 170 08:30 19.01.2020
4400 Rain 24 1004 83 10000 6.2 160 07:49 19.01.2020
4401 Clouds 24 1005 78 10000 5.7 180 07:28 19.01.2020
4402 Rain 24 1005 78 10000 6.2 160 06:54 19.01.2020
4403 Rain 23 1005 78 10000 6.2 160 06:21 19.01.2020
4404 Clouds 23 1007 78 10000 8.2 180 03:52 19.01.2020
4405 Clouds 23 1008 78 10000 6.7 180 02:32 19.01.2020
4406 Clouds 23 1008 83 10000 6.7 180 01:39 19.01.2020
4407 Clouds 22 1008 83 10000 6.7 180 01:18 19.01.2020
4408 Rain 22 1008 88 10000 5.1 150 00:44 19.01.2020
4409 Rain 22 1008 88 10000 5.1 150 00:20 19.01.2020
4410 Rain 20 1008 88 10000 5.1 150 23:47 18.01.2020
4411 Rain 20 1008 88 10000 5.1 150 23:25 18.01.2020
4412 Rain 20 1009 94 10000 5.1 150 22:59 18.01.2020
4413 Clouds 19 1008 88 10000 2.1 270 22:41 18.01.2020
4414 Clouds 19 1008 88 10000 2.1 270 22:21 18.01.2020
4415 Clouds 19 1008 88 10000 1.78 169 21:58 18.01.2020
4416 Clouds 19 1008 94 10000 0.5 310 21:39 18.01.2020
4417 Clouds 19 1008 94 10000 0.5 310 21:20 18.01.2020
4418 Rain 18 1008 93 10000 1.5 250 20:57 18.01.2020
4419 Rain 18 1008 88 10000 3.6 250 20:39 18.01.2020
4420 Rain 18 1008 88 10000 3.6 250 20:19 18.01.2020
4421 Rain 18 1008 93 10000 0.65 222 19:43 18.01.2020
4422 Rain 18 1008 93 10000 0.65 222 19:24 18.01.2020
4423 Drizzle 19 1008 93 10000 0.65 222 18:43 18.01.2020
4424 Drizzle 19 1008 93 10000 0.65 222 18:25 18.01.2020
4425 Drizzle 19 1008 93 10000 0.65 222 17:59 18.01.2020
4426 Drizzle 19 1008 93 10000 0.65 222 17:40 18.01.2020
4427 Drizzle 19 1008 88 10000 2.6 270 17:21 18.01.2020
4428 Drizzle 19 1008 88 10000 2.6 270 16:57 18.01.2020
4429 Rain 19 1009 91 0 1.34 257 16:38 18.01.2020
4430 Rain 19 1009 91 0 0.89 267 16:19 18.01.2020
4431 Drizzle 19 1008 88 10000 0.85 225 16:19 18.01.2020
4432 Drizzle 19 1009 88 10000 0.85 225 15:47 18.01.2020
4433 Drizzle 19 1009 88 10000 0.85 225 15:26 18.01.2020
4434 Drizzle 19 1009 88 10000 0.85 225 15:26 18.01.2020
4435 Rain 19 1009 88 10000 0.85 225 15:00 18.01.2020
4436 Rain 19 1009 82 10000 0.85 225 14:41 18.01.2020
4437 Drizzle 19 1009 82 10000 0.73 324 14:19 18.01.2020
4438 Drizzle 19 1009 82 10000 0.73 324 13:57 18.01.2020
4439 Rain 19 1010 82 10000 3.02 200 13:36 18.01.2020
4440 Rain 19 1010 82 10000 3.02 200 13:18 18.01.2020
4441 Drizzle 20 1010 77 9000 1.5 220 12:43 18.01.2020
4442 Drizzle 20 1010 77 9000 1.5 220 12:22 18.01.2020
4443 Rain 20 1010 77 10000 1.5 220 11:58 18.01.2020
4444 Rain 20 1009 77 10000 1.5 230 11:40 18.01.2020
4445 Rain 20 1009 83 10000 4.6 220 11:20 18.01.2020
4446 Rain 20 1008 77 10000 4.6 230 10:43 18.01.2020
4447 Rain 21 1008 77 10000 4.6 230 10:21 18.01.2020
4448 Rain 21 1008 77 10000 7.2 210 09:56 18.01.2020
4449 Rain 21 1008 83 10000 8.2 210 09:38 18.01.2020
4450 Rain 21 1008 83 10000 8.2 210 09:19 18.01.2020
4451 Rain 22 1008 78 10000 7.2 200 08:42 18.01.2020
4452 Rain 22 1008 78 10000 7.2 200 08:20 18.01.2020
4453 Rain 22 1008 78 10000 7.2 200 08:20 18.01.2020
4454 Rain 22 1008 78 10000 8.2 200 07:58 18.01.2020
4455 Rain 22 1008 78 10000 7.7 210 07:37 18.01.2020
4456 Rain 22 1008 78 10000 8.2 210 06:52 18.01.2020
4457 Rain 22 1008 83 10000 9.8 200 06:33 18.01.2020
4458 Rain 22 1009 83 10000 8.7 210 05:52 18.01.2020
4459 Rain 21 1009 88 10000 8.2 210 04:25 18.01.2020
4460 Rain 21 1009 94 9000 11.3 210 02:38 18.01.2020
4461 Drizzle 21 1009 88 10000 12.9 210 01:40 18.01.2020
4462 Rain 21 1009 88 10000 11.8 210 00:39 18.01.2020
4463 Rain 21 1009 88 10000 11.8 210 00:20 18.01.2020
4464 Rain 21 1009 88 9000 12.3 200 23:58 17.01.2020
4465 Rain 21 1009 83 10000 11.8 200 23:39 17.01.2020
4466 Rain 21 1009 83 10000 10.3 210 23:18 17.01.2020
4467 Rain 21 1008 88 10000 9.3 210 22:42 17.01.2020
4468 Rain 21 1008 88 10000 9.3 210 22:20 17.01.2020
4469 Rain 21 1008 88 10000 9.3 210 22:20 17.01.2020
4470 Clouds 20 1009 83 10000 4.1 210 21:56 17.01.2020
4471 Rain 20 1008 88 9000 10.3 200 21:38 17.01.2020
4472 Rain 20 1008 88 9000 9.8 200 21:20 17.01.2020
4473 Rain 20 1008 88 9000 9.8 200 20:55 17.01.2020
4474 Rain 20 1007 88 9000 9.8 200 20:36 17.01.2020
4475 Rain 20 1007 88 9000 9.8 200 20:18 17.01.2020
4476 Rain 20 1007 88 9000 9.8 200 19:54 17.01.2020
4477 Rain 20 1007 88 9000 9.8 210 19:36 17.01.2020
4478 Rain 20 1007 88 9000 9.3 200 19:18 17.01.2020
4479 Rain 20 1008 94 9000 8.2 200 18:41 17.01.2020
4480 Rain 20 1008 94 9000 8.2 200 18:23 17.01.2020
4481 Clouds 20 1008 94 10000 3.6 220 17:56 17.01.2020
4482 Clouds 20 1008 88 10000 3.1 210 17:38 17.01.2020
4483 Clouds 20 1009 88 10000 3.6 210 17:19 17.01.2020
4484 Clouds 20 1009 88 10000 2.6 210 16:41 17.01.2020
4485 Clouds 20 1009 88 10000 2.6 210 16:20 17.01.2020
4486 Clouds 20 1010 88 10000 3.1 220 15:48 17.01.2020
4487 Clouds 20 1010 88 10000 3.1 220 15:27 17.01.2020
4488 Rain 20 1009 94 10000 4.6 200 14:56 17.01.2020
4489 Clouds 20 1010 88 10000 5.7 200 14:37 17.01.2020
4490 Clouds 20 1010 88 10000 5.7 200 14:19 17.01.2020
4491 Clouds 20 1010 88 10000 7.7 200 13:39 17.01.2020
4492 Rain 20 1010 88 10000 8.2 190 13:21 17.01.2020
4493 Rain 20 1010 88 10000 8.2 190 13:21 17.01.2020
4494 Rain 20 1010 83 10000 7.7 190 12:45 17.01.2020
4495 Rain 20 1010 83 10000 7.7 190 12:23 17.01.2020
4496 Rain 20 1010 88 10000 8.2 190 11:41 17.01.2020
4497 Rain 20 1010 88 10000 8.2 190 11:20 17.01.2020
4498 Rain 20 1010 88 10000 7.7 190 10:55 17.01.2020
4499 Rain 20 1010 88 10000 7.7 190 10:36 17.01.2020
4500 Rain 20 1010 94 8000 7.2 190 10:18 17.01.2020
4501 Rain 21 1009 88 10000 8.7 190 09:42 17.01.2020
4502 Rain 21 1008 88 10000 9.8 190 09:21 17.01.2020
4503 Rain 21 1008 88 10000 9.8 190 08:56 17.01.2020
4504 Rain 21 1008 88 10000 11.8 200 08:38 17.01.2020
4505 Rain 21 1008 83 9000 10.3 190 08:19 17.01.2020
4506 Rain 21 1008 83 9000 11.3 190 07:43 17.01.2020
4507 Rain 21 1008 83 9000 11.3 190 07:25 17.01.2020
4508 Rain 21 1008 83 8000 10.8 190 06:51 17.01.2020
4509 Rain 21 1008 83 8000 10.8 190 06:30 17.01.2020
4510 Rain 20 1001 92 0 0.89 221 04:32 17.01.2020
4511 Rain 19 1002 91 0 2.24 223 03:19 17.01.2020
4512 Rain 19 1002 90 0 0.45 206 02:39 17.01.2020
4513 Rain 19 1002 92 0 0.89 205 01:44 17.01.2020
4514 Rain 19 1002 92 0 0.89 206 01:25 17.01.2020
4515 Rain 19 1002 92 0 0.89 240 00:40 17.01.2020
4516 Rain 18 1008 100 8000 10.3 200 00:19 17.01.2020
4517 Rain 18 1008 100 8000 10.3 200 23:41 16.01.2020
4518 Rain 19 1008 100 8000 10.3 200 23:22 16.01.2020
4519 Rain 19 1008 93 7000 8.7 200 22:42 16.01.2020
4520 Rain 19 1008 93 1500 11.8 210 22:22 16.01.2020
4521 Rain 19 1008 93 7000 8.7 200 22:22 16.01.2020
4522 Rain 19 1008 93 1500 11.8 210 21:57 16.01.2020
4523 Rain 20 1008 94 3000 10.8 200 21:38 16.01.2020
4524 Rain 20 1008 94 3000 10.8 200 21:38 16.01.2020
4525 Rain 20 1008 94 3000 10.8 200 21:19 16.01.2020
4526 Rain 20 1007 94 7000 7.7 200 20:58 16.01.2020
4527 Rain 20 1007 94 5000 9.8 200 20:39 16.01.2020
4528 Rain 20 1007 94 5000 9.8 200 20:19 16.01.2020
4529 Rain 21 1006 94 5000 10.8 200 19:56 16.01.2020
4530 Clouds 21 1006 88 10000 11.3 190 19:38 16.01.2020
4531 Clouds 21 1006 88 10000 11.3 190 19:38 16.01.2020
4532 Clouds 21 1006 88 10000 11.3 190 19:19 16.01.2020
4533 Rain 21 1006 94 7000 9.8 180 18:55 16.01.2020
4534 Rain 21 1006 94 7000 9.8 180 18:37 16.01.2020
4535 Rain 21 1006 94 7000 9.8 180 18:18 16.01.2020
4536 Clouds 21 1006 88 8000 9.8 180 17:55 16.01.2020
4537 Clouds 21 1006 88 10000 8.7 190 17:37 16.01.2020
4538 Clouds 21 1007 100 10000 2.6 260 17:18 16.01.2020
4539 Mist 21 1007 94 4600 7.2 200 16:40 16.01.2020
4540 Mist 20 1007 94 4600 7.2 200 16:21 16.01.2020
4541 Clouds 20 1007 100 10000 1.5 100 15:55 16.01.2020
4542 Clouds 20 1006 100 10000 1.5 70 15:37 16.01.2020
4543 Clouds 20 1007 88 10000 4.47 169 15:18 16.01.2020
4544 Clouds 20 1007 88 10000 1.5 280 14:41 16.01.2020
4545 Clouds 20 1007 88 10000 1.5 280 14:23 16.01.2020
4546 Rain 20 1008 88 10000 4.1 280 13:46 16.01.2020
4547 Rain 20 1008 88 10000 4.1 280 13:28 16.01.2020
4548 Rain 20 1008 88 10000 4.1 310 12:57 16.01.2020
4549 Rain 20 1008 88 10000 1 340 12:39 16.01.2020
4550 Rain 21 1008 88 10000 1 340 12:20 16.01.2020
4551 Rain 20 1008 94 10000 7.2 180 11:42 16.01.2020
4552 Rain 20 1008 94 10000 7.2 180 11:42 16.01.2020
4553 Rain 21 1008 94 10000 7.2 180 11:24 16.01.2020
4554 Rain 21 1008 94 6000 2.6 180 10:56 16.01.2020
4555 Rain 21 1008 88 6000 4.6 200 10:37 16.01.2020
4556 Rain 22 1007 83 10000 7.7 180 10:19 16.01.2020
4557 Thunderstorm 22 1006 83 10000 7.7 180 09:43 16.01.2020
4558 Thunderstorm 22 1006 83 10000 7.7 180 09:24 16.01.2020
4559 Rain 23 1006 83 10000 5.1 70 08:59 16.01.2020
4560 Clouds 25 1005 78 10000 7.7 190 08:41 16.01.2020
4561 Clouds 27 1005 78 10000 7.7 190 08:20 16.01.2020
4562 Rain 28 1004 61 10000 10.3 200 07:43 16.01.2020
4563 Rain 28 1004 61 10000 10.3 200 07:24 16.01.2020
4564 Rain 28 1004 61 10000 10.3 200 06:55 16.01.2020
4565 Rain 28 1004 61 10000 4.6 40 06:35 16.01.2020
4566 Rain 28 1005 61 10000 4.6 40 05:56 16.01.2020
4567 Rain 27 1005 69 10000 4.1 30 05:25 16.01.2020
4568 Clouds 25 1005 78 10000 3.6 10 04:23 16.01.2020
4569 Rain 24 1006 78 10000 2.6 320 03:27 16.01.2020
4570 Rain 23 1007 83 10000 3.6 330 02:23 16.01.2020
4571 Rain 23 1007 83 9000 3.6 320 00:44 16.01.2020
4572 Rain 22 1007 88 8000 2.91 331 00:23 16.01.2020
4573 Rain 22 1007 88 8000 2.91 331 23:46 15.01.2020
4574 Rain 22 1007 88 9000 2.91 331 23:46 15.01.2020
4575 Rain 22 1007 88 9000 1.13 245 23:22 15.01.2020
4576 Thunderstorm 22 1008 88 8000 1.13 245 22:57 15.01.2020
4577 Thunderstorm 21 1008 88 6000 3.1 270 22:39 15.01.2020
4578 Thunderstorm 21 1008 88 6000 3.1 270 22:19 15.01.2020
4579 Thunderstorm 21 1008 83 10000 7.2 240 21:57 15.01.2020
4580 Thunderstorm 22 1008 83 10000 5.1 240 21:37 15.01.2020
4581 Clouds 22 1007 88 10000 4.1 260 21:19 15.01.2020
4582 Clouds 22 1007 88 10000 4.1 260 20:56 15.01.2020
4583 Clouds 22 1007 88 10000 1.13 245 20:38 15.01.2020
4584 Clouds 22 1006 88 10000 1.31 75 20:19 15.01.2020
4585 Clouds 22 1006 88 10000 1.31 75 19:54 15.01.2020
4586 Clouds 22 1006 88 10000 1.31 75 19:36 15.01.2020
4587 Clouds 22 1006 88 10000 1.31 75 19:18 15.01.2020
4588 Clouds 21 1006 88 10000 1.31 75 18:56 15.01.2020
4589 Clouds 22 1006 88 10000 1.31 75 18:37 15.01.2020
4590 Clouds 21 1006 88 10000 1.31 75 18:19 15.01.2020
4591 Clouds 21 1006 88 10000 1.31 75 18:19 15.01.2020
4592 Clouds 21 1006 88 10000 1.31 75 18:19 15.01.2020
4593 Clouds 22 1006 88 10000 1.31 75 17:56 15.01.2020
4594 Clouds 21 1006 88 10000 1 60 17:37 15.01.2020
4595 Clouds 22 1006 88 10000 1 60 17:18 15.01.2020
4596 Clouds 22 1007 88 10000 2.1 50 16:40 15.01.2020
4597 Clouds 22 1007 88 10000 2.1 50 16:22 15.01.2020
4598 Clouds 22 1007 88 10000 2.6 30 15:57 15.01.2020
4599 Clouds 22 1007 88 10000 0.98 46 15:39 15.01.2020
4600 Clouds 22 1007 88 10000 0.98 46 15:19 15.01.2020
4601 Clouds 22 1008 83 10000 4.6 20 14:43 15.01.2020
4602 Clouds 23 1008 83 10000 4.6 20 14:20 15.01.2020
4603 Clouds 23 1008 83 10000 1.5 210 13:46 15.01.2020
4604 Clouds 23 1008 83 10000 1.5 210 13:27 15.01.2020
4605 Clouds 23 1008 78 10000 0.5 140 12:59 15.01.2020
4606 Clouds 23 1008 78 10000 3.6 20 12:40 15.01.2020
4607 Clouds 24 1008 78 10000 3.6 20 12:20 15.01.2020
4608 Clouds 24 1008 78 10000 3.6 20 11:58 15.01.2020
4609 Clouds 24 1008 78 10000 3.6 20 11:38 15.01.2020
4610 Clouds 24 1008 78 10000 3.6 20 11:19 15.01.2020
4611 Clouds 25 1008 74 10000 7.7 30 10:46 15.01.2020
4612 Clouds 25 1008 74 10000 7.7 30 10:28 15.01.2020
4613 Clouds 25 1008 74 10000 7.2 30 09:54 15.01.2020
4614 Clouds 25 1008 74 10000 7.2 30 09:36 15.01.2020
4615 Clouds 25 1008 69 10000 8.2 50 09:18 15.01.2020
4616 Clouds 26 1008 65 10000 8.2 60 08:41 15.01.2020
4617 Clouds 26 1009 65 10000 8.2 60 08:23 15.01.2020
4618 Clouds 26 1009 65 10000 8.2 60 07:54 15.01.2020
4619 Clouds 26 1009 61 10000 8.7 70 07:32 15.01.2020
4620 Clouds 27 1010 61 10000 8.2 60 06:48 15.01.2020
4621 Clouds 27 1010 57 10000 8.2 60 06:23 15.01.2020
4622 Clouds 28 1011 51 10000 7.7 70 04:46 15.01.2020
4623 Clouds 27 1012 51 10000 5.7 110 02:40 15.01.2020
4624 Clouds 26 1013 54 10000 3.6 120 01:43 15.01.2020
4625 Clouds 26 1013 54 10000 3.6 120 01:20 15.01.2020
4626 Clouds 25 1014 50 10000 0.5 180 00:37 15.01.2020
4627 Clouds 24 1014 57 10000 1.97 24 00:19 15.01.2020
4628 Clouds 24 1014 64 10000 0.5 270 23:46 14.01.2020
4629 Clouds 23 1014 64 10000 0.5 270 23:24 14.01.2020
4630 Clouds 21 1015 88 10000 1.5 10 22:56 14.01.2020
4631 Clouds 21 1014 78 10000 1.08 263 22:38 14.01.2020
4632 Clouds 20 1014 77 10000 1.08 263 22:18 14.01.2020
4633 Clouds 19 1014 77 10000 1.08 263 21:55 14.01.2020
4634 Clouds 18 1014 88 10000 1.08 263 21:37 14.01.2020
4635 Clouds 18 1014 100 10000 1.08 263 21:19 14.01.2020
4636 Clouds 17 1014 100 10000 1.08 263 20:42 14.01.2020
4637 Clouds 17 1014 100 10000 1.08 263 20:42 14.01.2020
4638 Clouds 17 1014 100 10000 0.95 209 20:22 14.01.2020
4639 Clouds 17 1014 100 10000 0.95 209 19:57 14.01.2020
4640 Clouds 17 1014 100 10000 0.95 209 19:38 14.01.2020
4641 Clouds 17 1014 100 10000 0.95 209 19:20 14.01.2020
4642 Clouds 17 1014 93 10000 0.95 209 18:59 14.01.2020
4643 Clouds 17 1014 93 10000 0.95 209 18:40 14.01.2020
4644 Clouds 17 1014 93 10000 0.95 209 18:19 14.01.2020
4645 Clouds 17 1014 93 10000 0.95 209 18:19 14.01.2020
4646 Clouds 18 1014 93 10000 0.95 209 17:39 14.01.2020
4647 Clouds 18 1014 88 10000 1.16 220 17:20 14.01.2020
4648 Clouds 18 1014 88 10000 1.16 220 16:59 14.01.2020
4649 Clouds 18 1015 83 10000 1.16 220 16:41 14.01.2020
4650 Clouds 18 1015 83 10000 1.16 220 16:21 14.01.2020
4651 Clouds 18 1015 88 10000 1.16 220 15:56 14.01.2020
4652 Clouds 19 1015 83 10000 1.16 220 15:38 14.01.2020
4653 Clouds 19 1015 83 10000 1.16 220 15:18 14.01.2020
4654 Clouds 20 1016 78 10000 1.16 220 14:43 14.01.2020
4655 Clouds 19 1016 78 10000 1.46 126 14:20 14.01.2020
4656 Clouds 20 1016 78 10000 1.46 126 13:54 14.01.2020
4657 Clouds 20 1016 73 10000 1.46 126 13:36 14.01.2020
4658 Clouds 21 1017 73 10000 1.37 141 13:18 14.01.2020
4659 Clouds 21 1017 78 10000 2.6 90 12:40 14.01.2020
4660 Clouds 22 1016 73 10000 3.1 90 12:20 14.01.2020
4661 Clouds 21 1017 78 10000 2.6 90 12:20 14.01.2020
4662 Clouds 21 1017 78 10000 2.6 90 12:20 14.01.2020
4663 Clouds 22 1016 73 10000 3.1 90 11:43 14.01.2020
4664 Clouds 22 1016 73 10000 3.6 90 11:23 14.01.2020
4665 Clouds 22 1016 73 10000 3.6 90 10:59 14.01.2020
4666 Clouds 22 1016 73 10000 4.6 70 10:40 14.01.2020
4667 Clouds 23 1016 73 10000 4.6 70 10:20 14.01.2020
4668 Clouds 23 1016 69 10000 5.7 80 09:58 14.01.2020
4669 Clouds 23 1015 64 10000 7.2 80 09:40 14.01.2020
4670 Clouds 24 1015 64 10000 7.2 80 09:20 14.01.2020
4671 Clouds 24 1015 61 10000 7.2 80 08:48 14.01.2020
4672 Clouds 25 1015 61 10000 7.2 80 08:25 14.01.2020
4673 Clouds 25 1015 61 10000 6.7 70 07:53 14.01.2020
4674 Clouds 26 1015 57 10000 7.7 80 07:33 14.01.2020
4675 Clouds 26 1015 61 10000 7.7 80 06:55 14.01.2020
4676 Clouds 27 1015 57 10000 7.7 70 06:33 14.01.2020
4677 Clouds 27 1016 57 10000 7.2 70 05:27 14.01.2020
4678 Clouds 27 1016 54 10000 6.7 50 03:52 14.01.2020
4679 Clouds 27 1017 57 10000 6.2 70 02:43 14.01.2020
4680 Clouds 26 1017 57 10000 6.7 80 01:55 14.01.2020
4681 Clouds 25 1017 69 10000 3.6 160 00:51 14.01.2020
4682 Clouds 25 1017 73 10000 2.6 160 00:33 14.01.2020
4683 Clouds 25 1017 73 10000 2.6 160 00:33 14.01.2020
4684 Clouds 24 1018 78 10000 2.6 150 23:55 13.01.2020
4685 Clouds 24 1018 78 10000 2.17 88 23:37 13.01.2020
4686 Clouds 23 1018 78 10000 1.1 273 23:18 13.01.2020
4687 Clouds 22 1018 77 10000 1.1 273 22:42 13.01.2020
4688 Clouds 21 1018 77 10000 1.1 273 22:21 13.01.2020
4689 Clouds 20 1018 83 10000 1.1 273 21:57 13.01.2020
4690 Clouds 19 1017 93 10000 1.5 250 21:38 13.01.2020
4691 Clouds 18 1017 100 10000 1.1 273 21:19 13.01.2020
4692 Clouds 18 1017 82 10000 1.1 273 20:59 13.01.2020
4693 Clouds 17 1017 100 10000 1.1 273 20:59 13.01.2020
4694 Clouds 18 1017 82 10000 1.1 273 20:59 13.01.2020
4695 Clouds 17 1017 93 10000 1 120 20:41 13.01.2020
4696 -273 0 0 0 0 0 20:22 13.01.2020
4697 -273 0 0 0 0 0 20:22 13.01.2020
4698 Clouds 17 1017 93 10000 0.9 321 19:59 13.01.2020
4699 Rain 17 1016 93 10000 0.9 321 19:40 13.01.2020
4700 Clouds 17 1016 93 10000 0.9 321 19:20 13.01.2020
4701 Clouds 17 1016 93 10000 0.9 321 18:57 13.01.2020
4702 Clouds 18 1016 88 10000 0.5 170 18:37 13.01.2020
4703 Clouds 18 1016 88 10000 0.5 170 18:19 13.01.2020
4704 Clouds 18 1016 88 10000 0.9 321 17:54 13.01.2020
4705 Clouds 18 1017 82 10000 0.9 321 17:36 13.01.2020
4706 Clouds 18 1017 82 10000 1.38 355 17:18 13.01.2020
4707 Rain 18 1018 86 0 1.34 336 16:39 13.01.2020
4708 Rain 18 1018 86 0 1.34 336 16:39 13.01.2020
4709 Rain 18 1018 86 0 0.89 355 16:21 13.01.2020
4710 Rain 18 1018 85 0 0.45 333 15:54 13.01.2020
4711 Rain 18 1018 85 0 0.45 355 15:36 13.01.2020
4712 Rain 18 1018 85 0 0.89 360 15:18 13.01.2020
4713 Rain 19 1018 82 0 0.45 44 14:40 13.01.2020
4714 Clouds 19 1010 79 0 0.45 3 14:22 13.01.2020
4715 Clouds 19 1010 79 0 0.89 281 13:56 13.01.2020
4716 Rain 20 1016 87 0 1.96 38 13:38 13.01.2020
4717 Rain 20 1018 72 0 2.24 70 13:20 13.01.2020
4718 Rain 20 1010 79 0 0.45 350 13:20 13.01.2020
4719 Clouds 21 1018 73 10000 4.6 50 12:43 13.01.2020
4720 Clouds 21 1018 73 10000 4.6 50 12:23 13.01.2020
4721 Clouds 21 1018 73 10000 4.6 50 11:59 13.01.2020
4722 Clouds 21 1018 73 10000 5.7 50 11:39 13.01.2020
4723 Clouds 21 1018 73 10000 5.7 50 11:19 13.01.2020
4724 Clouds 22 1018 69 10000 6.7 50 10:57 13.01.2020
4725 Clouds 22 1018 64 10000 6.7 50 10:38 13.01.2020
4726 Clouds 22 1018 64 10000 6.7 50 10:20 13.01.2020
4727 Clouds 22 1018 64 10000 6.7 50 10:20 13.01.2020
4728 Clouds 22 1017 64 10000 7.7 50 09:56 13.01.2020
4729 Clouds 23 1017 69 10000 6.2 50 09:38 13.01.2020
4730 Clouds 23 1017 69 10000 6.2 50 09:19 13.01.2020
4731 Clouds 24 1016 60 10000 5.7 90 08:39 13.01.2020
4732 Clouds 24 1016 60 10000 5.7 70 08:20 13.01.2020
4733 Clouds 25 1016 53 10000 6.7 80 07:46 13.01.2020
4734 Clouds 25 1016 53 10000 6.7 80 07:27 13.01.2020
4735 Clouds 25 1017 41 10000 5.7 80 06:42 13.01.2020
4736 Clouds 25 1017 41 10000 5.7 80 06:19 13.01.2020
4737 Clouds 25 1017 41 10000 6.7 80 05:22 13.01.2020
4738 Clouds 25 1018 47 10000 6.2 80 03:54 13.01.2020
4739 Clouds 24 1018 50 5000 3.1 120 03:22 13.01.2020
4740 Clouds 24 1019 53 10000 5.7 80 02:44 13.01.2020
4741 Clouds 24 1019 53 10000 5.7 80 02:24 13.01.2020
4742 Clouds 24 1019 47 10000 4.1 110 01:18 13.01.2020
4743 Clouds 23 1019 64 10000 2.6 180 00:41 13.01.2020
4744 Clouds 22 1019 64 10000 2.6 180 00:22 13.01.2020
4745 Clouds 21 1020 73 10000 2.1 260 23:42 12.01.2020
4746 Clouds 20 1020 73 10000 2.1 260 23:24 12.01.2020
4747 Rain 19 1020 72 9000 1.5 0 22:58 12.01.2020
4748 Clouds 18 1019 77 9000 2.6 270 22:39 12.01.2020
4749 Clouds 18 1019 77 9000 2.6 270 22:21 12.01.2020
4750 Rain 17 1019 77 9000 1.5 280 21:56 12.01.2020
4751 Rain 17 1019 82 10000 1 230 21:38 12.01.2020
4752 Rain 17 1019 82 10000 1 230 21:38 12.01.2020
4753 Clouds 17 1019 88 9000 2.29 91 21:19 12.01.2020
4754 Rain 17 1019 88 9000 2.29 91 20:56 12.01.2020
4755 Rain 17 1019 88 9000 2.29 91 20:56 12.01.2020
4756 Rain 17 1019 88 9000 2.29 91 20:38 12.01.2020
4757 Rain 16 1019 88 9000 2.43 161 20:20 12.01.2020
4758 Rain 16 1019 93 10000 2.6 220 19:56 12.01.2020
4759 Clouds 16 1019 93 10000 2.6 210 19:37 12.01.2020
4760 Clouds 16 1018 88 10000 2.43 161 19:18 12.01.2020
4761 Clouds 16 1019 93 10000 2.1 210 18:57 12.01.2020
4762 Clouds 16 1019 93 10000 2.6 210 18:39 12.01.2020
4763 Clouds 16 1019 93 10000 2.6 210 18:21 12.01.2020
4764 Clouds 17 1018 93 10000 2.43 161 17:54 12.01.2020
4765 Clouds 17 1018 88 10000 2.43 161 17:36 12.01.2020
4766 Clouds 17 1019 88 10000 2.65 152 17:18 12.01.2020
4767 Clouds 17 1019 88 10000 2.65 152 16:54 12.01.2020
4768 Clouds 17 1019 93 10000 2.6 210 16:36 12.01.2020
4769 Clouds 17 1019 93 10000 2.6 210 16:18 12.01.2020
4770 Clouds 17 1019 72 10000 3.1 110 15:40 12.01.2020
4771 Clouds 17 1019 72 10000 3.1 110 15:21 12.01.2020
4772 Clouds 17 1020 93 9000 2.65 152 14:55 12.01.2020
4773 Clouds 17 1020 93 8000 2.1 230 14:36 12.01.2020
4774 Rain 18 1020 72 10000 4.6 100 14:18 12.01.2020
4775 Rain 18 1020 72 10000 4.6 100 13:42 12.01.2020
4776 Rain 18 1020 72 10000 4.6 100 13:23 12.01.2020
4777 Clouds 18 1020 100 5000 1.5 230 12:58 12.01.2020
4778 Rain 18 1020 77 10000 4.6 100 12:38 12.01.2020
4779 Rain 18 1020 77 10000 4.6 100 12:19 12.01.2020
4780 Clouds 18 1020 100 5000 2.1 250 11:55 12.01.2020
4781 Clouds 18 1020 100 5000 2.1 240 11:36 12.01.2020
4782 Clouds 18 1020 100 5000 2.1 240 11:18 12.01.2020
4783 Clouds 18 1020 93 5000 2.6 210 10:41 12.01.2020
4784 Clouds 18 1020 93 5000 2.6 210 10:21 12.01.2020
4785 Rain 18 1019 88 10000 5.1 170 09:55 12.01.2020
4786 Rain 18 1019 82 10000 5.1 170 09:37 12.01.2020
4787 Rain 18 1019 82 10000 5.1 170 09:18 12.01.2020
4788 Rain 18 1018 82 10000 7.2 170 08:42 12.01.2020
4789 Rain 18 1018 82 10000 7.2 170 08:19 12.01.2020
4790 Rain 19 1018 88 10000 7.2 170 07:39 12.01.2020
4791 Rain 19 1018 88 10000 7.2 170 07:21 12.01.2020
4792 Rain 19 1018 82 10000 7.2 170 06:43 12.01.2020
4793 Rain 18 1018 82 10000 7.2 170 06:19 12.01.2020
4794 Rain 18 1018 88 7000 8.2 190 05:23 12.01.2020
4795 Rain 19 1018 82 5000 6.7 190 03:47 12.01.2020
4796 Rain 19 1019 88 5000 5.1 200 03:22 12.01.2020
4797 Rain 20 1019 88 5000 6.2 190 02:30 12.01.2020
4798 Rain 21 1018 77 5000 7.7 170 01:42 12.01.2020
4799 Rain 21 1018 77 5000 7.7 170 01:22 12.01.2020
4800 Rain 21 1018 60 8000 6.2 130 00:40 12.01.2020
4801 Rain 21 1018 60 8000 6.2 130 00:20 12.01.2020
4802 Smoke 21 1018 56 8000 7.2 140 23:42 11.01.2020
4803 Smoke 21 1018 56 8000 7.2 140 23:19 11.01.2020
4804 Clouds 20 1017 56 9000 5.7 130 22:57 11.01.2020
4805 Clouds 20 1017 56 10000 5.7 120 22:39 11.01.2020
4806 Clouds 20 1017 60 10000 6.7 130 22:20 11.01.2020
4807 Clouds 20 1017 60 10000 6.7 130 21:58 11.01.2020
4808 Clouds 19 1017 60 10000 7.7 130 21:39 11.01.2020
4809 Clouds 19 1017 60 10000 6.2 120 21:18 11.01.2020
4810 Clouds 19 1017 60 10000 7.7 130 21:18 11.01.2020
4811 Clouds 19 1017 64 10000 5.1 110 20:40 11.01.2020
4812 Clouds 19 1017 64 10000 5.1 110 20:22 11.01.2020
4813 Clouds 19 1016 64 10000 7.7 130 19:58 11.01.2020
4814 Rain 19 1016 56 10000 7.2 130 19:39 11.01.2020
4815 Clouds 19 1016 56 8000 7.2 140 19:21 11.01.2020
4816 Clouds 19 1016 56 8000 7.2 140 18:58 11.01.2020
4817 Clouds 19 1016 56 9000 7.2 130 18:39 11.01.2020
4818 Clouds 19 1016 60 8000 7.7 130 18:20 11.01.2020
4819 Clouds 19 1016 88 10000 4.6 140 17:57 11.01.2020
4820 Clouds 19 1016 56 8000 7.7 140 17:39 11.01.2020
4821 Clouds 19 1016 56 8000 7.7 140 17:19 11.01.2020
4822 Clouds 19 1016 60 9000 7.7 140 16:45 11.01.2020
4823 Clouds 19 1016 56 10000 8.2 130 16:27 11.01.2020
4824 Rain 19 1016 56 10000 8.7 140 15:59 11.01.2020
4825 Rain 19 1016 64 10000 7.7 130 15:41 11.01.2020
4826 Rain 20 1016 64 10000 7.7 130 15:22 11.01.2020
4827 Clouds 20 1016 64 10000 6.2 120 14:57 11.01.2020
4828 Clouds 20 1017 64 10000 6.2 130 14:38 11.01.2020
4829 Rain 20 1016 64 10000 6.2 120 14:20 11.01.2020
4830 Rain 20 1016 64 10000 7.7 120 13:41 11.01.2020
4831 Rain 20 1016 64 10000 7.7 120 13:20 11.01.2020
4832 Rain 21 1016 64 10000 7.7 120 12:59 11.01.2020
4833 Clouds 21 1016 64 10000 6.2 140 12:41 11.01.2020
4834 Clouds 21 1016 64 10000 6.2 140 12:23 11.01.2020
4835 Rain 21 1016 68 10000 6.2 140 11:48 11.01.2020
4836 Rain 21 1016 68 10000 6.2 140 11:26 11.01.2020
4837 Rain 21 1015 68 10000 6.7 170 10:55 11.01.2020
4838 Clouds 21 1015 64 10000 5.1 170 10:36 11.01.2020
4839 Clouds 21 1015 64 10000 5.1 170 10:36 11.01.2020
4840 Clouds 21 1015 64 10000 5.1 170 10:18 11.01.2020
4841 Clouds 21 1014 68 10000 5.1 180 09:39 11.01.2020
4842 Clouds 21 1013 68 10000 5.7 170 09:20 11.01.2020
4843 Clouds 21 1014 68 10000 5.1 180 09:20 11.01.2020
4844 Clouds 21 1013 64 10000 5.7 170 08:42 11.01.2020
4845 Clouds 21 1012 60 10000 5.1 170 08:22 11.01.2020
4846 Clouds 22 1012 60 10000 6.7 170 07:44 11.01.2020
4847 Clouds 22 1012 60 10000 6.7 170 07:26 11.01.2020
4848 Clouds 22 1012 64 10000 7.2 170 06:52 11.01.2020
4849 Clouds 22 1013 60 10000 7.7 180 05:50 11.01.2020
4850 Clouds 22 1013 64 10000 8.7 190 04:47 11.01.2020
4851 Clouds 22 1013 64 10000 8.7 190 04:29 11.01.2020
4852 Clouds 21 1013 64 10000 9.8 180 02:58 11.01.2020
4853 Clouds 20 1013 68 10000 9.8 180 02:38 11.01.2020
4854 Clouds 20 1013 68 10000 10.3 180 01:43 11.01.2020
4855 Clouds 20 1013 73 10000 10.8 180 01:20 11.01.2020
4856 Clouds 19 1014 82 10000 4.1 180 00:43 11.01.2020
4857 Clouds 19 1013 77 10000 11.3 180 00:18 11.01.2020
4858 Clouds 19 1013 93 8000 6.7 160 23:40 10.01.2020
4859 Clouds 18 1013 93 8000 6.7 160 23:22 10.01.2020
4860 Rain 19 1012 82 10000 12.9 190 22:59 10.01.2020
4861 Rain 19 1012 82 10000 11.8 180 22:40 10.01.2020
4862 Rain 19 1012 82 10000 11.8 180 22:21 10.01.2020
4863 Rain 19 1010 82 10000 12.3 170 21:57 10.01.2020
4864 Rain 19 1011 88 9000 12.9 170 21:38 10.01.2020
4865 Rain 20 1011 88 9000 12.9 170 21:19 10.01.2020
4866 Drizzle 20 1010 88 6000 13.9 180 20:43 10.01.2020
4867 Drizzle 20 1010 88 6000 13.9 180 20:25 10.01.2020
4868 Rain 20 1009 83 6000 13.9 190 19:59 10.01.2020
4869 Smoke 21 1007 88 5000 13.4 190 19:38 10.01.2020
4870 Smoke 21 1007 88 5000 13.4 190 19:20 10.01.2020
4871 Smoke 21 1006 83 5000 16.5 190 18:44 10.01.2020
4872 Smoke 21 1006 83 5000 16.5 190 18:20 10.01.2020
4873 Smoke 21 1006 83 5000 18.5 190 17:58 10.01.2020
4874 Clouds 21 1005 83 6000 19 190 17:39 10.01.2020
4875 Clouds 22 1005 83 6000 19 190 17:21 10.01.2020
4876 Rain 22 1005 83 6000 17.5 190 16:59 10.01.2020
4877 Rain 23 1004 83 5000 19.5 180 16:41 10.01.2020
4878 Rain 24 1004 78 5000 18 190 16:21 10.01.2020
4879 Smoke 26 1004 78 5000 18 190 15:56 10.01.2020
4880 Smoke 26 1001 74 10000 15.4 190 15:37 10.01.2020
4881 Smoke 26 1001 74 10000 15.4 190 15:19 10.01.2020
4882 Smoke 26 1001 74 10000 15.4 190 15:19 10.01.2020
4883 Smoke 26 1001 74 10000 15.4 190 14:57 10.01.2020
4884 Smoke 26 1002 74 10000 15.4 190 14:38 10.01.2020
4885 Smoke 26 1002 69 10000 15.4 190 14:19 10.01.2020
4886 Smoke 27 1002 69 10000 15.4 190 13:54 10.01.2020
4887 Smoke 27 1002 65 10000 15.4 190 13:36 10.01.2020
4888 Clouds 27 1002 69 10000 2.1 20 13:18 10.01.2020
4889 Clouds 27 1002 69 10000 2.1 20 12:54 10.01.2020
4890 Clouds 27 1003 65 10000 4.1 10 12:36 10.01.2020
4891 Clouds 27 1003 65 10000 5.1 10 12:18 10.01.2020
4892 Clouds 28 1003 58 10000 4.1 10 11:42 10.01.2020
4893 Clouds 28 1003 58 10000 4.1 10 11:42 10.01.2020
4894 Clouds 28 1003 58 10000 4.1 10 11:42 10.01.2020
4895 Clouds 29 1003 58 10000 4.1 10 11:21 10.01.2020
4896 Clouds 30 1002 54 10000 9.8 30 10:59 10.01.2020
4897 Clouds 29 1002 51 10000 10.8 30 10:38 10.01.2020
4898 Clouds 29 1002 58 10000 11.8 30 10:19 10.01.2020
4899 Clouds 29 1002 61 10000 13.4 30 09:46 10.01.2020
4900 Clouds 30 1002 61 10000 13.4 30 09:26 10.01.2020
4901 Clouds 30 1002 58 10000 12.3 30 08:59 10.01.2020
4902 Clouds 31 1003 58 10000 11.3 30 08:38 10.01.2020
4903 Clouds 31 1003 58 10000 9.8 30 08:20 10.01.2020
4904 Clouds 31 1004 58 10000 12.9 30 07:44 10.01.2020
4905 Clouds 31 1004 58 10000 12.9 30 07:22 10.01.2020
4906 Clouds 31 1005 58 10000 12.3 30 06:43 10.01.2020
4907 Clouds 32 1005 58 10000 12.3 30 06:24 10.01.2020
4908 Clouds 32 1006 55 10000 9.8 50 05:44 10.01.2020
4909 Clouds 33 1009 55 10000 10.3 30 03:34 10.01.2020
4910 Clouds 32 1009 55 10000 9.8 40 02:57 10.01.2020
4911 Clouds 30 1010 58 10000 9.8 30 02:37 10.01.2020
4912 Clouds 29 1011 65 10000 7.7 50 01:38 10.01.2020
4913 Clouds 27 1012 69 10000 7.7 50 00:58 10.01.2020
4914 Clouds 26 1012 65 10000 7.7 50 00:38 10.01.2020
4915 Clouds 26 1013 69 10000 6.7 20 23:57 09.01.2020
4916 Clouds 25 1013 69 10000 4.1 10 23:38 09.01.2020
4917 Clouds 24 1013 69 10000 4.1 10 23:20 09.01.2020
4918 Rain 24 1013 73 10000 3.6 360 22:57 09.01.2020
4919 Rain 23 1014 94 10000 2.63 354 22:37 09.01.2020
4920 Rain 22 1014 94 10000 2.63 354 22:19 09.01.2020
4921 Clouds 22 1014 94 10000 2.63 354 21:57 09.01.2020
4922 Clouds 22 1014 100 10000 2.63 354 21:37 09.01.2020
4923 Clouds 22 1014 100 10000 2.63 354 21:37 09.01.2020
4924 Clouds 22 1014 100 10000 2.63 354 21:37 09.01.2020
4925 Clouds 22 1014 100 10000 2.63 354 21:37 09.01.2020
4926 Clouds 22 1014 100 10000 2.63 354 21:37 09.01.2020
4927 Clouds 22 1014 100 10000 2.63 354 21:19 09.01.2020
4928 Clouds 21 1013 100 6000 2.63 354 20:56 09.01.2020
4929 Clouds 21 1013 94 10000 1.5 20 20:38 09.01.2020
4930 Clouds 21 1013 94 10000 1.5 20 20:19 09.01.2020
4931 Clouds 21 1013 94 10000 1.5 30 19:56 09.01.2020
4932 Clouds 21 1013 94 10000 2.1 20 19:37 09.01.2020
4933 Clouds 21 1013 94 10000 2.1 20 19:19 09.01.2020
4934 Clouds 21 1013 88 10000 0.47 103 18:55 09.01.2020
4935 Clouds 21 1013 88 10000 0.47 103 18:36 09.01.2020
4936 Clouds 21 1013 88 10000 0.47 103 18:18 09.01.2020
4937 Clouds 21 1014 88 10000 0.5 200 17:41 09.01.2020
4938 Clouds 21 1014 88 10000 2.1 210 17:18 09.01.2020
4939 Clouds 21 1014 88 10000 2.1 210 16:49 09.01.2020
4940 Clouds 21 1014 88 10000 2.1 220 16:24 09.01.2020
4941 Clouds 21 1015 88 10000 0.5 200 15:59 09.01.2020
4942 Clouds 22 1015 88 10000 2.6 190 15:40 09.01.2020
4943 Clouds 22 1015 88 10000 2.6 190 15:19 09.01.2020
4944 Drizzle 22 1016 88 10000 3.1 190 14:43 09.01.2020
4945 Drizzle 22 1016 88 10000 3.1 190 14:22 09.01.2020
4946 Clouds 22 1016 88 10000 1 200 13:57 09.01.2020
4947 Clouds 22 1016 88 10000 3.6 200 13:39 09.01.2020
4948 Clouds 22 1016 88 10000 3.6 200 13:20 09.01.2020
4949 Rain 22 1016 88 10000 3.6 190 12:59 09.01.2020
4950 Clouds 22 1016 88 10000 4.1 190 12:40 09.01.2020
4951 Clouds 22 1016 88 10000 4.1 190 12:40 09.01.2020
4952 Clouds 22 1016 88 10000 4.1 190 12:20 09.01.2020
4953 Clouds 22 1016 88 10000 4.1 190 11:57 09.01.2020
4954 Clouds 22 1016 88 10000 4.1 190 11:38 09.01.2020
4955 Clouds 22 1016 88 10000 4.1 190 11:20 09.01.2020
4956 Clouds 23 1016 88 10000 5.1 180 10:44 09.01.2020
4957 Clouds 23 1016 88 10000 5.1 180 10:22 09.01.2020
4958 Clouds 23 1015 88 10000 6.7 190 09:59 09.01.2020
4959 Clouds 23 1016 88 10000 6.7 180 09:39 09.01.2020
4960 Clouds 23 1016 88 10000 6.7 180 09:21 09.01.2020
4961 Clouds 24 1015 88 10000 5.1 180 08:55 09.01.2020
4962 Clouds 24 1015 83 10000 6.7 170 08:37 09.01.2020
4963 Clouds 24 1015 83 10000 6.7 170 08:19 09.01.2020
4964 Clouds 24 1015 83 10000 7.7 180 07:42 09.01.2020
4965 Clouds 24 1015 83 10000 7.7 180 07:23 09.01.2020
4966 Clouds 25 1016 83 10000 7.7 180 06:39 09.01.2020
4967 Clouds 25 1016 73 10000 7.7 170 06:20 09.01.2020
4968 Clouds 25 1016 73 10000 7.7 170 05:49 09.01.2020
4969 Clouds 25 1017 73 10000 7.7 180 04:44 09.01.2020
4970 Clouds 25 1017 73 10000 8.2 180 03:38 09.01.2020
4971 Clouds 24 1018 78 10000 8.2 190 02:54 09.01.2020
4972 Clouds 24 1018 78 10000 8.2 190 02:28 09.01.2020
4973 Clouds 23 1018 83 10000 7.7 190 01:39 09.01.2020
4974 Clouds 22 1018 83 10000 6.2 200 00:43 09.01.2020
4975 Clouds 22 1018 83 10000 6.2 200 00:21 09.01.2020
4976 Clouds 22 1018 88 10000 6.7 200 23:55 08.01.2020
4977 Clouds 21 1018 88 10000 6.7 200 23:37 08.01.2020
4978 Clouds 21 1018 88 10000 6.7 200 23:18 08.01.2020
4979 Rain 21 1017 83 10000 7.2 190 22:39 08.01.2020
4980 Rain 21 1017 83 10000 7.2 190 22:21 08.01.2020
4981 Smoke 21 1017 88 10000 5.1 190 21:57 08.01.2020
4982 Smoke 21 1017 88 10000 5.1 190 21:38 08.01.2020
4983 Smoke 21 1017 88 10000 5.1 190 21:20 08.01.2020
4984 Smoke 21 1017 88 10000 5.1 190 21:20 08.01.2020
4985 Drizzle 21 1017 83 10000 5.1 190 20:58 08.01.2020
4986 Clouds 21 1016 88 10000 8.2 180 20:39 08.01.2020
4987 Clouds 21 1016 88 10000 8.2 180 20:20 08.01.2020
4988 Smoke 21 1016 88 10000 5.1 190 19:56 08.01.2020
4989 Clouds 21 1015 83 10000 8.2 190 19:37 08.01.2020
4990 Smoke 21 1015 83 10000 5.1 190 19:19 08.01.2020
4991 Smoke 21 1015 83 10000 5.1 190 18:56 08.01.2020
4992 Clouds 21 1015 83 10000 7.2 190 18:37 08.01.2020
4993 Clouds 21 1015 83 10000 7.2 190 18:18 08.01.2020
4994 Smoke 21 1015 83 10000 5.1 190 17:55 08.01.2020
4995 Rain 21 1016 83 8000 5.1 200 17:36 08.01.2020
4996 Clouds 21 1016 83 8000 5.1 200 17:18 08.01.2020
4997 Smoke 21 1016 78 8000 5.1 190 16:54 08.01.2020
4998 Clouds 21 1016 78 7000 5.1 200 16:36 08.01.2020
4999 Clouds 21 1016 78 7000 5.1 200 16:18 08.01.2020
5000 Clouds 21 1016 78 6000 4.6 190 15:41 08.01.2020
5001 Clouds 21 1016 78 6000 4.6 190 15:21 08.01.2020
5002 Clouds 21 1017 78 6000 4.6 210 14:57 08.01.2020
5003 Smoke 22 1017 78 5000 4.1 200 14:39 08.01.2020
5004 Smoke 22 1017 78 5000 4.1 200 14:20 08.01.2020
5005 Smoke 22 1017 83 5000 7.7 190 13:40 08.01.2020
5006 Smoke 22 1017 83 5000 7.7 190 13:40 08.01.2020
5007 Smoke 22 1017 83 5000 7.7 190 13:19 08.01.2020
5008 Smoke 22 1017 83 4000 8.7 180 12:42 08.01.2020
5009 Smoke 22 1017 83 4000 8.7 180 12:20 08.01.2020
5010 Smoke 22 1017 83 3500 9.3 180 11:59 08.01.2020
5011 Smoke 22 1016 83 3500 8.7 190 11:40 08.01.2020
5012 Smoke 22 1016 83 3500 8.7 190 11:19 08.01.2020
5013 Smoke 22 1016 88 3500 9.8 190 10:55 08.01.2020
5014 Smoke 22 1016 88 3500 8.7 190 10:37 08.01.2020
5015 Smoke 22 1016 88 3500 8.7 190 10:37 08.01.2020
5016 Smoke 23 1016 88 3500 8.7 190 10:19 08.01.2020
5017 Smoke 23 1014 83 3000 9.8 190 09:42 08.01.2020
5018 Smoke 23 1014 83 2000 9.8 180 09:20 08.01.2020
5019 Smoke 23 1014 83 2000 9.8 180 08:57 08.01.2020
5020 Smoke 24 1014 83 2500 8.7 180 08:37 08.01.2020
5021 Smoke 24 1014 83 2500 8.7 180 08:19 08.01.2020
5022 Smoke 24 1014 78 2000 8.7 180 07:50 08.01.2020
5023 Smoke 25 1013 78 1500 9.8 180 07:32 08.01.2020
5024 Smoke 25 1013 78 1500 10.8 170 06:49 08.01.2020
5025 Smoke 25 1014 78 2000 11.3 170 06:25 08.01.2020
5026 Clouds 26 1013 54 8000 5.7 130 05:54 08.01.2020
5027 Clouds 26 1013 54 9000 5.1 140 05:18 08.01.2020
5028 Smoke 26 1014 73 3000 9.8 180 04:27 08.01.2020
5029 Clouds 26 1014 61 6000 2.6 130 02:45 08.01.2020
5030 Smoke 26 1015 78 3000 10.3 170 02:27 08.01.2020
5031 Smoke 25 1015 78 2500 9.3 180 01:50 08.01.2020
5032 Smoke 24 1015 78 2500 9.3 190 01:26 08.01.2020
5033 Smoke 24 1015 78 2000 9.8 190 00:42 08.01.2020
5034 Smoke 24 1015 78 2000 9.8 190 00:21 08.01.2020
5035 Smoke 23 1015 83 2000 8.7 190 23:44 07.01.2020
5036 Smoke 22 1015 83 2000 8.2 190 23:20 07.01.2020
5037 Smoke 22 1015 83 2000 8.2 190 22:41 07.01.2020
5038 Smoke 22 1015 83 2000 8.2 190 22:21 07.01.2020
5039 Rain 22 1015 83 1000 8.7 190 21:58 07.01.2020
5040 Rain 21 1014 88 3000 8.7 190 21:40 07.01.2020
5041 Rain 21 1014 88 2000 7.7 190 21:21 07.01.2020
5042 Mist 21 1014 88 2000 7.7 190 20:57 07.01.2020
5043 Mist 21 1014 88 2000 7.7 190 20:39 07.01.2020
5044 Mist 21 1014 88 2000 7.7 190 20:21 07.01.2020
5045 Mist 21 1013 88 3000 8.2 180 19:56 07.01.2020
5046 Mist 21 1013 94 3000 8.7 180 19:37 07.01.2020
5047 Mist 21 1013 94 3000 8.7 180 19:18 07.01.2020
5048 Mist 21 1013 94 3000 8.7 180 19:18 07.01.2020
5049 Mist 21 1013 88 3000 8.2 190 18:55 07.01.2020
5050 Mist 21 1012 94 3000 7.7 200 18:37 07.01.2020
5051 Mist 21 1012 94 3000 7.7 200 18:18 07.01.2020
5052 Mist 21 1012 94 3000 7.7 200 18:18 07.01.2020
5053 Mist 22 1012 94 4000 7.7 190 17:41 07.01.2020
5054 Mist 22 1013 94 5000 7.2 200 17:23 07.01.2020
5055 Mist 22 1013 94 5000 7.2 200 16:58 07.01.2020
5056 Rain 22 1013 88 6000 7.2 190 16:38 07.01.2020
5057 Rain 22 1013 88 6000 7.2 190 16:19 07.01.2020
5058 Rain 22 1012 94 8000 6.2 160 15:59 07.01.2020
5059 Thunderstorm 23 1012 94 6000 4.6 150 15:41 07.01.2020
5060 Thunderstorm 23 1012 94 6000 4.6 150 15:23 07.01.2020
5061 Thunderstorm 23 1013 88 8000 5.1 240 14:57 07.01.2020
5062 Rain 23 1013 94 10000 4.6 160 14:37 07.01.2020
5063 Rain 23 1013 94 10000 4.6 160 14:19 07.01.2020
5064 Drizzle 24 1013 83 10000 5.7 170 13:40 07.01.2020
5065 Drizzle 24 1013 83 10000 5.7 170 13:20 07.01.2020
5066 Clouds 24 1012 83 10000 4.6 120 12:54 07.01.2020
5067 Smoke 24 1012 83 10000 2.6 0 12:36 07.01.2020
5068 Smoke 24 1012 83 10000 2.6 0 12:18 07.01.2020
5069 Rain 25 1011 83 10000 6.7 50 11:41 07.01.2020
5070 Rain 25 1011 83 10000 6.7 50 11:41 07.01.2020
5071 Rain 25 1011 83 10000 6.7 50 11:21 07.01.2020
5072 Rain 25 1011 78 10000 4.6 30 10:55 07.01.2020
5073 Rain 25 1010 78 10000 7.2 20 10:37 07.01.2020
5074 Rain 25 1010 78 10000 9.8 30 10:19 07.01.2020
5075 Rain 25 1010 74 9000 9.3 30 09:38 07.01.2020
5076 Rain 26 1010 74 9000 9.3 30 09:20 07.01.2020
5077 Rain 26 1010 74 9000 9.3 30 09:20 07.01.2020
5078 Rain 26 1010 65 10000 7.7 50 08:57 07.01.2020
5079 Rain 26 1009 65 10000 7.2 60 08:37 07.01.2020
5080 Clouds 27 1009 61 10000 6.2 40 08:18 07.01.2020
5081 Clouds 29 1009 61 10000 6.2 40 07:42 07.01.2020
5082 Clouds 29 1010 61 10000 7.2 30 06:57 07.01.2020
5083 Clouds 29 1010 69 10000 8.7 30 06:35 07.01.2020
5084 Clouds 29 1010 69 10000 7.7 50 05:59 07.01.2020
5085 Clouds 29 1011 65 10000 7.7 50 05:40 07.01.2020
5086 Clouds 28 1013 58 10000 5.1 30 03:45 07.01.2020
5087 Clouds 28 1013 58 10000 6.7 30 02:47 07.01.2020
5088 Rain 26 1013 65 10000 4.1 40 02:18 07.01.2020
5089 Rain 25 1014 65 10000 3.6 40 01:36 07.01.2020
5090 Clouds 25 1014 69 10000 2.6 20 00:57 07.01.2020
5091 Clouds 24 1014 78 10000 5.7 50 00:21 07.01.2020
5092 Clouds 23 1015 78 10000 5.1 30 23:57 06.01.2020
5093 Rain 22 1015 78 10000 3.1 330 23:37 06.01.2020
5094 Clouds 22 1015 94 10000 4.1 40 23:19 06.01.2020
5095 Clouds 21 1016 94 10000 4.1 40 22:44 06.01.2020
5096 Clouds 21 1016 94 10000 4.1 40 22:44 06.01.2020
5097 Clouds 21 1016 94 10000 4.1 40 22:25 06.01.2020
5098 Rain 21 1016 83 10000 2.6 350 21:59 06.01.2020
5099 Clouds 20 1016 88 10000 5.1 310 21:40 06.01.2020
5100 Clouds 20 1016 88 10000 5.1 310 21:20 06.01.2020
5101 Clouds 20 1015 88 10000 4.6 340 20:57 06.01.2020
5102 Clouds 20 1015 94 10000 3.6 360 20:39 06.01.2020
5103 Rain 20 1008 87 0 1.34 301 20:20 06.01.2020
5104 Clouds 20 1015 100 10000 2.21 314 19:57 06.01.2020
5105 Rain 20 1016 94 10000 3.6 240 19:39 06.01.2020
5106 Rain 20 1016 94 10000 3.6 240 19:20 06.01.2020
5107 Rain 20 1015 100 10000 0.5 50 18:48 06.01.2020
5108 Rain 20 1015 100 10000 0.5 50 18:25 06.01.2020
5109 Rain 20 1015 100 10000 2.1 60 17:59 06.01.2020
5110 Rain 20 1016 100 10000 2.1 310 17:39 06.01.2020
5111 Rain 20 1016 100 10000 2.1 310 17:39 06.01.2020
5112 Drizzle 20 1015 94 10000 2.52 50 17:19 06.01.2020
5113 Rain 20 1016 94 10000 2.52 50 16:55 06.01.2020
5114 Drizzle 20 1017 94 7000 2.1 280 16:36 06.01.2020
5115 Drizzle 20 1017 94 7000 2.1 280 16:18 06.01.2020
5116 Rain 21 1018 94 10000 2.1 260 15:42 06.01.2020
5117 Rain 21 1018 94 10000 2.1 260 15:20 06.01.2020
5118 Rain 20 1018 94 10000 2.52 50 14:59 06.01.2020
5119 Rain 21 1018 94 10000 4.6 80 14:41 06.01.2020
5120 Rain 21 1018 94 10000 4.6 80 14:41 06.01.2020
5121 Rain 21 1018 94 10000 4.6 80 14:21 06.01.2020
5122 Rain 20 1018 94 10000 4.1 80 13:58 06.01.2020
5123 Rain 21 1019 94 10000 2.6 110 13:38 06.01.2020
5124 Rain 21 1019 94 10000 2.6 110 13:20 06.01.2020
5125 Rain 21 1019 94 10000 3.6 120 12:44 06.01.2020
5126 Rain 21 1020 94 10000 3.1 140 12:21 06.01.2020
5127 Rain 21 1020 94 10000 3.1 130 11:59 06.01.2020
5128 Rain 21 1019 88 10000 2.6 70 11:41 06.01.2020
5129 Rain 21 1019 88 10000 2.6 70 11:23 06.01.2020
5130 Rain 21 1019 88 10000 5.7 110 10:57 06.01.2020
5131 Rain 21 1019 83 10000 4.6 110 10:39 06.01.2020
5132 Rain 21 1019 83 10000 4.6 110 10:20 06.01.2020
5133 Rain 21 1018 78 10000 4.6 90 09:39 06.01.2020
5134 Thunderstorm 21 1018 78 10000 4.1 80 09:20 06.01.2020
5135 Thunderstorm 21 1018 78 10000 4.1 80 08:48 06.01.2020
5136 Thunderstorm 21 1018 78 10000 4.1 80 08:48 06.01.2020
5137 Clouds 22 1017 69 10000 6.2 80 08:30 06.01.2020
5138 Clouds 22 1017 73 10000 7.2 80 07:56 06.01.2020
5139 Clouds 22 1017 69 10000 6.7 80 07:33 06.01.2020
5140 Rain 22 1017 69 10000 5.7 70 06:46 06.01.2020
5141 Rain 23 1017 69 10000 5.7 70 06:23 06.01.2020
5142 Clouds 23 1018 60 10000 6.7 70 05:45 06.01.2020
5143 Clouds 23 1018 61 10000 5.7 100 04:52 06.01.2020
5144 Clouds 23 1018 60 10000 5.7 70 04:19 06.01.2020
5145 Clouds 22 1020 68 10000 4.1 110 02:58 06.01.2020
5146 Clouds 22 1020 60 10000 5.1 110 02:24 06.01.2020
5147 Clouds 22 1020 60 10000 5.1 80 01:45 06.01.2020
5148 Clouds 22 1020 68 10000 4.6 100 01:27 06.01.2020
5149 Clouds 22 1020 64 10000 0.5 20 00:44 06.01.2020
5150 Clouds 22 1020 64 10000 5.7 100 00:24 06.01.2020
5151 Clouds 21 1021 64 10000 4.6 110 23:43 05.01.2020
5152 Clouds 21 1020 64 10000 5.7 100 23:43 05.01.2020
5153 Clouds 21 1021 64 10000 4.6 110 23:23 05.01.2020
5154 Clouds 21 1021 64 10000 4.6 110 23:23 05.01.2020
5155 Clouds 21 1020 64 10000 5.7 100 22:58 05.01.2020
5156 Clouds 21 1020 64 10000 6.7 100 22:39 05.01.2020
5157 Clouds 20 1020 64 10000 6.7 100 22:20 05.01.2020
5158 Clouds 20 1020 82 10000 2.6 210 21:56 05.01.2020
5159 Clouds 19 1020 82 10000 2.27 83 21:38 05.01.2020
5160 Clouds 19 1020 82 10000 2.27 83 21:20 05.01.2020
5161 Clouds 19 1020 82 10000 2.27 83 20:56 05.01.2020
5162 Clouds 18 1020 82 10000 2.27 83 20:38 05.01.2020
5163 Clouds 18 1020 82 10000 2.16 103 20:19 05.01.2020
5164 Clouds 18 1020 77 10000 2.16 103 19:57 05.01.2020
5165 Rain 18 1019 72 10000 3.6 130 19:38 05.01.2020
5166 Rain 18 1019 72 10000 3.6 130 19:19 05.01.2020
5167 Clouds 19 1020 72 10000 2.1 230 18:55 05.01.2020
5168 Clouds 19 1019 68 10000 3.1 210 18:37 05.01.2020
5169 Clouds 19 1019 68 10000 3.1 210 18:18 05.01.2020
5170 Rain 19 1020 68 10000 2.16 103 17:57 05.01.2020
5171 Rain 18 1021 68 10000 2.16 103 17:38 05.01.2020
5172 Clouds 18 1021 68 10000 2.2 141 17:19 05.01.2020
5173 Clouds 19 1021 68 10000 1 120 16:55 05.01.2020
5174 Clouds 19 1021 64 10000 3.1 120 16:37 05.01.2020
5175 Clouds 19 1021 64 10000 3.1 120 16:19 05.01.2020
5176 Clouds 19 1021 64 10000 3.1 120 16:19 05.01.2020
5177 Clouds 19 1022 60 10000 5.1 130 15:37 05.01.2020
5178 Clouds 20 1022 60 10000 6.2 130 15:18 05.01.2020
5179 Clouds 20 1022 60 10000 6.2 130 14:55 05.01.2020
5180 Clouds 20 1022 60 10000 6.7 130 14:37 05.01.2020
5181 Clouds 20 1022 60 10000 6.7 130 14:18 05.01.2020
5182 Clouds 20 1023 60 10000 6.7 140 13:54 05.01.2020
5183 Clouds 20 1023 64 10000 5.7 140 13:36 05.01.2020
5184 Clouds 21 1023 60 10000 7.2 130 13:18 05.01.2020
5185 Clouds 21 1023 64 10000 5.7 140 13:18 05.01.2020
5186 Clouds 21 1023 60 10000 7.2 130 13:18 05.01.2020
5187 Clouds 21 1023 60 10000 7.2 130 12:55 05.01.2020
5188 Clouds 21 1023 56 10000 8.7 130 12:36 05.01.2020
5189 Clouds 21 1023 56 10000 8.7 130 12:36 05.01.2020
5190 Clouds 21 1023 56 10000 8.7 130 12:18 05.01.2020
5191 Rain 21 1022 60 10000 8.7 150 11:43 05.01.2020
5192 Rain 21 1022 60 10000 8.7 150 11:43 05.01.2020
5193 Rain 21 1022 60 10000 8.7 150 11:43 05.01.2020
5194 Rain 21 1022 60 10000 8.7 150 11:43 05.01.2020
5195 Rain 21 1022 60 10000 8.7 150 11:43 05.01.2020
5196 Rain 21 1022 60 10000 8.7 150 11:19 05.01.2020
5197 Rain 21 1022 60 10000 8.7 150 10:58 05.01.2020
5198 Rain 21 1021 56 10000 9.3 160 10:39 05.01.2020
5199 Rain 21 1021 56 10000 9.3 160 10:39 05.01.2020
5200 Rain 21 1021 56 10000 9.3 160 10:39 05.01.2020
5201 Rain 21 1021 56 10000 9.3 160 10:39 05.01.2020
5202 Rain 21 1021 56 10000 9.3 160 10:39 05.01.2020
5203 Rain 21 1021 56 10000 9.3 160 10:18 05.01.2020
5204 Clouds 21 1020 56 10000 9.3 160 09:42 05.01.2020
5205 Clouds 21 1020 56 10000 9.3 160 09:22 05.01.2020
5206 Smoke 21 1020 73 9000 9.3 160 08:50 05.01.2020
5207 Clouds 22 1019 64 9000 10.8 170 08:30 05.01.2020
5208 Smoke 22 1019 60 9000 9.3 160 07:56 05.01.2020
5209 Clouds 22 1019 64 8000 10.8 160 07:38 05.01.2020
5210 Clouds 22 1019 64 8000 10.8 160 07:20 05.01.2020
5211 Clouds 23 1018 68 8000 10.8 170 06:20 05.01.2020
5212 Clouds 24 1018 69 6000 10.3 180 05:33 05.01.2020
5213 Clouds 24 1018 69 6000 10.3 180 05:33 05.01.2020
5214 Clouds 24 1018 69 6000 10.3 180 05:33 05.01.2020
5215 Clouds 25 1018 73 7000 10.3 180 04:44 05.01.2020
5216 Clouds 26 1018 73 7000 9.8 180 04:18 05.01.2020
5217 Smoke 26 1018 69 5000 9.8 180 02:46 05.01.2020
5218 Clouds 25 1018 69 8000 9.3 180 02:24 05.01.2020
5219 Clouds 25 1018 64 8000 9.3 180 01:49 05.01.2020
5220 Clouds 25 1018 64 7000 9.3 180 01:19 05.01.2020
5221 Smoke 25 1018 73 7000 10.3 170 00:55 05.01.2020
5222 Smoke 25 1018 69 7000 10.3 170 00:36 05.01.2020
5223 Smoke 24 1018 69 7000 10.3 170 00:18 05.01.2020
5224 Clouds 23 1018 73 8000 8.2 190 23:40 04.01.2020
5225 Clouds 23 1018 73 8000 8.2 190 23:20 04.01.2020
5226 Clouds 22 1018 73 8000 8.7 180 22:40 04.01.2020
5227 Clouds 22 1018 73 8000 8.7 180 22:22 04.01.2020
5228 Clouds 22 1018 73 8000 8.7 180 21:58 04.01.2020
5229 Clouds 22 1017 73 9000 9.8 170 21:40 04.01.2020
5230 Clouds 22 1017 73 9000 9.8 170 21:22 04.01.2020
5231 Clouds 22 1016 68 9000 8.7 170 20:59 04.01.2020
5232 Clear 22 1016 64 10000 8.2 190 20:40 04.01.2020
5233 Clouds 22 1016 64 10000 8.2 190 20:22 04.01.2020
5234 Clouds 22 1016 64 10000 8.2 190 20:22 04.01.2020
5235 Clouds 22 1015 60 10000 8.2 190 19:57 04.01.2020
5236 Clouds 22 1015 56 10000 7.7 190 19:39 04.01.2020
5237 Clouds 22 1015 56 10000 7.7 190 19:20 04.01.2020
5238 Clouds 22 1014 56 10000 8.2 200 18:56 04.01.2020
5239 Clouds 22 1014 56 10000 8.7 200 18:38 04.01.2020
5240 Clouds 22 1013 60 10000 8.7 200 18:19 04.01.2020
5241 Clouds 22 1013 64 10000 8.7 190 17:42 04.01.2020
5242 Clouds 22 1013 64 10000 8.7 190 17:42 04.01.2020
5243 Clouds 23 1013 64 10000 8.7 190 17:24 04.01.2020
5244 Clouds 23 1013 68 9000 9.8 190 16:59 04.01.2020
5245 Clouds 23 1013 73 7000 10.3 190 16:40 04.01.2020
5246 Clouds 23 1013 73 7000 10.3 190 16:22 04.01.2020
5247 Clouds 23 1012 78 6000 12.9 180 15:57 04.01.2020
5248 Smoke 23 1012 78 5000 13.9 180 15:38 04.01.2020
5249 Smoke 23 1012 78 5000 13.9 180 15:19 04.01.2020
5250 Smoke 23 1012 78 5000 14.9 190 14:56 04.01.2020
5251 Smoke 23 1011 73 5000 17.5 190 14:37 04.01.2020
5252 Smoke 24 1010 73 5000 18 190 14:19 04.01.2020
5253 Smoke 24 1010 73 5000 18 190 13:55 04.01.2020
5254 Smoke 25 1009 78 5000 19 190 13:36 04.01.2020
5255 Smoke 25 1009 78 5000 19 190 13:18 04.01.2020
5256 Smoke 26 1008 73 5000 17.5 190 12:41 04.01.2020
5257 Smoke 29 1008 73 5000 17.5 190 12:19 04.01.2020
5258 Clouds 31 1008 65 6000 14.9 190 11:58 04.01.2020
5259 Clouds 34 1004 28 10000 8.2 30 11:38 04.01.2020
5260 Clouds 35 1004 28 10000 8.2 30 11:19 04.01.2020
5261 Clouds 36 1004 28 10000 10.8 30 10:42 04.01.2020
5262 Clouds 36 1004 28 10000 10.8 30 10:42 04.01.2020
5263 Clouds 36 1004 28 10000 10.8 30 10:23 04.01.2020
5264 Smoke 36 1003 28 10000 15.4 180 10:23 04.01.2020
5265 Smoke 37 1003 28 10000 15.4 180 09:59 04.01.2020
5266 Smoke 37 1003 28 10000 15.4 180 09:41 04.01.2020
5267 Smoke 38 1003 28 10000 15.4 180 09:21 04.01.2020
5268 Clouds 40 1003 30 10000 12.9 30 08:41 04.01.2020
5269 Clouds 40 1003 30 10000 12.9 30 08:21 04.01.2020
5270 Clouds 42 1003 32 10000 12.3 30 07:44 04.01.2020
5271 Clouds 43 1003 32 10000 12.3 30 07:20 04.01.2020
5272 Clouds 43 1004 27 10000 9.8 50 06:33 04.01.2020
5273 Clear 45 1004 26 10000 10.3 40 05:22 04.01.2020
5274 Clear 45 1005 24 9000 5.1 50 04:44 04.01.2020
5275 Clear 45 1005 11 10000 6.7 280 04:25 04.01.2020
5276 Smoke 45 1006 22 9000 10.3 40 03:18 04.01.2020
5277 Clear 43 1006 19 10000 3.1 290 02:23 04.01.2020
5278 Smoke 41 1007 31 9000 7.7 60 01:56 04.01.2020
5279 Clear 39 1008 34 9000 2.1 350 01:32 04.01.2020
5280 Smoke 37 1009 46 10000 7.7 60 00:46 04.01.2020
5281 Smoke 35 1009 46 10000 7.7 60 00:27 04.01.2020
5282 Clear 30 1010 58 10000 4.1 340 23:48 03.01.2020
5283 Clear 29 1010 58 10000 4.1 340 23:26 03.01.2020
5284 Clear 27 1010 65 10000 4.1 350 22:55 03.01.2020
5285 Clear 26 1010 69 10000 3.6 330 22:36 03.01.2020
5286 Clear 24 1010 78 10000 3.1 330 22:18 03.01.2020
5287 Clear 24 1010 78 10000 3.1 330 21:55 03.01.2020
5288 Clear 23 1010 78 9000 2.6 330 21:37 03.01.2020
5289 Clear 22 1010 78 9000 2.6 330 21:18 03.01.2020
5290 Clear 21 1010 88 10000 2.34 322 20:43 03.01.2020
5291 Clear 20 1010 83 10000 1.36 253 20:19 03.01.2020
5292 Clear 20 1010 88 10000 1.36 253 19:59 03.01.2020
5293 Clear 20 1010 83 10000 1.5 300 19:41 03.01.2020
5294 Clear 20 1010 83 10000 1.5 300 19:22 03.01.2020
5295 Clear 21 1010 88 10000 1.36 253 18:46 03.01.2020
5296 Clear 21 1010 88 10000 1.36 253 18:26 03.01.2020
5297 Clear 21 1010 83 10000 1 200 17:58 03.01.2020
5298 Clear 21 1010 78 10000 1.36 253 17:40 03.01.2020
5299 Clear 21 1010 83 10000 3.1 50 17:21 03.01.2020
5300 Clear 22 1010 83 10000 4.6 50 16:44 03.01.2020
5301 Clear 22 1010 83 10000 4.6 50 16:25 03.01.2020
5302 Clear 22 1011 83 10000 4.1 50 15:59 03.01.2020
5303 Clear 22 1011 83 10000 3.6 50 15:41 03.01.2020
5304 Clear 22 1011 83 10000 3.6 50 15:19 03.01.2020
5305 Clouds 23 1011 78 10000 4.6 30 14:40 03.01.2020
5306 Clouds 23 1011 78 10000 4.6 30 14:20 03.01.2020
5307 Clouds 23 1011 78 10000 5.1 30 13:57 03.01.2020
5308 Clouds 23 1012 78 10000 5.1 30 13:39 03.01.2020
5309 Clouds 23 1012 78 10000 5.1 30 13:39 03.01.2020
5310 Clouds 23 1012 78 10000 5.1 30 13:20 03.01.2020
5311 Clouds 24 1012 73 10000 5.1 30 12:41 03.01.2020
5312 Clouds 24 1012 73 10000 5.1 30 12:22 03.01.2020
5313 Clear 24 1012 73 10000 4.1 20 11:54 03.01.2020
5314 Clear 24 1011 73 10000 6.2 20 11:35 03.01.2020
5315 Clear 25 1011 78 10000 8.2 30 10:58 03.01.2020
5316 Clouds 25 1011 78 10000 9.8 30 10:39 03.01.2020
5317 Clouds 25 1011 78 10000 9.8 30 10:21 03.01.2020
5318 Clouds 25 1011 74 10000 7.7 30 09:55 03.01.2020
5319 Clouds 26 1011 74 10000 7.7 30 09:37 03.01.2020
5320 Clouds 26 1011 74 10000 7.7 30 09:19 03.01.2020
5321 Clear 27 1010 58 10000 9.8 40 08:45 03.01.2020
5322 Clouds 27 1010 58 10000 9.8 40 08:23 03.01.2020
5323 Clouds 28 1011 58 10000 10.3 40 07:57 03.01.2020
5324 Clouds 28 1011 58 10000 9.3 50 07:38 03.01.2020
5325 Clouds 28 1011 61 10000 9.8 60 07:18 03.01.2020
5326 Clouds 29 1012 61 10000 9.8 70 06:42 03.01.2020
5327 Clouds 29 1012 61 10000 9.8 70 06:22 03.01.2020
5328 Clouds 31 1013 58 10000 8.7 70 05:20 03.01.2020
5329 Clouds 31 1014 54 10000 6.2 80 03:45 03.01.2020
5330 Clouds 30 1014 61 10000 6.7 50 02:54 03.01.2020
5331 Clouds 28 1015 65 10000 6.7 50 01:54 03.01.2020
5332 Clouds 28 1016 65 10000 6.7 50 01:36 03.01.2020
5333 Clouds 28 1016 65 10000 6.7 50 01:36 03.01.2020
5334 Clouds 27 1016 73 10000 6.7 50 00:46 03.01.2020
5335 Clouds 26 1017 73 10000 1 180 00:26 03.01.2020
5336 Clouds 25 1017 73 10000 3.6 130 23:55 02.01.2020
5337 Clouds 25 1017 73 10000 3.6 130 23:37 02.01.2020
5338 Clouds 24 1017 73 10000 3.6 130 23:18 02.01.2020
5339 Clouds 23 1017 88 10000 1 220 22:42 02.01.2020
5340 Clouds 22 1017 88 10000 0.5 200 22:20 02.01.2020
5341 Clouds 22 1017 88 10000 0.5 200 21:57 02.01.2020
5342 Clouds 22 1017 88 10000 0.5 200 21:57 02.01.2020
5343 Clouds 22 1017 83 10000 2.1 200 21:38 02.01.2020
5344 Clouds 22 1017 83 10000 2.1 200 21:20 02.01.2020
5345 Clouds 21 1017 83 10000 2.6 170 20:57 02.01.2020
5346 Clouds 21 1016 83 10000 2.6 170 20:38 02.01.2020
5347 Rain 21 1016 83 8000 3.6 180 20:20 02.01.2020
5348 Rain 21 1016 83 8000 3.6 180 20:20 02.01.2020
5349 Rain 21 1016 83 8000 3.6 180 19:55 02.01.2020
5350 Rain 21 1016 83 9000 2.6 190 19:36 02.01.2020
5351 Rain 21 1016 83 9000 2.6 190 19:18 02.01.2020
5352 Drizzle 21 1016 83 9000 3.1 180 18:56 02.01.2020
5353 Rain 21 1016 83 10000 3.6 180 18:37 02.01.2020
5354 Rain 21 1016 83 10000 3.6 180 18:19 02.01.2020
5355 Rain 21 1016 83 10000 3.1 170 17:55 02.01.2020
5356 Drizzle 21 1016 83 9000 2.6 170 17:36 02.01.2020
5357 Drizzle 22 1016 83 9000 2.6 170 17:18 02.01.2020
5358 Drizzle 22 1016 83 9000 2.6 170 17:18 02.01.2020
5359 Clouds 22 1017 83 10000 2.6 150 16:54 02.01.2020
5360 Clouds 22 1017 83 10000 3.1 180 16:36 02.01.2020
5361 Clouds 22 1017 83 10000 3.1 180 16:18 02.01.2020
5362 Clouds 22 1018 83 10000 2.1 180 15:42 02.01.2020
5363 Rain 22 1018 83 10000 2.6 170 15:24 02.01.2020
5364 Rain 22 1018 83 10000 2.6 170 14:58 02.01.2020
5365 Rain 22 1019 88 10000 3.1 170 14:37 02.01.2020
5366 Drizzle 22 1019 83 10000 3.6 160 14:19 02.01.2020
5367 Drizzle 22 1019 83 10000 3.6 160 13:58 02.01.2020
5368 Drizzle 22 1019 78 9000 3.1 150 13:38 02.01.2020
5369 Clouds 22 1019 78 10000 3.6 150 13:18 02.01.2020
5370 Clouds 22 1018 73 10000 4.1 140 12:42 02.01.2020
5371 Clouds 22 1018 73 10000 4.1 140 12:21 02.01.2020
5372 Clouds 22 1018 73 10000 5.1 130 11:42 02.01.2020
5373 Clouds 22 1018 73 10000 5.1 130 11:21 02.01.2020
5374 Clouds 23 1017 69 10000 4.6 130 10:46 02.01.2020
5375 Clouds 23 1017 69 10000 4.6 130 10:28 02.01.2020
5376 Clouds 23 1017 69 10000 5.1 120 09:58 02.01.2020
5377 Clouds 23 1017 69 10000 5.1 120 09:35 02.01.2020
5378 Clouds 23 1016 69 10000 6.2 130 08:59 02.01.2020
5379 Clouds 23 1016 69 10000 5.7 130 08:40 02.01.2020
5380 Clouds 24 1016 69 10000 5.7 130 08:21 02.01.2020
5381 Clouds 24 1016 57 10000 6.7 140 07:47 02.01.2020
5382 Clouds 24 1016 57 10000 6.7 140 07:27 02.01.2020
5383 Clouds 25 1017 57 10000 6.7 140 06:43 02.01.2020
5384 Clouds 26 1017 57 10000 6.7 140 05:42 02.01.2020
5385 Clouds 26 1017 50 10000 5.7 140 04:36 02.01.2020
5386 Clouds 26 1018 50 10000 5.1 140 03:54 02.01.2020
5387 Clouds 25 1019 50 10000 4.6 130 02:21 02.01.2020
5388 Clouds 24 1019 53 10000 4.1 130 01:57 02.01.2020
5389 Clouds 24 1019 56 10000 4.1 130 01:30 02.01.2020
5390 Clouds 23 1019 60 10000 4.1 130 00:52 02.01.2020
5391 Clouds 22 1019 73 9000 4.1 170 00:28 02.01.2020
5392 Clouds 22 1019 73 9000 4.1 160 23:47 01.01.2020
5393 Clouds 21 1019 73 9000 4.1 160 23:24 01.01.2020
5394 Clouds 21 1019 77 9000 5.1 170 22:54 01.01.2020
5395 Clouds 21 1019 64 10000 5.1 150 22:36 01.01.2020
5396 Clouds 20 1019 64 10000 5.1 150 22:18 01.01.2020
5397 Clouds 20 1019 77 10000 2.1 250 21:42 01.01.2020
5398 Clouds 20 1019 68 10000 5.1 150 21:21 01.01.2020
5399 Clouds 20 1018 77 6000 6.2 180 20:58 01.01.2020
5400 Clouds 19 1018 82 6000 6.7 180 20:39 01.01.2020
5401 Clouds 19 1018 82 6000 6.7 180 20:20 01.01.2020
5402 Clouds 19 1018 82 10000 1.5 230 19:58 01.01.2020
5403 Clouds 19 1018 82 10000 2.6 220 19:39 01.01.2020
5404 Clouds 19 1018 82 10000 2.6 220 19:20 01.01.2020
5405 Clouds 19 1017 82 9000 6.7 180 18:57 01.01.2020
5406 Clouds 19 1018 82 10000 2.6 220 18:39 01.01.2020
5407 Clouds 19 1017 82 10000 7.7 190 18:20 01.01.2020
5408 Clouds 19 1017 82 10000 7.7 190 17:59 01.01.2020
5409 Clouds 19 1018 82 10000 3.6 180 17:40 01.01.2020
5410 Rain 19 1018 82 10000 3.6 180 17:20 01.01.2020
5411 Rain 19 1018 77 10000 6.7 190 16:59 01.01.2020
5412 Rain 19 1018 77 10000 4.1 170 16:38 01.01.2020
5413 Rain 19 1018 77 10000 4.1 170 16:20 01.01.2020
5414 Clouds 19 1018 88 10000 7.7 190 15:57 01.01.2020
5415 Clouds 19 1018 88 10000 8.7 190 15:38 01.01.2020
5416 Clouds 19 1018 88 10000 8.7 190 15:20 01.01.2020
5417 Clouds 20 1018 88 8000 8.2 190 14:56 01.01.2020
5418 Clouds 20 1018 88 10000 8.7 200 14:38 01.01.2020
5419 Clouds 20 1018 88 10000 8.7 200 14:19 01.01.2020
5420 Clouds 20 1018 83 10000 8.7 190 14:19 01.01.2020
5421 Clouds 20 1018 88 10000 8.7 200 14:19 01.01.2020
5422 Clouds 21 1018 83 10000 8.7 190 13:55 01.01.2020
5423 Clouds 21 1018 83 10000 8.7 200 13:37 01.01.2020
5424 Clouds 21 1018 83 10000 7.7 200 13:18 01.01.2020
5425 Clouds 21 1018 83 10000 7.7 200 12:55 01.01.2020
5426 Clouds 21 1018 83 10000 7.7 190 12:36 01.01.2020
5427 Clouds 21 1017 88 10000 6.7 180 12:18 01.01.2020
5428 Clouds 21 1017 83 10000 6.2 170 11:42 01.01.2020
5429 Clouds 22 1017 78 10000 5.7 160 11:21 01.01.2020
5430 Clouds 22 1017 78 10000 5.7 160 10:57 01.01.2020
5431 Clouds 22 1016 78 10000 5.1 150 10:38 01.01.2020
5432 Clouds 22 1016 78 10000 5.1 150 10:19 01.01.2020
5433 Clouds 22 1015 78 10000 6.2 150 09:55 01.01.2020
5434 Clouds 22 1015 78 10000 5.7 150 09:36 01.01.2020
5435 Clouds 22 1014 73 10000 6.7 150 09:18 01.01.2020
5436 Clouds 23 1014 73 10000 6.7 150 08:54 01.01.2020
5437 Clouds 23 1014 73 10000 6.2 150 08:36 01.01.2020
5438 Clouds 23 1014 73 10000 6.2 150 08:18 01.01.2020
5439 Clouds 23 1013 69 10000 7.7 140 07:42 01.01.2020
5440 Clouds 24 1013 69 10000 7.7 140 07:24 01.01.2020
5441 Clouds 24 1013 65 10000 7.2 150 06:44 01.01.2020
5442 Clouds 25 1013 64 10000 8.2 130 06:19 01.01.2020
5443 Clouds 27 1013 61 6000 6.7 140 04:38 01.01.2020
5444 Clouds 27 1013 57 6000 6.7 130 03:41 01.01.2020
5445 Clouds 27 1013 57 6000 6.7 130 03:22 01.01.2020
5446 Clouds 27 1013 64 6000 5.1 160 02:55 01.01.2020
5447 Clouds 27 1012 45 10000 2.6 80 02:32 01.01.2020
5448 Clouds 26 1013 50 10000 2.6 340 01:45 01.01.2020
5449 Clouds 25 1013 50 10000 2.6 340 01:24 01.01.2020
5450 Clouds 24 1014 50 10000 3.6 60 00:57 01.01.2020
5451 Clouds 23 1014 68 10000 5.1 190 00:38 01.01.2020
5452 Clouds 23 1014 68 10000 5.1 190 00:20 01.01.2020
5453 Clouds 22 1015 72 10000 4.6 210 23:40 31.12.2019
5454 Clouds 21 1015 72 10000 4.6 210 23:21 31.12.2019
5455 Clouds 21 1014 68 10000 5.1 220 22:57 31.12.2019
5456 Clouds 20 1014 68 10000 6.2 210 22:38 31.12.2019
5457 Clouds 20 1014 68 10000 5.7 210 22:18 31.12.2019
5458 Clouds 20 1014 68 10000 5.7 210 21:56 31.12.2019
5459 Clouds 20 1014 68 10000 6.7 210 21:37 31.12.2019
5460 Clouds 19 1014 68 10000 6.7 210 21:19 31.12.2019
5461 Clouds 19 1014 68 10000 6.7 210 21:19 31.12.2019
5462 Clouds 19 1013 68 10000 7.2 210 20:54 31.12.2019
5463 Clouds 19 1013 72 10000 7.7 210 20:36 31.12.2019
5464 Clouds 19 1013 72 10000 7.7 210 20:18 31.12.2019
5465 Clouds 19 1012 68 10000 7.2 210 19:41 31.12.2019
5466 Clouds 19 1012 68 10000 7.2 210 19:22 31.12.2019
5467 Clouds 19 1012 72 10000 7.7 210 18:58 31.12.2019
5468 Clouds 19 1012 72 10000 7.7 210 18:40 31.12.2019
5469 Clouds 19 1012 72 10000 7.7 210 18:20 31.12.2019
5470 Clouds 19 1012 72 10000 7.7 210 17:56 31.12.2019
5471 Clouds 19 1012 77 10000 7.7 200 17:38 31.12.2019
5472 Clouds 19 1012 77 10000 7.7 200 17:19 31.12.2019
5473 Clouds 19 1012 77 10000 8.2 200 16:57 31.12.2019
5474 Clouds 19 1013 77 10000 7.7 210 16:38 31.12.2019
5475 Clouds 19 1013 77 10000 7.7 200 16:19 31.12.2019
5476 Clouds 19 1013 77 10000 7.7 200 15:57 31.12.2019
5477 Clouds 19 1013 77 10000 7.2 200 15:38 31.12.2019
5478 Clouds 19 1013 77 10000 7.2 200 15:20 31.12.2019
5479 Clouds 20 1013 72 10000 8.2 200 14:58 31.12.2019
5480 Clouds 20 1014 72 10000 9.8 200 14:38 31.12.2019
5481 Clouds 20 1014 72 10000 9.8 200 14:19 31.12.2019
5482 Clouds 20 1014 72 10000 10.3 200 13:58 31.12.2019
5483 Clouds 20 1013 72 10000 9.8 190 13:40 31.12.2019
5484 Clouds 20 1013 72 10000 9.8 190 13:21 31.12.2019
5485 Clouds 20 1013 77 10000 10.3 200 12:58 31.12.2019
5486 Clouds 20 1013 77 10000 9.8 190 12:40 31.12.2019
5487 Clouds 20 1013 77 10000 9.8 190 12:20 31.12.2019
5488 Clouds 20 1012 77 10000 10.3 190 11:56 31.12.2019
5489 Clouds 20 1011 73 9000 13.9 190 11:38 31.12.2019
5490 Clouds 20 1011 73 9000 13.9 190 11:38 31.12.2019
5491 Clouds 21 1011 73 9000 13.9 190 11:20 31.12.2019
5492 Clouds 21 1010 77 10000 14.9 190 10:58 31.12.2019
5493 Clouds 21 1009 82 7000 15.4 180 10:38 31.12.2019
5494 Clouds 21 1009 82 7000 15.4 180 10:20 31.12.2019
5495 Clouds 22 1009 82 7000 15.4 180 09:59 31.12.2019
5496 Clouds 22 1008 82 7000 15.9 180 09:39 31.12.2019
5497 Clouds 23 1008 82 7000 15.9 180 09:21 31.12.2019
5498 Clouds 27 1007 82 7000 14.9 180 08:57 31.12.2019
5499 Clouds 28 1006 64 10000 15.9 190 08:39 31.12.2019
5500 Clear 36 1002 9 10000 4.6 260 08:20 31.12.2019
5501 Smoke 38 1003 29 10000 15.4 180 07:43 31.12.2019
5502 Clear 41 1002 8 10000 4.6 240 07:22 31.12.2019
5503 Clear 40 1002 26 10000 11.8 40 06:50 31.12.2019
5504 Smoke 40 1003 26 10000 15.4 180 05:59 31.12.2019
5505 Clear 43 1003 5 10000 6.2 270 04:30 31.12.2019
5506 Clear 43 1004 7 10000 5.7 340 03:59 31.12.2019
5507 Clear 43 1004 7 10000 5.7 340 03:59 31.12.2019
5508 Clear 42 1004 7 10000 7.2 350 02:56 31.12.2019
5509 Smoke 41 1005 12 8000 7.7 60 02:19 31.12.2019
5510 Smoke 40 1005 12 8000 7.7 60 01:48 31.12.2019
5511 Clear 39 1006 16 8000 1 100 01:29 31.12.2019
5512 Smoke 38 1006 26 7000 7.7 60 00:48 31.12.2019
5513 Clear 36 1006 28 10000 2.1 20 00:23 31.12.2019
5514 Smoke 34 1007 40 7000 5.1 130 23:58 30.12.2019
5515 Clear 31 1007 51 8000 3.1 330 23:38 30.12.2019
5516 Clear 29 1007 51 8000 3.1 330 23:20 30.12.2019
5517 Smoke 27 1007 57 9000 5.1 130 22:59 30.12.2019
5518 Clear 25 1007 61 10000 2.1 330 22:41 30.12.2019
5519 Clear 24 1007 61 10000 2.1 330 22:20 30.12.2019
5520 Smoke 23 1007 64 10000 4.1 330 21:57 30.12.2019
5521 Clear 22 1007 73 10000 2.7 313 21:39 30.12.2019
5522 Clear 21 1007 73 10000 2.7 313 21:20 30.12.2019
5523 Smoke 20 1007 78 10000 4.1 330 20:58 30.12.2019
5524 Smoke 20 1007 78 10000 4.1 330 20:40 30.12.2019
5525 Smoke 19 1007 78 10000 4.1 330 20:20 30.12.2019
5526 Smoke 19 1007 83 10000 4.1 330 19:58 30.12.2019
5527 Clear 19 1007 83 10000 2.6 40 19:39 30.12.2019
5528 Clear 19 1007 83 10000 2.6 40 19:39 30.12.2019
5529 Clear 19 1007 83 10000 2.6 40 19:19 30.12.2019
5530 Smoke 19 1006 77 10000 4.1 330 18:59 30.12.2019
5531 Clear 19 1006 77 10000 1.29 310 18:40 30.12.2019
5532 Clear 19 1006 77 10000 1.29 310 18:20 30.12.2019
5533 Clear 20 1006 77 10000 1.29 310 17:57 30.12.2019
5534 Clear 20 1007 73 10000 4.1 20 17:39 30.12.2019
5535 Clear 20 1007 73 10000 4.1 20 17:19 30.12.2019
5536 Clear 21 1007 78 10000 4.1 30 16:58 30.12.2019
5537 Clear 21 1007 78 10000 6.7 30 16:37 30.12.2019
5538 Clear 21 1007 78 10000 6.7 30 16:19 30.12.2019
5539 Clear 21 1008 69 10000 7.2 40 15:56 30.12.2019
5540 Clear 22 1008 73 10000 4.6 40 15:37 30.12.2019
5541 Clear 22 1008 73 10000 4.6 40 15:19 30.12.2019
5542 Clear 22 1008 73 10000 5.7 50 14:43 30.12.2019
5543 Clouds 23 1008 73 10000 5.7 50 14:20 30.12.2019
5544 Clouds 23 1009 69 10000 6.7 40 13:58 30.12.2019
5545 Clouds 24 1009 69 10000 6.7 10 13:40 30.12.2019
5546 Clouds 24 1009 69 10000 6.7 10 13:22 30.12.2019
5547 Clouds 24 1009 69 10000 6.7 10 13:22 30.12.2019
5548 Clouds 24 1008 69 10000 5.7 10 12:57 30.12.2019
5549 Clouds 24 1008 64 10000 8.2 20 12:37 30.12.2019
5550 Clouds 24 1008 64 10000 8.2 20 12:18 30.12.2019
5551 Clouds 25 1008 64 10000 7.7 20 11:45 30.12.2019
5552 Clouds 26 1008 61 10000 8.7 30 11:22 30.12.2019
5553 Smoke 26 1008 61 10000 7.2 20 10:59 30.12.2019
5554 Clouds 27 1008 61 10000 9.8 40 10:40 30.12.2019
5555 Clouds 27 1008 61 10000 9.8 40 10:19 30.12.2019
5556 Clouds 27 1008 61 10000 10.3 40 09:43 30.12.2019
5557 Smoke 28 1008 57 10000 7.2 20 09:21 30.12.2019
5558 Smoke 29 1007 57 10000 7.2 20 08:57 30.12.2019
5559 Clouds 30 1007 51 10000 11.3 30 08:38 30.12.2019
5560 Clouds 30 1007 51 10000 11.3 30 08:20 30.12.2019
5561 Smoke 31 1007 51 10000 7.2 20 07:48 30.12.2019
5562 Clouds 33 1008 42 10000 11.3 30 07:23 30.12.2019
5563 Clouds 33 1009 45 10000 9.8 40 06:39 30.12.2019
5564 Clouds 35 1010 54 10000 10.3 30 04:31 30.12.2019
5565 Clouds 34 1011 51 10000 10.3 30 03:50 30.12.2019
5566 Smoke 33 1012 51 10000 10.3 30 02:47 30.12.2019
5567 Smoke 30 1012 54 10000 7.2 50 02:27 30.12.2019
5568 Clouds 29 1013 57 10000 2.6 150 01:39 30.12.2019
5569 Clouds 28 1013 57 10000 2.6 150 01:18 30.12.2019
5570 Clouds 25 1013 61 10000 2.6 290 00:42 30.12.2019
5571 Clouds 24 1014 65 10000 7.2 50 23:58 29.12.2019
5572 Clouds 23 1014 73 10000 2.6 40 23:37 29.12.2019
5573 Clouds 22 1014 78 10000 2.6 30 23:19 29.12.2019
5574 Clouds 21 1014 78 10000 3.6 30 22:41 29.12.2019
5575 Clouds 21 1014 78 10000 3.6 30 22:22 29.12.2019
5576 Clouds 21 1014 83 10000 3.6 30 21:56 29.12.2019
5577 Clouds 20 1014 88 10000 3.1 50 21:38 29.12.2019
5578 Clouds 19 1014 93 10000 0.71 276 21:20 29.12.2019
5579 Clouds 18 1014 93 10000 0.71 276 20:57 29.12.2019
5580 Clouds 18 1014 93 10000 1 200 20:38 29.12.2019
5581 Clouds 18 1014 93 10000 1 200 20:20 29.12.2019
5582 Clouds 18 1014 93 10000 1.5 200 19:58 29.12.2019
5583 Clouds 18 1013 93 10000 2.1 200 19:39 29.12.2019
5584 Clouds 18 1013 93 10000 2.1 200 19:20 29.12.2019
5585 Clouds 19 1013 88 10000 2.1 200 18:56 29.12.2019
5586 Clouds 19 1013 88 10000 2.1 220 18:38 29.12.2019
5587 Clouds 19 1013 88 10000 2.1 220 18:19 29.12.2019
5588 Clouds 19 1013 88 10000 2.1 220 18:19 29.12.2019
5589 Clouds 19 1013 88 10000 2.1 220 17:57 29.12.2019
5590 Clouds 19 1014 83 10000 2.6 40 17:38 29.12.2019
5591 Clouds 19 1014 88 10000 2.1 230 17:20 29.12.2019
5592 Clouds 20 1014 83 10000 2.1 210 16:56 29.12.2019
5593 Clouds 20 1014 83 10000 1.5 220 16:37 29.12.2019
5594 Clouds 20 1014 83 10000 1.5 210 16:19 29.12.2019
5595 Clouds 20 1014 83 10000 1.5 210 15:56 29.12.2019
5596 Clouds 21 1014 78 10000 4.6 30 15:38 29.12.2019
5597 Clouds 21 1014 73 10000 2.1 170 15:19 29.12.2019
5598 Clouds 21 1014 73 10000 2.1 170 14:56 29.12.2019
5599 Clouds 21 1014 83 10000 4.6 60 14:38 29.12.2019
5600 Clouds 21 1015 83 10000 3.6 60 14:18 29.12.2019
5601 Clouds 22 1015 83 10000 3.6 60 13:57 29.12.2019
5602 Clouds 22 1015 83 10000 4.1 10 13:37 29.12.2019
5603 Clouds 22 1015 83 10000 4.1 10 13:37 29.12.2019
5604 Clouds 22 1015 83 10000 4.1 10 13:19 29.12.2019
5605 Clouds 22 1015 83 10000 4.1 10 12:45 29.12.2019
5606 Clouds 23 1015 83 10000 2.6 120 12:26 29.12.2019
5607 Clouds 23 1015 78 10000 2.6 120 11:57 29.12.2019
5608 Clouds 24 1015 78 10000 4.1 150 11:38 29.12.2019
5609 Clouds 24 1015 78 10000 4.1 150 11:20 29.12.2019
5610 Clouds 25 1014 61 10000 2.6 120 10:43 29.12.2019
5611 Clouds 26 1014 61 10000 2.6 120 10:25 29.12.2019
5612 Clouds 26 1014 57 10000 3.6 80 09:58 29.12.2019
5613 Clouds 27 1014 61 10000 5.7 50 09:39 29.12.2019
5614 Clouds 27 1014 61 10000 5.7 50 09:21 29.12.2019
5615 Clouds 29 1013 57 10000 8.2 30 08:48 29.12.2019
5616 Clouds 28 1013 51 10000 2.6 300 08:28 29.12.2019
5617 Clouds 30 1012 48 10000 5.7 50 07:57 29.12.2019
5618 Clouds 32 1012 48 10000 6.7 40 07:29 29.12.2019
5619 Clouds 32 1012 48 10000 6.7 40 07:29 29.12.2019
5620 Clouds 31 1012 48 10000 5.7 30 06:57 29.12.2019
5621 Clouds 32 1013 48 10000 7.2 30 06:26 29.12.2019
5622 Clouds 32 1013 48 10000 6.2 40 05:54 29.12.2019
5623 Clear 33 1014 51 10000 3.6 30 04:37 29.12.2019
5624 Clear 32 1014 54 10000 3.6 40 03:59 29.12.2019
5625 Clear 30 1015 57 10000 3.1 30 03:21 29.12.2019
5626 Clouds 28 1015 61 10000 3.1 30 02:21 29.12.2019
5627 Clouds 27 1015 57 10000 0.5 150 01:42 29.12.2019
5628 Clouds 27 1015 57 10000 0.5 150 01:22 29.12.2019
5629 Clouds 25 1016 57 10000 0.5 160 00:42 29.12.2019
5630 Clouds 24 1016 69 10000 1.5 270 00:24 29.12.2019
5631 Clouds 23 1016 69 10000 1.99 12 23:45 28.12.2019
5632 Clear 22 1016 73 10000 0.55 199 23:18 28.12.2019
5633 Clear 22 1016 73 10000 0.55 199 22:54 28.12.2019
5634 Clear 21 1016 73 10000 0.55 199 22:36 28.12.2019
5635 Clear 21 1016 73 10000 0.55 199 22:18 28.12.2019
5636 Clouds 20 1016 88 10000 0.55 199 21:55 28.12.2019
5637 Clouds 20 1016 88 10000 0.55 199 21:36 28.12.2019
5638 Clouds 19 1016 82 10000 2.1 210 21:18 28.12.2019
5639 Clear 18 1015 82 10000 1.5 230 20:38 28.12.2019
5640 Clouds 18 1015 82 10000 1.5 220 20:20 28.12.2019
5641 Clouds 18 1015 82 10000 1.5 220 19:59 28.12.2019
5642 Clouds 19 1015 77 10000 1.5 200 19:40 28.12.2019
5643 Clouds 19 1015 77 10000 1.5 200 19:22 28.12.2019
5644 Clouds 19 1015 77 10000 1.5 210 18:59 28.12.2019
5645 Clouds 19 1014 73 10000 2.1 200 18:40 28.12.2019
5646 Clouds 19 1014 73 10000 2.1 200 18:20 28.12.2019
5647 Clouds 20 1014 72 10000 2.6 220 17:57 28.12.2019
5648 Clouds 20 1014 68 10000 2.1 230 17:38 28.12.2019
5649 Clouds 20 1014 68 10000 2.1 230 17:19 28.12.2019
5650 Clouds 20 1015 78 10000 3.6 60 16:47 28.12.2019
5651 Clouds 21 1015 77 10000 2.6 60 16:26 28.12.2019
5652 Clouds 21 1015 78 10000 1.5 80 15:57 28.12.2019
5653 Clouds 21 1015 78 10000 2.03 157 15:39 28.12.2019
5654 Clouds 21 1015 78 10000 2.03 157 15:19 28.12.2019
5655 Clouds 21 1015 73 10000 3.6 30 14:44 28.12.2019
5656 Clouds 22 1015 73 10000 3.6 30 14:24 28.12.2019
5657 Clear 22 1015 73 10000 3.6 30 14:24 28.12.2019
5658 Clear 22 1015 73 10000 4.6 40 13:57 28.12.2019
5659 Clear 22 1015 73 10000 4.1 40 13:38 28.12.2019
5660 Clouds 22 1015 73 10000 4.1 40 13:19 28.12.2019
5661 Clouds 23 1015 69 10000 7.2 10 12:44 28.12.2019
5662 Clouds 23 1015 69 10000 7.2 10 12:44 28.12.2019
5663 Clouds 23 1015 69 10000 7.2 10 12:25 28.12.2019
5664 Clouds 23 1015 69 10000 8.7 20 11:58 28.12.2019
5665 Clouds 24 1014 69 10000 10.3 30 11:39 28.12.2019
5666 Clear 25 1014 69 10000 10.3 30 11:20 28.12.2019
5667 Clear 25 1014 61 10000 12.9 30 10:46 28.12.2019
5668 Clear 26 1014 61 10000 12.9 30 10:23 28.12.2019
5669 Clear 26 1014 57 10000 10.8 30 09:58 28.12.2019
5670 Clear 27 1013 54 10000 12.3 30 09:40 28.12.2019
5671 Clear 28 1013 51 10000 12.3 30 09:21 28.12.2019
5672 Clear 29 1013 51 10000 12.3 30 08:45 28.12.2019
5673 Clear 30 1013 50 10000 13.4 30 08:27 28.12.2019
5674 Clear 30 1013 48 10000 11.8 30 07:59 28.12.2019
5675 Clear 31 1013 48 10000 12.3 40 07:39 28.12.2019
5676 Clear 32 1013 45 10000 11.3 30 06:50 28.12.2019
5677 Clear 33 1015 40 10000 9.8 40 05:40 28.12.2019
5678 Clear 35 1016 45 10000 8.7 40 03:48 28.12.2019
5679 Clear 33 1017 48 10000 6.2 60 02:50 28.12.2019
5680 Clear 31 1017 45 10000 7.2 50 02:19 28.12.2019
5681 Clear 30 1017 48 10000 6.7 60 01:50 28.12.2019
5682 Clear 29 1018 48 10000 7.2 30 01:21 28.12.2019
5683 Clear 27 1018 53 10000 6.7 30 00:42 28.12.2019
5684 Clear 27 1018 53 10000 6.7 30 00:23 28.12.2019
5685 Clear 25 1018 53 10000 6.2 10 23:45 27.12.2019
5686 Clear 24 1018 57 10000 5.7 30 23:21 27.12.2019
5687 Clear 24 1018 60 10000 4.6 30 22:58 27.12.2019
5688 Clear 22 1018 60 10000 4.6 30 22:39 27.12.2019
5689 Clear 22 1018 60 10000 4.6 30 22:21 27.12.2019
5690 Clear 21 1018 64 10000 3.6 30 21:59 27.12.2019
5691 Clear 20 1018 68 10000 3.1 10 21:40 27.12.2019
5692 Clear 19 1018 100 10000 1.88 347 21:22 27.12.2019
5693 Clear 17 1018 100 10000 1.88 347 20:42 27.12.2019
5694 Clear 17 1018 100 10000 1.97 345 20:24 27.12.2019
5695 Clear 17 1017 100 10000 1.9 16 19:57 27.12.2019
5696 Clear 17 1017 100 10000 1.9 16 19:57 27.12.2019
5697 Clear 17 1017 93 10000 1.9 16 19:38 27.12.2019
5698 Clear 17 1017 93 10000 1.9 16 19:38 27.12.2019
5699 Clear 17 1017 93 10000 1.9 16 19:19 27.12.2019
5700 Clear 18 1017 93 10000 1.9 16 18:55 27.12.2019
5701 Clear 18 1017 100 10000 1.9 16 18:36 27.12.2019
5702 Clear 18 1017 93 10000 1.9 16 18:18 27.12.2019
5703 Clear 18 1017 93 10000 1.9 16 17:42 27.12.2019
5704 Clear 18 1017 93 10000 2.08 0 17:20 27.12.2019
5705 Clear 18 1017 88 10000 2.08 0 16:59 27.12.2019
5706 Clear 19 1018 88 10000 2.08 0 16:41 27.12.2019
5707 Clear 19 1018 88 10000 2.08 0 16:22 27.12.2019
5708 Clear 19 1018 73 10000 5.7 20 15:57 27.12.2019
5709 Clear 20 1018 73 10000 7.7 20 15:37 27.12.2019
5710 Clear 20 1018 82 10000 2.08 0 15:19 27.12.2019
5711 Clear 20 1018 82 10000 2.08 0 14:55 27.12.2019
5712 Clear 20 1019 77 10000 1 180 14:37 27.12.2019
5713 Clear 21 1019 77 10000 1 180 14:19 27.12.2019
5714 Clear 21 1019 69 10000 8.7 30 13:46 27.12.2019
5715 Clear 21 1019 69 10000 8.7 30 13:23 27.12.2019
5716 Clear 22 1018 68 10000 3.1 80 12:49 27.12.2019
5717 Clear 22 1018 68 10000 3.1 80 12:29 27.12.2019
5718 Clear 22 1018 69 10000 8.7 30 11:59 27.12.2019
5719 Clear 22 1018 64 10000 3.1 80 11:41 27.12.2019
5720 Clear 23 1018 64 10000 9.3 30 11:20 27.12.2019
5721 Clear 23 1018 64 10000 8.7 30 10:47 27.12.2019
5722 Clear 23 1018 64 10000 8.7 30 10:24 27.12.2019
5723 Clear 24 1018 64 10000 9.8 30 09:58 27.12.2019
5724 Clear 24 1017 61 10000 11.3 30 09:39 27.12.2019
5725 Clear 25 1017 61 10000 7.2 30 09:21 27.12.2019
5726 Clear 25 1017 61 10000 7.2 30 08:49 27.12.2019
5727 Clear 26 1016 57 10000 11.8 40 08:30 27.12.2019
5728 Clear 26 1016 54 10000 10.8 40 07:48 27.12.2019
5729 Clear 27 1017 51 10000 11.8 50 07:26 27.12.2019
5730 Clear 28 1017 44 10000 11.3 50 06:33 27.12.2019
5731 Clear 29 1018 42 10000 10.3 60 04:51 27.12.2019
5732 Clear 30 1019 37 10000 10.3 40 02:49 27.12.2019
5733 Clear 29 1020 37 10000 10.3 40 01:56 27.12.2019
5734 Clear 28 1020 39 10000 7.7 30 01:23 27.12.2019
5735 Clear 27 1020 42 10000 6.7 30 00:53 27.12.2019
5736 Clear 26 1020 44 10000 6.7 30 00:34 27.12.2019
5737 Clear 25 1020 47 10000 7.7 40 23:59 26.12.2019
5738 Clouds 25 1020 50 10000 6.2 30 23:41 26.12.2019
5739 Clouds 24 1020 50 10000 6.2 30 23:21 26.12.2019
5740 Clear 22 1020 73 10000 2.1 220 22:45 26.12.2019
5741 Clear 22 1020 73 10000 2.1 220 22:22 26.12.2019
5742 Clear 21 1020 69 10000 4.1 20 21:59 26.12.2019
5743 Clear 21 1019 69 10000 3.1 20 21:38 26.12.2019
5744 Clear 19 1020 82 10000 2 346 21:20 26.12.2019
5745 Clear 18 1019 87 10000 2 346 20:46 26.12.2019
5746 Clear 17 1019 87 10000 1.09 341 20:23 26.12.2019
5747 Clear 17 1018 87 10000 1.09 341 19:59 26.12.2019
5748 Clear 18 1018 87 10000 1.09 341 19:40 26.12.2019
5749 Clear 18 1018 87 10000 1.09 341 19:21 26.12.2019
5750 Clear 18 1018 77 10000 1.09 341 18:58 26.12.2019
5751 Clear 18 1018 82 10000 1.09 341 18:39 26.12.2019
5752 Clear 18 1018 82 10000 1.09 341 18:19 26.12.2019
5753 Clear 19 1018 78 10000 3.1 40 17:55 26.12.2019
5754 Clear 19 1018 78 10000 4.1 30 17:37 26.12.2019
5755 Clear 19 1018 78 10000 4.1 30 17:18 26.12.2019
5756 Clear 20 1018 72 10000 2.1 190 16:41 26.12.2019
5757 Clear 20 1018 72 10000 2.1 190 16:22 26.12.2019
5758 Clear 20 1019 73 10000 5.1 40 15:56 26.12.2019
5759 Clear 20 1019 68 10000 2.6 220 15:37 26.12.2019
5760 Clear 20 1019 68 10000 2.6 220 15:18 26.12.2019
5761 Clear 21 1019 69 10000 4.6 40 14:40 26.12.2019
5762 Clear 21 1019 69 10000 4.6 40 14:21 26.12.2019
5763 Clear 21 1019 73 10000 5.7 40 13:43 26.12.2019
5764 Clear 21 1019 73 10000 5.7 40 13:21 26.12.2019
5765 Clear 21 1019 73 10000 5.7 40 13:21 26.12.2019
5766 Clouds 22 1019 73 10000 5.7 30 12:58 26.12.2019
5767 Clear 22 1019 77 0 1.79 13 12:39 26.12.2019
5768 Clear 22 1011 77 0 1.34 11 12:20 26.12.2019
5769 Clear 22 1018 69 10000 7.2 30 11:57 26.12.2019
5770 Clear 23 1018 69 10000 9.3 30 11:39 26.12.2019
5771 Clear 23 1018 69 10000 9.3 30 11:20 26.12.2019
5772 Clear 23 1017 69 10000 9.8 30 10:47 26.12.2019
5773 Clouds 24 1017 69 10000 6.2 10 10:19 26.12.2019
5774 Clouds 24 1017 69 10000 6.2 10 10:19 26.12.2019
5775 Clouds 24 1017 65 10000 6.2 10 09:50 26.12.2019
5776 Clouds 24 1017 61 10000 6.2 10 09:32 26.12.2019
5777 Clear 25 1016 61 10000 11.3 40 08:55 26.12.2019
5778 Clear 25 1016 57 10000 10.3 40 08:36 26.12.2019
5779 Clear 26 1016 57 10000 10.3 40 08:18 26.12.2019
5780 Clear 27 1016 54 10000 12.9 40 07:30 26.12.2019
5781 Clear 27 1016 54 10000 12.9 40 07:30 26.12.2019
5782 Clear 28 1016 48 10000 11.3 40 06:54 26.12.2019
5783 Clear 28 1016 45 10000 11.8 40 06:32 26.12.2019
5784 Clear 29 1016 42 10000 11.8 40 05:46 26.12.2019
5785 Clear 30 1017 42 10000 12.3 50 04:59 26.12.2019
5786 Clear 30 1017 37 10000 11.3 50 04:30 26.12.2019
5787 Clear 30 1017 42 10000 10.8 50 03:19 26.12.2019
5788 Clear 29 1018 44 10000 8.7 50 02:40 26.12.2019
5789 Clear 29 1018 44 10000 8.7 50 02:19 26.12.2019
5790 Clouds 28 1018 51 10000 8.7 30 01:41 26.12.2019
5791 Clouds 28 1018 51 10000 8.7 30 01:22 26.12.2019
5792 Clouds 27 1019 54 10000 7.7 30 00:41 26.12.2019
5793 Clouds 26 1019 54 10000 7.7 30 00:22 26.12.2019
5794 Clouds 25 1019 54 10000 6.7 10 23:42 25.12.2019
5795 Clouds 24 1019 61 10000 4.6 360 23:21 25.12.2019
5796 Clouds 24 1019 65 10000 6.7 10 22:59 25.12.2019
5797 Clouds 23 1019 64 10000 6.2 10 22:40 25.12.2019
5798 Clouds 23 1019 64 10000 6.2 10 22:22 25.12.2019
5799 Clouds 22 1019 64 10000 6.2 10 22:22 25.12.2019
5800 Clouds 21 1019 69 10000 4.6 10 21:59 25.12.2019
5801 Clouds 21 1019 73 10000 3.1 10 21:40 25.12.2019
5802 Clouds 20 1019 88 10000 2.23 346 21:22 25.12.2019
5803 Clouds 19 1018 78 10000 2.1 20 20:58 25.12.2019
5804 Clouds 18 1018 93 10000 2.23 346 20:40 25.12.2019
5805 Clouds 18 1017 93 10000 1.17 315 20:18 25.12.2019
5806 Clouds 18 1017 93 10000 1.17 315 19:57 25.12.2019
5807 Clouds 19 1017 78 10000 2.6 40 19:39 25.12.2019
5808 Clouds 19 1017 78 10000 2.6 40 19:21 25.12.2019
5809 Clouds 18 1017 88 10000 1.5 250 18:39 25.12.2019
5810 Clouds 19 1017 78 10000 3.1 30 18:20 25.12.2019
5811 Clouds 19 1017 78 10000 3.6 30 17:43 25.12.2019
5812 Clouds 19 1017 78 10000 3.6 30 17:21 25.12.2019
5813 Clouds 19 1017 78 10000 3.6 40 16:59 25.12.2019
5814 Clouds 19 1017 78 10000 3.6 40 16:39 25.12.2019
5815 Clouds 19 1017 78 10000 3.6 40 16:19 25.12.2019
5816 Clouds 20 1017 78 10000 4.1 30 15:58 25.12.2019
5817 Clouds 20 1017 82 10000 1.83 356 15:40 25.12.2019
5818 Clouds 20 1017 82 10000 1.83 356 15:21 25.12.2019
5819 Clouds 20 1017 77 10000 1.83 356 14:59 25.12.2019
5820 Clouds 20 1017 77 10000 3.1 80 14:40 25.12.2019
5821 Clouds 20 1017 77 10000 3.1 80 14:21 25.12.2019
5822 Clouds 21 1017 73 10000 3.6 80 13:57 25.12.2019
5823 Clouds 21 1017 73 10000 2.6 80 13:39 25.12.2019
5824 Clouds 21 1017 73 10000 2.6 80 13:19 25.12.2019
5825 Clouds 21 1017 68 10000 3.6 60 12:43 25.12.2019
5826 Clouds 22 1017 73 10000 5.1 30 12:21 25.12.2019
5827 Clouds 22 1017 73 10000 3.6 80 11:57 25.12.2019
5828 Clouds 22 1016 69 10000 7.7 30 11:39 25.12.2019
5829 Clouds 22 1016 60 10000 4.6 70 11:19 25.12.2019
5830 Clouds 23 1016 69 10000 7.7 30 10:39 25.12.2019
5831 Clouds 23 1016 69 10000 7.7 30 10:21 25.12.2019
5832 Clouds 23 1016 69 10000 8.2 40 09:51 25.12.2019
5833 Clouds 24 1016 64 10000 8.2 40 09:33 25.12.2019
5834 Clouds 24 1015 64 10000 8.2 50 08:51 25.12.2019
5835 Clouds 24 1015 61 10000 8.7 60 08:32 25.12.2019
5836 Clouds 25 1014 57 10000 9.8 50 07:59 25.12.2019
5837 Clouds 25 1014 57 10000 9.8 50 07:59 25.12.2019
5838 Clouds 26 1015 57 10000 9.3 60 07:37 25.12.2019
5839 Clouds 26 1015 57 10000 10.3 60 07:19 25.12.2019
5840 Clouds 27 1015 54 10000 9.8 70 06:23 25.12.2019
5841 Clouds 27 1016 51 10000 8.7 60 05:44 25.12.2019
5842 Clouds 27 1016 47 10000 8.7 70 04:40 25.12.2019
5843 Clouds 27 1016 47 10000 8.7 70 04:20 25.12.2019
5844 Clouds 27 1016 51 10000 8.2 60 03:43 25.12.2019
5845 Clouds 27 1017 47 10000 7.7 60 02:57 25.12.2019
5846 Clouds 27 1017 54 10000 7.7 60 02:28 25.12.2019
5847 Clouds 26 1017 57 10000 7.7 80 01:42 25.12.2019
5848 Clouds 26 1017 57 10000 7.7 80 01:18 25.12.2019
5849 Rain 25 1017 69 10000 3.6 130 00:41 25.12.2019
5850 Rain 24 1017 69 10000 3.6 130 00:22 25.12.2019
5851 Rain 24 1017 83 10000 5.7 170 23:39 24.12.2019
5852 Rain 23 1017 83 10000 5.7 170 23:20 24.12.2019
5853 Rain 22 1017 88 9000 4.1 80 22:42 24.12.2019
5854 Rain 22 1017 88 9000 4.1 80 22:24 24.12.2019
5855 Clouds 22 1017 88 9000 4.1 80 21:59 24.12.2019
5856 Clouds 21 1016 94 9000 6.2 170 21:40 24.12.2019
5857 Clouds 21 1016 94 9000 6.2 170 21:20 24.12.2019
5858 Rain 20 1016 94 9000 6.2 170 20:42 24.12.2019
5859 Rain 20 1016 94 9000 6.2 170 20:23 24.12.2019
5860 Rain 20 1016 94 9000 7.2 170 19:55 24.12.2019
5861 Rain 20 1015 94 9000 6.2 170 19:37 24.12.2019
5862 Rain 20 1015 88 8000 3.6 180 19:18 24.12.2019
5863 Rain 20 1015 94 10000 4.1 170 18:42 24.12.2019
5864 Rain 20 1015 88 8000 4.6 170 18:18 24.12.2019
5865 Rain 20 1015 88 8000 3.1 160 17:44 24.12.2019
5866 Rain 21 1015 88 8000 3.1 160 17:22 24.12.2019
5867 Rain 21 1015 88 8000 3.1 160 17:22 24.12.2019
5868 Rain 21 1015 88 9000 3.6 160 16:58 24.12.2019
5869 Clouds 21 1016 88 9000 3.6 160 16:40 24.12.2019
5870 Clouds 21 1016 88 9000 3.6 160 16:21 24.12.2019
5871 Rain 21 1016 88 10000 2.6 130 15:58 24.12.2019
5872 Rain 21 1016 88 10000 2.6 130 15:58 24.12.2019
5873 Clouds 21 1016 88 10000 1.5 100 15:37 24.12.2019
5874 Clouds 21 1016 88 10000 1.5 100 15:19 24.12.2019
5875 Rain 21 1016 88 10000 2.1 70 14:58 24.12.2019
5876 Clouds 21 1016 88 10000 3.6 80 14:40 24.12.2019
5877 Clouds 21 1016 88 10000 3.6 80 14:22 24.12.2019
5878 Rain 21 1016 88 10000 3.6 80 13:56 24.12.2019
5879 Rain 21 1016 88 10000 4.1 70 13:38 24.12.2019
5880 Rain 21 1016 88 10000 4.1 70 13:20 24.12.2019
5881 Clouds 21 1016 88 10000 2.6 150 12:57 24.12.2019
5882 Rain 21 1016 83 10000 3.6 80 12:38 24.12.2019
5883 Rain 22 1016 83 10000 3.6 80 12:19 24.12.2019
5884 Rain 22 1016 83 10000 3.6 90 11:57 24.12.2019
5885 Rain 22 1016 83 10000 4.6 90 11:38 24.12.2019
5886 Rain 22 1016 83 10000 4.6 90 11:20 24.12.2019
5887 Rain 22 1015 83 10000 3.6 120 10:57 24.12.2019
5888 Rain 22 1015 83 10000 4.1 100 10:38 24.12.2019
5889 Rain 22 1015 83 10000 4.1 100 10:20 24.12.2019
5890 Rain 22 1015 88 10000 5.1 90 09:57 24.12.2019
5891 Rain 23 1014 88 10000 4.6 110 09:39 24.12.2019
5892 Rain 23 1014 88 10000 4.6 110 09:39 24.12.2019
5893 Rain 23 1014 88 10000 4.6 110 09:21 24.12.2019
5894 Rain 24 1014 88 10000 6.7 190 08:47 24.12.2019
5895 Rain 24 1013 88 10000 6.7 170 08:24 24.12.2019
5896 Rain 24 1013 83 10000 7.7 160 07:59 24.12.2019
5897 Rain 24 1013 88 9000 6.2 170 07:39 24.12.2019
5898 Rain 24 1013 88 9000 6.2 170 07:21 24.12.2019
5899 Rain 25 1013 83 10000 7.7 180 06:40 24.12.2019
5900 Rain 25 1013 83 10000 7.7 180 06:19 24.12.2019
5901 Clouds 26 1013 83 10000 8.2 150 05:51 24.12.2019
5902 Clouds 26 1014 73 10000 6.7 170 05:19 24.12.2019
5903 Clouds 26 1014 73 10000 6.7 170 05:19 24.12.2019
5904 Clouds 27 1013 73 10000 6.7 150 04:21 24.12.2019
5905 Clouds 27 1013 61 10000 5.7 110 03:48 24.12.2019
5906 Rain 26 1014 61 10000 7.7 110 02:29 24.12.2019
5907 Rain 25 1014 65 10000 7.7 110 01:55 24.12.2019
5908 Rain 24 1014 65 10000 7.7 110 01:26 24.12.2019
5909 Clouds 24 1014 65 10000 7.7 50 00:58 24.12.2019
5910 Clouds 23 1014 69 10000 7.7 70 00:39 24.12.2019
5911 Clouds 23 1014 83 10000 2.6 190 00:20 24.12.2019
5912 Clouds 23 1014 78 10000 7.2 50 23:43 23.12.2019
5913 Clouds 23 1014 78 10000 7.2 50 23:24 23.12.2019
5914 Clouds 22 1014 78 10000 2.6 100 22:57 23.12.2019
5915 Clouds 22 1014 78 10000 2.1 240 22:38 23.12.2019
5916 Clouds 22 1014 78 10000 2.1 240 22:20 23.12.2019
5917 Clouds 21 1014 83 10000 0.5 170 21:57 23.12.2019
5918 Clouds 21 1014 83 10000 0.5 170 21:57 23.12.2019
5919 Clouds 21 1013 88 10000 1.21 42 21:37 23.12.2019
5920 Clouds 20 1013 88 10000 1.21 42 21:19 23.12.2019
5921 Clouds 20 1013 88 10000 1.21 42 20:59 23.12.2019
5922 Clouds 20 1013 88 10000 1.21 42 20:41 23.12.2019
5923 Clouds 20 1013 83 10000 1.16 57 20:19 23.12.2019
5924 Clouds 20 1013 88 10000 1.16 57 20:19 23.12.2019
5925 Rain 20 1013 83 10000 1.16 57 19:59 23.12.2019
5926 Rain 20 1013 88 10000 1.16 57 19:40 23.12.2019
5927 Rain 20 1013 88 10000 1.16 57 19:40 23.12.2019
5928 Rain 20 1013 88 10000 1.16 57 19:21 23.12.2019
5929 Rain 20 1013 88 10000 1.16 57 18:58 23.12.2019
5930 Rain 20 1013 83 10000 1.16 57 18:39 23.12.2019
5931 Rain 20 1014 82 10000 1.16 57 18:21 23.12.2019
5932 Rain 20 1014 82 10000 1.16 57 17:59 23.12.2019
5933 Clouds 20 1014 83 10000 1.16 57 17:40 23.12.2019
5934 Clouds 20 1014 83 10000 1.54 28 17:19 23.12.2019
5935 Clouds 20 1014 83 10000 1.5 130 17:19 23.12.2019
5936 Clouds 20 1014 83 10000 1.5 130 16:58 23.12.2019
5937 Clouds 20 1015 83 10000 1.54 28 16:40 23.12.2019
5938 Clouds 20 1015 83 10000 1.54 28 16:19 23.12.2019
5939 Clouds 20 1015 83 10000 1 290 15:58 23.12.2019
5940 Clouds 20 1015 83 10000 1.54 28 15:37 23.12.2019
5941 Clouds 20 1015 83 10000 1.54 28 15:19 23.12.2019
5942 Clouds 20 1015 83 10000 2.1 10 14:57 23.12.2019
5943 Clouds 20 1016 77 10000 3.1 10 14:39 23.12.2019
5944 Clouds 20 1016 77 10000 3.1 10 14:19 23.12.2019
5945 Clouds 20 1016 77 10000 3.1 10 14:19 23.12.2019
5946 Clouds 20 1016 77 10000 3.1 70 13:57 23.12.2019
5947 Clouds 20 1016 77 10000 3.6 80 13:39 23.12.2019
5948 Clouds 20 1016 77 10000 3.6 80 13:39 23.12.2019
5949 Clouds 20 1016 77 10000 3.6 80 13:20 23.12.2019
5950 Clouds 20 1016 77 10000 3.6 80 13:20 23.12.2019
5951 Clouds 20 1009 82 0 1.34 311 12:55 23.12.2019
5952 Clouds 20 1016 77 10000 3.6 60 12:37 23.12.2019
5953 Clouds 20 1016 77 10000 3.6 60 12:37 23.12.2019
5954 Clouds 21 1016 77 10000 3.6 60 12:18 23.12.2019
5955 Clouds 21 1016 77 10000 3.1 80 11:43 23.12.2019
5956 Clouds 21 1016 78 10000 3.1 30 11:25 23.12.2019
5957 Clouds 21 1016 78 10000 5.1 40 10:56 23.12.2019
5958 Clouds 21 1016 73 10000 5.7 50 10:38 23.12.2019
5959 Clouds 21 1016 73 10000 5.7 50 10:20 23.12.2019
5960 Clouds 21 1016 69 10000 6.7 50 09:58 23.12.2019
5961 Clouds 22 1016 68 10000 6.7 50 09:39 23.12.2019
5962 Clouds 22 1016 68 10000 6.7 50 09:20 23.12.2019
5963 Clouds 23 1015 60 10000 7.7 50 08:55 23.12.2019
5964 Clouds 23 1015 60 10000 7.2 40 08:37 23.12.2019
5965 Clouds 23 1015 56 10000 7.7 40 08:18 23.12.2019
5966 Clouds 24 1015 53 10000 7.7 50 07:43 23.12.2019
5967 Clouds 24 1015 53 10000 7.7 50 07:20 23.12.2019
5968 Clouds 24 1016 53 10000 7.7 60 06:51 23.12.2019
5969 Clouds 24 1016 56 10000 7.7 50 06:24 23.12.2019
5970 Clouds 24 1016 50 10000 6.7 60 05:49 23.12.2019
5971 Clouds 24 1017 47 10000 6.7 10 05:22 23.12.2019
5972 Clouds 23 1018 50 10000 6.7 50 04:20 23.12.2019
5973 Clouds 22 1019 68 10000 5.1 50 02:55 23.12.2019
5974 Clouds 22 1019 60 10000 3.6 170 02:28 23.12.2019
5975 Clouds 22 1020 68 10000 5.1 50 01:55 23.12.2019
5976 Clouds 22 1020 68 10000 5.1 50 01:36 23.12.2019
5977 Clouds 21 1020 68 10000 5.1 50 01:18 23.12.2019
5978 Clouds 21 1021 68 10000 2.6 210 00:35 23.12.2019
5979 Clouds 20 1021 68 10000 2.1 190 23:58 22.12.2019
5980 Clouds 19 1021 68 10000 2.1 210 23:39 22.12.2019
5981 Clouds 19 1021 72 10000 3.6 210 23:20 22.12.2019
5982 Clouds 18 1021 72 10000 3.6 210 22:58 22.12.2019
5983 Clouds 18 1020 68 10000 2.1 260 22:38 22.12.2019
5984 Clouds 18 1020 68 10000 2.1 280 22:19 22.12.2019
5985 Clouds 18 1020 68 10000 2.1 280 21:57 22.12.2019
5986 Clouds 17 1020 68 10000 0.5 290 21:39 22.12.2019
5987 Clouds 17 1020 68 10000 0.5 290 21:20 22.12.2019
5988 Clouds 17 1020 72 10000 2.6 260 20:56 22.12.2019
5989 Clouds 16 1020 72 10000 1.5 240 20:38 22.12.2019
5990 Clouds 16 1020 72 10000 1.5 240 20:18 22.12.2019
5991 Clouds 16 1020 77 10000 3.6 250 19:55 22.12.2019
5992 Clouds 16 1020 77 10000 3.6 210 19:37 22.12.2019
5993 Clouds 16 1020 77 10000 3.6 210 19:18 22.12.2019
5994 Clouds 16 1020 77 10000 3.6 220 18:40 22.12.2019
5995 Clouds 16 1020 77 10000 3.6 220 18:22 22.12.2019
5996 Clouds 16 1020 77 10000 5.1 210 17:55 22.12.2019
5997 Clouds 17 1020 82 10000 4.6 210 17:37 22.12.2019
5998 Clouds 17 1021 82 10000 4.6 210 17:18 22.12.2019
5999 Clouds 17 1021 82 10000 4.6 210 16:56 22.12.2019
6000 Clouds 17 1021 82 10000 5.7 200 16:37 22.12.2019
6001 Clouds 17 1021 82 10000 5.7 200 16:19 22.12.2019
6002 Clouds 17 1021 72 10000 2.6 220 15:56 22.12.2019
6003 Clouds 17 1022 72 10000 2.6 190 15:36 22.12.2019
6004 Clouds 17 1022 72 10000 2.6 190 15:36 22.12.2019
6005 Clouds 17 1022 72 10000 2.6 190 15:18 22.12.2019
6006 Rain 17 1022 72 10000 2.1 230 14:54 22.12.2019
6007 Rain 17 1023 72 10000 2.1 230 14:36 22.12.2019
6008 Rain 17 1023 72 10000 2.1 230 14:36 22.12.2019
6009 Rain 18 1022 72 10000 6.2 190 14:18 22.12.2019
6010 Clouds 18 1022 72 10000 6.7 190 13:55 22.12.2019
6011 Clouds 18 1023 77 10000 6.7 190 13:36 22.12.2019
6012 Clouds 18 1023 77 10000 6.7 190 13:18 22.12.2019
6013 Clouds 18 1023 77 10000 6.7 190 13:18 22.12.2019
6014 Clouds 18 1023 72 10000 3.1 190 12:54 22.12.2019
6015 Clouds 18 1023 72 10000 3.1 190 12:54 22.12.2019
6016 Clouds 18 1023 72 10000 3.1 190 12:54 22.12.2019
6017 Clouds 18 1023 72 10000 7.7 190 12:36 22.12.2019
6018 Clouds 18 1023 72 10000 7.7 190 12:18 22.12.2019
6019 Clouds 18 1022 72 10000 7.2 190 11:39 22.12.2019
6020 Clouds 18 1022 72 10000 7.2 190 11:20 22.12.2019
6021 Clouds 18 1022 72 10000 7.7 180 10:58 22.12.2019
6022 Clouds 18 1022 72 10000 7.7 180 10:40 22.12.2019
6023 Clouds 18 1022 72 10000 7.7 180 10:21 22.12.2019
6024 Clouds 19 1022 72 10000 7.7 180 09:59 22.12.2019
6025 Clouds 19 1022 72 10000 7.7 190 09:40 22.12.2019
6026 Clouds 19 1022 72 10000 7.7 190 09:21 22.12.2019
6027 Clouds 19 1022 68 10000 7.7 180 08:59 22.12.2019
6028 Clouds 20 1022 68 10000 7.7 190 08:38 22.12.2019
6029 Clouds 19 1022 68 10000 7.7 190 08:18 22.12.2019
6030 Clouds 20 1022 68 10000 7.7 190 08:18 22.12.2019
6031 Clouds 19 1021 72 10000 8.2 180 07:38 22.12.2019
6032 Clouds 20 1021 72 10000 8.2 180 07:20 22.12.2019
6033 Clouds 20 1021 68 10000 8.7 190 06:40 22.12.2019
6034 Clouds 21 1021 64 10000 8.7 180 05:54 22.12.2019
6035 Clouds 21 1020 46 10000 6.2 140 05:21 22.12.2019
6036 Clouds 22 1021 64 10000 9.3 170 04:29 22.12.2019
6037 Clouds 22 1021 64 10000 9.8 180 03:53 22.12.2019
6038 Rain 21 1021 64 10000 3.6 200 02:40 22.12.2019
6039 Rain 21 1021 64 10000 3.6 200 02:40 22.12.2019
6040 Clouds 20 1021 68 10000 9.3 180 01:47 22.12.2019
6041 Clouds 20 1021 68 10000 9.3 180 01:28 22.12.2019
6042 Clouds 20 1021 68 10000 9.3 180 00:47 22.12.2019
6043 Clouds 19 1021 68 10000 8.7 180 00:23 22.12.2019
6044 Clouds 19 1021 77 10000 9.3 170 23:57 21.12.2019
6045 Clouds 19 1021 72 10000 8.7 180 23:38 21.12.2019
6046 Clouds 19 1021 77 10000 8.7 170 23:19 21.12.2019
6047 Clouds 19 1020 77 10000 8.7 170 22:41 21.12.2019
6048 Clouds 19 1020 77 10000 8.7 170 22:20 21.12.2019
6049 Clouds 19 1020 77 10000 8.7 180 21:57 21.12.2019
6050 Clouds 18 1020 77 10000 8.7 170 21:38 21.12.2019
6051 Clouds 18 1020 77 10000 8.7 170 21:20 21.12.2019
6052 Clouds 18 1019 72 10000 8.7 180 20:59 21.12.2019
6053 Clouds 18 1019 68 10000 8.7 170 20:40 21.12.2019
6054 Clouds 18 1019 72 10000 9.8 180 20:22 21.12.2019
6055 Clouds 18 1019 72 10000 9.8 180 19:58 21.12.2019
6056 Clouds 18 1018 72 10000 9.8 180 19:40 21.12.2019
6057 Clouds 18 1018 72 10000 9.8 180 19:19 21.12.2019
6058 Clouds 19 1018 72 10000 10.3 170 18:56 21.12.2019
6059 Clouds 19 1018 68 10000 3.1 180 18:37 21.12.2019
6060 Clouds 19 1018 68 10000 3.1 180 18:19 21.12.2019
6061 Clouds 19 1018 72 10000 10.3 180 17:55 21.12.2019
6062 Clouds 19 1018 72 10000 10.3 180 17:55 21.12.2019
6063 Clouds 19 1018 72 10000 10.3 180 17:37 21.12.2019
6064 Clouds 19 1018 77 10000 10.3 180 17:18 21.12.2019
6065 Clouds 19 1018 72 10000 10.3 180 16:41 21.12.2019
6066 Clouds 19 1018 72 10000 10.8 180 16:19 21.12.2019
6067 Clouds 19 1018 72 10000 10.8 180 15:58 21.12.2019
6068 Clouds 20 1018 72 10000 10.3 180 15:39 21.12.2019
6069 Clouds 19 1010 68 0 2.24 117 15:20 21.12.2019
6070 Clouds 20 1018 73 10000 9.8 190 14:59 21.12.2019
6071 Clouds 20 1018 73 10000 11.3 180 14:40 21.12.2019
6072 Clouds 20 1018 73 10000 11.3 180 14:22 21.12.2019
6073 Clouds 20 1018 73 10000 9.8 190 13:57 21.12.2019
6074 Clouds 20 1018 77 10000 11.8 170 13:38 21.12.2019
6075 Clouds 21 1017 77 10000 11.8 180 13:18 21.12.2019
6076 Clouds 21 1017 77 10000 11.8 180 12:56 21.12.2019
6077 -273 0 0 0 0 0 12:37 21.12.2019
6078 Rain 21 1016 73 10000 11.8 170 12:19 21.12.2019
6079 Rain 21 1016 73 10000 12.9 180 11:45 21.12.2019
6080 Rain 21 1016 73 10000 12.9 180 11:26 21.12.2019
6081 Rain 21 1014 77 8000 13.9 180 10:57 21.12.2019
6082 Rain 21 1014 77 8000 14.9 180 10:39 21.12.2019
6083 Rain 22 1012 83 7000 15.4 180 10:21 21.12.2019
6084 Rain 22 1012 83 7000 15.4 180 09:56 21.12.2019
6085 Rain 22 1012 83 5000 15.4 180 09:38 21.12.2019
6086 Rain 23 1010 88 4000 17.5 190 09:19 21.12.2019
6087 Rain 24 1009 88 5000 16.5 190 08:46 21.12.2019
6088 Rain 26 1009 88 5000 16.5 190 08:26 21.12.2019
6089 Clouds 30 1007 54 6000 10.3 180 07:47 21.12.2019
6090 Clouds 33 1007 54 6000 10.3 180 07:23 21.12.2019
6091 Clouds 33 1007 54 6000 10.3 180 07:23 21.12.2019
6092 Clouds 35 1006 48 7000 9.3 20 06:46 21.12.2019
6093 Clouds 37 1006 48 7000 9.3 20 06:28 21.12.2019
6094 Smoke 38 1007 45 7000 15.4 180 05:55 21.12.2019
6095 Smoke 36 1008 46 8000 6.2 10 04:58 21.12.2019
6096 Clouds 37 1008 48 8000 7.7 50 04:19 21.12.2019
6097 Smoke 36 1009 48 8000 6.2 10 03:56 21.12.2019
6098 Clouds 33 1010 48 7000 4.6 40 02:19 21.12.2019
6099 Clouds 31 1011 54 8000 4.1 30 01:41 21.12.2019
6100 Clouds 31 1011 54 8000 4.1 30 01:23 21.12.2019
6101 Clouds 28 1013 57 8000 3.6 10 00:39 21.12.2019
6102 Smoke 26 1013 57 8000 6.2 10 00:19 21.12.2019
6103 Clouds 25 1013 61 7000 4.6 360 23:38 20.12.2019
6104 Clouds 24 1014 69 6000 5.1 10 23:19 20.12.2019
6105 Clouds 23 1014 69 6000 5.1 10 22:57 20.12.2019
6106 Clouds 22 1014 73 6000 4.6 360 22:36 20.12.2019
6107 Clouds 22 1014 73 6000 4.6 360 22:18 20.12.2019
6108 Clouds 21 1014 73 9000 5.7 360 21:41 20.12.2019
6109 Clouds 20 1014 73 9000 5.7 360 21:21 20.12.2019
6110 Clouds 19 1014 73 8000 7.7 20 20:57 20.12.2019
6111 Clouds 19 1015 78 9000 4.6 10 20:38 20.12.2019
6112 Clouds 19 1014 78 9000 5.7 10 20:18 20.12.2019
6113 Clouds 19 1014 78 10000 6.7 20 19:42 20.12.2019
6114 Clouds 19 1014 78 10000 6.7 20 19:21 20.12.2019
6115 Clouds 19 1014 78 10000 4.6 20 18:58 20.12.2019
6116 Clouds 19 1014 73 10000 5.1 30 18:39 20.12.2019
6117 Clouds 19 1015 78 10000 5.1 20 18:21 20.12.2019
6118 Clouds 19 1015 78 10000 5.1 20 17:56 20.12.2019
6119 Clouds 19 1015 78 10000 5.1 20 17:56 20.12.2019
6120 Clouds 19 1015 78 10000 5.1 20 17:38 20.12.2019
6121 Clouds 20 1015 78 10000 5.1 20 17:20 20.12.2019
6122 Clear 20 1015 78 10000 4.6 10 16:56 20.12.2019
6123 Clouds 20 1016 78 10000 3.6 10 16:37 20.12.2019
6124 Clouds 20 1016 78 10000 4.6 360 16:19 20.12.2019
6125 Clouds 20 1016 78 10000 4.6 360 15:54 20.12.2019
6126 Clouds 20 1016 73 10000 5.1 10 15:36 20.12.2019
6127 Clouds 20 1017 78 10000 5.1 10 15:18 20.12.2019
6128 Clouds 20 1017 88 10000 1.5 20 14:41 20.12.2019
6129 Clouds 20 1017 88 10000 1.5 20 14:41 20.12.2019
6130 Clouds 20 1017 88 10000 1.5 20 14:23 20.12.2019
6131 Clouds 20 1017 82 10000 2.1 10 13:56 20.12.2019
6132 Clouds 20 1017 82 10000 1.5 10 13:37 20.12.2019
6133 Clouds 20 1018 77 10000 2.6 50 13:18 20.12.2019
6134 Clouds 20 1018 77 10000 3.1 70 12:55 20.12.2019
6135 Clouds 21 1018 77 10000 3.1 70 12:36 20.12.2019
6136 Clouds 21 1017 77 10000 3.1 70 12:18 20.12.2019
6137 Clouds 21 1017 77 10000 3.1 70 11:57 20.12.2019
6138 Clouds 21 1018 69 10000 5.1 30 11:38 20.12.2019
6139 Clouds 21 1017 69 10000 6.2 40 11:18 20.12.2019
6140 Clouds 22 1017 69 10000 6.2 40 10:55 20.12.2019
6141 Clouds 22 1017 69 10000 5.7 40 10:37 20.12.2019
6142 Clouds 22 1017 69 10000 5.7 40 10:18 20.12.2019
6143 Clouds 23 1017 64 10000 8.2 60 09:42 20.12.2019
6144 Clouds 23 1017 64 10000 8.7 60 09:21 20.12.2019
6145 Clouds 23 1017 64 10000 8.7 60 08:54 20.12.2019
6146 Clouds 24 1017 64 10000 8.2 50 08:36 20.12.2019
6147 Clouds 24 1017 64 10000 7.7 60 08:18 20.12.2019
6148 Clouds 25 1017 61 10000 7.7 60 07:41 20.12.2019
6149 Clouds 25 1017 57 10000 7.7 60 07:23 20.12.2019
6150 Clouds 25 1017 57 10000 8.7 60 06:55 20.12.2019
6151 Clouds 26 1017 57 10000 8.7 60 06:36 20.12.2019
6152 Clear 26 1017 57 10000 7.2 60 06:18 20.12.2019
6153 Clear 26 1017 54 10000 6.7 70 05:45 20.12.2019
6154 Clouds 27 1018 54 10000 6.7 80 04:46 20.12.2019
6155 Clouds 27 1018 50 10000 4.6 80 03:48 20.12.2019
6156 Clouds 27 1019 57 10000 5.7 130 02:46 20.12.2019
6157 Clouds 26 1020 69 10000 4.6 170 01:59 20.12.2019
6158 Clear 26 1020 50 10000 3.1 70 01:35 20.12.2019
6159 Clouds 25 1020 69 10000 4.6 190 00:54 20.12.2019
6160 Clouds 25 1020 60 10000 2.6 40 00:35 20.12.2019
6161 Clouds 24 1020 68 10000 4.1 180 23:58 19.12.2019
6162 Clouds 23 1020 68 10000 4.1 170 23:39 19.12.2019
6163 Clouds 22 1020 73 10000 4.1 180 23:19 19.12.2019
6164 Clouds 22 1020 73 10000 4.1 180 23:19 19.12.2019
6165 Clouds 21 1020 82 10000 4.1 200 22:40 19.12.2019
6166 Clouds 20 1020 82 10000 4.1 200 22:22 19.12.2019
6167 Clouds 20 1020 82 10000 5.1 190 21:57 19.12.2019
6168 Clouds 20 1020 77 10000 5.1 180 21:38 19.12.2019
6169 Clouds 18 1019 82 10000 5.1 180 21:19 19.12.2019
6170 Clouds 18 1019 82 10000 5.1 180 20:57 19.12.2019
6171 Clouds 18 1019 77 10000 5.1 180 20:38 19.12.2019
6172 Clouds 18 1019 77 10000 5.1 180 20:20 19.12.2019
6173 Clouds 18 1019 82 10000 5.1 180 19:58 19.12.2019
6174 Clouds 18 1019 77 10000 5.7 170 19:39 19.12.2019
6175 Clouds 18 1019 77 10000 5.7 170 19:19 19.12.2019
6176 Clouds 18 1019 77 10000 5.7 170 19:19 19.12.2019
6177 Clouds 18 1019 82 10000 6.2 180 18:58 19.12.2019
6178 Clouds 18 1019 82 10000 5.1 200 18:40 19.12.2019
6179 Clouds 18 1019 82 10000 5.1 200 18:19 19.12.2019
6180 Clouds 18 1019 82 10000 7.7 180 17:56 19.12.2019
6181 Clouds 18 1019 82 10000 7.7 180 17:37 19.12.2019
6182 Clouds 18 1019 82 10000 7.7 180 17:18 19.12.2019
6183 Clouds 18 1019 82 10000 7.7 180 17:18 19.12.2019
6184 Clouds 18 1019 82 10000 8.2 190 16:56 19.12.2019
6185 Clouds 19 1019 88 10000 7.7 190 16:37 19.12.2019
6186 Clouds 19 1019 82 10000 5.1 210 16:19 19.12.2019
6187 Clouds 19 1019 82 10000 5.1 210 15:57 19.12.2019
6188 Clouds 19 1019 82 10000 5.1 210 15:57 19.12.2019
6189 Clear 19 1019 82 10000 6.2 190 15:37 19.12.2019
6190 Clear 19 1019 82 10000 6.2 190 15:37 19.12.2019
6191 Clear 19 1019 82 10000 6.2 190 15:19 19.12.2019
6192 Clear 19 1019 82 10000 6.2 190 15:19 19.12.2019
6193 Clouds 19 1019 77 10000 5.1 210 14:54 19.12.2019
6194 Clouds 20 1019 73 10000 5.1 210 14:36 19.12.2019
6195 Clouds 20 1019 77 10000 5.1 210 14:18 19.12.2019
6196 Clear 20 1019 77 10000 7.7 190 13:38 19.12.2019
6197 Clear 21 1019 77 10000 7.7 190 13:20 19.12.2019
6198 Clouds 21 1019 73 10000 4.1 210 12:58 19.12.2019
6199 Clear 21 1019 73 10000 6.2 190 12:40 19.12.2019
6200 Clear 21 1018 64 10000 5.1 200 12:19 19.12.2019
6201 Clear 21 1019 73 10000 6.2 190 12:19 19.12.2019
6202 Clear 21 1018 64 10000 5.1 200 12:19 19.12.2019
6203 Clear 21 1018 64 10000 5.1 200 11:59 19.12.2019
6204 Clear 22 1018 68 10000 5.7 200 11:40 19.12.2019
6205 Clouds 22 1017 73 10000 7.7 200 11:18 19.12.2019
6206 Clouds 22 1017 73 10000 7.7 200 10:58 19.12.2019
6207 Clear 23 1017 68 10000 9.3 190 10:38 19.12.2019
6208 Clouds 23 1016 68 10000 7.7 190 10:20 19.12.2019
6209 Clouds 24 1016 68 10000 7.7 190 09:56 19.12.2019
6210 Clouds 24 1015 64 10000 7.7 180 09:37 19.12.2019
6211 Clear 25 1015 60 10000 12.3 180 09:19 19.12.2019
6212 Clear 25 1015 60 10000 12.3 180 08:55 19.12.2019
6213 Clear 26 1015 60 10000 12.3 180 08:55 19.12.2019
6214 Clear 26 1014 57 10000 13.4 190 08:37 19.12.2019
6215 Clouds 26 1014 57 10000 11.8 190 08:18 19.12.2019
6216 Rain 26 1013 53 10000 12.9 190 07:43 19.12.2019
6217 Rain 27 1013 53 10000 12.9 190 07:24 19.12.2019
6218 Clouds 27 1013 53 10000 12.9 190 06:59 19.12.2019
6219 Clouds 28 1012 57 6000 13.4 180 06:41 19.12.2019
6220 Clouds 29 1012 57 6000 13.4 180 06:21 19.12.2019
6221 Clouds 38 1009 11 10000 3.6 30 05:42 19.12.2019
6222 Smoke 40 1010 14 3500 0.5 190 05:20 19.12.2019
6223 Smoke 40 1010 14 3500 2.08 135 03:54 19.12.2019
6224 Smoke 40 1011 19 4000 3.1 320 02:29 19.12.2019
6225 Smoke 35 1012 31 5000 3.6 320 01:26 19.12.2019
6226 Smoke 35 1012 31 5000 3.6 320 00:59 19.12.2019
6227 Smoke 32 1012 35 4000 3.6 310 00:39 19.12.2019
6228 Smoke 31 1012 35 4000 3.6 310 00:19 19.12.2019
6229 Smoke 28 1012 45 5000 4.1 310 23:45 18.12.2019
6230 Smoke 27 1012 45 5000 4.1 310 23:45 18.12.2019
6231 Smoke 25 1013 57 10000 6.2 280 23:19 18.12.2019
6232 Clear 23 1013 60 10000 4.1 310 22:58 18.12.2019
6233 Clear 23 1013 60 10000 4.1 310 22:40 18.12.2019
6234 Clear 23 1013 60 10000 4.1 310 22:22 18.12.2019
6235 Smoke 21 1013 68 10000 5.1 290 21:59 18.12.2019
6236 Clear 20 1013 73 10000 4.1 320 21:40 18.12.2019
6237 Clear 20 1013 73 10000 4.1 320 21:20 18.12.2019
6238 Smoke 19 1013 77 10000 5.1 320 20:57 18.12.2019
6239 Smoke 19 1013 77 10000 5.1 320 20:57 18.12.2019
6240 Clear 19 1013 73 10000 3.1 340 20:39 18.12.2019
6241 Clouds 17 1013 93 10000 1.56 292 20:20 18.12.2019
6242 Clouds 17 1013 93 10000 1.82 289 20:20 18.12.2019
6243 Clouds 18 1013 88 10000 1.56 292 19:57 18.12.2019
6244 Clouds 18 1013 88 10000 1.56 292 19:39 18.12.2019
6245 Clouds 18 1013 88 10000 1.56 292 19:19 18.12.2019
6246 Clouds 18 1013 88 10000 1.56 292 18:56 18.12.2019
6247 Clouds 18 1013 88 10000 1.56 292 18:38 18.12.2019
6248 Clouds 18 1013 82 10000 1.56 292 18:20 18.12.2019
6249 Clouds 18 1013 82 10000 1.56 292 17:55 18.12.2019
6250 Clouds 18 1013 82 10000 1.56 292 17:55 18.12.2019
6251 Clouds 18 1013 82 10000 1.56 292 17:37 18.12.2019
6252 Clear 19 1013 77 10000 0.9 293 17:19 18.12.2019
6253 Clouds 19 1014 77 10000 0.9 293 16:42 18.12.2019
6254 Clouds 19 1014 77 10000 0.9 293 16:24 18.12.2019
6255 Clear 20 1014 77 10000 0.9 293 15:59 18.12.2019
6256 Clear 20 1015 77 10000 2.6 50 15:39 18.12.2019
6257 Clear 20 1015 77 10000 2.6 50 15:21 18.12.2019
6258 Clear 20 1015 77 10000 1 50 14:58 18.12.2019
6259 Clear 20 1015 73 10000 0.9 293 14:40 18.12.2019
6260 Clear 20 1015 73 10000 1.79 25 14:19 18.12.2019
6261 Clouds 21 1015 64 10000 1.5 40 13:56 18.12.2019
6262 Clouds 20 1015 64 10000 1.5 40 13:56 18.12.2019
6263 Clouds 20 1015 64 10000 2.1 70 13:37 18.12.2019
6264 Clear 21 1016 64 10000 4.6 360 13:19 18.12.2019
6265 Clear 21 1016 64 10000 4.6 360 12:57 18.12.2019
6266 Clear 21 1016 64 10000 7.2 10 12:37 18.12.2019
6267 Clear 22 1016 64 10000 7.2 10 12:19 18.12.2019
6268 Clear 22 1016 64 10000 9.3 20 11:54 18.12.2019
6269 Clear 22 1016 64 10000 9.3 20 11:36 18.12.2019
6270 Clear 22 1015 64 10000 6.2 10 11:18 18.12.2019
6271 Clear 23 1015 60 10000 10.3 40 10:55 18.12.2019
6272 Clear 23 1015 60 10000 10.3 40 10:36 18.12.2019
6273 Clear 23 1015 60 10000 10.3 40 10:18 18.12.2019
6274 Clear 24 1015 60 10000 11.3 30 09:21 18.12.2019
6275 Clear 24 1015 60 10000 11.3 30 08:57 18.12.2019
6276 Clear 25 1015 61 10000 10.8 20 08:39 18.12.2019
6277 Clear 25 1015 61 10000 10.8 20 08:21 18.12.2019
6278 Clear 26 1015 50 10000 10.3 30 07:43 18.12.2019
6279 Clear 26 1015 50 10000 10.3 30 07:22 18.12.2019
6280 Clear 27 1015 47 10000 12.3 40 06:53 18.12.2019
6281 Clear 28 1016 44 10000 10.8 40 06:26 18.12.2019
6282 Clear 28 1016 47 10000 9.8 50 05:43 18.12.2019
6283 Clear 30 1017 44 10000 9.8 50 04:46 18.12.2019
6284 Clear 29 1018 44 10000 6.2 40 02:51 18.12.2019
6285 Clear 28 1019 47 10000 6.2 50 02:31 18.12.2019
6286 Smoke 28 1019 42 10000 7.7 50 01:57 18.12.2019
6287 Smoke 27 1019 36 10000 7.7 50 01:37 18.12.2019
6288 Smoke 27 1019 36 10000 7.7 50 01:19 18.12.2019
6289 Smoke 25 1020 44 10000 7.7 50 00:40 18.12.2019
6290 Smoke 24 1020 47 10000 7.7 50 00:21 18.12.2019
6291 Smoke 23 1020 47 10000 7.7 50 23:56 17.12.2019
6292 Clear 23 1020 53 10000 4.6 360 23:37 17.12.2019
6293 Clear 22 1020 56 10000 4.6 350 23:18 17.12.2019
6294 Clear 22 1020 56 10000 4.6 350 23:18 17.12.2019
6295 Clear 21 1020 56 10000 4.6 350 22:55 17.12.2019
6296 Clear 20 1020 64 10000 4.1 340 22:37 17.12.2019
6297 Clear 19 1020 64 10000 4.1 340 22:18 17.12.2019
6298 Clear 19 1020 64 10000 3.6 350 21:55 17.12.2019
6299 Clear 19 1020 64 10000 3.6 350 21:55 17.12.2019
6300 Clear 18 1020 68 10000 1.5 330 21:37 17.12.2019
6301 Clear 16 1020 93 10000 2.74 319 21:18 17.12.2019
6302 Clear 15 1020 93 10000 2.74 319 20:56 17.12.2019
6303 Clear 15 1020 93 10000 2.74 319 20:37 17.12.2019
6304 Clear 14 1020 100 10000 1.37 283 20:18 17.12.2019
6305 Clear 14 1020 100 10000 1.37 283 19:54 17.12.2019
6306 Clear 14 1020 100 10000 1.37 283 19:36 17.12.2019
6307 Clear 14 1020 100 10000 1.37 283 19:18 17.12.2019
6308 Clear 14 1019 93 10000 1.37 283 18:41 17.12.2019
6309 Clear 14 1019 93 10000 1.37 283 18:21 17.12.2019
6310 Clear 15 1019 93 10000 1.37 283 17:59 17.12.2019
6311 Clear 15 1020 93 10000 1.37 283 17:41 17.12.2019
6312 Clear 15 1020 93 10000 1.61 293 17:19 17.12.2019
6313 Clear 15 1020 93 10000 1.61 293 16:56 17.12.2019
6314 Clear 15 1020 87 10000 1.61 293 16:37 17.12.2019
6315 Clear 15 1020 87 10000 1.61 293 16:37 17.12.2019
6316 Clear 15 1020 87 10000 1.61 293 16:19 17.12.2019
6317 Clear 15 1021 87 10000 1.61 293 15:56 17.12.2019
6318 Clear 15 1021 82 10000 1.61 293 15:37 17.12.2019
6319 Clear 16 1021 82 10000 1.61 293 15:19 17.12.2019
6320 Clear 16 1021 82 10000 1.61 293 14:55 17.12.2019
6321 Clear 16 1021 82 10000 1.61 293 14:37 17.12.2019
6322 Clear 16 1021 82 10000 1.07 22 14:18 17.12.2019
6323 Clear 16 1021 82 10000 1.07 22 14:18 17.12.2019
6324 Clear 17 1021 72 10000 1.07 22 13:55 17.12.2019
6325 Clear 17 1021 72 10000 1.07 22 13:37 17.12.2019
6326 Clear 18 1021 68 10000 1.5 120 13:18 17.12.2019
6327 Clear 18 1021 68 10000 1.5 120 12:55 17.12.2019
6328 Clear 18 1021 68 10000 2.6 120 12:37 17.12.2019
6329 Clear 19 1021 64 10000 3.1 50 12:18 17.12.2019
6330 Clear 19 1021 60 10000 3.6 50 11:54 17.12.2019
6331 Clear 19 1021 60 10000 3.6 50 11:36 17.12.2019
6332 Clear 20 1021 60 10000 4.1 50 11:18 17.12.2019
6333 Clear 20 1021 60 10000 4.1 50 10:54 17.12.2019
6334 Clear 20 1020 60 10000 4.6 70 10:36 17.12.2019
6335 Clear 20 1020 60 10000 5.1 60 10:18 17.12.2019
6336 Clear 21 1020 56 10000 6.2 70 09:42 17.12.2019
6337 Clear 21 1020 56 10000 6.2 70 09:21 17.12.2019
6338 Clear 21 1020 56 10000 6.2 70 09:21 17.12.2019
6339 Clear 22 1019 53 10000 6.2 80 08:57 17.12.2019
6340 Clear 22 1019 53 10000 5.7 90 08:38 17.12.2019
6341 Clear 22 1019 53 10000 5.7 90 08:38 17.12.2019
6342 Clear 22 1019 53 10000 5.7 90 08:38 17.12.2019
6343 Clouds 22 1019 53 10000 6.2 80 08:20 17.12.2019
6344 Clouds 23 1019 53 10000 6.2 80 07:56 17.12.2019
6345 Clouds 23 1019 49 10000 6.2 90 07:38 17.12.2019
6346 Clouds 24 1019 49 10000 5.7 90 07:18 17.12.2019
6347 Clouds 24 1019 46 10000 5.7 90 06:35 17.12.2019
6348 Clouds 25 1019 43 10000 5.7 90 05:57 17.12.2019
6349 Clouds 25 1019 41 10000 5.7 110 05:38 17.12.2019
6350 Clouds 25 1019 43 10000 5.1 90 04:46 17.12.2019
6351 Clouds 25 1020 49 10000 5.1 130 02:47 17.12.2019
6352 Clear 24 1020 53 10000 5.1 130 01:56 17.12.2019
6353 Clouds 24 1020 53 10000 4.1 130 01:20 17.12.2019
6354 Clouds 23 1020 53 10000 3.6 130 00:38 17.12.2019
6355 Clouds 23 1020 53 10000 3.6 130 00:20 17.12.2019
6356 Clouds 22 1020 64 10000 4.1 170 23:43 16.12.2019
6357 Clouds 21 1020 64 10000 4.1 170 23:19 16.12.2019
6358 Clouds 20 1020 64 10000 3.6 190 22:58 16.12.2019
6359 Clouds 20 1020 64 10000 3.1 190 22:38 16.12.2019
6360 Clouds 19 1019 68 10000 2.6 220 22:20 16.12.2019
6361 Clouds 19 1019 68 10000 2.6 220 21:57 16.12.2019
6362 Clouds 18 1019 77 10000 3.1 230 21:38 16.12.2019
6363 Clouds 17 1019 77 10000 3.1 230 21:20 16.12.2019
6364 Clear 15 1019 87 10000 1.18 182 20:58 16.12.2019
6365 Clouds 15 1019 77 10000 3.6 230 20:39 16.12.2019
6366 Clouds 15 1019 77 10000 3.6 230 20:39 16.12.2019
6367 Clouds 14 1019 93 10000 1.84 219 20:19 16.12.2019
6368 Clouds 14 1018 77 10000 3.6 210 19:56 16.12.2019
6369 Clouds 14 1018 77 10000 4.1 200 19:37 16.12.2019
6370 Clouds 14 1018 77 10000 4.1 200 19:19 16.12.2019
6371 Clouds 14 1018 77 10000 4.1 200 19:19 16.12.2019
6372 Clouds 15 1018 72 10000 4.1 200 18:59 16.12.2019
6373 Clouds 15 1018 72 10000 4.1 210 18:40 16.12.2019
6374 Clouds 15 1017 72 10000 4.1 230 18:20 16.12.2019
6375 Clouds 15 1017 72 10000 4.1 230 17:58 16.12.2019
6376 Clouds 15 1018 72 10000 3.6 210 17:39 16.12.2019
6377 Clouds 16 1018 72 10000 4.1 210 17:21 16.12.2019
6378 Clouds 16 1018 72 10000 4.1 210 16:57 16.12.2019
6379 Clouds 16 1018 72 10000 4.1 200 16:39 16.12.2019
6380 Clouds 16 1018 72 10000 4.1 200 16:39 16.12.2019
6381 Clouds 16 1018 72 10000 2.1 170 16:20 16.12.2019
6382 Clouds 17 1018 72 10000 4.6 200 15:59 16.12.2019
6383 Clouds 17 1018 72 10000 4.6 200 15:59 16.12.2019
6384 Clouds 17 1018 68 10000 4.6 200 15:39 16.12.2019
6385 Clouds 17 1018 68 10000 4.6 200 15:20 16.12.2019
6386 Clouds 18 1019 68 10000 4.1 170 14:57 16.12.2019
6387 Clouds 18 1019 68 10000 5.1 170 14:37 16.12.2019
6388 Clouds 18 1019 68 10000 5.1 170 14:19 16.12.2019
6389 Clouds 18 1019 68 10000 4.6 170 13:56 16.12.2019
6390 Clouds 19 1019 68 10000 5.1 170 13:38 16.12.2019
6391 Clouds 19 1019 68 10000 4.6 170 13:19 16.12.2019
6392 Clouds 19 1019 68 10000 4.6 170 13:19 16.12.2019
6393 Clouds 19 1019 68 10000 4.6 170 12:58 16.12.2019
6394 Rain 19 1018 72 10000 5.7 160 12:39 16.12.2019
6395 Rain 19 1018 72 10000 5.1 160 12:19 16.12.2019
6396 Rain 19 1018 72 10000 5.1 160 11:58 16.12.2019
6397 Clouds 19 1018 68 10000 5.7 160 11:40 16.12.2019
6398 Clouds 19 1018 68 10000 5.7 160 11:20 16.12.2019
6399 Clouds 19 1018 68 10000 6.2 150 10:57 16.12.2019
6400 Clouds 19 1017 72 10000 5.7 170 10:39 16.12.2019
6401 Clouds 20 1017 72 10000 5.7 170 10:19 16.12.2019
6402 Clouds 20 1016 68 10000 7.7 170 09:45 16.12.2019
6403 Clouds 20 1016 68 10000 7.7 170 09:27 16.12.2019
6404 Clouds 20 1016 68 10000 7.7 170 09:27 16.12.2019
6405 Clouds 20 1016 72 10000 7.7 160 08:56 16.12.2019
6406 Clouds 20 1015 64 10000 8.2 160 08:37 16.12.2019
6407 Clouds 21 1015 64 10000 8.2 160 08:18 16.12.2019
6408 Clouds 21 1014 60 10000 8.7 160 07:44 16.12.2019
6409 Clouds 21 1014 60 10000 8.7 160 07:22 16.12.2019
6410 Clouds 22 1014 56 10000 9.3 160 06:45 16.12.2019
6411 Clouds 22 1014 56 10000 9.3 160 06:25 16.12.2019
6412 Clouds 22 1014 56 10000 9.3 160 05:52 16.12.2019
6413 Clouds 22 1014 64 10000 9.3 170 05:33 16.12.2019
6414 Clouds 22 1013 64 10000 10.3 170 04:22 16.12.2019
6415 Clouds 23 1013 64 10000 9.3 170 02:31 16.12.2019
6416 Clouds 23 1013 68 10000 9.8 170 01:45 16.12.2019
6417 Clouds 23 1013 68 10000 9.8 170 01:45 16.12.2019
6418 Clouds 23 1012 68 10000 9.3 170 00:43 16.12.2019
6419 Clouds 22 1012 68 10000 9.8 170 00:25 16.12.2019
6420 Clouds 22 1012 68 10000 9.8 170 23:59 15.12.2019
6421 Clouds 22 1011 72 10000 9.8 170 23:59 15.12.2019
6422 Clouds 22 1011 72 10000 9.8 170 23:39 15.12.2019
6423 Clouds 21 1011 72 10000 9.8 170 23:20 15.12.2019
6424 Clouds 21 1011 72 10000 9.8 170 22:56 15.12.2019
6425 Clouds 21 1011 72 10000 9.8 170 22:56 15.12.2019
6426 Clouds 21 1011 72 10000 9.8 170 22:56 15.12.2019
6427 Clouds 21 1010 77 10000 10.8 170 22:37 15.12.2019
6428 Clouds 21 1010 77 10000 10.8 170 22:37 15.12.2019
6429 Clouds 20 1010 77 10000 10.8 170 22:18 15.12.2019
6430 Clouds 20 1010 77 10000 10.8 170 21:56 15.12.2019
6431 Clouds 20 1009 82 10000 9.3 180 21:38 15.12.2019
6432 Clouds 19 1009 82 10000 9.3 180 21:19 15.12.2019
6433 Clouds 19 1009 82 10000 9.3 180 20:56 15.12.2019
6434 Clouds 19 1009 82 10000 9.3 180 20:56 15.12.2019
6435 Clouds 19 1008 82 10000 9.3 180 20:37 15.12.2019
6436 Clouds 19 1008 82 9000 11.8 180 20:19 15.12.2019
6437 Clouds 19 1008 82 9000 11.8 180 19:57 15.12.2019
6438 Clouds 19 1007 88 9000 11.8 180 19:39 15.12.2019
6439 Clouds 19 1007 88 9000 11.8 180 19:18 15.12.2019
6440 Clouds 20 1007 88 7000 12.9 190 18:56 15.12.2019
6441 Clouds 20 1006 88 7000 12.9 190 18:38 15.12.2019
6442 Smoke 20 1006 88 5000 13.9 190 18:18 15.12.2019
6443 Clouds 21 1006 88 8000 9.3 180 17:56 15.12.2019
6444 Clouds 21 1006 88 8000 9.3 180 17:37 15.12.2019
6445 Haze 21 1006 83 10000 10.3 180 17:18 15.12.2019
6446 Haze 22 1006 83 10000 10.3 180 16:56 15.12.2019
6447 Haze 22 1005 83 10000 10.3 180 16:38 15.12.2019
6448 Haze 22 1005 83 10000 10.3 180 16:20 15.12.2019
6449 Haze 22 1005 83 10000 10.3 180 15:55 15.12.2019
6450 Haze 22 1005 83 10000 10.3 180 15:55 15.12.2019
6451 Haze 22 1006 83 10000 10.3 180 15:36 15.12.2019
6452 Haze 22 1006 83 10000 10.3 180 15:18 15.12.2019
6453 Haze 22 1006 83 10000 10.3 180 14:55 15.12.2019
6454 Haze 22 1006 83 10000 10.3 180 14:36 15.12.2019
6455 Haze 22 1006 83 10000 10.3 180 14:18 15.12.2019
6456 Haze 22 1006 83 10000 10.3 180 14:18 15.12.2019
6457 Haze 22 1006 78 10000 10.3 180 13:55 15.12.2019
6458 Haze 22 1006 78 10000 10.3 180 13:36 15.12.2019
6459 Clouds 23 1006 69 10000 0.5 30 13:18 15.12.2019
6460 Clouds 23 1006 69 10000 0.5 30 12:55 15.12.2019
6461 Clouds 23 1006 73 10000 0.5 300 12:37 15.12.2019
6462 Clouds 23 1006 73 10000 0.5 300 12:37 15.12.2019
6463 Clouds 23 1006 73 10000 0.5 300 12:19 15.12.2019
6464 Clouds 23 1005 78 10000 5.7 20 11:38 15.12.2019
6465 Smoke 24 1005 73 10000 5.1 10 11:20 15.12.2019
6466 Smoke 24 1005 73 10000 5.1 10 10:58 15.12.2019
6467 Smoke 24 1004 73 10000 5.1 10 10:40 15.12.2019
6468 Smoke 24 1004 73 10000 5.1 10 10:20 15.12.2019
6469 Smoke 24 1004 73 10000 5.1 10 09:59 15.12.2019
6470 Clouds 24 1004 73 10000 9.3 30 09:38 15.12.2019
6471 Clouds 24 1004 73 10000 9.3 30 09:20 15.12.2019
6472 Smoke 24 1005 69 10000 5.1 10 08:55 15.12.2019
6473 Clouds 26 1004 69 10000 7.7 30 08:37 15.12.2019
6474 Smoke 26 1004 65 10000 5.1 10 08:19 15.12.2019
6475 Smoke 26 1004 65 10000 5.1 10 07:53 15.12.2019
6476 Clouds 27 1004 65 10000 8.7 30 07:31 15.12.2019
6477 Clouds 27 1005 65 10000 9.3 50 06:30 15.12.2019
6478 Clouds 28 1005 57 10000 8.7 30 05:50 15.12.2019
6479 Clouds 29 1005 57 10000 8.7 40 05:23 15.12.2019
6480 Clouds 30 1006 57 10000 8.7 50 04:24 15.12.2019
6481 Clouds 30 1007 57 10000 7.2 50 03:22 15.12.2019
6482 Clouds 29 1008 54 10000 7.7 40 02:32 15.12.2019
6483 Clouds 28 1009 51 10000 3.6 360 01:43 15.12.2019
6484 Clouds 27 1009 51 10000 3.6 360 01:20 15.12.2019
6485 Clouds 26 1010 61 10000 3.6 360 00:53 15.12.2019
6486 Clouds 25 1010 61 10000 3.6 360 00:34 15.12.2019
6487 Clouds 24 1010 69 10000 3.6 330 23:58 14.12.2019
6488 Clouds 23 1010 69 10000 3.6 330 23:38 14.12.2019
6489 Clouds 23 1011 73 10000 2.6 340 23:18 14.12.2019
6490 Clouds 22 1011 73 10000 2.6 340 22:56 14.12.2019
6491 Clouds 22 1011 78 10000 2.6 320 22:37 14.12.2019
6492 Clouds 21 1011 78 10000 1.05 51 22:19 14.12.2019
6493 Clouds 21 1011 83 10000 0.5 360 21:55 14.12.2019
6494 Clouds 20 1011 83 10000 0.5 360 21:37 14.12.2019
6495 Clouds 20 1011 93 10000 1.05 51 21:18 14.12.2019
6496 Clouds 19 1011 93 10000 1.05 51 20:54 14.12.2019
6497 Clouds 19 1011 88 10000 1 180 20:36 14.12.2019
6498 Clouds 19 1011 93 10000 1.5 240 20:18 14.12.2019
6499 Rain 19 1011 88 10000 2.1 250 19:40 14.12.2019
6500 Rain 19 1011 88 10000 2.1 250 19:21 14.12.2019
6501 Rain 19 1010 82 10000 4.1 90 18:57 14.12.2019
6502 Rain 20 1011 77 10000 4.1 100 18:39 14.12.2019
6503 Rain 20 1011 77 10000 4.1 110 18:21 14.12.2019
6504 Rain 20 1011 77 10000 4.1 110 17:59 14.12.2019
6505 Clouds 20 1011 77 10000 4.6 110 17:41 14.12.2019
6506 Clouds 20 1011 77 10000 4.6 110 17:22 14.12.2019
6507 Clouds 20 1012 77 10000 4.6 120 16:41 14.12.2019
6508 Clouds 20 1012 77 10000 4.6 120 16:19 14.12.2019
6509 Clouds 20 1012 77 10000 4.6 110 15:57 14.12.2019
6510 Clouds 20 1012 77 10000 4.6 120 15:38 14.12.2019
6511 Clouds 20 1012 77 10000 4.6 120 15:38 14.12.2019
6512 Clouds 20 1012 77 10000 4.6 120 15:19 14.12.2019
6513 Clouds 20 1012 77 10000 6.2 130 14:57 14.12.2019
6514 Clouds 20 1013 77 10000 5.7 140 14:38 14.12.2019
6515 Clouds 20 1013 77 10000 7.2 140 14:19 14.12.2019
6516 Clouds 20 1013 77 10000 7.7 140 13:44 14.12.2019
6517 Clouds 20 1013 77 10000 7.7 140 13:20 14.12.2019
6518 Clouds 21 1013 83 10000 7.2 140 12:58 14.12.2019
6519 Clouds 21 1013 83 10000 7.2 140 12:58 14.12.2019
6520 Drizzle 21 1012 83 10000 7.2 140 12:40 14.12.2019
6521 Drizzle 21 1012 83 10000 8.2 150 12:21 14.12.2019
6522 Drizzle 21 1012 83 10000 8.2 150 11:58 14.12.2019
6523 Clouds 21 1012 83 10000 6.7 150 11:39 14.12.2019
6524 Clouds 21 1011 83 10000 6.7 150 11:19 14.12.2019
6525 Clouds 21 1011 83 10000 6.7 150 10:57 14.12.2019
6526 Clouds 22 1011 78 10000 5.7 140 10:39 14.12.2019
6527 Clouds 22 1011 78 10000 5.7 140 10:20 14.12.2019
6528 Clouds 22 1010 78 10000 6.2 140 09:57 14.12.2019
6529 Clouds 22 1010 78 10000 7.2 140 09:38 14.12.2019
6530 Clouds 22 1010 78 10000 7.2 140 09:18 14.12.2019
6531 Clouds 23 1009 73 10000 5.1 100 08:43 14.12.2019
6532 Clouds 23 1008 73 10000 5.1 100 08:19 14.12.2019
6533 Clouds 24 1008 69 10000 6.7 90 07:44 14.12.2019
6534 Clouds 24 1008 69 10000 5.1 100 07:23 14.12.2019
6535 Clouds 24 1008 69 10000 5.1 100 06:57 14.12.2019
6536 Clouds 25 1008 60 10000 7.2 90 06:37 14.12.2019
6537 Clouds 25 1008 64 10000 8.2 80 06:18 14.12.2019
6538 Clear 28 1008 61 10000 8.7 80 04:48 14.12.2019
6539 Clouds 28 1010 54 10000 5.1 120 02:41 14.12.2019
6540 Clouds 27 1010 60 10000 5.1 120 02:19 14.12.2019
6541 Clouds 26 1010 61 10000 5.1 140 01:37 14.12.2019
6542 Clouds 25 1011 57 6000 1.5 10 00:50 14.12.2019
6543 Clouds 25 1011 57 6000 1.5 10 00:29 14.12.2019
6544 Clouds 24 1011 73 10000 2.1 180 00:29 14.12.2019
6545 Clouds 24 1011 73 10000 1.5 110 23:57 13.12.2019
6546 Clouds 23 1011 77 10000 2.1 170 23:38 13.12.2019
6547 Clouds 22 1011 68 10000 1.5 322 23:19 13.12.2019
6548 Clouds 22 1012 77 10000 2.1 180 22:55 13.12.2019
6549 Clouds 21 1012 77 10000 2.6 200 22:36 13.12.2019
6550 Clouds 21 1012 77 10000 2.6 200 22:18 13.12.2019
6551 Clouds 19 1011 88 10000 2.6 210 21:39 13.12.2019
6552 Clouds 19 1011 88 10000 2.6 210 21:21 13.12.2019
6553 Clouds 18 1011 82 10000 3.6 200 20:54 13.12.2019
6554 Clouds 18 1011 88 10000 2.1 200 20:36 13.12.2019
6555 Clouds 17 1011 88 10000 2.1 200 20:18 13.12.2019
6556 Clouds 17 1011 88 10000 2.1 200 19:56 13.12.2019
6557 Clouds 17 1011 72 10000 2.1 240 19:36 13.12.2019
6558 Clouds 17 1011 72 10000 2.1 240 19:18 13.12.2019
6559 Clouds 17 1011 77 10000 1.11 294 18:41 13.12.2019
6560 Clouds 18 1011 77 10000 1.11 294 18:19 13.12.2019
6561 Clouds 18 1011 72 10000 1.11 294 17:58 13.12.2019
6562 Clouds 18 1009 84 0 1.11 294 17:39 13.12.2019
6563 Clouds 18 1012 72 10000 1.69 329 17:18 13.12.2019
6564 Clouds 18 1012 72 10000 1.69 329 17:18 13.12.2019
6565 Clouds 19 1012 72 10000 1.69 329 16:55 13.12.2019
6566 Clouds 19 1012 72 10000 1.69 329 16:36 13.12.2019
6567 Clouds 19 1012 72 10000 1.69 329 16:18 13.12.2019
6568 Clouds 19 1013 72 10000 1.69 329 15:41 13.12.2019
6569 Clouds 19 1013 72 10000 1.69 329 15:21 13.12.2019
6570 Clouds 19 1013 68 10000 1.5 140 14:56 13.12.2019
6571 Clouds 19 1013 72 10000 1.69 329 14:36 13.12.2019
6572 Clouds 20 1013 68 10000 1.74 23 14:18 13.12.2019
6573 Clouds 20 1013 68 10000 1.74 23 13:43 13.12.2019
6574 Clouds 20 1013 68 10000 0.5 20 13:24 13.12.2019
6575 Clouds 20 1013 68 10000 0.5 20 12:55 13.12.2019
6576 Clouds 20 1013 68 10000 2.1 30 12:37 13.12.2019
6577 Clouds 20 1013 73 10000 3.6 90 12:18 13.12.2019
6578 Clouds 20 1013 73 10000 4.1 90 11:43 13.12.2019
6579 Clouds 20 1013 73 10000 4.1 90 11:25 13.12.2019
6580 Clouds 20 1012 68 10000 4.6 80 10:56 13.12.2019
6581 Clouds 20 1012 68 10000 5.1 80 10:38 13.12.2019
6582 Clouds 20 1012 68 10000 5.7 90 10:20 13.12.2019
6583 Clouds 20 1012 68 10000 5.7 90 09:42 13.12.2019
6584 Clouds 20 1012 68 10000 5.7 90 09:21 13.12.2019
6585 Clouds 21 1012 64 10000 6.7 100 08:45 13.12.2019
6586 Clouds 21 1012 64 10000 6.7 100 08:27 13.12.2019
6587 Clouds 22 1012 60 10000 6.2 100 07:50 13.12.2019
6588 Clouds 22 1012 60 10000 6.7 100 07:26 13.12.2019
6589 Clouds 22 1012 60 10000 6.7 100 06:57 13.12.2019
6590 Clouds 22 1012 60 10000 6.7 100 06:32 13.12.2019
6591 Clouds 22 1013 60 10000 7.7 100 05:52 13.12.2019
6592 Clouds 23 1013 56 10000 7.7 120 05:33 13.12.2019
6593 Clouds 23 1013 56 10000 7.7 110 04:54 13.12.2019
6594 Clouds 23 1014 56 10000 6.7 120 03:55 13.12.2019
6595 Clouds 23 1014 60 10000 5.1 140 02:35 13.12.2019
6596 Clouds 22 1015 60 10000 4.1 150 01:54 13.12.2019
6597 Clouds 22 1015 60 10000 3.6 120 01:34 13.12.2019
6598 Clouds 21 1015 64 10000 3.6 160 00:50 13.12.2019
6599 Rain 20 1015 72 10000 4.1 160 00:28 13.12.2019
6600 Clouds 20 1016 64 10000 3.6 150 23:43 12.12.2019
6601 Clouds 20 1016 64 10000 3.6 150 23:25 12.12.2019
6602 Rain 19 1015 68 10000 3.1 90 22:57 12.12.2019
6603 Rain 19 1015 68 10000 3.1 90 22:39 12.12.2019
6604 Rain 19 1015 68 10000 3.1 90 22:39 12.12.2019
6605 Rain 18 1015 68 10000 3.1 90 22:21 12.12.2019
6606 Rain 18 1015 68 10000 3.1 100 22:21 12.12.2019
6607 Rain 18 1015 68 10000 3.1 100 21:56 12.12.2019
6608 Drizzle 17 1015 68 10000 3.6 120 21:37 12.12.2019
6609 Drizzle 17 1015 68 10000 3.6 120 21:19 12.12.2019
6610 Clouds 17 1014 68 10000 4.1 100 20:59 12.12.2019
6611 Rain 17 1015 88 10000 1.69 120 20:40 12.12.2019
6612 Rain 16 1014 87 10000 1.72 159 20:22 12.12.2019
6613 Rain 16 1014 87 10000 1.72 159 19:56 12.12.2019
6614 Rain 17 1014 93 10000 1.72 159 19:37 12.12.2019
6615 Rain 17 1014 93 10000 2.1 240 19:18 12.12.2019
6616 Rain 17 1015 93 10000 2.1 250 18:56 12.12.2019
6617 Rain 17 1015 93 10000 2.1 250 18:38 12.12.2019
6618 Rain 17 1015 93 10000 2.1 250 18:19 12.12.2019
6619 Rain 17 1015 93 10000 2.6 260 17:57 12.12.2019
6620 Rain 17 1015 93 10000 2.6 270 17:38 12.12.2019
6621 Clouds 17 1015 59 10000 3.1 130 17:19 12.12.2019
6622 Clouds 17 1015 59 10000 3.1 130 16:55 12.12.2019
6623 Clouds 17 1016 63 10000 3.1 130 16:37 12.12.2019
6624 Clouds 17 1016 63 10000 3.1 130 16:18 12.12.2019
6625 Clouds 17 1016 100 10000 2.1 210 15:54 12.12.2019
6626 Clouds 17 1016 100 10000 2.1 210 15:36 12.12.2019
6627 Clouds 17 1016 100 10000 2.1 210 15:18 12.12.2019
6628 Clouds 17 1016 63 10000 4.1 120 14:38 12.12.2019
6629 Rain 17 1017 63 10000 3.6 150 14:19 12.12.2019
6630 Rain 17 1017 63 10000 3.6 150 13:57 12.12.2019
6631 Drizzle 18 1017 72 10000 6.7 190 13:38 12.12.2019
6632 Clouds 18 1017 72 10000 3.1 130 13:20 12.12.2019
6633 Clouds 18 1017 64 10000 5.1 150 12:57 12.12.2019
6634 Clouds 19 1016 72 10000 6.7 150 12:38 12.12.2019
6635 Clouds 19 1016 72 10000 6.7 150 12:38 12.12.2019
6636 Clouds 19 1016 64 10000 4.1 140 12:19 12.12.2019
6637 Clouds 19 1016 64 10000 4.1 140 11:55 12.12.2019
6638 Clouds 19 1016 64 10000 4.1 140 11:55 12.12.2019
6639 Clouds 19 1016 64 10000 5.7 140 11:37 12.12.2019
6640 Clouds 19 1015 64 10000 5.1 130 11:19 12.12.2019
6641 Clouds 19 1015 64 10000 5.1 130 10:54 12.12.2019
6642 Clouds 19 1015 64 10000 5.1 140 10:36 12.12.2019
6643 Clouds 19 1015 64 10000 4.6 130 10:18 12.12.2019
6644 Clouds 19 1015 64 10000 4.6 130 10:18 12.12.2019
6645 Clouds 19 1014 64 10000 5.1 140 09:41 12.12.2019
6646 Clouds 19 1014 64 10000 5.1 140 09:23 12.12.2019
6647 Clouds 20 1013 64 10000 6.2 130 08:56 12.12.2019
6648 Clouds 20 1013 64 10000 6.2 130 08:38 12.12.2019
6649 Clouds 20 1013 64 10000 6.2 130 08:20 12.12.2019
6650 Clouds 20 1012 60 10000 7.2 130 07:43 12.12.2019
6651 Clouds 20 1012 60 10000 7.2 130 07:24 12.12.2019
6652 Clouds 21 1012 64 10000 7.2 140 06:50 12.12.2019
6653 Clouds 21 1012 64 10000 7.2 140 06:32 12.12.2019
6654 Clouds 21 1013 64 10000 6.7 130 05:39 12.12.2019
6655 Clouds 22 1013 60 10000 7.2 130 04:52 12.12.2019
6656 Clouds 22 1013 60 10000 7.2 130 04:52 12.12.2019
6657 Clouds 23 1013 60 10000 7.7 120 03:31 12.12.2019
6658 Clouds 22 1014 68 10000 6.7 170 02:38 12.12.2019
6659 Clouds 22 1014 68 10000 6.7 170 02:20 12.12.2019
6660 Smoke 22 1014 68 10000 7.2 160 01:40 12.12.2019
6661 Smoke 22 1014 68 10000 7.2 160 01:22 12.12.2019
6662 Clouds 21 1014 68 10000 5.1 180 00:46 12.12.2019
6663 Clouds 21 1014 68 10000 5.1 180 00:20 12.12.2019
6664 Clouds 20 1014 77 10000 5.7 190 23:44 11.12.2019
6665 Clouds 20 1014 77 10000 5.7 190 23:21 11.12.2019
6666 Clouds 19 1014 77 10000 5.7 190 22:57 11.12.2019
6667 Clouds 19 1014 77 10000 5.1 190 22:39 11.12.2019
6668 Clouds 19 1014 77 10000 5.7 200 22:20 11.12.2019
6669 Clouds 19 1014